<?xml version="1.0" encoding="UTF-8"?>
<gpx version="1.1" creator="https://www.youtrack.es" xsi:schemaLocation="http://www.topografix.com/GPX/1/1 http://www.topografix.com/GPX/1/1/gpx.xsd http://www.garmin.com/xmlschemas/GpxExtensions/v3 http://www.garmin.com/xmlschemas/GpxExtensionsv3.xsd http://www.garmin.com/xmlschemas/TrackPointExtension/v1 http://www.garmin.com/xmlschemas/TrackPointExtensionv1.xsd" xmlns:gpxtpx="http://www.garmin.com/xmlschemas/TrackPointExtension/v1" xmlns:gpxx="http://www.garmin.com/xmlschemas/GpxExtensions/v3" xmlns:xsi="http://www.w3.org/2001/XMLSchema-instance">
  <metadata>
    <link href="https://www.youtrack.es">
      <text>YouTrack.es</text>
    </link>
    <time>2026-05-08T14:48:41Z</time>
  </metadata>
  <trk>
    <src>https://www.youtrack.es</src>
    <link href="https://www.youtrack.es/ruta/28434-transgalicia">
      <text>YouTrack.es</text>
    </link>
    <trkseg>
      <trkpt lat="41.763779" lon="-8.189627">
        <ele>638.77</ele>
        <time>2013-06-08T08:17:29Z</time>
      </trkpt>
      <trkpt lat="41.763750" lon="-8.189649">
        <ele>638.63</ele>
        <time>2013-06-08T08:17:55Z</time>
      </trkpt>
      <trkpt lat="41.763781" lon="-8.189561">
        <ele>638.12</ele>
        <time>2013-06-08T08:18:23Z</time>
      </trkpt>
      <trkpt lat="41.763024" lon="-8.190390">
        <ele>633.51</ele>
        <time>2013-06-08T08:41:46Z</time>
      </trkpt>
      <trkpt lat="41.762988" lon="-8.190282">
        <ele>632.45</ele>
        <time>2013-06-08T08:42:18Z</time>
      </trkpt>
      <trkpt lat="41.762985" lon="-8.190349">
        <ele>632.77</ele>
        <time>2013-06-08T08:42:33Z</time>
      </trkpt>
      <trkpt lat="41.762979" lon="-8.190400">
        <ele>632.97</ele>
        <time>2013-06-08T08:42:58Z</time>
      </trkpt>
      <trkpt lat="41.763023" lon="-8.190389">
        <ele>633.54</ele>
        <time>2013-06-08T08:43:24Z</time>
      </trkpt>
      <trkpt lat="41.763005" lon="-8.190409">
        <ele>633.36</ele>
        <time>2013-06-08T08:43:49Z</time>
      </trkpt>
      <trkpt lat="41.763019" lon="-8.190430">
        <ele>633.88</ele>
        <time>2013-06-08T08:44:19Z</time>
      </trkpt>
      <trkpt lat="41.763017" lon="-8.190442">
        <ele>634.02</ele>
        <time>2013-06-08T08:44:51Z</time>
      </trkpt>
      <trkpt lat="41.763002" lon="-8.190460">
        <ele>634.05</ele>
        <time>2013-06-08T08:45:19Z</time>
      </trkpt>
      <trkpt lat="41.763001" lon="-8.190459">
        <ele>634.00</ele>
        <time>2013-06-08T08:45:50Z</time>
      </trkpt>
      <trkpt lat="41.762997" lon="-8.190468">
        <ele>634.01</ele>
        <time>2013-06-08T08:46:21Z</time>
      </trkpt>
      <trkpt lat="41.762997" lon="-8.190448">
        <ele>633.71</ele>
        <time>2013-06-08T08:46:54Z</time>
      </trkpt>
      <trkpt lat="41.763000" lon="-8.190440">
        <ele>633.76</ele>
        <time>2013-06-08T08:47:05Z</time>
      </trkpt>
      <trkpt lat="41.763012" lon="-8.190459">
        <ele>634.11</ele>
        <time>2013-06-08T08:47:08Z</time>
      </trkpt>
      <trkpt lat="41.763050" lon="-8.190551">
        <ele>636.11</ele>
        <time>2013-06-08T08:47:13Z</time>
      </trkpt>
      <trkpt lat="41.763085" lon="-8.190808">
        <ele>640.59</ele>
        <time>2013-06-08T08:47:20Z</time>
      </trkpt>
      <trkpt lat="41.763140" lon="-8.190835">
        <ele>641.77</ele>
        <time>2013-06-08T08:47:24Z</time>
      </trkpt>
      <trkpt lat="41.763153" lon="-8.190799">
        <ele>641.45</ele>
        <time>2013-06-08T08:47:26Z</time>
      </trkpt>
      <trkpt lat="41.763195" lon="-8.190679">
        <ele>640.24</ele>
        <time>2013-06-08T08:47:33Z</time>
      </trkpt>
      <trkpt lat="41.763217" lon="-8.190513">
        <ele>638.19</ele>
        <time>2013-06-08T08:47:41Z</time>
      </trkpt>
      <trkpt lat="41.763308" lon="-8.190258">
        <ele>637.12</ele>
        <time>2013-06-08T08:47:53Z</time>
      </trkpt>
      <trkpt lat="41.763602" lon="-8.190097">
        <ele>640.23</ele>
        <time>2013-06-08T08:48:07Z</time>
      </trkpt>
      <trkpt lat="41.763987" lon="-8.190043">
        <ele>646.31</ele>
        <time>2013-06-08T08:48:21Z</time>
      </trkpt>
      <trkpt lat="41.764342" lon="-8.190080">
        <ele>653.68</ele>
        <time>2013-06-08T08:48:33Z</time>
      </trkpt>
      <trkpt lat="41.764684" lon="-8.190105">
        <ele>659.27</ele>
        <time>2013-06-08T08:48:44Z</time>
      </trkpt>
      <trkpt lat="41.765123" lon="-8.190097">
        <ele>660.39</ele>
        <time>2013-06-08T08:48:58Z</time>
      </trkpt>
      <trkpt lat="41.765602" lon="-8.190019">
        <ele>658.59</ele>
        <time>2013-06-08T08:49:13Z</time>
      </trkpt>
      <trkpt lat="41.765976" lon="-8.189981">
        <ele>656.85</ele>
        <time>2013-06-08T08:49:24Z</time>
      </trkpt>
      <trkpt lat="41.766391" lon="-8.190052">
        <ele>656.52</ele>
        <time>2013-06-08T08:49:36Z</time>
      </trkpt>
      <trkpt lat="41.766816" lon="-8.190280">
        <ele>657.15</ele>
        <time>2013-06-08T08:49:49Z</time>
      </trkpt>
      <trkpt lat="41.766963" lon="-8.190256">
        <ele>655.95</ele>
        <time>2013-06-08T08:49:54Z</time>
      </trkpt>
      <trkpt lat="41.767003" lon="-8.190247">
        <ele>655.56</ele>
        <time>2013-06-08T08:49:57Z</time>
      </trkpt>
      <trkpt lat="41.767077" lon="-8.190310">
        <ele>655.89</ele>
        <time>2013-06-08T08:55:33Z</time>
      </trkpt>
      <trkpt lat="41.767086" lon="-8.190349">
        <ele>656.23</ele>
        <time>2013-06-08T08:55:34Z</time>
      </trkpt>
      <trkpt lat="41.767104" lon="-8.190369">
        <ele>656.25</ele>
        <time>2013-06-08T08:55:35Z</time>
      </trkpt>
      <trkpt lat="41.767121" lon="-8.190364">
        <ele>655.95</ele>
        <time>2013-06-08T08:55:36Z</time>
      </trkpt>
      <trkpt lat="41.767132" lon="-8.190354">
        <ele>655.73</ele>
        <time>2013-06-08T08:55:37Z</time>
      </trkpt>
      <trkpt lat="41.767160" lon="-8.190346">
        <ele>655.22</ele>
        <time>2013-06-08T08:55:48Z</time>
      </trkpt>
      <trkpt lat="41.767217" lon="-8.190367">
        <ele>654.81</ele>
        <time>2013-06-08T08:55:58Z</time>
      </trkpt>
      <trkpt lat="41.767315" lon="-8.190403">
        <ele>653.83</ele>
        <time>2013-06-08T08:56:02Z</time>
      </trkpt>
      <trkpt lat="41.767335" lon="-8.190400">
        <ele>653.69</ele>
        <time>2013-06-08T08:56:03Z</time>
      </trkpt>
      <trkpt lat="41.767356" lon="-8.190396">
        <ele>653.38</ele>
        <time>2013-06-08T08:56:04Z</time>
      </trkpt>
      <trkpt lat="41.767381" lon="-8.190394">
        <ele>652.98</ele>
        <time>2013-06-08T08:56:05Z</time>
      </trkpt>
      <trkpt lat="41.767411" lon="-8.190395">
        <ele>652.58</ele>
        <time>2013-06-08T08:56:06Z</time>
      </trkpt>
      <trkpt lat="41.767443" lon="-8.190398">
        <ele>652.19</ele>
        <time>2013-06-08T08:56:07Z</time>
      </trkpt>
      <trkpt lat="41.767474" lon="-8.190394">
        <ele>651.76</ele>
        <time>2013-06-08T08:56:08Z</time>
      </trkpt>
      <trkpt lat="41.767500" lon="-8.190396">
        <ele>651.45</ele>
        <time>2013-06-08T08:56:09Z</time>
      </trkpt>
      <trkpt lat="41.767524" lon="-8.190401">
        <ele>651.10</ele>
        <time>2013-06-08T08:56:10Z</time>
      </trkpt>
      <trkpt lat="41.767549" lon="-8.190403">
        <ele>650.82</ele>
        <time>2013-06-08T08:56:11Z</time>
      </trkpt>
      <trkpt lat="41.767599" lon="-8.190410">
        <ele>650.21</ele>
        <time>2013-06-08T08:56:13Z</time>
      </trkpt>
      <trkpt lat="41.767617" lon="-8.190408">
        <ele>649.95</ele>
        <time>2013-06-08T08:56:14Z</time>
      </trkpt>
      <trkpt lat="41.767856" lon="-8.190451">
        <ele>647.23</ele>
        <time>2013-06-08T08:56:23Z</time>
      </trkpt>
      <trkpt lat="41.767937" lon="-8.190448">
        <ele>645.96</ele>
        <time>2013-06-08T08:56:27Z</time>
      </trkpt>
      <trkpt lat="41.767958" lon="-8.190455">
        <ele>645.56</ele>
        <time>2013-06-08T08:56:28Z</time>
      </trkpt>
      <trkpt lat="41.768149" lon="-8.190505">
        <ele>641.25</ele>
        <time>2013-06-08T08:56:35Z</time>
      </trkpt>
      <trkpt lat="41.768450" lon="-8.190471">
        <ele>633.73</ele>
        <time>2013-06-08T08:56:45Z</time>
      </trkpt>
      <trkpt lat="41.768545" lon="-8.190455">
        <ele>631.59</ele>
        <time>2013-06-08T08:56:49Z</time>
      </trkpt>
      <trkpt lat="41.768615" lon="-8.190434">
        <ele>630.08</ele>
        <time>2013-06-08T08:56:53Z</time>
      </trkpt>
      <trkpt lat="41.768878" lon="-8.190337">
        <ele>627.04</ele>
        <time>2013-06-08T08:57:04Z</time>
      </trkpt>
      <trkpt lat="41.768906" lon="-8.190338">
        <ele>626.62</ele>
        <time>2013-06-08T08:57:05Z</time>
      </trkpt>
      <trkpt lat="41.768984" lon="-8.190283">
        <ele>626.81</ele>
        <time>2013-06-08T08:57:09Z</time>
      </trkpt>
      <trkpt lat="41.769146" lon="-8.190159">
        <ele>627.51</ele>
        <time>2013-06-08T08:57:15Z</time>
      </trkpt>
      <trkpt lat="41.769402" lon="-8.190009">
        <ele>627.77</ele>
        <time>2013-06-08T08:57:21Z</time>
      </trkpt>
      <trkpt lat="41.769682" lon="-8.189823">
        <ele>628.66</ele>
        <time>2013-06-08T08:57:26Z</time>
      </trkpt>
      <trkpt lat="41.769897" lon="-8.189683">
        <ele>629.13</ele>
        <time>2013-06-08T08:57:30Z</time>
      </trkpt>
      <trkpt lat="41.770035" lon="-8.189626">
        <ele>628.58</ele>
        <time>2013-06-08T08:57:35Z</time>
      </trkpt>
      <trkpt lat="41.770303" lon="-8.189576">
        <ele>625.82</ele>
        <time>2013-06-08T08:57:45Z</time>
      </trkpt>
      <trkpt lat="41.770374" lon="-8.189579">
        <ele>624.72</ele>
        <time>2013-06-08T08:57:48Z</time>
      </trkpt>
      <trkpt lat="41.770527" lon="-8.189541">
        <ele>622.98</ele>
        <time>2013-06-08T08:57:54Z</time>
      </trkpt>
      <trkpt lat="41.770647" lon="-8.189532">
        <ele>620.80</ele>
        <time>2013-06-08T08:58:00Z</time>
      </trkpt>
      <trkpt lat="41.770855" lon="-8.189370">
        <ele>621.13</ele>
        <time>2013-06-08T08:58:11Z</time>
      </trkpt>
      <trkpt lat="41.771128" lon="-8.189249">
        <ele>619.71</ele>
        <time>2013-06-08T08:58:20Z</time>
      </trkpt>
      <trkpt lat="41.771455" lon="-8.189146">
        <ele>617.01</ele>
        <time>2013-06-08T08:58:29Z</time>
      </trkpt>
      <trkpt lat="41.771674" lon="-8.188978">
        <ele>617.21</ele>
        <time>2013-06-08T08:58:39Z</time>
      </trkpt>
      <trkpt lat="41.771777" lon="-8.188854">
        <ele>618.25</ele>
        <time>2013-06-08T08:58:43Z</time>
      </trkpt>
      <trkpt lat="41.771681" lon="-8.188649">
        <ele>623.13</ele>
        <time>2013-06-08T08:58:51Z</time>
      </trkpt>
      <trkpt lat="41.771678" lon="-8.188558">
        <ele>623.64</ele>
        <time>2013-06-08T08:58:56Z</time>
      </trkpt>
      <trkpt lat="41.771637" lon="-8.188414">
        <ele>625.14</ele>
        <time>2013-06-08T08:59:05Z</time>
      </trkpt>
      <trkpt lat="41.771635" lon="-8.188404">
        <ele>625.21</ele>
        <time>2013-06-08T08:59:07Z</time>
      </trkpt>
      <trkpt lat="41.771586" lon="-8.188213">
        <ele>627.17</ele>
        <time>2013-06-08T08:59:18Z</time>
      </trkpt>
      <trkpt lat="41.771525" lon="-8.188063">
        <ele>629.11</ele>
        <time>2013-06-08T08:59:28Z</time>
      </trkpt>
      <trkpt lat="41.771498" lon="-8.188027">
        <ele>629.91</ele>
        <time>2013-06-08T08:59:30Z</time>
      </trkpt>
      <trkpt lat="41.771464" lon="-8.187985">
        <ele>630.81</ele>
        <time>2013-06-08T08:59:35Z</time>
      </trkpt>
      <trkpt lat="41.771438" lon="-8.187969">
        <ele>631.56</ele>
        <time>2013-06-08T08:59:37Z</time>
      </trkpt>
      <trkpt lat="41.771421" lon="-8.187950">
        <ele>631.96</ele>
        <time>2013-06-08T08:59:39Z</time>
      </trkpt>
      <trkpt lat="41.771390" lon="-8.187939">
        <ele>632.78</ele>
        <time>2013-06-08T08:59:41Z</time>
      </trkpt>
      <trkpt lat="41.771178" lon="-8.187803">
        <ele>633.43</ele>
        <time>2013-06-08T08:59:52Z</time>
      </trkpt>
      <trkpt lat="41.771181" lon="-8.187811">
        <ele>633.65</ele>
        <time>2013-06-08T08:59:54Z</time>
      </trkpt>
      <trkpt lat="41.771165" lon="-8.187776">
        <ele>632.88</ele>
        <time>2013-06-08T09:00:07Z</time>
      </trkpt>
      <trkpt lat="41.771174" lon="-8.187769">
        <ele>632.58</ele>
        <time>2013-06-08T09:00:37Z</time>
      </trkpt>
      <trkpt lat="41.771163" lon="-8.187763">
        <ele>632.60</ele>
        <time>2013-06-08T09:01:12Z</time>
      </trkpt>
      <trkpt lat="41.771152" lon="-8.187753">
        <ele>632.31</ele>
        <time>2013-06-08T09:01:25Z</time>
      </trkpt>
      <trkpt lat="41.771136" lon="-8.187712">
        <ele>631.33</ele>
        <time>2013-06-08T09:01:30Z</time>
      </trkpt>
      <trkpt lat="41.771086" lon="-8.187639">
        <ele>629.81</ele>
        <time>2013-06-08T09:01:35Z</time>
      </trkpt>
      <trkpt lat="41.771068" lon="-8.187599">
        <ele>628.91</ele>
        <time>2013-06-08T09:01:37Z</time>
      </trkpt>
      <trkpt lat="41.771074" lon="-8.187514">
        <ele>626.63</ele>
        <time>2013-06-08T09:01:41Z</time>
      </trkpt>
      <trkpt lat="41.771108" lon="-8.187406">
        <ele>623.36</ele>
        <time>2013-06-08T09:01:44Z</time>
      </trkpt>
      <trkpt lat="41.771061" lon="-8.187261">
        <ele>620.06</ele>
        <time>2013-06-08T09:01:51Z</time>
      </trkpt>
      <trkpt lat="41.770964" lon="-8.187206">
        <ele>619.62</ele>
        <time>2013-06-08T09:02:02Z</time>
      </trkpt>
      <trkpt lat="41.770926" lon="-8.187192">
        <ele>619.71</ele>
        <time>2013-06-08T09:02:12Z</time>
      </trkpt>
      <trkpt lat="41.770896" lon="-8.187179">
        <ele>619.71</ele>
        <time>2013-06-08T09:02:15Z</time>
      </trkpt>
      <trkpt lat="41.770804" lon="-8.187156">
        <ele>620.21</ele>
        <time>2013-06-08T09:02:22Z</time>
      </trkpt>
      <trkpt lat="41.770654" lon="-8.187122">
        <ele>621.14</ele>
        <time>2013-06-08T09:02:31Z</time>
      </trkpt>
      <trkpt lat="41.770584" lon="-8.187114">
        <ele>621.71</ele>
        <time>2013-06-08T09:02:35Z</time>
      </trkpt>
      <trkpt lat="41.770475" lon="-8.187124">
        <ele>623.21</ele>
        <time>2013-06-08T09:02:45Z</time>
      </trkpt>
      <trkpt lat="41.770409" lon="-8.187099">
        <ele>623.51</ele>
        <time>2013-06-08T09:02:52Z</time>
      </trkpt>
      <trkpt lat="41.770305" lon="-8.187048">
        <ele>624.18</ele>
        <time>2013-06-08T09:03:03Z</time>
      </trkpt>
      <trkpt lat="41.770301" lon="-8.187049">
        <ele>624.24</ele>
        <time>2013-06-08T09:03:04Z</time>
      </trkpt>
      <trkpt lat="41.770280" lon="-8.187034">
        <ele>624.39</ele>
        <time>2013-06-08T09:03:07Z</time>
      </trkpt>
      <trkpt lat="41.770071" lon="-8.186958">
        <ele>626.76</ele>
        <time>2013-06-08T09:03:19Z</time>
      </trkpt>
      <trkpt lat="41.769896" lon="-8.186807">
        <ele>628.52</ele>
        <time>2013-06-08T09:03:30Z</time>
      </trkpt>
      <trkpt lat="41.769881" lon="-8.186740">
        <ele>628.45</ele>
        <time>2013-06-08T09:03:34Z</time>
      </trkpt>
      <trkpt lat="41.769951" lon="-8.186615">
        <ele>625.99</ele>
        <time>2013-06-08T09:03:41Z</time>
      </trkpt>
      <trkpt lat="41.769995" lon="-8.186556">
        <ele>624.48</ele>
        <time>2013-06-08T09:03:45Z</time>
      </trkpt>
      <trkpt lat="41.770075" lon="-8.186398">
        <ele>620.82</ele>
        <time>2013-06-08T09:03:57Z</time>
      </trkpt>
      <trkpt lat="41.770086" lon="-8.186358">
        <ele>620.11</ele>
        <time>2013-06-08T09:03:59Z</time>
      </trkpt>
      <trkpt lat="41.770165" lon="-8.186211">
        <ele>616.96</ele>
        <time>2013-06-08T09:04:05Z</time>
      </trkpt>
      <trkpt lat="41.770275" lon="-8.186043">
        <ele>615.04</ele>
        <time>2013-06-08T09:04:12Z</time>
      </trkpt>
      <trkpt lat="41.770292" lon="-8.185973">
        <ele>614.97</ele>
        <time>2013-06-08T09:04:21Z</time>
      </trkpt>
      <trkpt lat="41.770340" lon="-8.185875">
        <ele>614.03</ele>
        <time>2013-06-08T09:04:29Z</time>
      </trkpt>
      <trkpt lat="41.770380" lon="-8.185808">
        <ele>613.04</ele>
        <time>2013-06-08T09:04:34Z</time>
      </trkpt>
      <trkpt lat="41.770398" lon="-8.185736">
        <ele>612.85</ele>
        <time>2013-06-08T09:04:37Z</time>
      </trkpt>
      <trkpt lat="41.770483" lon="-8.185583">
        <ele>610.83</ele>
        <time>2013-06-08T09:04:42Z</time>
      </trkpt>
      <trkpt lat="41.770558" lon="-8.185415">
        <ele>608.92</ele>
        <time>2013-06-08T09:04:50Z</time>
      </trkpt>
      <trkpt lat="41.770609" lon="-8.185198">
        <ele>609.40</ele>
        <time>2013-06-08T09:04:57Z</time>
      </trkpt>
      <trkpt lat="41.770636" lon="-8.185156">
        <ele>608.72</ele>
        <time>2013-06-08T09:04:59Z</time>
      </trkpt>
      <trkpt lat="41.770745" lon="-8.184784">
        <ele>607.71</ele>
        <time>2013-06-08T09:05:10Z</time>
      </trkpt>
      <trkpt lat="41.770759" lon="-8.184716">
        <ele>607.76</ele>
        <time>2013-06-08T09:05:12Z</time>
      </trkpt>
      <trkpt lat="41.770774" lon="-8.184568">
        <ele>608.37</ele>
        <time>2013-06-08T09:05:23Z</time>
      </trkpt>
      <trkpt lat="41.770792" lon="-8.184502">
        <ele>608.30</ele>
        <time>2013-06-08T09:05:28Z</time>
      </trkpt>
      <trkpt lat="41.770827" lon="-8.184317">
        <ele>608.56</ele>
        <time>2013-06-08T09:05:38Z</time>
      </trkpt>
      <trkpt lat="41.770841" lon="-8.184284">
        <ele>608.30</ele>
        <time>2013-06-08T09:05:40Z</time>
      </trkpt>
      <trkpt lat="41.770858" lon="-8.184251">
        <ele>607.74</ele>
        <time>2013-06-08T09:05:44Z</time>
      </trkpt>
      <trkpt lat="41.770935" lon="-8.184077">
        <ele>605.88</ele>
        <time>2013-06-08T09:05:56Z</time>
      </trkpt>
      <trkpt lat="41.770963" lon="-8.184034">
        <ele>604.88</ele>
        <time>2013-06-08T09:06:02Z</time>
      </trkpt>
      <trkpt lat="41.771012" lon="-8.183965">
        <ele>603.13</ele>
        <time>2013-06-08T09:06:13Z</time>
      </trkpt>
      <trkpt lat="41.771086" lon="-8.183902">
        <ele>600.03</ele>
        <time>2013-06-08T09:06:30Z</time>
      </trkpt>
      <trkpt lat="41.771162" lon="-8.183789">
        <ele>597.11</ele>
        <time>2013-06-08T09:06:40Z</time>
      </trkpt>
      <trkpt lat="41.771283" lon="-8.183698">
        <ele>592.41</ele>
        <time>2013-06-08T09:06:49Z</time>
      </trkpt>
      <trkpt lat="41.771372" lon="-8.183543">
        <ele>591.03</ele>
        <time>2013-06-08T09:07:00Z</time>
      </trkpt>
      <trkpt lat="41.771446" lon="-8.183402">
        <ele>590.26</ele>
        <time>2013-06-08T09:07:10Z</time>
      </trkpt>
      <trkpt lat="41.771525" lon="-8.183295">
        <ele>588.64</ele>
        <time>2013-06-08T09:07:20Z</time>
      </trkpt>
      <trkpt lat="41.771569" lon="-8.183218">
        <ele>588.05</ele>
        <time>2013-06-08T09:07:30Z</time>
      </trkpt>
      <trkpt lat="41.771588" lon="-8.183195">
        <ele>587.69</ele>
        <time>2013-06-08T09:07:34Z</time>
      </trkpt>
      <trkpt lat="41.771653" lon="-8.183067">
        <ele>587.02</ele>
        <time>2013-06-08T09:07:46Z</time>
      </trkpt>
      <trkpt lat="41.771658" lon="-8.183051">
        <ele>587.16</ele>
        <time>2013-06-08T09:07:48Z</time>
      </trkpt>
      <trkpt lat="41.771736" lon="-8.182959">
        <ele>585.51</ele>
        <time>2013-06-08T09:07:57Z</time>
      </trkpt>
      <trkpt lat="41.771821" lon="-8.182875">
        <ele>583.42</ele>
        <time>2013-06-08T09:08:08Z</time>
      </trkpt>
      <trkpt lat="41.771853" lon="-8.182860">
        <ele>582.41</ele>
        <time>2013-06-08T09:08:21Z</time>
      </trkpt>
      <trkpt lat="41.771867" lon="-8.182836">
        <ele>582.27</ele>
        <time>2013-06-08T09:08:40Z</time>
      </trkpt>
      <trkpt lat="41.771876" lon="-8.182760">
        <ele>583.19</ele>
        <time>2013-06-08T09:08:52Z</time>
      </trkpt>
      <trkpt lat="41.771894" lon="-8.182566">
        <ele>585.53</ele>
        <time>2013-06-08T09:09:02Z</time>
      </trkpt>
      <trkpt lat="41.771890" lon="-8.182509">
        <ele>586.77</ele>
        <time>2013-06-08T09:09:12Z</time>
      </trkpt>
      <trkpt lat="41.771877" lon="-8.182473">
        <ele>587.94</ele>
        <time>2013-06-08T09:09:22Z</time>
      </trkpt>
      <trkpt lat="41.771879" lon="-8.182471">
        <ele>587.81</ele>
        <time>2013-06-08T09:09:52Z</time>
      </trkpt>
      <trkpt lat="41.771882" lon="-8.182442">
        <ele>588.26</ele>
        <time>2013-06-08T09:10:16Z</time>
      </trkpt>
      <trkpt lat="41.771890" lon="-8.182373">
        <ele>588.92</ele>
        <time>2013-06-08T09:10:23Z</time>
      </trkpt>
      <trkpt lat="41.771917" lon="-8.182290">
        <ele>589.01</ele>
        <time>2013-06-08T09:10:33Z</time>
      </trkpt>
      <trkpt lat="41.771943" lon="-8.182200">
        <ele>589.22</ele>
        <time>2013-06-08T09:10:44Z</time>
      </trkpt>
      <trkpt lat="41.771946" lon="-8.182129">
        <ele>590.21</ele>
        <time>2013-06-08T09:10:58Z</time>
      </trkpt>
      <trkpt lat="41.771979" lon="-8.182027">
        <ele>590.86</ele>
        <time>2013-06-08T09:11:10Z</time>
      </trkpt>
      <trkpt lat="41.772012" lon="-8.181938">
        <ele>591.62</ele>
        <time>2013-06-08T09:11:22Z</time>
      </trkpt>
      <trkpt lat="41.772019" lon="-8.181914">
        <ele>591.92</ele>
        <time>2013-06-08T09:11:35Z</time>
      </trkpt>
      <trkpt lat="41.772026" lon="-8.181864">
        <ele>593.07</ele>
        <time>2013-06-08T09:11:41Z</time>
      </trkpt>
      <trkpt lat="41.772051" lon="-8.181764">
        <ele>594.56</ele>
        <time>2013-06-08T09:11:51Z</time>
      </trkpt>
      <trkpt lat="41.772064" lon="-8.181675">
        <ele>596.33</ele>
        <time>2013-06-08T09:12:01Z</time>
      </trkpt>
      <trkpt lat="41.772069" lon="-8.181644">
        <ele>596.97</ele>
        <time>2013-06-08T09:12:17Z</time>
      </trkpt>
      <trkpt lat="41.772077" lon="-8.181569">
        <ele>598.54</ele>
        <time>2013-06-08T09:12:24Z</time>
      </trkpt>
      <trkpt lat="41.772082" lon="-8.181522">
        <ele>599.62</ele>
        <time>2013-06-08T09:12:29Z</time>
      </trkpt>
      <trkpt lat="41.772082" lon="-8.181458">
        <ele>601.32</ele>
        <time>2013-06-08T09:12:40Z</time>
      </trkpt>
      <trkpt lat="41.772071" lon="-8.181393">
        <ele>603.71</ele>
        <time>2013-06-08T09:12:49Z</time>
      </trkpt>
      <trkpt lat="41.772045" lon="-8.181367">
        <ele>605.75</ele>
        <time>2013-06-08T09:13:02Z</time>
      </trkpt>
      <trkpt lat="41.772038" lon="-8.181284">
        <ele>608.45</ele>
        <time>2013-06-08T09:13:12Z</time>
      </trkpt>
      <trkpt lat="41.772041" lon="-8.181191">
        <ele>610.94</ele>
        <time>2013-06-08T09:13:24Z</time>
      </trkpt>
      <trkpt lat="41.772041" lon="-8.181164">
        <ele>611.78</ele>
        <time>2013-06-08T09:13:32Z</time>
      </trkpt>
      <trkpt lat="41.772030" lon="-8.181138">
        <ele>613.14</ele>
        <time>2013-06-08T09:13:41Z</time>
      </trkpt>
      <trkpt lat="41.771997" lon="-8.181136">
        <ele>614.86</ele>
        <time>2013-06-08T09:13:51Z</time>
      </trkpt>
      <trkpt lat="41.771987" lon="-8.181114">
        <ele>615.99</ele>
        <time>2013-06-08T09:14:10Z</time>
      </trkpt>
      <trkpt lat="41.771971" lon="-8.181100">
        <ele>617.25</ele>
        <time>2013-06-08T09:14:29Z</time>
      </trkpt>
      <trkpt lat="41.771972" lon="-8.181098">
        <ele>617.25</ele>
        <time>2013-06-08T09:14:33Z</time>
      </trkpt>
      <trkpt lat="41.771962" lon="-8.181068">
        <ele>618.51</ele>
        <time>2013-06-08T09:14:44Z</time>
      </trkpt>
      <trkpt lat="41.771969" lon="-8.181035">
        <ele>619.11</ele>
        <time>2013-06-08T09:14:54Z</time>
      </trkpt>
      <trkpt lat="41.771966" lon="-8.180975">
        <ele>621.02</ele>
        <time>2013-06-08T09:15:05Z</time>
      </trkpt>
      <trkpt lat="41.771941" lon="-8.180966">
        <ele>622.55</ele>
        <time>2013-06-08T09:15:17Z</time>
      </trkpt>
      <trkpt lat="41.771910" lon="-8.180949">
        <ele>624.58</ele>
        <time>2013-06-08T09:15:29Z</time>
      </trkpt>
      <trkpt lat="41.771908" lon="-8.180894">
        <ele>626.24</ele>
        <time>2013-06-08T09:15:41Z</time>
      </trkpt>
      <trkpt lat="41.771911" lon="-8.180855">
        <ele>627.25</ele>
        <time>2013-06-08T09:15:51Z</time>
      </trkpt>
      <trkpt lat="41.771893" lon="-8.180789">
        <ele>629.98</ele>
        <time>2013-06-08T09:16:01Z</time>
      </trkpt>
      <trkpt lat="41.771890" lon="-8.180757">
        <ele>630.92</ele>
        <time>2013-06-08T09:16:06Z</time>
      </trkpt>
      <trkpt lat="41.771904" lon="-8.180677">
        <ele>632.69</ele>
        <time>2013-06-08T09:16:16Z</time>
      </trkpt>
      <trkpt lat="41.771908" lon="-8.180660">
        <ele>632.97</ele>
        <time>2013-06-08T09:16:19Z</time>
      </trkpt>
      <trkpt lat="41.771881" lon="-8.180593">
        <ele>636.02</ele>
        <time>2013-06-08T09:16:29Z</time>
      </trkpt>
      <trkpt lat="41.771873" lon="-8.180580">
        <ele>636.71</ele>
        <time>2013-06-08T09:16:42Z</time>
      </trkpt>
      <trkpt lat="41.771863" lon="-8.180560">
        <ele>637.86</ele>
        <time>2013-06-08T09:16:52Z</time>
      </trkpt>
      <trkpt lat="41.771834" lon="-8.180526">
        <ele>640.02</ele>
        <time>2013-06-08T09:17:04Z</time>
      </trkpt>
      <trkpt lat="41.771828" lon="-8.180520">
        <ele>640.55</ele>
        <time>2013-06-08T09:17:27Z</time>
      </trkpt>
      <trkpt lat="41.771834" lon="-8.180529">
        <ele>639.99</ele>
        <time>2013-06-08T09:17:36Z</time>
      </trkpt>
      <trkpt lat="41.771834" lon="-8.180528">
        <ele>640.03</ele>
        <time>2013-06-08T09:17:42Z</time>
      </trkpt>
      <trkpt lat="41.771813" lon="-8.180490">
        <ele>642.02</ele>
        <time>2013-06-08T09:17:53Z</time>
      </trkpt>
      <trkpt lat="41.771837" lon="-8.180496">
        <ele>640.75</ele>
        <time>2013-06-08T09:18:04Z</time>
      </trkpt>
      <trkpt lat="41.771838" lon="-8.180472">
        <ele>641.49</ele>
        <time>2013-06-08T09:18:09Z</time>
      </trkpt>
      <trkpt lat="41.771866" lon="-8.180333">
        <ele>642.76</ele>
        <time>2013-06-08T09:18:15Z</time>
      </trkpt>
      <trkpt lat="41.771988" lon="-8.179681">
        <ele>645.12</ele>
        <time>2013-06-08T09:18:28Z</time>
      </trkpt>
      <trkpt lat="41.772067" lon="-8.179445">
        <ele>644.21</ele>
        <time>2013-06-08T09:18:32Z</time>
      </trkpt>
      <trkpt lat="41.772093" lon="-8.179386">
        <ele>643.51</ele>
        <time>2013-06-08T09:18:33Z</time>
      </trkpt>
      <trkpt lat="41.772139" lon="-8.179262">
        <ele>641.85</ele>
        <time>2013-06-08T09:18:35Z</time>
      </trkpt>
      <trkpt lat="41.772215" lon="-8.178976">
        <ele>640.22</ele>
        <time>2013-06-08T09:18:39Z</time>
      </trkpt>
      <trkpt lat="41.772359" lon="-8.178501">
        <ele>637.90</ele>
        <time>2013-06-08T09:18:45Z</time>
      </trkpt>
      <trkpt lat="41.772438" lon="-8.178106">
        <ele>639.11</ele>
        <time>2013-06-08T09:18:50Z</time>
      </trkpt>
      <trkpt lat="41.772460" lon="-8.178034">
        <ele>639.06</ele>
        <time>2013-06-08T09:18:51Z</time>
      </trkpt>
      <trkpt lat="41.772753" lon="-8.177453">
        <ele>631.99</ele>
        <time>2013-06-08T09:19:00Z</time>
      </trkpt>
      <trkpt lat="41.772779" lon="-8.177379">
        <ele>631.86</ele>
        <time>2013-06-08T09:19:01Z</time>
      </trkpt>
      <trkpt lat="41.772801" lon="-8.177299">
        <ele>632.01</ele>
        <time>2013-06-08T09:19:02Z</time>
      </trkpt>
      <trkpt lat="41.772821" lon="-8.177211">
        <ele>632.52</ele>
        <time>2013-06-08T09:19:03Z</time>
      </trkpt>
      <trkpt lat="41.772842" lon="-8.177123">
        <ele>633.01</ele>
        <time>2013-06-08T09:19:04Z</time>
      </trkpt>
      <trkpt lat="41.772894" lon="-8.176943">
        <ele>631.76</ele>
        <time>2013-06-08T09:19:06Z</time>
      </trkpt>
      <trkpt lat="41.773160" lon="-8.176381">
        <ele>623.18</ele>
        <time>2013-06-08T09:19:13Z</time>
      </trkpt>
      <trkpt lat="41.773192" lon="-8.176298">
        <ele>622.49</ele>
        <time>2013-06-08T09:19:14Z</time>
      </trkpt>
      <trkpt lat="41.773285" lon="-8.175960">
        <ele>619.06</ele>
        <time>2013-06-08T09:19:18Z</time>
      </trkpt>
      <trkpt lat="41.773292" lon="-8.175872">
        <ele>618.81</ele>
        <time>2013-06-08T09:19:19Z</time>
      </trkpt>
      <trkpt lat="41.773294" lon="-8.175789">
        <ele>618.78</ele>
        <time>2013-06-08T09:19:20Z</time>
      </trkpt>
      <trkpt lat="41.773281" lon="-8.175627">
        <ele>619.18</ele>
        <time>2013-06-08T09:19:23Z</time>
      </trkpt>
      <trkpt lat="41.773270" lon="-8.175595">
        <ele>619.42</ele>
        <time>2013-06-08T09:19:24Z</time>
      </trkpt>
      <trkpt lat="41.773267" lon="-8.175566">
        <ele>619.58</ele>
        <time>2013-06-08T09:19:25Z</time>
      </trkpt>
      <trkpt lat="41.773269" lon="-8.175544">
        <ele>619.41</ele>
        <time>2013-06-08T09:19:26Z</time>
      </trkpt>
      <trkpt lat="41.773274" lon="-8.175535">
        <ele>619.31</ele>
        <time>2013-06-08T09:19:36Z</time>
      </trkpt>
      <trkpt lat="41.773274" lon="-8.175527">
        <ele>619.33</ele>
        <time>2013-06-08T09:19:45Z</time>
      </trkpt>
      <trkpt lat="41.773261" lon="-8.175513">
        <ele>619.70</ele>
        <time>2013-06-08T09:19:46Z</time>
      </trkpt>
      <trkpt lat="41.773073" lon="-8.175230">
        <ele>619.97</ele>
        <time>2013-06-08T09:19:54Z</time>
      </trkpt>
      <trkpt lat="41.773032" lon="-8.175210">
        <ele>620.24</ele>
        <time>2013-06-08T09:19:55Z</time>
      </trkpt>
      <trkpt lat="41.772941" lon="-8.175189">
        <ele>621.48</ele>
        <time>2013-06-08T09:19:57Z</time>
      </trkpt>
      <trkpt lat="41.772892" lon="-8.175188">
        <ele>622.20</ele>
        <time>2013-06-08T09:19:58Z</time>
      </trkpt>
      <trkpt lat="41.772585" lon="-8.175180">
        <ele>626.15</ele>
        <time>2013-06-08T09:20:04Z</time>
      </trkpt>
      <trkpt lat="41.772534" lon="-8.175187">
        <ele>626.97</ele>
        <time>2013-06-08T09:20:05Z</time>
      </trkpt>
      <trkpt lat="41.772386" lon="-8.175211">
        <ele>629.37</ele>
        <time>2013-06-08T09:20:08Z</time>
      </trkpt>
      <trkpt lat="41.772340" lon="-8.175231">
        <ele>630.21</ele>
        <time>2013-06-08T09:20:09Z</time>
      </trkpt>
      <trkpt lat="41.772294" lon="-8.175252">
        <ele>631.21</ele>
        <time>2013-06-08T09:20:10Z</time>
      </trkpt>
      <trkpt lat="41.772252" lon="-8.175271">
        <ele>632.08</ele>
        <time>2013-06-08T09:20:11Z</time>
      </trkpt>
      <trkpt lat="41.772210" lon="-8.175293">
        <ele>632.86</ele>
        <time>2013-06-08T09:20:12Z</time>
      </trkpt>
      <trkpt lat="41.772166" lon="-8.175313">
        <ele>633.61</ele>
        <time>2013-06-08T09:20:13Z</time>
      </trkpt>
      <trkpt lat="41.772119" lon="-8.175324">
        <ele>634.42</ele>
        <time>2013-06-08T09:20:14Z</time>
      </trkpt>
      <trkpt lat="41.772069" lon="-8.175330">
        <ele>635.11</ele>
        <time>2013-06-08T09:20:15Z</time>
      </trkpt>
      <trkpt lat="41.772019" lon="-8.175329">
        <ele>636.16</ele>
        <time>2013-06-08T09:20:16Z</time>
      </trkpt>
      <trkpt lat="41.771970" lon="-8.175319">
        <ele>636.92</ele>
        <time>2013-06-08T09:20:17Z</time>
      </trkpt>
      <trkpt lat="41.771922" lon="-8.175293">
        <ele>637.78</ele>
        <time>2013-06-08T09:20:18Z</time>
      </trkpt>
      <trkpt lat="41.771876" lon="-8.175259">
        <ele>638.36</ele>
        <time>2013-06-08T09:20:19Z</time>
      </trkpt>
      <trkpt lat="41.771834" lon="-8.175211">
        <ele>639.03</ele>
        <time>2013-06-08T09:20:20Z</time>
      </trkpt>
      <trkpt lat="41.771805" lon="-8.175152">
        <ele>639.31</ele>
        <time>2013-06-08T09:20:21Z</time>
      </trkpt>
      <trkpt lat="41.771792" lon="-8.175083">
        <ele>639.33</ele>
        <time>2013-06-08T09:20:22Z</time>
      </trkpt>
      <trkpt lat="41.771791" lon="-8.175011">
        <ele>639.08</ele>
        <time>2013-06-08T09:20:23Z</time>
      </trkpt>
      <trkpt lat="41.771802" lon="-8.174941">
        <ele>638.36</ele>
        <time>2013-06-08T09:20:24Z</time>
      </trkpt>
      <trkpt lat="41.771825" lon="-8.174879">
        <ele>637.23</ele>
        <time>2013-06-08T09:20:25Z</time>
      </trkpt>
      <trkpt lat="41.771862" lon="-8.174824">
        <ele>635.76</ele>
        <time>2013-06-08T09:20:26Z</time>
      </trkpt>
      <trkpt lat="41.771909" lon="-8.174777">
        <ele>633.73</ele>
        <time>2013-06-08T09:20:27Z</time>
      </trkpt>
      <trkpt lat="41.771966" lon="-8.174738">
        <ele>631.35</ele>
        <time>2013-06-08T09:20:28Z</time>
      </trkpt>
      <trkpt lat="41.772029" lon="-8.174703">
        <ele>628.61</ele>
        <time>2013-06-08T09:20:29Z</time>
      </trkpt>
      <trkpt lat="41.772097" lon="-8.174668">
        <ele>625.94</ele>
        <time>2013-06-08T09:20:30Z</time>
      </trkpt>
      <trkpt lat="41.772397" lon="-8.174498">
        <ele>619.01</ele>
        <time>2013-06-08T09:20:34Z</time>
      </trkpt>
      <trkpt lat="41.772471" lon="-8.174457">
        <ele>617.51</ele>
        <time>2013-06-08T09:20:35Z</time>
      </trkpt>
      <trkpt lat="41.772538" lon="-8.174401">
        <ele>616.07</ele>
        <time>2013-06-08T09:20:36Z</time>
      </trkpt>
      <trkpt lat="41.772593" lon="-8.174331">
        <ele>614.66</ele>
        <time>2013-06-08T09:20:37Z</time>
      </trkpt>
      <trkpt lat="41.772630" lon="-8.174247">
        <ele>613.53</ele>
        <time>2013-06-08T09:20:38Z</time>
      </trkpt>
      <trkpt lat="41.772652" lon="-8.174158">
        <ele>612.79</ele>
        <time>2013-06-08T09:20:39Z</time>
      </trkpt>
      <trkpt lat="41.772658" lon="-8.174067">
        <ele>612.50</ele>
        <time>2013-06-08T09:20:40Z</time>
      </trkpt>
      <trkpt lat="41.772647" lon="-8.173978">
        <ele>612.68</ele>
        <time>2013-06-08T09:20:41Z</time>
      </trkpt>
      <trkpt lat="41.772629" lon="-8.173898">
        <ele>613.29</ele>
        <time>2013-06-08T09:20:42Z</time>
      </trkpt>
      <trkpt lat="41.772612" lon="-8.173822">
        <ele>613.84</ele>
        <time>2013-06-08T09:20:43Z</time>
      </trkpt>
      <trkpt lat="41.772606" lon="-8.173747">
        <ele>614.19</ele>
        <time>2013-06-08T09:20:44Z</time>
      </trkpt>
      <trkpt lat="41.772617" lon="-8.173685">
        <ele>613.81</ele>
        <time>2013-06-08T09:20:45Z</time>
      </trkpt>
      <trkpt lat="41.772638" lon="-8.173645">
        <ele>613.11</ele>
        <time>2013-06-08T09:20:46Z</time>
      </trkpt>
      <trkpt lat="41.772663" lon="-8.173618">
        <ele>612.12</ele>
        <time>2013-06-08T09:20:47Z</time>
      </trkpt>
      <trkpt lat="41.772689" lon="-8.173593">
        <ele>611.25</ele>
        <time>2013-06-08T09:20:48Z</time>
      </trkpt>
      <trkpt lat="41.772715" lon="-8.173572">
        <ele>610.25</ele>
        <time>2013-06-08T09:20:49Z</time>
      </trkpt>
      <trkpt lat="41.772737" lon="-8.173558">
        <ele>609.35</ele>
        <time>2013-06-08T09:20:50Z</time>
      </trkpt>
      <trkpt lat="41.772757" lon="-8.173547">
        <ele>608.52</ele>
        <time>2013-06-08T09:20:51Z</time>
      </trkpt>
      <trkpt lat="41.772778" lon="-8.173540">
        <ele>607.74</ele>
        <time>2013-06-08T09:20:52Z</time>
      </trkpt>
      <trkpt lat="41.772807" lon="-8.173538">
        <ele>606.53</ele>
        <time>2013-06-08T09:20:53Z</time>
      </trkpt>
      <trkpt lat="41.772839" lon="-8.173541">
        <ele>605.22</ele>
        <time>2013-06-08T09:20:54Z</time>
      </trkpt>
      <trkpt lat="41.772872" lon="-8.173544">
        <ele>603.84</ele>
        <time>2013-06-08T09:20:55Z</time>
      </trkpt>
      <trkpt lat="41.772988" lon="-8.173570">
        <ele>600.80</ele>
        <time>2013-06-08T09:20:58Z</time>
      </trkpt>
      <trkpt lat="41.773032" lon="-8.173571">
        <ele>600.21</ele>
        <time>2013-06-08T09:20:59Z</time>
      </trkpt>
      <trkpt lat="41.773076" lon="-8.173571">
        <ele>599.70</ele>
        <time>2013-06-08T09:21:00Z</time>
      </trkpt>
      <trkpt lat="41.773119" lon="-8.173570">
        <ele>598.96</ele>
        <time>2013-06-08T09:21:01Z</time>
      </trkpt>
      <trkpt lat="41.773164" lon="-8.173565">
        <ele>598.35</ele>
        <time>2013-06-08T09:21:02Z</time>
      </trkpt>
      <trkpt lat="41.773212" lon="-8.173558">
        <ele>597.78</ele>
        <time>2013-06-08T09:21:03Z</time>
      </trkpt>
      <trkpt lat="41.773264" lon="-8.173545">
        <ele>597.20</ele>
        <time>2013-06-08T09:21:04Z</time>
      </trkpt>
      <trkpt lat="41.773316" lon="-8.173530">
        <ele>596.53</ele>
        <time>2013-06-08T09:21:05Z</time>
      </trkpt>
      <trkpt lat="41.773367" lon="-8.173522">
        <ele>595.92</ele>
        <time>2013-06-08T09:21:06Z</time>
      </trkpt>
      <trkpt lat="41.773420" lon="-8.173523">
        <ele>595.13</ele>
        <time>2013-06-08T09:21:07Z</time>
      </trkpt>
      <trkpt lat="41.773480" lon="-8.173520">
        <ele>594.35</ele>
        <time>2013-06-08T09:21:08Z</time>
      </trkpt>
      <trkpt lat="41.773541" lon="-8.173510">
        <ele>593.61</ele>
        <time>2013-06-08T09:21:09Z</time>
      </trkpt>
      <trkpt lat="41.774029" lon="-8.173442">
        <ele>589.01</ele>
        <time>2013-06-08T09:21:16Z</time>
      </trkpt>
      <trkpt lat="41.774101" lon="-8.173416">
        <ele>588.82</ele>
        <time>2013-06-08T09:21:17Z</time>
      </trkpt>
      <trkpt lat="41.774171" lon="-8.173388">
        <ele>588.56</ele>
        <time>2013-06-08T09:21:18Z</time>
      </trkpt>
      <trkpt lat="41.774240" lon="-8.173357">
        <ele>588.45</ele>
        <time>2013-06-08T09:21:19Z</time>
      </trkpt>
      <trkpt lat="41.774308" lon="-8.173310">
        <ele>588.55</ele>
        <time>2013-06-08T09:21:20Z</time>
      </trkpt>
      <trkpt lat="41.774376" lon="-8.173255">
        <ele>589.00</ele>
        <time>2013-06-08T09:21:21Z</time>
      </trkpt>
      <trkpt lat="41.775107" lon="-8.172635">
        <ele>590.72</ele>
        <time>2013-06-08T09:21:30Z</time>
      </trkpt>
      <trkpt lat="41.775188" lon="-8.172569">
        <ele>590.08</ele>
        <time>2013-06-08T09:21:31Z</time>
      </trkpt>
      <trkpt lat="41.775272" lon="-8.172499">
        <ele>589.26</ele>
        <time>2013-06-08T09:21:32Z</time>
      </trkpt>
      <trkpt lat="41.775348" lon="-8.172421">
        <ele>588.40</ele>
        <time>2013-06-08T09:21:33Z</time>
      </trkpt>
      <trkpt lat="41.775416" lon="-8.172351">
        <ele>587.42</ele>
        <time>2013-06-08T09:21:34Z</time>
      </trkpt>
      <trkpt lat="41.775480" lon="-8.172288">
        <ele>586.41</ele>
        <time>2013-06-08T09:21:35Z</time>
      </trkpt>
      <trkpt lat="41.775650" lon="-8.172080">
        <ele>584.33</ele>
        <time>2013-06-08T09:21:38Z</time>
      </trkpt>
      <trkpt lat="41.775684" lon="-8.171997">
        <ele>585.77</ele>
        <time>2013-06-08T09:21:39Z</time>
      </trkpt>
      <trkpt lat="41.775733" lon="-8.171821">
        <ele>588.82</ele>
        <time>2013-06-08T09:21:41Z</time>
      </trkpt>
      <trkpt lat="41.775777" lon="-8.171743">
        <ele>589.63</ele>
        <time>2013-06-08T09:21:42Z</time>
      </trkpt>
      <trkpt lat="41.775875" lon="-8.171624">
        <ele>589.97</ele>
        <time>2013-06-08T09:21:44Z</time>
      </trkpt>
      <trkpt lat="41.775936" lon="-8.171583">
        <ele>589.22</ele>
        <time>2013-06-08T09:21:45Z</time>
      </trkpt>
      <trkpt lat="41.776009" lon="-8.171545">
        <ele>588.20</ele>
        <time>2013-06-08T09:21:46Z</time>
      </trkpt>
      <trkpt lat="41.776082" lon="-8.171498">
        <ele>587.18</ele>
        <time>2013-06-08T09:21:47Z</time>
      </trkpt>
      <trkpt lat="41.776155" lon="-8.171438">
        <ele>586.36</ele>
        <time>2013-06-08T09:21:48Z</time>
      </trkpt>
      <trkpt lat="41.776227" lon="-8.171364">
        <ele>585.63</ele>
        <time>2013-06-08T09:21:49Z</time>
      </trkpt>
      <trkpt lat="41.776300" lon="-8.171283">
        <ele>585.31</ele>
        <time>2013-06-08T09:21:50Z</time>
      </trkpt>
      <trkpt lat="41.776375" lon="-8.171203">
        <ele>585.13</ele>
        <time>2013-06-08T09:21:51Z</time>
      </trkpt>
      <trkpt lat="41.776453" lon="-8.171137">
        <ele>584.69</ele>
        <time>2013-06-08T09:21:52Z</time>
      </trkpt>
      <trkpt lat="41.776531" lon="-8.171091">
        <ele>583.71</ele>
        <time>2013-06-08T09:21:53Z</time>
      </trkpt>
      <trkpt lat="41.776611" lon="-8.171068">
        <ele>582.34</ele>
        <time>2013-06-08T09:21:54Z</time>
      </trkpt>
      <trkpt lat="41.776693" lon="-8.171066">
        <ele>580.53</ele>
        <time>2013-06-08T09:21:55Z</time>
      </trkpt>
      <trkpt lat="41.776771" lon="-8.171084">
        <ele>578.59</ele>
        <time>2013-06-08T09:21:56Z</time>
      </trkpt>
      <trkpt lat="41.776853" lon="-8.171112">
        <ele>576.21</ele>
        <time>2013-06-08T09:21:57Z</time>
      </trkpt>
      <trkpt lat="41.776932" lon="-8.171144">
        <ele>574.08</ele>
        <time>2013-06-08T09:21:58Z</time>
      </trkpt>
      <trkpt lat="41.777006" lon="-8.171170">
        <ele>571.99</ele>
        <time>2013-06-08T09:21:59Z</time>
      </trkpt>
      <trkpt lat="41.777279" lon="-8.171231">
        <ele>568.42</ele>
        <time>2013-06-08T09:22:03Z</time>
      </trkpt>
      <trkpt lat="41.777338" lon="-8.171229">
        <ele>568.11</ele>
        <time>2013-06-08T09:22:04Z</time>
      </trkpt>
      <trkpt lat="41.777998" lon="-8.171089">
        <ele>568.34</ele>
        <time>2013-06-08T09:22:15Z</time>
      </trkpt>
      <trkpt lat="41.778059" lon="-8.171073">
        <ele>568.51</ele>
        <time>2013-06-08T09:22:16Z</time>
      </trkpt>
      <trkpt lat="41.778116" lon="-8.171055">
        <ele>568.84</ele>
        <time>2013-06-08T09:22:17Z</time>
      </trkpt>
      <trkpt lat="41.778173" lon="-8.171035">
        <ele>569.13</ele>
        <time>2013-06-08T09:22:18Z</time>
      </trkpt>
      <trkpt lat="41.778233" lon="-8.171019">
        <ele>569.34</ele>
        <time>2013-06-08T09:22:19Z</time>
      </trkpt>
      <trkpt lat="41.778563" lon="-8.170928">
        <ele>570.39</ele>
        <time>2013-06-08T09:22:24Z</time>
      </trkpt>
      <trkpt lat="41.778983" lon="-8.170718">
        <ele>570.37</ele>
        <time>2013-06-08T09:22:30Z</time>
      </trkpt>
      <trkpt lat="41.779094" lon="-8.170610">
        <ele>570.80</ele>
        <time>2013-06-08T09:22:32Z</time>
      </trkpt>
      <trkpt lat="41.779141" lon="-8.170545">
        <ele>571.11</ele>
        <time>2013-06-08T09:22:33Z</time>
      </trkpt>
      <trkpt lat="41.779174" lon="-8.170470">
        <ele>572.03</ele>
        <time>2013-06-08T09:22:34Z</time>
      </trkpt>
      <trkpt lat="41.779195" lon="-8.170389">
        <ele>573.01</ele>
        <time>2013-06-08T09:22:35Z</time>
      </trkpt>
      <trkpt lat="41.779210" lon="-8.170307">
        <ele>574.06</ele>
        <time>2013-06-08T09:22:36Z</time>
      </trkpt>
      <trkpt lat="41.779212" lon="-8.170227">
        <ele>575.25</ele>
        <time>2013-06-08T09:22:37Z</time>
      </trkpt>
      <trkpt lat="41.779212" lon="-8.170150">
        <ele>576.47</ele>
        <time>2013-06-08T09:22:38Z</time>
      </trkpt>
      <trkpt lat="41.779220" lon="-8.170080">
        <ele>577.38</ele>
        <time>2013-06-08T09:22:39Z</time>
      </trkpt>
      <trkpt lat="41.779226" lon="-8.170014">
        <ele>578.22</ele>
        <time>2013-06-08T09:22:40Z</time>
      </trkpt>
      <trkpt lat="41.779230" lon="-8.169947">
        <ele>579.29</ele>
        <time>2013-06-08T09:22:41Z</time>
      </trkpt>
      <trkpt lat="41.779246" lon="-8.169879">
        <ele>579.94</ele>
        <time>2013-06-08T09:22:42Z</time>
      </trkpt>
      <trkpt lat="41.779269" lon="-8.169817">
        <ele>580.43</ele>
        <time>2013-06-08T09:22:43Z</time>
      </trkpt>
      <trkpt lat="41.779302" lon="-8.169769">
        <ele>580.49</ele>
        <time>2013-06-08T09:22:44Z</time>
      </trkpt>
      <trkpt lat="41.779336" lon="-8.169738">
        <ele>580.21</ele>
        <time>2013-06-08T09:22:45Z</time>
      </trkpt>
      <trkpt lat="41.779369" lon="-8.169714">
        <ele>579.81</ele>
        <time>2013-06-08T09:22:46Z</time>
      </trkpt>
      <trkpt lat="41.779409" lon="-8.169699">
        <ele>579.24</ele>
        <time>2013-06-08T09:22:47Z</time>
      </trkpt>
      <trkpt lat="41.779486" lon="-8.169666">
        <ele>578.10</ele>
        <time>2013-06-08T09:22:49Z</time>
      </trkpt>
      <trkpt lat="41.779521" lon="-8.169630">
        <ele>577.84</ele>
        <time>2013-06-08T09:22:50Z</time>
      </trkpt>
      <trkpt lat="41.779553" lon="-8.169580">
        <ele>577.76</ele>
        <time>2013-06-08T09:22:51Z</time>
      </trkpt>
      <trkpt lat="41.779582" lon="-8.169518">
        <ele>577.98</ele>
        <time>2013-06-08T09:22:52Z</time>
      </trkpt>
      <trkpt lat="41.779604" lon="-8.169450">
        <ele>578.43</ele>
        <time>2013-06-08T09:22:53Z</time>
      </trkpt>
      <trkpt lat="41.779621" lon="-8.169381">
        <ele>578.94</ele>
        <time>2013-06-08T09:22:54Z</time>
      </trkpt>
      <trkpt lat="41.779638" lon="-8.169310">
        <ele>579.54</ele>
        <time>2013-06-08T09:22:55Z</time>
      </trkpt>
      <trkpt lat="41.779651" lon="-8.169243">
        <ele>580.12</ele>
        <time>2013-06-08T09:22:56Z</time>
      </trkpt>
      <trkpt lat="41.779665" lon="-8.169115">
        <ele>581.51</ele>
        <time>2013-06-08T09:22:58Z</time>
      </trkpt>
      <trkpt lat="41.779664" lon="-8.169049">
        <ele>582.41</ele>
        <time>2013-06-08T09:22:59Z</time>
      </trkpt>
      <trkpt lat="41.779674" lon="-8.168909">
        <ele>584.09</ele>
        <time>2013-06-08T09:23:01Z</time>
      </trkpt>
      <trkpt lat="41.779691" lon="-8.168853">
        <ele>584.34</ele>
        <time>2013-06-08T09:23:02Z</time>
      </trkpt>
      <trkpt lat="41.779718" lon="-8.168805">
        <ele>584.44</ele>
        <time>2013-06-08T09:23:03Z</time>
      </trkpt>
      <trkpt lat="41.779752" lon="-8.168760">
        <ele>584.23</ele>
        <time>2013-06-08T09:23:04Z</time>
      </trkpt>
      <trkpt lat="41.779796" lon="-8.168723">
        <ele>583.84</ele>
        <time>2013-06-08T09:23:05Z</time>
      </trkpt>
      <trkpt lat="41.779846" lon="-8.168693">
        <ele>583.15</ele>
        <time>2013-06-08T09:23:06Z</time>
      </trkpt>
      <trkpt lat="41.779891" lon="-8.168671">
        <ele>582.60</ele>
        <time>2013-06-08T09:23:07Z</time>
      </trkpt>
      <trkpt lat="41.779934" lon="-8.168648">
        <ele>581.95</ele>
        <time>2013-06-08T09:23:08Z</time>
      </trkpt>
      <trkpt lat="41.779976" lon="-8.168615">
        <ele>581.55</ele>
        <time>2013-06-08T09:23:09Z</time>
      </trkpt>
      <trkpt lat="41.780368" lon="-8.168218">
        <ele>578.71</ele>
        <time>2013-06-08T09:23:17Z</time>
      </trkpt>
      <trkpt lat="41.780415" lon="-8.168186">
        <ele>578.21</ele>
        <time>2013-06-08T09:23:18Z</time>
      </trkpt>
      <trkpt lat="41.780496" lon="-8.168130">
        <ele>577.36</ele>
        <time>2013-06-08T09:23:20Z</time>
      </trkpt>
      <trkpt lat="41.780535" lon="-8.168106">
        <ele>576.87</ele>
        <time>2013-06-08T09:23:21Z</time>
      </trkpt>
      <trkpt lat="41.780573" lon="-8.168083">
        <ele>576.46</ele>
        <time>2013-06-08T09:23:22Z</time>
      </trkpt>
      <trkpt lat="41.780619" lon="-8.168048">
        <ele>575.99</ele>
        <time>2013-06-08T09:23:23Z</time>
      </trkpt>
      <trkpt lat="41.780666" lon="-8.168011">
        <ele>575.52</ele>
        <time>2013-06-08T09:23:24Z</time>
      </trkpt>
      <trkpt lat="41.780712" lon="-8.167972">
        <ele>575.26</ele>
        <time>2013-06-08T09:23:25Z</time>
      </trkpt>
      <trkpt lat="41.780949" lon="-8.167774">
        <ele>575.24</ele>
        <time>2013-06-08T09:23:32Z</time>
      </trkpt>
      <trkpt lat="41.781028" lon="-8.167737">
        <ele>574.63</ele>
        <time>2013-06-08T09:23:34Z</time>
      </trkpt>
      <trkpt lat="41.781062" lon="-8.167696">
        <ele>575.16</ele>
        <time>2013-06-08T09:23:35Z</time>
      </trkpt>
      <trkpt lat="41.781100" lon="-8.167651">
        <ele>575.71</ele>
        <time>2013-06-08T09:23:36Z</time>
      </trkpt>
      <trkpt lat="41.781124" lon="-8.167598">
        <ele>576.71</ele>
        <time>2013-06-08T09:23:37Z</time>
      </trkpt>
      <trkpt lat="41.781131" lon="-8.167549">
        <ele>578.09</ele>
        <time>2013-06-08T09:23:38Z</time>
      </trkpt>
      <trkpt lat="41.781138" lon="-8.167497">
        <ele>579.37</ele>
        <time>2013-06-08T09:23:39Z</time>
      </trkpt>
      <trkpt lat="41.781149" lon="-8.167444">
        <ele>580.69</ele>
        <time>2013-06-08T09:23:40Z</time>
      </trkpt>
      <trkpt lat="41.781164" lon="-8.167392">
        <ele>581.85</ele>
        <time>2013-06-08T09:23:41Z</time>
      </trkpt>
      <trkpt lat="41.781174" lon="-8.167342">
        <ele>583.08</ele>
        <time>2013-06-08T09:23:42Z</time>
      </trkpt>
      <trkpt lat="41.781190" lon="-8.167299">
        <ele>584.03</ele>
        <time>2013-06-08T09:23:43Z</time>
      </trkpt>
      <trkpt lat="41.781201" lon="-8.167264">
        <ele>584.87</ele>
        <time>2013-06-08T09:23:44Z</time>
      </trkpt>
      <trkpt lat="41.781218" lon="-8.167231">
        <ele>585.46</ele>
        <time>2013-06-08T09:23:45Z</time>
      </trkpt>
      <trkpt lat="41.781246" lon="-8.167194">
        <ele>585.98</ele>
        <time>2013-06-08T09:23:46Z</time>
      </trkpt>
      <trkpt lat="41.781522" lon="-8.166938">
        <ele>587.01</ele>
        <time>2013-06-08T09:23:55Z</time>
      </trkpt>
      <trkpt lat="41.781699" lon="-8.166877">
        <ele>584.41</ele>
        <time>2013-06-08T09:23:59Z</time>
      </trkpt>
      <trkpt lat="41.781739" lon="-8.166845">
        <ele>584.31</ele>
        <time>2013-06-08T09:24:00Z</time>
      </trkpt>
      <trkpt lat="41.781813" lon="-8.166771">
        <ele>584.54</ele>
        <time>2013-06-08T09:24:02Z</time>
      </trkpt>
      <trkpt lat="41.781943" lon="-8.166589">
        <ele>586.07</ele>
        <time>2013-06-08T09:24:06Z</time>
      </trkpt>
      <trkpt lat="41.782038" lon="-8.166421">
        <ele>587.83</ele>
        <time>2013-06-08T09:24:09Z</time>
      </trkpt>
      <trkpt lat="41.782064" lon="-8.166364">
        <ele>588.67</ele>
        <time>2013-06-08T09:24:10Z</time>
      </trkpt>
      <trkpt lat="41.782092" lon="-8.166316">
        <ele>589.11</ele>
        <time>2013-06-08T09:24:11Z</time>
      </trkpt>
      <trkpt lat="41.782123" lon="-8.166276">
        <ele>589.52</ele>
        <time>2013-06-08T09:24:12Z</time>
      </trkpt>
      <trkpt lat="41.782159" lon="-8.166243">
        <ele>589.63</ele>
        <time>2013-06-08T09:24:13Z</time>
      </trkpt>
      <trkpt lat="41.782204" lon="-8.166216">
        <ele>589.50</ele>
        <time>2013-06-08T09:24:14Z</time>
      </trkpt>
      <trkpt lat="41.782254" lon="-8.166206">
        <ele>588.82</ele>
        <time>2013-06-08T09:24:15Z</time>
      </trkpt>
      <trkpt lat="41.782305" lon="-8.166205">
        <ele>587.71</ele>
        <time>2013-06-08T09:24:16Z</time>
      </trkpt>
      <trkpt lat="41.782625" lon="-8.166154">
        <ele>582.03</ele>
        <time>2013-06-08T09:24:22Z</time>
      </trkpt>
      <trkpt lat="41.782678" lon="-8.166140">
        <ele>581.28</ele>
        <time>2013-06-08T09:24:23Z</time>
      </trkpt>
      <trkpt lat="41.782729" lon="-8.166130">
        <ele>580.36</ele>
        <time>2013-06-08T09:24:24Z</time>
      </trkpt>
      <trkpt lat="41.782780" lon="-8.166118">
        <ele>579.55</ele>
        <time>2013-06-08T09:24:25Z</time>
      </trkpt>
      <trkpt lat="41.782825" lon="-8.166107">
        <ele>578.79</ele>
        <time>2013-06-08T09:24:26Z</time>
      </trkpt>
      <trkpt lat="41.782867" lon="-8.166092">
        <ele>578.20</ele>
        <time>2013-06-08T09:24:27Z</time>
      </trkpt>
      <trkpt lat="41.783177" lon="-8.165960">
        <ele>578.60</ele>
        <time>2013-06-08T09:24:36Z</time>
      </trkpt>
      <trkpt lat="41.783435" lon="-8.165633">
        <ele>584.54</ele>
        <time>2013-06-08T09:24:45Z</time>
      </trkpt>
      <trkpt lat="41.783707" lon="-8.165510">
        <ele>585.22</ele>
        <time>2013-06-08T09:24:53Z</time>
      </trkpt>
      <trkpt lat="41.784171" lon="-8.165203">
        <ele>584.72</ele>
        <time>2013-06-08T09:25:02Z</time>
      </trkpt>
      <trkpt lat="41.784435" lon="-8.164976">
        <ele>585.91</ele>
        <time>2013-06-08T09:25:07Z</time>
      </trkpt>
      <trkpt lat="41.784499" lon="-8.164936">
        <ele>585.84</ele>
        <time>2013-06-08T09:25:08Z</time>
      </trkpt>
      <trkpt lat="41.784596" lon="-8.164855">
        <ele>586.17</ele>
        <time>2013-06-08T09:25:10Z</time>
      </trkpt>
      <trkpt lat="41.784641" lon="-8.164814">
        <ele>586.09</ele>
        <time>2013-06-08T09:25:11Z</time>
      </trkpt>
      <trkpt lat="41.784682" lon="-8.164767">
        <ele>586.17</ele>
        <time>2013-06-08T09:25:12Z</time>
      </trkpt>
      <trkpt lat="41.784757" lon="-8.164684">
        <ele>586.15</ele>
        <time>2013-06-08T09:25:14Z</time>
      </trkpt>
      <trkpt lat="41.784843" lon="-8.164607">
        <ele>585.66</ele>
        <time>2013-06-08T09:25:16Z</time>
      </trkpt>
      <trkpt lat="41.784924" lon="-8.164527">
        <ele>585.72</ele>
        <time>2013-06-08T09:25:18Z</time>
      </trkpt>
      <trkpt lat="41.784957" lon="-8.164485">
        <ele>586.24</ele>
        <time>2013-06-08T09:25:19Z</time>
      </trkpt>
      <trkpt lat="41.784982" lon="-8.164448">
        <ele>586.70</ele>
        <time>2013-06-08T09:25:20Z</time>
      </trkpt>
      <trkpt lat="41.785051" lon="-8.164324">
        <ele>589.12</ele>
        <time>2013-06-08T09:25:23Z</time>
      </trkpt>
      <trkpt lat="41.785063" lon="-8.164285">
        <ele>590.11</ele>
        <time>2013-06-08T09:25:24Z</time>
      </trkpt>
      <trkpt lat="41.785080" lon="-8.164251">
        <ele>590.90</ele>
        <time>2013-06-08T09:25:25Z</time>
      </trkpt>
      <trkpt lat="41.785094" lon="-8.164220">
        <ele>591.59</ele>
        <time>2013-06-08T09:25:26Z</time>
      </trkpt>
      <trkpt lat="41.785102" lon="-8.164184">
        <ele>592.67</ele>
        <time>2013-06-08T09:25:27Z</time>
      </trkpt>
      <trkpt lat="41.785106" lon="-8.164147">
        <ele>593.87</ele>
        <time>2013-06-08T09:25:28Z</time>
      </trkpt>
      <trkpt lat="41.785120" lon="-8.164112">
        <ele>594.69</ele>
        <time>2013-06-08T09:25:29Z</time>
      </trkpt>
      <trkpt lat="41.785371" lon="-8.163793">
        <ele>599.63</ele>
        <time>2013-06-08T09:25:39Z</time>
      </trkpt>
      <trkpt lat="41.785641" lon="-8.163526">
        <ele>599.50</ele>
        <time>2013-06-08T09:25:48Z</time>
      </trkpt>
      <trkpt lat="41.785872" lon="-8.163207">
        <ele>600.93</ele>
        <time>2013-06-08T09:25:57Z</time>
      </trkpt>
      <trkpt lat="41.785898" lon="-8.163173">
        <ele>601.09</ele>
        <time>2013-06-08T09:25:58Z</time>
      </trkpt>
      <trkpt lat="41.785921" lon="-8.163125">
        <ele>601.51</ele>
        <time>2013-06-08T09:25:59Z</time>
      </trkpt>
      <trkpt lat="41.785949" lon="-8.163077">
        <ele>601.91</ele>
        <time>2013-06-08T09:26:00Z</time>
      </trkpt>
      <trkpt lat="41.785976" lon="-8.163029">
        <ele>602.35</ele>
        <time>2013-06-08T09:26:01Z</time>
      </trkpt>
      <trkpt lat="41.786161" lon="-8.162551">
        <ele>611.79</ele>
        <time>2013-06-08T09:26:11Z</time>
      </trkpt>
      <trkpt lat="41.786217" lon="-8.162449">
        <ele>613.28</ele>
        <time>2013-06-08T09:26:14Z</time>
      </trkpt>
      <trkpt lat="41.786228" lon="-8.162420">
        <ele>613.89</ele>
        <time>2013-06-08T09:26:15Z</time>
      </trkpt>
      <trkpt lat="41.786248" lon="-8.162373">
        <ele>614.79</ele>
        <time>2013-06-08T09:26:17Z</time>
      </trkpt>
      <trkpt lat="41.786258" lon="-8.162354">
        <ele>615.02</ele>
        <time>2013-06-08T09:26:18Z</time>
      </trkpt>
      <trkpt lat="41.786274" lon="-8.162339">
        <ele>615.17</ele>
        <time>2013-06-08T09:26:19Z</time>
      </trkpt>
      <trkpt lat="41.786297" lon="-8.162335">
        <ele>614.74</ele>
        <time>2013-06-08T09:26:20Z</time>
      </trkpt>
      <trkpt lat="41.786324" lon="-8.162333">
        <ele>614.11</ele>
        <time>2013-06-08T09:26:21Z</time>
      </trkpt>
      <trkpt lat="41.786350" lon="-8.162338">
        <ele>613.32</ele>
        <time>2013-06-08T09:26:22Z</time>
      </trkpt>
      <trkpt lat="41.786379" lon="-8.162344">
        <ele>612.41</ele>
        <time>2013-06-08T09:26:23Z</time>
      </trkpt>
      <trkpt lat="41.786411" lon="-8.162359">
        <ele>611.14</ele>
        <time>2013-06-08T09:26:24Z</time>
      </trkpt>
      <trkpt lat="41.786445" lon="-8.162374">
        <ele>609.99</ele>
        <time>2013-06-08T09:26:25Z</time>
      </trkpt>
      <trkpt lat="41.786479" lon="-8.162384">
        <ele>608.72</ele>
        <time>2013-06-08T09:26:26Z</time>
      </trkpt>
      <trkpt lat="41.786549" lon="-8.162383">
        <ele>607.16</ele>
        <time>2013-06-08T09:26:28Z</time>
      </trkpt>
      <trkpt lat="41.786584" lon="-8.162366">
        <ele>606.74</ele>
        <time>2013-06-08T09:26:29Z</time>
      </trkpt>
      <trkpt lat="41.786671" lon="-8.162294">
        <ele>606.65</ele>
        <time>2013-06-08T09:26:32Z</time>
      </trkpt>
      <trkpt lat="41.787102" lon="-8.161920">
        <ele>604.87</ele>
        <time>2013-06-08T09:26:42Z</time>
      </trkpt>
      <trkpt lat="41.787383" lon="-8.161587">
        <ele>607.03</ele>
        <time>2013-06-08T09:26:51Z</time>
      </trkpt>
      <trkpt lat="41.787413" lon="-8.161561">
        <ele>607.05</ele>
        <time>2013-06-08T09:26:52Z</time>
      </trkpt>
      <trkpt lat="41.787432" lon="-8.161530">
        <ele>607.31</ele>
        <time>2013-06-08T09:26:53Z</time>
      </trkpt>
      <trkpt lat="41.787447" lon="-8.161492">
        <ele>607.81</ele>
        <time>2013-06-08T09:26:54Z</time>
      </trkpt>
      <trkpt lat="41.787457" lon="-8.161453">
        <ele>608.56</ele>
        <time>2013-06-08T09:26:55Z</time>
      </trkpt>
      <trkpt lat="41.787476" lon="-8.161414">
        <ele>608.93</ele>
        <time>2013-06-08T09:26:56Z</time>
      </trkpt>
      <trkpt lat="41.787503" lon="-8.161378">
        <ele>609.18</ele>
        <time>2013-06-08T09:26:57Z</time>
      </trkpt>
      <trkpt lat="41.787529" lon="-8.161341">
        <ele>609.39</ele>
        <time>2013-06-08T09:26:58Z</time>
      </trkpt>
      <trkpt lat="41.787560" lon="-8.161298">
        <ele>609.60</ele>
        <time>2013-06-08T09:26:59Z</time>
      </trkpt>
      <trkpt lat="41.787735" lon="-8.161051">
        <ele>611.36</ele>
        <time>2013-06-08T09:27:05Z</time>
      </trkpt>
      <trkpt lat="41.787759" lon="-8.161006">
        <ele>611.88</ele>
        <time>2013-06-08T09:27:06Z</time>
      </trkpt>
      <trkpt lat="41.787891" lon="-8.160547">
        <ele>618.94</ele>
        <time>2013-06-08T09:27:15Z</time>
      </trkpt>
      <trkpt lat="41.787908" lon="-8.160487">
        <ele>619.70</ele>
        <time>2013-06-08T09:27:16Z</time>
      </trkpt>
      <trkpt lat="41.787972" lon="-8.160314">
        <ele>621.02</ele>
        <time>2013-06-08T09:27:19Z</time>
      </trkpt>
      <trkpt lat="41.788011" lon="-8.160198">
        <ele>621.81</ele>
        <time>2013-06-08T09:27:21Z</time>
      </trkpt>
      <trkpt lat="41.788148" lon="-8.159993">
        <ele>621.40</ele>
        <time>2013-06-08T09:27:26Z</time>
      </trkpt>
      <trkpt lat="41.788192" lon="-8.159978">
        <ele>620.35</ele>
        <time>2013-06-08T09:27:27Z</time>
      </trkpt>
      <trkpt lat="41.788236" lon="-8.159981">
        <ele>619.05</ele>
        <time>2013-06-08T09:27:28Z</time>
      </trkpt>
      <trkpt lat="41.788275" lon="-8.159995">
        <ele>617.66</ele>
        <time>2013-06-08T09:27:29Z</time>
      </trkpt>
      <trkpt lat="41.788310" lon="-8.160014">
        <ele>616.24</ele>
        <time>2013-06-08T09:27:30Z</time>
      </trkpt>
      <trkpt lat="41.788537" lon="-8.160026">
        <ele>609.35</ele>
        <time>2013-06-08T09:27:36Z</time>
      </trkpt>
      <trkpt lat="41.788686" lon="-8.159854">
        <ele>608.34</ele>
        <time>2013-06-08T09:27:41Z</time>
      </trkpt>
      <trkpt lat="41.788712" lon="-8.159807">
        <ele>608.58</ele>
        <time>2013-06-08T09:27:42Z</time>
      </trkpt>
      <trkpt lat="41.788739" lon="-8.159758">
        <ele>608.79</ele>
        <time>2013-06-08T09:27:43Z</time>
      </trkpt>
      <trkpt lat="41.788870" lon="-8.159522">
        <ele>611.02</ele>
        <time>2013-06-08T09:27:48Z</time>
      </trkpt>
      <trkpt lat="41.788898" lon="-8.159481">
        <ele>611.51</ele>
        <time>2013-06-08T09:27:49Z</time>
      </trkpt>
      <trkpt lat="41.788954" lon="-8.159406">
        <ele>612.35</ele>
        <time>2013-06-08T09:27:51Z</time>
      </trkpt>
      <trkpt lat="41.788992" lon="-8.159369">
        <ele>612.58</ele>
        <time>2013-06-08T09:27:52Z</time>
      </trkpt>
      <trkpt lat="41.789078" lon="-8.159297">
        <ele>612.68</ele>
        <time>2013-06-08T09:27:54Z</time>
      </trkpt>
      <trkpt lat="41.789112" lon="-8.159257">
        <ele>613.08</ele>
        <time>2013-06-08T09:27:55Z</time>
      </trkpt>
      <trkpt lat="41.789175" lon="-8.159169">
        <ele>614.06</ele>
        <time>2013-06-08T09:27:57Z</time>
      </trkpt>
      <trkpt lat="41.789205" lon="-8.159118">
        <ele>614.84</ele>
        <time>2013-06-08T09:27:58Z</time>
      </trkpt>
      <trkpt lat="41.789274" lon="-8.159007">
        <ele>616.34</ele>
        <time>2013-06-08T09:28:00Z</time>
      </trkpt>
      <trkpt lat="41.789311" lon="-8.158946">
        <ele>617.28</ele>
        <time>2013-06-08T09:28:01Z</time>
      </trkpt>
      <trkpt lat="41.789391" lon="-8.158844">
        <ele>618.49</ele>
        <time>2013-06-08T09:28:03Z</time>
      </trkpt>
      <trkpt lat="41.789475" lon="-8.158758">
        <ele>619.02</ele>
        <time>2013-06-08T09:28:05Z</time>
      </trkpt>
      <trkpt lat="41.789516" lon="-8.158711">
        <ele>619.61</ele>
        <time>2013-06-08T09:28:06Z</time>
      </trkpt>
      <trkpt lat="41.789854" lon="-8.158179">
        <ele>624.83</ele>
        <time>2013-06-08T09:28:17Z</time>
      </trkpt>
      <trkpt lat="41.789872" lon="-8.158123">
        <ele>625.73</ele>
        <time>2013-06-08T09:28:18Z</time>
      </trkpt>
      <trkpt lat="41.789967" lon="-8.157628">
        <ele>633.98</ele>
        <time>2013-06-08T09:28:27Z</time>
      </trkpt>
      <trkpt lat="41.789977" lon="-8.157566">
        <ele>634.87</ele>
        <time>2013-06-08T09:28:28Z</time>
      </trkpt>
      <trkpt lat="41.789985" lon="-8.157507">
        <ele>635.74</ele>
        <time>2013-06-08T09:28:29Z</time>
      </trkpt>
      <trkpt lat="41.789989" lon="-8.157452">
        <ele>636.76</ele>
        <time>2013-06-08T09:28:30Z</time>
      </trkpt>
      <trkpt lat="41.790002" lon="-8.157398">
        <ele>637.38</ele>
        <time>2013-06-08T09:28:31Z</time>
      </trkpt>
      <trkpt lat="41.790012" lon="-8.157346">
        <ele>638.05</ele>
        <time>2013-06-08T09:28:32Z</time>
      </trkpt>
      <trkpt lat="41.790025" lon="-8.157294">
        <ele>638.60</ele>
        <time>2013-06-08T09:28:33Z</time>
      </trkpt>
      <trkpt lat="41.790035" lon="-8.157239">
        <ele>639.31</ele>
        <time>2013-06-08T09:28:34Z</time>
      </trkpt>
      <trkpt lat="41.790050" lon="-8.157185">
        <ele>639.81</ele>
        <time>2013-06-08T09:28:35Z</time>
      </trkpt>
      <trkpt lat="41.790050" lon="-8.157136">
        <ele>640.93</ele>
        <time>2013-06-08T09:28:36Z</time>
      </trkpt>
      <trkpt lat="41.790072" lon="-8.157039">
        <ele>641.91</ele>
        <time>2013-06-08T09:28:38Z</time>
      </trkpt>
      <trkpt lat="41.790106" lon="-8.156989">
        <ele>641.47</ele>
        <time>2013-06-08T09:28:39Z</time>
      </trkpt>
      <trkpt lat="41.790167" lon="-8.156892">
        <ele>640.79</ele>
        <time>2013-06-08T09:28:41Z</time>
      </trkpt>
      <trkpt lat="41.790280" lon="-8.156737">
        <ele>638.79</ele>
        <time>2013-06-08T09:28:45Z</time>
      </trkpt>
      <trkpt lat="41.790312" lon="-8.156725">
        <ele>637.59</ele>
        <time>2013-06-08T09:28:47Z</time>
      </trkpt>
      <trkpt lat="41.790357" lon="-8.156699">
        <ele>636.05</ele>
        <time>2013-06-08T09:28:50Z</time>
      </trkpt>
      <trkpt lat="41.790372" lon="-8.156683">
        <ele>635.73</ele>
        <time>2013-06-08T09:28:51Z</time>
      </trkpt>
      <trkpt lat="41.790380" lon="-8.156664">
        <ele>635.62</ele>
        <time>2013-06-08T09:28:52Z</time>
      </trkpt>
      <trkpt lat="41.790390" lon="-8.156644">
        <ele>635.51</ele>
        <time>2013-06-08T09:28:53Z</time>
      </trkpt>
      <trkpt lat="41.790409" lon="-8.156619">
        <ele>635.11</ele>
        <time>2013-06-08T09:28:54Z</time>
      </trkpt>
      <trkpt lat="41.790424" lon="-8.156590">
        <ele>634.98</ele>
        <time>2013-06-08T09:28:55Z</time>
      </trkpt>
      <trkpt lat="41.790441" lon="-8.156558">
        <ele>634.70</ele>
        <time>2013-06-08T09:28:56Z</time>
      </trkpt>
      <trkpt lat="41.790460" lon="-8.156526">
        <ele>634.23</ele>
        <time>2013-06-08T09:28:57Z</time>
      </trkpt>
      <trkpt lat="41.790476" lon="-8.156491">
        <ele>634.12</ele>
        <time>2013-06-08T09:28:58Z</time>
      </trkpt>
      <trkpt lat="41.790495" lon="-8.156455">
        <ele>633.77</ele>
        <time>2013-06-08T09:28:59Z</time>
      </trkpt>
      <trkpt lat="41.790510" lon="-8.156415">
        <ele>633.77</ele>
        <time>2013-06-08T09:29:00Z</time>
      </trkpt>
      <trkpt lat="41.790522" lon="-8.156375">
        <ele>633.77</ele>
        <time>2013-06-08T09:29:01Z</time>
      </trkpt>
      <trkpt lat="41.790539" lon="-8.156334">
        <ele>633.66</ele>
        <time>2013-06-08T09:29:02Z</time>
      </trkpt>
      <trkpt lat="41.790559" lon="-8.156293">
        <ele>633.34</ele>
        <time>2013-06-08T09:29:03Z</time>
      </trkpt>
      <trkpt lat="41.790584" lon="-8.156254">
        <ele>632.72</ele>
        <time>2013-06-08T09:29:04Z</time>
      </trkpt>
      <trkpt lat="41.790607" lon="-8.156215">
        <ele>632.21</ele>
        <time>2013-06-08T09:29:05Z</time>
      </trkpt>
      <trkpt lat="41.790629" lon="-8.156171">
        <ele>631.96</ele>
        <time>2013-06-08T09:29:06Z</time>
      </trkpt>
      <trkpt lat="41.790636" lon="-8.156126">
        <ele>632.45</ele>
        <time>2013-06-08T09:29:07Z</time>
      </trkpt>
      <trkpt lat="41.790639" lon="-8.156078">
        <ele>633.14</ele>
        <time>2013-06-08T09:29:08Z</time>
      </trkpt>
      <trkpt lat="41.790643" lon="-8.156033">
        <ele>633.79</ele>
        <time>2013-06-08T09:29:09Z</time>
      </trkpt>
      <trkpt lat="41.790648" lon="-8.155984">
        <ele>634.33</ele>
        <time>2013-06-08T09:29:10Z</time>
      </trkpt>
      <trkpt lat="41.790671" lon="-8.155933">
        <ele>634.09</ele>
        <time>2013-06-08T09:29:11Z</time>
      </trkpt>
      <trkpt lat="41.790760" lon="-8.155324">
        <ele>639.16</ele>
        <time>2013-06-08T09:29:23Z</time>
      </trkpt>
      <trkpt lat="41.790612" lon="-8.155010">
        <ele>646.27</ele>
        <time>2013-06-08T09:29:30Z</time>
      </trkpt>
      <trkpt lat="41.790583" lon="-8.154965">
        <ele>647.56</ele>
        <time>2013-06-08T09:29:31Z</time>
      </trkpt>
      <trkpt lat="41.790561" lon="-8.154916">
        <ele>648.62</ele>
        <time>2013-06-08T09:29:32Z</time>
      </trkpt>
      <trkpt lat="41.790541" lon="-8.154870">
        <ele>649.51</ele>
        <time>2013-06-08T09:29:33Z</time>
      </trkpt>
      <trkpt lat="41.790519" lon="-8.154827">
        <ele>650.51</ele>
        <time>2013-06-08T09:29:34Z</time>
      </trkpt>
      <trkpt lat="41.790499" lon="-8.154782">
        <ele>651.49</ele>
        <time>2013-06-08T09:29:35Z</time>
      </trkpt>
      <trkpt lat="41.790485" lon="-8.154737">
        <ele>652.07</ele>
        <time>2013-06-08T09:29:36Z</time>
      </trkpt>
      <trkpt lat="41.790474" lon="-8.154695">
        <ele>652.51</ele>
        <time>2013-06-08T09:29:37Z</time>
      </trkpt>
      <trkpt lat="41.790467" lon="-8.154666">
        <ele>652.88</ele>
        <time>2013-06-08T09:29:38Z</time>
      </trkpt>
      <trkpt lat="41.790459" lon="-8.154641">
        <ele>653.22</ele>
        <time>2013-06-08T09:29:39Z</time>
      </trkpt>
      <trkpt lat="41.790430" lon="-8.154377">
        <ele>654.07</ele>
        <time>2013-06-08T09:29:45Z</time>
      </trkpt>
      <trkpt lat="41.790430" lon="-8.154309">
        <ele>653.90</ele>
        <time>2013-06-08T09:29:46Z</time>
      </trkpt>
      <trkpt lat="41.790438" lon="-8.154247">
        <ele>653.41</ele>
        <time>2013-06-08T09:29:47Z</time>
      </trkpt>
      <trkpt lat="41.790453" lon="-8.154188">
        <ele>652.63</ele>
        <time>2013-06-08T09:29:48Z</time>
      </trkpt>
      <trkpt lat="41.790480" lon="-8.154128">
        <ele>651.51</ele>
        <time>2013-06-08T09:29:49Z</time>
      </trkpt>
      <trkpt lat="41.790510" lon="-8.154071">
        <ele>650.33</ele>
        <time>2013-06-08T09:29:50Z</time>
      </trkpt>
      <trkpt lat="41.790543" lon="-8.154015">
        <ele>649.05</ele>
        <time>2013-06-08T09:29:51Z</time>
      </trkpt>
      <trkpt lat="41.790593" lon="-8.153970">
        <ele>647.25</ele>
        <time>2013-06-08T09:29:52Z</time>
      </trkpt>
      <trkpt lat="41.790652" lon="-8.153942">
        <ele>645.10</ele>
        <time>2013-06-08T09:29:53Z</time>
      </trkpt>
      <trkpt lat="41.790709" lon="-8.153930">
        <ele>643.06</ele>
        <time>2013-06-08T09:29:54Z</time>
      </trkpt>
      <trkpt lat="41.790759" lon="-8.153928">
        <ele>641.24</ele>
        <time>2013-06-08T09:29:55Z</time>
      </trkpt>
      <trkpt lat="41.790799" lon="-8.153929">
        <ele>639.85</ele>
        <time>2013-06-08T09:29:56Z</time>
      </trkpt>
      <trkpt lat="41.790843" lon="-8.153924">
        <ele>638.29</ele>
        <time>2013-06-08T09:29:57Z</time>
      </trkpt>
      <trkpt lat="41.790891" lon="-8.153909">
        <ele>636.62</ele>
        <time>2013-06-08T09:29:58Z</time>
      </trkpt>
      <trkpt lat="41.790935" lon="-8.153875">
        <ele>635.13</ele>
        <time>2013-06-08T09:29:59Z</time>
      </trkpt>
      <trkpt lat="41.790975" lon="-8.153828">
        <ele>633.91</ele>
        <time>2013-06-08T09:30:00Z</time>
      </trkpt>
      <trkpt lat="41.791012" lon="-8.153780">
        <ele>632.99</ele>
        <time>2013-06-08T09:30:01Z</time>
      </trkpt>
      <trkpt lat="41.791042" lon="-8.153731">
        <ele>632.46</ele>
        <time>2013-06-08T09:30:02Z</time>
      </trkpt>
      <trkpt lat="41.791071" lon="-8.153685">
        <ele>632.51</ele>
        <time>2013-06-08T09:30:03Z</time>
      </trkpt>
      <trkpt lat="41.791100" lon="-8.153645">
        <ele>632.57</ele>
        <time>2013-06-08T09:30:04Z</time>
      </trkpt>
      <trkpt lat="41.791124" lon="-8.153607">
        <ele>632.64</ele>
        <time>2013-06-08T09:30:05Z</time>
      </trkpt>
      <trkpt lat="41.791152" lon="-8.153561">
        <ele>632.71</ele>
        <time>2013-06-08T09:30:06Z</time>
      </trkpt>
      <trkpt lat="41.791174" lon="-8.153510">
        <ele>633.29</ele>
        <time>2013-06-08T09:30:07Z</time>
      </trkpt>
      <trkpt lat="41.791226" lon="-8.153348">
        <ele>635.44</ele>
        <time>2013-06-08T09:30:10Z</time>
      </trkpt>
      <trkpt lat="41.791243" lon="-8.153294">
        <ele>636.22</ele>
        <time>2013-06-08T09:30:11Z</time>
      </trkpt>
      <trkpt lat="41.791263" lon="-8.153244">
        <ele>636.72</ele>
        <time>2013-06-08T09:30:12Z</time>
      </trkpt>
      <trkpt lat="41.791280" lon="-8.153198">
        <ele>637.21</ele>
        <time>2013-06-08T09:30:13Z</time>
      </trkpt>
      <trkpt lat="41.791295" lon="-8.153152">
        <ele>637.88</ele>
        <time>2013-06-08T09:30:14Z</time>
      </trkpt>
      <trkpt lat="41.791409" lon="-8.152743">
        <ele>643.89</ele>
        <time>2013-06-08T09:30:23Z</time>
      </trkpt>
      <trkpt lat="41.791507" lon="-8.152659">
        <ele>642.34</ele>
        <time>2013-06-08T09:30:26Z</time>
      </trkpt>
      <trkpt lat="41.791549" lon="-8.152630">
        <ele>641.45</ele>
        <time>2013-06-08T09:30:27Z</time>
      </trkpt>
      <trkpt lat="41.791630" lon="-8.152558">
        <ele>640.28</ele>
        <time>2013-06-08T09:30:29Z</time>
      </trkpt>
      <trkpt lat="41.791664" lon="-8.152508">
        <ele>640.12</ele>
        <time>2013-06-08T09:30:30Z</time>
      </trkpt>
      <trkpt lat="41.791695" lon="-8.152453">
        <ele>640.45</ele>
        <time>2013-06-08T09:30:31Z</time>
      </trkpt>
      <trkpt lat="41.791722" lon="-8.152393">
        <ele>640.83</ele>
        <time>2013-06-08T09:30:32Z</time>
      </trkpt>
      <trkpt lat="41.791744" lon="-8.152326">
        <ele>641.76</ele>
        <time>2013-06-08T09:30:33Z</time>
      </trkpt>
      <trkpt lat="41.791921" lon="-8.151824">
        <ele>646.91</ele>
        <time>2013-06-08T09:30:42Z</time>
      </trkpt>
      <trkpt lat="41.791948" lon="-8.151772">
        <ele>647.01</ele>
        <time>2013-06-08T09:30:43Z</time>
      </trkpt>
      <trkpt lat="41.791983" lon="-8.151726">
        <ele>646.68</ele>
        <time>2013-06-08T09:30:44Z</time>
      </trkpt>
      <trkpt lat="41.792024" lon="-8.151687">
        <ele>645.77</ele>
        <time>2013-06-08T09:30:45Z</time>
      </trkpt>
      <trkpt lat="41.792064" lon="-8.151647">
        <ele>644.86</ele>
        <time>2013-06-08T09:30:46Z</time>
      </trkpt>
      <trkpt lat="41.792104" lon="-8.151608">
        <ele>644.04</ele>
        <time>2013-06-08T09:30:47Z</time>
      </trkpt>
      <trkpt lat="41.792136" lon="-8.151575">
        <ele>643.55</ele>
        <time>2013-06-08T09:30:48Z</time>
      </trkpt>
      <trkpt lat="41.792160" lon="-8.151544">
        <ele>643.29</ele>
        <time>2013-06-08T09:30:49Z</time>
      </trkpt>
      <trkpt lat="41.792469" lon="-8.151260">
        <ele>637.06</ele>
        <time>2013-06-08T09:30:59Z</time>
      </trkpt>
      <trkpt lat="41.792724" lon="-8.150825">
        <ele>639.71</ele>
        <time>2013-06-08T09:31:09Z</time>
      </trkpt>
      <trkpt lat="41.792788" lon="-8.150659">
        <ele>641.84</ele>
        <time>2013-06-08T09:31:12Z</time>
      </trkpt>
      <trkpt lat="41.792820" lon="-8.150611">
        <ele>641.81</ele>
        <time>2013-06-08T09:31:13Z</time>
      </trkpt>
      <trkpt lat="41.792848" lon="-8.150565">
        <ele>641.91</ele>
        <time>2013-06-08T09:31:14Z</time>
      </trkpt>
      <trkpt lat="41.792914" lon="-8.150470">
        <ele>641.70</ele>
        <time>2013-06-08T09:31:16Z</time>
      </trkpt>
      <trkpt lat="41.792947" lon="-8.150423">
        <ele>641.62</ele>
        <time>2013-06-08T09:31:17Z</time>
      </trkpt>
      <trkpt lat="41.792980" lon="-8.150374">
        <ele>641.64</ele>
        <time>2013-06-08T09:31:18Z</time>
      </trkpt>
      <trkpt lat="41.793011" lon="-8.150322">
        <ele>641.78</ele>
        <time>2013-06-08T09:31:19Z</time>
      </trkpt>
      <trkpt lat="41.793041" lon="-8.150270">
        <ele>641.88</ele>
        <time>2013-06-08T09:31:20Z</time>
      </trkpt>
      <trkpt lat="41.793189" lon="-8.150012">
        <ele>642.13</ele>
        <time>2013-06-08T09:31:25Z</time>
      </trkpt>
      <trkpt lat="41.793213" lon="-8.149950">
        <ele>642.64</ele>
        <time>2013-06-08T09:31:26Z</time>
      </trkpt>
      <trkpt lat="41.793291" lon="-8.149679">
        <ele>645.72</ele>
        <time>2013-06-08T09:31:31Z</time>
      </trkpt>
      <trkpt lat="41.793292" lon="-8.149620">
        <ele>647.19</ele>
        <time>2013-06-08T09:31:32Z</time>
      </trkpt>
      <trkpt lat="41.793288" lon="-8.149558">
        <ele>648.82</ele>
        <time>2013-06-08T09:31:33Z</time>
      </trkpt>
      <trkpt lat="41.793283" lon="-8.149490">
        <ele>650.71</ele>
        <time>2013-06-08T09:31:34Z</time>
      </trkpt>
      <trkpt lat="41.793274" lon="-8.149420">
        <ele>652.93</ele>
        <time>2013-06-08T09:31:35Z</time>
      </trkpt>
      <trkpt lat="41.793281" lon="-8.149354">
        <ele>654.30</ele>
        <time>2013-06-08T09:31:36Z</time>
      </trkpt>
      <trkpt lat="41.793411" lon="-8.149008">
        <ele>656.44</ele>
        <time>2013-06-08T09:31:43Z</time>
      </trkpt>
      <trkpt lat="41.793506" lon="-8.148873">
        <ele>655.09</ele>
        <time>2013-06-08T09:31:46Z</time>
      </trkpt>
      <trkpt lat="41.793538" lon="-8.148826">
        <ele>654.67</ele>
        <time>2013-06-08T09:31:47Z</time>
      </trkpt>
      <trkpt lat="41.793567" lon="-8.148781">
        <ele>654.33</ele>
        <time>2013-06-08T09:31:48Z</time>
      </trkpt>
      <trkpt lat="41.793639" lon="-8.148700">
        <ele>652.63</ele>
        <time>2013-06-08T09:31:50Z</time>
      </trkpt>
      <trkpt lat="41.793916" lon="-8.148387">
        <ele>647.72</ele>
        <time>2013-06-08T09:31:59Z</time>
      </trkpt>
      <trkpt lat="41.794237" lon="-8.148057">
        <ele>643.88</ele>
        <time>2013-06-08T09:32:10Z</time>
      </trkpt>
      <trkpt lat="41.794381" lon="-8.147799">
        <ele>643.91</ele>
        <time>2013-06-08T09:32:19Z</time>
      </trkpt>
      <trkpt lat="41.794404" lon="-8.147680">
        <ele>644.71</ele>
        <time>2013-06-08T09:32:35Z</time>
      </trkpt>
      <trkpt lat="41.794440" lon="-8.147454">
        <ele>646.26</ele>
        <time>2013-06-08T09:32:41Z</time>
      </trkpt>
      <trkpt lat="41.794431" lon="-8.147406">
        <ele>647.27</ele>
        <time>2013-06-08T09:32:42Z</time>
      </trkpt>
      <trkpt lat="41.794415" lon="-8.147368">
        <ele>648.50</ele>
        <time>2013-06-08T09:32:43Z</time>
      </trkpt>
      <trkpt lat="41.794390" lon="-8.147340">
        <ele>650.04</ele>
        <time>2013-06-08T09:32:44Z</time>
      </trkpt>
      <trkpt lat="41.794367" lon="-8.147317">
        <ele>651.38</ele>
        <time>2013-06-08T09:32:45Z</time>
      </trkpt>
      <trkpt lat="41.794100" lon="-8.147159">
        <ele>666.47</ele>
        <time>2013-06-08T09:32:54Z</time>
      </trkpt>
      <trkpt lat="41.793862" lon="-8.146994">
        <ele>679.00</ele>
        <time>2013-06-08T09:33:01Z</time>
      </trkpt>
      <trkpt lat="41.793845" lon="-8.146950">
        <ele>679.58</ele>
        <time>2013-06-08T09:33:02Z</time>
      </trkpt>
      <trkpt lat="41.793834" lon="-8.146904">
        <ele>679.83</ele>
        <time>2013-06-08T09:33:03Z</time>
      </trkpt>
      <trkpt lat="41.793791" lon="-8.146722">
        <ele>681.12</ele>
        <time>2013-06-08T09:33:06Z</time>
      </trkpt>
      <trkpt lat="41.793769" lon="-8.146670">
        <ele>682.01</ele>
        <time>2013-06-08T09:33:07Z</time>
      </trkpt>
      <trkpt lat="41.793704" lon="-8.146517">
        <ele>685.52</ele>
        <time>2013-06-08T09:33:10Z</time>
      </trkpt>
      <trkpt lat="41.793653" lon="-8.146425">
        <ele>688.89</ele>
        <time>2013-06-08T09:33:12Z</time>
      </trkpt>
      <trkpt lat="41.793636" lon="-8.146375">
        <ele>689.97</ele>
        <time>2013-06-08T09:33:13Z</time>
      </trkpt>
      <trkpt lat="41.793623" lon="-8.146328">
        <ele>690.76</ele>
        <time>2013-06-08T09:33:14Z</time>
      </trkpt>
      <trkpt lat="41.793614" lon="-8.146275">
        <ele>691.25</ele>
        <time>2013-06-08T09:33:15Z</time>
      </trkpt>
      <trkpt lat="41.793611" lon="-8.146214">
        <ele>690.79</ele>
        <time>2013-06-08T09:33:16Z</time>
      </trkpt>
      <trkpt lat="41.793617" lon="-8.146151">
        <ele>689.18</ele>
        <time>2013-06-08T09:33:17Z</time>
      </trkpt>
      <trkpt lat="41.793625" lon="-8.146090">
        <ele>687.59</ele>
        <time>2013-06-08T09:33:18Z</time>
      </trkpt>
      <trkpt lat="41.793626" lon="-8.146014">
        <ele>686.17</ele>
        <time>2013-06-08T09:33:19Z</time>
      </trkpt>
      <trkpt lat="41.793624" lon="-8.145942">
        <ele>684.92</ele>
        <time>2013-06-08T09:33:20Z</time>
      </trkpt>
      <trkpt lat="41.793605" lon="-8.145733">
        <ele>682.61</ele>
        <time>2013-06-08T09:33:23Z</time>
      </trkpt>
      <trkpt lat="41.793588" lon="-8.145664">
        <ele>682.56</ele>
        <time>2013-06-08T09:33:24Z</time>
      </trkpt>
      <trkpt lat="41.793527" lon="-8.145362">
        <ele>681.57</ele>
        <time>2013-06-08T09:33:28Z</time>
      </trkpt>
      <trkpt lat="41.793511" lon="-8.145275">
        <ele>681.49</ele>
        <time>2013-06-08T09:33:29Z</time>
      </trkpt>
      <trkpt lat="41.793486" lon="-8.145184">
        <ele>681.73</ele>
        <time>2013-06-08T09:33:30Z</time>
      </trkpt>
      <trkpt lat="41.793464" lon="-8.145094">
        <ele>681.97</ele>
        <time>2013-06-08T09:33:31Z</time>
      </trkpt>
      <trkpt lat="41.793456" lon="-8.144999">
        <ele>681.09</ele>
        <time>2013-06-08T09:33:32Z</time>
      </trkpt>
      <trkpt lat="41.793456" lon="-8.144899">
        <ele>679.63</ele>
        <time>2013-06-08T09:33:33Z</time>
      </trkpt>
      <trkpt lat="41.793464" lon="-8.144691">
        <ele>676.12</ele>
        <time>2013-06-08T09:33:35Z</time>
      </trkpt>
      <trkpt lat="41.793481" lon="-8.144593">
        <ele>673.60</ele>
        <time>2013-06-08T09:33:36Z</time>
      </trkpt>
      <trkpt lat="41.793614" lon="-8.143682">
        <ele>667.51</ele>
        <time>2013-06-08T09:33:46Z</time>
      </trkpt>
      <trkpt lat="41.793621" lon="-8.143614">
        <ele>667.81</ele>
        <time>2013-06-08T09:33:47Z</time>
      </trkpt>
      <trkpt lat="41.793631" lon="-8.143491">
        <ele>668.43</ele>
        <time>2013-06-08T09:33:49Z</time>
      </trkpt>
      <trkpt lat="41.793629" lon="-8.143373">
        <ele>669.67</ele>
        <time>2013-06-08T09:33:51Z</time>
      </trkpt>
      <trkpt lat="41.793631" lon="-8.143148">
        <ele>671.65</ele>
        <time>2013-06-08T09:33:55Z</time>
      </trkpt>
      <trkpt lat="41.793639" lon="-8.143095">
        <ele>671.62</ele>
        <time>2013-06-08T09:33:56Z</time>
      </trkpt>
      <trkpt lat="41.793649" lon="-8.143049">
        <ele>671.58</ele>
        <time>2013-06-08T09:33:57Z</time>
      </trkpt>
      <trkpt lat="41.793663" lon="-8.143001">
        <ele>671.18</ele>
        <time>2013-06-08T09:33:58Z</time>
      </trkpt>
      <trkpt lat="41.793674" lon="-8.142949">
        <ele>671.08</ele>
        <time>2013-06-08T09:33:59Z</time>
      </trkpt>
      <trkpt lat="41.793680" lon="-8.142895">
        <ele>671.27</ele>
        <time>2013-06-08T09:34:00Z</time>
      </trkpt>
      <trkpt lat="41.793697" lon="-8.142845">
        <ele>670.83</ele>
        <time>2013-06-08T09:34:01Z</time>
      </trkpt>
      <trkpt lat="41.793716" lon="-8.142798">
        <ele>670.32</ele>
        <time>2013-06-08T09:34:02Z</time>
      </trkpt>
      <trkpt lat="41.793859" lon="-8.142313">
        <ele>669.11</ele>
        <time>2013-06-08T09:34:12Z</time>
      </trkpt>
      <trkpt lat="41.793930" lon="-8.142101">
        <ele>668.28</ele>
        <time>2013-06-08T09:34:17Z</time>
      </trkpt>
      <trkpt lat="41.793942" lon="-8.142046">
        <ele>668.39</ele>
        <time>2013-06-08T09:34:18Z</time>
      </trkpt>
      <trkpt lat="41.793946" lon="-8.141988">
        <ele>668.83</ele>
        <time>2013-06-08T09:34:19Z</time>
      </trkpt>
      <trkpt lat="41.793952" lon="-8.141826">
        <ele>670.63</ele>
        <time>2013-06-08T09:34:22Z</time>
      </trkpt>
      <trkpt lat="41.793942" lon="-8.141773">
        <ele>671.87</ele>
        <time>2013-06-08T09:34:23Z</time>
      </trkpt>
      <trkpt lat="41.793917" lon="-8.141659">
        <ele>674.64</ele>
        <time>2013-06-08T09:34:25Z</time>
      </trkpt>
      <trkpt lat="41.793899" lon="-8.141602">
        <ele>676.37</ele>
        <time>2013-06-08T09:34:26Z</time>
      </trkpt>
      <trkpt lat="41.793889" lon="-8.141543">
        <ele>677.73</ele>
        <time>2013-06-08T09:34:27Z</time>
      </trkpt>
      <trkpt lat="41.793817" lon="-8.140981">
        <ele>684.30</ele>
        <time>2013-06-08T09:34:38Z</time>
      </trkpt>
      <trkpt lat="41.793803" lon="-8.140941">
        <ele>684.82</ele>
        <time>2013-06-08T09:34:39Z</time>
      </trkpt>
      <trkpt lat="41.793786" lon="-8.140896">
        <ele>685.51</ele>
        <time>2013-06-08T09:34:40Z</time>
      </trkpt>
      <trkpt lat="41.793770" lon="-8.140767">
        <ele>685.49</ele>
        <time>2013-06-08T09:34:43Z</time>
      </trkpt>
      <trkpt lat="41.793778" lon="-8.140739">
        <ele>684.89</ele>
        <time>2013-06-08T09:34:44Z</time>
      </trkpt>
      <trkpt lat="41.793784" lon="-8.140707">
        <ele>684.33</ele>
        <time>2013-06-08T09:34:45Z</time>
      </trkpt>
      <trkpt lat="41.793788" lon="-8.140669">
        <ele>683.88</ele>
        <time>2013-06-08T09:34:46Z</time>
      </trkpt>
      <trkpt lat="41.793783" lon="-8.140615">
        <ele>683.72</ele>
        <time>2013-06-08T09:34:47Z</time>
      </trkpt>
      <trkpt lat="41.793778" lon="-8.140550">
        <ele>683.52</ele>
        <time>2013-06-08T09:34:48Z</time>
      </trkpt>
      <trkpt lat="41.793785" lon="-8.140488">
        <ele>682.83</ele>
        <time>2013-06-08T09:34:49Z</time>
      </trkpt>
      <trkpt lat="41.793801" lon="-8.140397">
        <ele>681.25</ele>
        <time>2013-06-08T09:34:51Z</time>
      </trkpt>
      <trkpt lat="41.793796" lon="-8.140341">
        <ele>680.70</ele>
        <time>2013-06-08T09:34:52Z</time>
      </trkpt>
      <trkpt lat="41.793798" lon="-8.140301">
        <ele>680.11</ele>
        <time>2013-06-08T09:34:53Z</time>
      </trkpt>
      <trkpt lat="41.793796" lon="-8.140236">
        <ele>679.31</ele>
        <time>2013-06-08T09:34:54Z</time>
      </trkpt>
      <trkpt lat="41.793798" lon="-8.140174">
        <ele>678.36</ele>
        <time>2013-06-08T09:34:55Z</time>
      </trkpt>
      <trkpt lat="41.793799" lon="-8.140112">
        <ele>677.53</ele>
        <time>2013-06-08T09:34:56Z</time>
      </trkpt>
      <trkpt lat="41.793798" lon="-8.140053">
        <ele>676.75</ele>
        <time>2013-06-08T09:34:57Z</time>
      </trkpt>
      <trkpt lat="41.793794" lon="-8.139992">
        <ele>676.04</ele>
        <time>2013-06-08T09:34:58Z</time>
      </trkpt>
      <trkpt lat="41.793786" lon="-8.139710">
        <ele>672.55</ele>
        <time>2013-06-08T09:35:07Z</time>
      </trkpt>
      <trkpt lat="41.793788" lon="-8.139709">
        <ele>672.44</ele>
        <time>2013-06-08T09:35:28Z</time>
      </trkpt>
      <trkpt lat="41.793776" lon="-8.139695">
        <ele>672.72</ele>
        <time>2013-06-08T09:35:29Z</time>
      </trkpt>
      <trkpt lat="41.793767" lon="-8.139675">
        <ele>672.73</ele>
        <time>2013-06-08T09:35:30Z</time>
      </trkpt>
      <trkpt lat="41.793582" lon="-8.139452">
        <ele>676.70</ele>
        <time>2013-06-08T09:35:37Z</time>
      </trkpt>
      <trkpt lat="41.793549" lon="-8.139418">
        <ele>677.42</ele>
        <time>2013-06-08T09:35:38Z</time>
      </trkpt>
      <trkpt lat="41.793515" lon="-8.139393">
        <ele>678.31</ele>
        <time>2013-06-08T09:35:39Z</time>
      </trkpt>
      <trkpt lat="41.793437" lon="-8.139342">
        <ele>680.55</ele>
        <time>2013-06-08T09:35:41Z</time>
      </trkpt>
      <trkpt lat="41.793394" lon="-8.139312">
        <ele>681.74</ele>
        <time>2013-06-08T09:35:42Z</time>
      </trkpt>
      <trkpt lat="41.793351" lon="-8.139265">
        <ele>682.43</ele>
        <time>2013-06-08T09:35:43Z</time>
      </trkpt>
      <trkpt lat="41.793313" lon="-8.139218">
        <ele>682.99</ele>
        <time>2013-06-08T09:35:44Z</time>
      </trkpt>
      <trkpt lat="41.793277" lon="-8.139173">
        <ele>683.44</ele>
        <time>2013-06-08T09:35:45Z</time>
      </trkpt>
      <trkpt lat="41.793206" lon="-8.139092">
        <ele>684.35</ele>
        <time>2013-06-08T09:35:47Z</time>
      </trkpt>
      <trkpt lat="41.793175" lon="-8.139044">
        <ele>684.59</ele>
        <time>2013-06-08T09:35:48Z</time>
      </trkpt>
      <trkpt lat="41.793091" lon="-8.138909">
        <ele>684.53</ele>
        <time>2013-06-08T09:35:51Z</time>
      </trkpt>
      <trkpt lat="41.793058" lon="-8.138858">
        <ele>684.59</ele>
        <time>2013-06-08T09:35:52Z</time>
      </trkpt>
      <trkpt lat="41.792955" lon="-8.138704">
        <ele>684.41</ele>
        <time>2013-06-08T09:35:55Z</time>
      </trkpt>
      <trkpt lat="41.792884" lon="-8.138591">
        <ele>683.51</ele>
        <time>2013-06-08T09:35:57Z</time>
      </trkpt>
      <trkpt lat="41.792705" lon="-8.138301">
        <ele>679.53</ele>
        <time>2013-06-08T09:36:03Z</time>
      </trkpt>
      <trkpt lat="41.792689" lon="-8.138246">
        <ele>678.13</ele>
        <time>2013-06-08T09:36:04Z</time>
      </trkpt>
      <trkpt lat="41.792680" lon="-8.138200">
        <ele>676.98</ele>
        <time>2013-06-08T09:36:05Z</time>
      </trkpt>
      <trkpt lat="41.792671" lon="-8.138162">
        <ele>675.96</ele>
        <time>2013-06-08T09:36:06Z</time>
      </trkpt>
      <trkpt lat="41.792663" lon="-8.138134">
        <ele>675.20</ele>
        <time>2013-06-08T09:36:07Z</time>
      </trkpt>
      <trkpt lat="41.792649" lon="-8.138067">
        <ele>673.33</ele>
        <time>2013-06-08T09:36:20Z</time>
      </trkpt>
      <trkpt lat="41.792614" lon="-8.137949">
        <ele>670.17</ele>
        <time>2013-06-08T09:36:34Z</time>
      </trkpt>
      <trkpt lat="41.792594" lon="-8.137881">
        <ele>669.41</ele>
        <time>2013-06-08T09:36:36Z</time>
      </trkpt>
      <trkpt lat="41.792591" lon="-8.137848">
        <ele>669.53</ele>
        <time>2013-06-08T09:36:37Z</time>
      </trkpt>
      <trkpt lat="41.792596" lon="-8.137834">
        <ele>669.40</ele>
        <time>2013-06-08T09:36:38Z</time>
      </trkpt>
      <trkpt lat="41.792603" lon="-8.137824">
        <ele>669.31</ele>
        <time>2013-06-08T09:36:39Z</time>
      </trkpt>
      <trkpt lat="41.792659" lon="-8.137761">
        <ele>668.60</ele>
        <time>2013-06-08T09:36:45Z</time>
      </trkpt>
      <trkpt lat="41.792685" lon="-8.137721">
        <ele>668.27</ele>
        <time>2013-06-08T09:36:48Z</time>
      </trkpt>
      <trkpt lat="41.792667" lon="-8.137610">
        <ele>668.62</ele>
        <time>2013-06-08T09:36:58Z</time>
      </trkpt>
      <trkpt lat="41.792665" lon="-8.137573">
        <ele>668.73</ele>
        <time>2013-06-08T09:37:15Z</time>
      </trkpt>
      <trkpt lat="41.792751" lon="-8.137529">
        <ele>667.98</ele>
        <time>2013-06-08T09:37:23Z</time>
      </trkpt>
      <trkpt lat="41.792762" lon="-8.137518">
        <ele>667.84</ele>
        <time>2013-06-08T09:37:24Z</time>
      </trkpt>
      <trkpt lat="41.792842" lon="-8.137579">
        <ele>666.87</ele>
        <time>2013-06-08T09:37:29Z</time>
      </trkpt>
      <trkpt lat="41.792895" lon="-8.137612">
        <ele>666.13</ele>
        <time>2013-06-08T09:37:32Z</time>
      </trkpt>
      <trkpt lat="41.792920" lon="-8.137649">
        <ele>665.69</ele>
        <time>2013-06-08T09:37:34Z</time>
      </trkpt>
      <trkpt lat="41.792994" lon="-8.137793">
        <ele>664.01</ele>
        <time>2013-06-08T09:37:40Z</time>
      </trkpt>
      <trkpt lat="41.793253" lon="-8.137997">
        <ele>661.41</ele>
        <time>2013-06-08T09:37:54Z</time>
      </trkpt>
      <trkpt lat="41.793321" lon="-8.138051">
        <ele>661.34</ele>
        <time>2013-06-08T09:38:04Z</time>
      </trkpt>
      <trkpt lat="41.793327" lon="-8.138059">
        <ele>661.40</ele>
        <time>2013-06-08T09:38:05Z</time>
      </trkpt>
      <trkpt lat="41.793422" lon="-8.138308">
        <ele>663.10</ele>
        <time>2013-06-08T09:38:16Z</time>
      </trkpt>
      <trkpt lat="41.793649" lon="-8.138492">
        <ele>659.04</ele>
        <time>2013-06-08T09:38:26Z</time>
      </trkpt>
      <trkpt lat="41.793688" lon="-8.138523">
        <ele>658.07</ele>
        <time>2013-06-08T09:38:35Z</time>
      </trkpt>
      <trkpt lat="41.793744" lon="-8.138584">
        <ele>656.63</ele>
        <time>2013-06-08T09:38:48Z</time>
      </trkpt>
      <trkpt lat="41.793812" lon="-8.138553">
        <ele>655.37</ele>
        <time>2013-06-08T09:38:55Z</time>
      </trkpt>
      <trkpt lat="41.793974" lon="-8.138316">
        <ele>653.20</ele>
        <time>2013-06-08T09:39:06Z</time>
      </trkpt>
      <trkpt lat="41.794036" lon="-8.138165">
        <ele>652.85</ele>
        <time>2013-06-08T09:39:11Z</time>
      </trkpt>
      <trkpt lat="41.794075" lon="-8.138061">
        <ele>652.82</ele>
        <time>2013-06-08T09:39:13Z</time>
      </trkpt>
      <trkpt lat="41.794257" lon="-8.137686">
        <ele>657.01</ele>
        <time>2013-06-08T09:39:21Z</time>
      </trkpt>
      <trkpt lat="41.794290" lon="-8.137598">
        <ele>658.58</ele>
        <time>2013-06-08T09:39:23Z</time>
      </trkpt>
      <trkpt lat="41.794331" lon="-8.137123">
        <ele>666.83</ele>
        <time>2013-06-08T09:39:32Z</time>
      </trkpt>
      <trkpt lat="41.794295" lon="-8.136708">
        <ele>670.91</ele>
        <time>2013-06-08T09:39:39Z</time>
      </trkpt>
      <trkpt lat="41.794299" lon="-8.136327">
        <ele>674.14</ele>
        <time>2013-06-08T09:39:45Z</time>
      </trkpt>
      <trkpt lat="41.794388" lon="-8.136144">
        <ele>674.31</ele>
        <time>2013-06-08T09:39:49Z</time>
      </trkpt>
      <trkpt lat="41.794589" lon="-8.135889">
        <ele>673.21</ele>
        <time>2013-06-08T09:39:55Z</time>
      </trkpt>
      <trkpt lat="41.794853" lon="-8.135760">
        <ele>670.33</ele>
        <time>2013-06-08T09:40:03Z</time>
      </trkpt>
      <trkpt lat="41.794891" lon="-8.135709">
        <ele>670.06</ele>
        <time>2013-06-08T09:40:09Z</time>
      </trkpt>
      <trkpt lat="41.794975" lon="-8.135599">
        <ele>669.32</ele>
        <time>2013-06-08T09:40:18Z</time>
      </trkpt>
      <trkpt lat="41.795031" lon="-8.135566">
        <ele>668.61</ele>
        <time>2013-06-08T09:40:37Z</time>
      </trkpt>
      <trkpt lat="41.795110" lon="-8.135580">
        <ele>667.61</ele>
        <time>2013-06-08T09:40:48Z</time>
      </trkpt>
      <trkpt lat="41.795167" lon="-8.135638">
        <ele>666.73</ele>
        <time>2013-06-08T09:40:57Z</time>
      </trkpt>
      <trkpt lat="41.795190" lon="-8.135734">
        <ele>666.19</ele>
        <time>2013-06-08T09:41:10Z</time>
      </trkpt>
      <trkpt lat="41.795188" lon="-8.135770">
        <ele>666.12</ele>
        <time>2013-06-08T09:41:46Z</time>
      </trkpt>
      <trkpt lat="41.795189" lon="-8.135769">
        <ele>666.03</ele>
        <time>2013-06-08T09:42:12Z</time>
      </trkpt>
      <trkpt lat="41.795196" lon="-8.135762">
        <ele>666.04</ele>
        <time>2013-06-08T09:42:36Z</time>
      </trkpt>
      <trkpt lat="41.795191" lon="-8.135760">
        <ele>666.02</ele>
        <time>2013-06-08T09:43:08Z</time>
      </trkpt>
      <trkpt lat="41.795209" lon="-8.135798">
        <ele>665.75</ele>
        <time>2013-06-08T09:43:22Z</time>
      </trkpt>
      <trkpt lat="41.795249" lon="-8.135857">
        <ele>665.18</ele>
        <time>2013-06-08T09:43:33Z</time>
      </trkpt>
      <trkpt lat="41.795284" lon="-8.135873">
        <ele>664.66</ele>
        <time>2013-06-08T09:43:52Z</time>
      </trkpt>
      <trkpt lat="41.795214" lon="-8.135773">
        <ele>665.72</ele>
        <time>2013-06-08T09:44:04Z</time>
      </trkpt>
      <trkpt lat="41.795192" lon="-8.135699">
        <ele>666.21</ele>
        <time>2013-06-08T09:44:19Z</time>
      </trkpt>
      <trkpt lat="41.795161" lon="-8.135641">
        <ele>666.83</ele>
        <time>2013-06-08T09:44:29Z</time>
      </trkpt>
      <trkpt lat="41.795108" lon="-8.135581">
        <ele>667.66</ele>
        <time>2013-06-08T09:44:40Z</time>
      </trkpt>
      <trkpt lat="41.795056" lon="-8.135541">
        <ele>668.44</ele>
        <time>2013-06-08T09:44:52Z</time>
      </trkpt>
      <trkpt lat="41.795078" lon="-8.135537">
        <ele>668.12</ele>
        <time>2013-06-08T09:45:03Z</time>
      </trkpt>
      <trkpt lat="41.795135" lon="-8.135506">
        <ele>667.57</ele>
        <time>2013-06-08T09:45:14Z</time>
      </trkpt>
      <trkpt lat="41.795210" lon="-8.135477">
        <ele>666.64</ele>
        <time>2013-06-08T09:45:25Z</time>
      </trkpt>
      <trkpt lat="41.795239" lon="-8.135454">
        <ele>666.21</ele>
        <time>2013-06-08T09:45:29Z</time>
      </trkpt>
      <trkpt lat="41.795329" lon="-8.135376">
        <ele>666.03</ele>
        <time>2013-06-08T09:45:42Z</time>
      </trkpt>
      <trkpt lat="41.795421" lon="-8.135335">
        <ele>665.89</ele>
        <time>2013-06-08T09:45:54Z</time>
      </trkpt>
      <trkpt lat="41.795475" lon="-8.135301">
        <ele>666.82</ele>
        <time>2013-06-08T09:46:01Z</time>
      </trkpt>
      <trkpt lat="41.795505" lon="-8.135312">
        <ele>666.71</ele>
        <time>2013-06-08T09:46:03Z</time>
      </trkpt>
      <trkpt lat="41.795541" lon="-8.135301">
        <ele>667.17</ele>
        <time>2013-06-08T09:46:06Z</time>
      </trkpt>
      <trkpt lat="41.795643" lon="-8.135263">
        <ele>668.47</ele>
        <time>2013-06-08T09:46:18Z</time>
      </trkpt>
      <trkpt lat="41.795754" lon="-8.135246">
        <ele>669.24</ele>
        <time>2013-06-08T09:46:27Z</time>
      </trkpt>
      <trkpt lat="41.795812" lon="-8.135222">
        <ele>669.98</ele>
        <time>2013-06-08T09:46:31Z</time>
      </trkpt>
      <trkpt lat="41.795968" lon="-8.135271">
        <ele>669.85</ele>
        <time>2013-06-08T09:46:37Z</time>
      </trkpt>
      <trkpt lat="41.796067" lon="-8.135237">
        <ele>670.83</ele>
        <time>2013-06-08T09:46:41Z</time>
      </trkpt>
      <trkpt lat="41.796282" lon="-8.135080">
        <ele>673.97</ele>
        <time>2013-06-08T09:46:49Z</time>
      </trkpt>
      <trkpt lat="41.796363" lon="-8.135011">
        <ele>674.72</ele>
        <time>2013-06-08T09:46:53Z</time>
      </trkpt>
      <trkpt lat="41.796567" lon="-8.134926">
        <ele>675.10</ele>
        <time>2013-06-08T09:47:00Z</time>
      </trkpt>
      <trkpt lat="41.796731" lon="-8.134856">
        <ele>674.71</ele>
        <time>2013-06-08T09:47:11Z</time>
      </trkpt>
      <trkpt lat="41.796730" lon="-8.134857">
        <ele>674.71</ele>
        <time>2013-06-08T09:47:14Z</time>
      </trkpt>
      <trkpt lat="41.796785" lon="-8.134812">
        <ele>674.56</ele>
        <time>2013-06-08T09:47:22Z</time>
      </trkpt>
      <trkpt lat="41.796900" lon="-8.134766">
        <ele>673.62</ele>
        <time>2013-06-08T09:47:33Z</time>
      </trkpt>
      <trkpt lat="41.797102" lon="-8.134718">
        <ele>672.16</ele>
        <time>2013-06-08T09:47:43Z</time>
      </trkpt>
      <trkpt lat="41.797233" lon="-8.134657">
        <ele>672.07</ele>
        <time>2013-06-08T09:47:46Z</time>
      </trkpt>
      <trkpt lat="41.797278" lon="-8.134654">
        <ele>672.17</ele>
        <time>2013-06-08T09:47:47Z</time>
      </trkpt>
      <trkpt lat="41.797318" lon="-8.134647">
        <ele>672.25</ele>
        <time>2013-06-08T09:47:48Z</time>
      </trkpt>
      <trkpt lat="41.797414" lon="-8.134611">
        <ele>671.95</ele>
        <time>2013-06-08T09:47:51Z</time>
      </trkpt>
      <trkpt lat="41.797435" lon="-8.134592">
        <ele>671.62</ele>
        <time>2013-06-08T09:47:52Z</time>
      </trkpt>
      <trkpt lat="41.797454" lon="-8.134574">
        <ele>671.71</ele>
        <time>2013-06-08T09:47:53Z</time>
      </trkpt>
      <trkpt lat="41.797476" lon="-8.134562">
        <ele>672.02</ele>
        <time>2013-06-08T09:47:54Z</time>
      </trkpt>
      <trkpt lat="41.797498" lon="-8.134555">
        <ele>672.21</ele>
        <time>2013-06-08T09:47:55Z</time>
      </trkpt>
      <trkpt lat="41.797518" lon="-8.134552">
        <ele>672.38</ele>
        <time>2013-06-08T09:47:56Z</time>
      </trkpt>
      <trkpt lat="41.797567" lon="-8.134529">
        <ele>672.88</ele>
        <time>2013-06-08T09:48:00Z</time>
      </trkpt>
      <trkpt lat="41.797680" lon="-8.134441">
        <ele>674.56</ele>
        <time>2013-06-08T09:48:10Z</time>
      </trkpt>
      <trkpt lat="41.797745" lon="-8.134417">
        <ele>674.89</ele>
        <time>2013-06-08T09:48:20Z</time>
      </trkpt>
      <trkpt lat="41.797778" lon="-8.134429">
        <ele>674.56</ele>
        <time>2013-06-08T09:48:31Z</time>
      </trkpt>
      <trkpt lat="41.797855" lon="-8.134420">
        <ele>674.60</ele>
        <time>2013-06-08T09:48:46Z</time>
      </trkpt>
      <trkpt lat="41.797929" lon="-8.134432">
        <ele>674.39</ele>
        <time>2013-06-08T09:48:54Z</time>
      </trkpt>
      <trkpt lat="41.798047" lon="-8.134411">
        <ele>675.39</ele>
        <time>2013-06-08T09:49:05Z</time>
      </trkpt>
      <trkpt lat="41.798167" lon="-8.134394">
        <ele>676.37</ele>
        <time>2013-06-08T09:49:15Z</time>
      </trkpt>
      <trkpt lat="41.798254" lon="-8.134385">
        <ele>676.92</ele>
        <time>2013-06-08T09:49:22Z</time>
      </trkpt>
      <trkpt lat="41.798271" lon="-8.134378">
        <ele>677.11</ele>
        <time>2013-06-08T09:49:25Z</time>
      </trkpt>
      <trkpt lat="41.798414" lon="-8.134345">
        <ele>678.25</ele>
        <time>2013-06-08T09:49:35Z</time>
      </trkpt>
      <trkpt lat="41.798430" lon="-8.134341">
        <ele>678.37</ele>
        <time>2013-06-08T09:49:36Z</time>
      </trkpt>
      <trkpt lat="41.798600" lon="-8.134211">
        <ele>679.54</ele>
        <time>2013-06-08T09:49:47Z</time>
      </trkpt>
      <trkpt lat="41.798614" lon="-8.134203">
        <ele>679.64</ele>
        <time>2013-06-08T09:49:48Z</time>
      </trkpt>
      <trkpt lat="41.798766" lon="-8.134178">
        <ele>680.24</ele>
        <time>2013-06-08T09:50:00Z</time>
      </trkpt>
      <trkpt lat="41.798796" lon="-8.134177">
        <ele>680.66</ele>
        <time>2013-06-08T09:50:03Z</time>
      </trkpt>
      <trkpt lat="41.798861" lon="-8.134199">
        <ele>681.58</ele>
        <time>2013-06-08T09:50:07Z</time>
      </trkpt>
      <trkpt lat="41.798919" lon="-8.134207">
        <ele>682.41</ele>
        <time>2013-06-08T09:50:11Z</time>
      </trkpt>
      <trkpt lat="41.798958" lon="-8.134194">
        <ele>682.82</ele>
        <time>2013-06-08T09:50:14Z</time>
      </trkpt>
      <trkpt lat="41.799079" lon="-8.134205">
        <ele>684.60</ele>
        <time>2013-06-08T09:50:28Z</time>
      </trkpt>
      <trkpt lat="41.799103" lon="-8.134200">
        <ele>684.81</ele>
        <time>2013-06-08T09:50:50Z</time>
      </trkpt>
      <trkpt lat="41.799131" lon="-8.134182">
        <ele>685.04</ele>
        <time>2013-06-08T09:51:25Z</time>
      </trkpt>
      <trkpt lat="41.799185" lon="-8.134053">
        <ele>683.87</ele>
        <time>2013-06-08T09:51:39Z</time>
      </trkpt>
      <trkpt lat="41.799194" lon="-8.134058">
        <ele>684.08</ele>
        <time>2013-06-08T09:52:00Z</time>
      </trkpt>
      <trkpt lat="41.799195" lon="-8.134073">
        <ele>684.27</ele>
        <time>2013-06-08T09:52:19Z</time>
      </trkpt>
      <trkpt lat="41.799190" lon="-8.134082">
        <ele>684.40</ele>
        <time>2013-06-08T09:52:28Z</time>
      </trkpt>
      <trkpt lat="41.799162" lon="-8.134109">
        <ele>684.49</ele>
        <time>2013-06-08T09:52:31Z</time>
      </trkpt>
      <trkpt lat="41.799154" lon="-8.134143">
        <ele>684.84</ele>
        <time>2013-06-08T09:52:35Z</time>
      </trkpt>
      <trkpt lat="41.799269" lon="-8.134225">
        <ele>687.56</ele>
        <time>2013-06-08T09:52:49Z</time>
      </trkpt>
      <trkpt lat="41.799364" lon="-8.134292">
        <ele>690.38</ele>
        <time>2013-06-08T09:53:02Z</time>
      </trkpt>
      <trkpt lat="41.799433" lon="-8.134279">
        <ele>691.11</ele>
        <time>2013-06-08T09:53:13Z</time>
      </trkpt>
      <trkpt lat="41.799433" lon="-8.134278">
        <ele>691.11</ele>
        <time>2013-06-08T09:53:17Z</time>
      </trkpt>
      <trkpt lat="41.799522" lon="-8.134257">
        <ele>692.06</ele>
        <time>2013-06-08T09:53:28Z</time>
      </trkpt>
      <trkpt lat="41.799536" lon="-8.134214">
        <ele>691.15</ele>
        <time>2013-06-08T09:53:37Z</time>
      </trkpt>
      <trkpt lat="41.799552" lon="-8.134175">
        <ele>690.33</ele>
        <time>2013-06-08T09:53:48Z</time>
      </trkpt>
      <trkpt lat="41.799562" lon="-8.134108">
        <ele>688.77</ele>
        <time>2013-06-08T09:53:55Z</time>
      </trkpt>
      <trkpt lat="41.799573" lon="-8.134006">
        <ele>686.09</ele>
        <time>2013-06-08T09:54:06Z</time>
      </trkpt>
      <trkpt lat="41.799596" lon="-8.133937">
        <ele>684.54</ele>
        <time>2013-06-08T09:54:11Z</time>
      </trkpt>
      <trkpt lat="41.799617" lon="-8.133894">
        <ele>683.87</ele>
        <time>2013-06-08T09:54:16Z</time>
      </trkpt>
      <trkpt lat="41.799687" lon="-8.133785">
        <ele>682.36</ele>
        <time>2013-06-08T09:54:27Z</time>
      </trkpt>
      <trkpt lat="41.799757" lon="-8.133700">
        <ele>683.38</ele>
        <time>2013-06-08T09:54:36Z</time>
      </trkpt>
      <trkpt lat="41.799760" lon="-8.133670">
        <ele>683.51</ele>
        <time>2013-06-08T09:54:38Z</time>
      </trkpt>
      <trkpt lat="41.799806" lon="-8.133612">
        <ele>684.71</ele>
        <time>2013-06-08T09:54:47Z</time>
      </trkpt>
      <trkpt lat="41.799828" lon="-8.133586">
        <ele>685.21</ele>
        <time>2013-06-08T09:54:50Z</time>
      </trkpt>
      <trkpt lat="41.799917" lon="-8.133565">
        <ele>686.82</ele>
        <time>2013-06-08T09:55:00Z</time>
      </trkpt>
      <trkpt lat="41.799936" lon="-8.133575">
        <ele>687.14</ele>
        <time>2013-06-08T09:55:03Z</time>
      </trkpt>
      <trkpt lat="41.800055" lon="-8.133484">
        <ele>688.86</ele>
        <time>2013-06-08T09:55:16Z</time>
      </trkpt>
      <trkpt lat="41.800066" lon="-8.133478">
        <ele>688.98</ele>
        <time>2013-06-08T09:55:17Z</time>
      </trkpt>
      <trkpt lat="41.800173" lon="-8.133454">
        <ele>690.21</ele>
        <time>2013-06-08T09:55:29Z</time>
      </trkpt>
      <trkpt lat="41.800188" lon="-8.133426">
        <ele>690.23</ele>
        <time>2013-06-08T09:55:41Z</time>
      </trkpt>
      <trkpt lat="41.800187" lon="-8.133413">
        <ele>690.13</ele>
        <time>2013-06-08T09:56:03Z</time>
      </trkpt>
      <trkpt lat="41.800236" lon="-8.133386">
        <ele>690.43</ele>
        <time>2013-06-08T09:56:21Z</time>
      </trkpt>
      <trkpt lat="41.800272" lon="-8.133383">
        <ele>690.71</ele>
        <time>2013-06-08T09:56:25Z</time>
      </trkpt>
      <trkpt lat="41.800340" lon="-8.133350">
        <ele>691.01</ele>
        <time>2013-06-08T09:56:36Z</time>
      </trkpt>
      <trkpt lat="41.800421" lon="-8.133307">
        <ele>691.30</ele>
        <time>2013-06-08T09:56:46Z</time>
      </trkpt>
      <trkpt lat="41.800535" lon="-8.133234">
        <ele>691.87</ele>
        <time>2013-06-08T09:56:58Z</time>
      </trkpt>
      <trkpt lat="41.800641" lon="-8.133216">
        <ele>693.19</ele>
        <time>2013-06-08T09:57:08Z</time>
      </trkpt>
      <trkpt lat="41.800687" lon="-8.133187">
        <ele>693.34</ele>
        <time>2013-06-08T09:57:13Z</time>
      </trkpt>
      <trkpt lat="41.800818" lon="-8.133162">
        <ele>694.89</ele>
        <time>2013-06-08T09:57:27Z</time>
      </trkpt>
      <trkpt lat="41.800891" lon="-8.133177">
        <ele>696.29</ele>
        <time>2013-06-08T09:57:35Z</time>
      </trkpt>
      <trkpt lat="41.800935" lon="-8.133180">
        <ele>696.96</ele>
        <time>2013-06-08T09:57:38Z</time>
      </trkpt>
      <trkpt lat="41.801010" lon="-8.133215">
        <ele>698.86</ele>
        <time>2013-06-08T09:57:48Z</time>
      </trkpt>
      <trkpt lat="41.801096" lon="-8.133174">
        <ele>699.25</ele>
        <time>2013-06-08T09:57:57Z</time>
      </trkpt>
      <trkpt lat="41.801221" lon="-8.133119">
        <ele>699.92</ele>
        <time>2013-06-08T09:58:09Z</time>
      </trkpt>
      <trkpt lat="41.801309" lon="-8.133089">
        <ele>700.41</ele>
        <time>2013-06-08T09:58:21Z</time>
      </trkpt>
      <trkpt lat="41.801404" lon="-8.133066">
        <ele>700.96</ele>
        <time>2013-06-08T09:58:32Z</time>
      </trkpt>
      <trkpt lat="41.801471" lon="-8.133063">
        <ele>701.69</ele>
        <time>2013-06-08T09:58:42Z</time>
      </trkpt>
      <trkpt lat="41.801548" lon="-8.133055">
        <ele>702.34</ele>
        <time>2013-06-08T09:58:54Z</time>
      </trkpt>
      <trkpt lat="41.801549" lon="-8.133041">
        <ele>701.98</ele>
        <time>2013-06-08T09:59:12Z</time>
      </trkpt>
      <trkpt lat="41.801583" lon="-8.133026">
        <ele>701.91</ele>
        <time>2013-06-08T09:59:23Z</time>
      </trkpt>
      <trkpt lat="41.801632" lon="-8.133023">
        <ele>702.47</ele>
        <time>2013-06-08T09:59:28Z</time>
      </trkpt>
      <trkpt lat="41.801724" lon="-8.133067">
        <ele>704.58</ele>
        <time>2013-06-08T09:59:40Z</time>
      </trkpt>
      <trkpt lat="41.801818" lon="-8.133135">
        <ele>707.48</ele>
        <time>2013-06-08T09:59:51Z</time>
      </trkpt>
      <trkpt lat="41.801851" lon="-8.133154">
        <ele>708.36</ele>
        <time>2013-06-08T09:59:54Z</time>
      </trkpt>
      <trkpt lat="41.801972" lon="-8.133166">
        <ele>710.12</ele>
        <time>2013-06-08T10:00:07Z</time>
      </trkpt>
      <trkpt lat="41.802055" lon="-8.133170">
        <ele>711.31</ele>
        <time>2013-06-08T10:00:17Z</time>
      </trkpt>
      <trkpt lat="41.802160" lon="-8.133132">
        <ele>711.13</ele>
        <time>2013-06-08T10:00:31Z</time>
      </trkpt>
      <trkpt lat="41.802233" lon="-8.133141">
        <ele>711.93</ele>
        <time>2013-06-08T10:00:42Z</time>
      </trkpt>
      <trkpt lat="41.802243" lon="-8.133135">
        <ele>711.82</ele>
        <time>2013-06-08T10:00:59Z</time>
      </trkpt>
      <trkpt lat="41.802271" lon="-8.133121">
        <ele>711.64</ele>
        <time>2013-06-08T10:01:24Z</time>
      </trkpt>
      <trkpt lat="41.802368" lon="-8.133099">
        <ele>711.78</ele>
        <time>2013-06-08T10:01:35Z</time>
      </trkpt>
      <trkpt lat="41.802454" lon="-8.133085">
        <ele>712.07</ele>
        <time>2013-06-08T10:01:44Z</time>
      </trkpt>
      <trkpt lat="41.802522" lon="-8.133061">
        <ele>711.89</ele>
        <time>2013-06-08T10:01:54Z</time>
      </trkpt>
      <trkpt lat="41.802579" lon="-8.133018">
        <ele>711.14</ele>
        <time>2013-06-08T10:02:05Z</time>
      </trkpt>
      <trkpt lat="41.802619" lon="-8.133015">
        <ele>711.32</ele>
        <time>2013-06-08T10:02:26Z</time>
      </trkpt>
      <trkpt lat="41.802701" lon="-8.133029">
        <ele>712.41</ele>
        <time>2013-06-08T10:02:38Z</time>
      </trkpt>
      <trkpt lat="41.802814" lon="-8.133011">
        <ele>712.81</ele>
        <time>2013-06-08T10:02:51Z</time>
      </trkpt>
      <trkpt lat="41.802872" lon="-8.133035">
        <ele>713.99</ele>
        <time>2013-06-08T10:02:59Z</time>
      </trkpt>
      <trkpt lat="41.802988" lon="-8.133051">
        <ele>715.54</ele>
        <time>2013-06-08T10:03:10Z</time>
      </trkpt>
      <trkpt lat="41.803061" lon="-8.133080">
        <ele>717.03</ele>
        <time>2013-06-08T10:03:23Z</time>
      </trkpt>
      <trkpt lat="41.803179" lon="-8.133052">
        <ele>717.59</ele>
        <time>2013-06-08T10:03:33Z</time>
      </trkpt>
      <trkpt lat="41.803250" lon="-8.133016">
        <ele>717.40</ele>
        <time>2013-06-08T10:03:39Z</time>
      </trkpt>
      <trkpt lat="41.803357" lon="-8.132994">
        <ele>717.90</ele>
        <time>2013-06-08T10:03:51Z</time>
      </trkpt>
      <trkpt lat="41.803461" lon="-8.132953">
        <ele>717.96</ele>
        <time>2013-06-08T10:04:02Z</time>
      </trkpt>
      <trkpt lat="41.803472" lon="-8.132953">
        <ele>718.06</ele>
        <time>2013-06-08T10:04:03Z</time>
      </trkpt>
      <trkpt lat="41.803493" lon="-8.132944">
        <ele>718.08</ele>
        <time>2013-06-08T10:04:05Z</time>
      </trkpt>
      <trkpt lat="41.803574" lon="-8.132949">
        <ele>719.01</ele>
        <time>2013-06-08T10:04:20Z</time>
      </trkpt>
      <trkpt lat="41.803575" lon="-8.132948">
        <ele>718.91</ele>
        <time>2013-06-08T10:04:21Z</time>
      </trkpt>
      <trkpt lat="41.803664" lon="-8.132927">
        <ele>719.35</ele>
        <time>2013-06-08T10:04:28Z</time>
      </trkpt>
      <trkpt lat="41.803728" lon="-8.132923">
        <ele>719.99</ele>
        <time>2013-06-08T10:04:32Z</time>
      </trkpt>
      <trkpt lat="41.803845" lon="-8.132864">
        <ele>720.85</ele>
        <time>2013-06-08T10:04:41Z</time>
      </trkpt>
      <trkpt lat="41.803909" lon="-8.132781">
        <ele>720.91</ele>
        <time>2013-06-08T10:04:48Z</time>
      </trkpt>
      <trkpt lat="41.803932" lon="-8.132607">
        <ele>719.78</ele>
        <time>2013-06-08T10:04:54Z</time>
      </trkpt>
      <trkpt lat="41.803967" lon="-8.132455">
        <ele>718.85</ele>
        <time>2013-06-08T10:05:03Z</time>
      </trkpt>
      <trkpt lat="41.804141" lon="-8.132269">
        <ele>719.49</ele>
        <time>2013-06-08T10:05:10Z</time>
      </trkpt>
      <trkpt lat="41.804242" lon="-8.132152">
        <ele>719.60</ele>
        <time>2013-06-08T10:05:16Z</time>
      </trkpt>
      <trkpt lat="41.804314" lon="-8.132162">
        <ele>720.53</ele>
        <time>2013-06-08T10:05:32Z</time>
      </trkpt>
      <trkpt lat="41.804315" lon="-8.132163">
        <ele>720.52</ele>
        <time>2013-06-08T10:05:38Z</time>
      </trkpt>
      <trkpt lat="41.804430" lon="-8.132108">
        <ele>721.41</ele>
        <time>2013-06-08T10:05:45Z</time>
      </trkpt>
      <trkpt lat="41.804501" lon="-8.132051">
        <ele>722.17</ele>
        <time>2013-06-08T10:05:47Z</time>
      </trkpt>
      <trkpt lat="41.804808" lon="-8.131933">
        <ele>726.74</ele>
        <time>2013-06-08T10:05:56Z</time>
      </trkpt>
      <trkpt lat="41.804928" lon="-8.131939">
        <ele>728.46</ele>
        <time>2013-06-08T10:06:07Z</time>
      </trkpt>
      <trkpt lat="41.805040" lon="-8.131921">
        <ele>730.20</ele>
        <time>2013-06-08T10:06:16Z</time>
      </trkpt>
      <trkpt lat="41.805165" lon="-8.131888">
        <ele>731.97</ele>
        <time>2013-06-08T10:06:27Z</time>
      </trkpt>
      <trkpt lat="41.805309" lon="-8.131840">
        <ele>733.96</ele>
        <time>2013-06-08T10:06:38Z</time>
      </trkpt>
      <trkpt lat="41.805408" lon="-8.131804">
        <ele>735.21</ele>
        <time>2013-06-08T10:06:47Z</time>
      </trkpt>
      <trkpt lat="41.805533" lon="-8.131792">
        <ele>737.13</ele>
        <time>2013-06-08T10:06:59Z</time>
      </trkpt>
      <trkpt lat="41.805608" lon="-8.131788">
        <ele>738.39</ele>
        <time>2013-06-08T10:07:08Z</time>
      </trkpt>
      <trkpt lat="41.805730" lon="-8.131751">
        <ele>739.92</ele>
        <time>2013-06-08T10:07:19Z</time>
      </trkpt>
      <trkpt lat="41.805812" lon="-8.131745">
        <ele>741.01</ele>
        <time>2013-06-08T10:07:23Z</time>
      </trkpt>
      <trkpt lat="41.805865" lon="-8.131757">
        <ele>742.04</ele>
        <time>2013-06-08T10:07:27Z</time>
      </trkpt>
      <trkpt lat="41.805999" lon="-8.131709">
        <ele>743.33</ele>
        <time>2013-06-08T10:07:40Z</time>
      </trkpt>
      <trkpt lat="41.806090" lon="-8.131689">
        <ele>744.26</ele>
        <time>2013-06-08T10:07:52Z</time>
      </trkpt>
      <trkpt lat="41.806169" lon="-8.131660">
        <ele>744.81</ele>
        <time>2013-06-08T10:08:02Z</time>
      </trkpt>
      <trkpt lat="41.806302" lon="-8.131662">
        <ele>746.56</ele>
        <time>2013-06-08T10:08:14Z</time>
      </trkpt>
      <trkpt lat="41.806381" lon="-8.131660">
        <ele>747.32</ele>
        <time>2013-06-08T10:08:24Z</time>
      </trkpt>
      <trkpt lat="41.806476" lon="-8.131631">
        <ele>747.78</ele>
        <time>2013-06-08T10:08:35Z</time>
      </trkpt>
      <trkpt lat="41.806587" lon="-8.131606">
        <ele>748.25</ele>
        <time>2013-06-08T10:08:47Z</time>
      </trkpt>
      <trkpt lat="41.806693" lon="-8.131547">
        <ele>747.95</ele>
        <time>2013-06-08T10:08:59Z</time>
      </trkpt>
      <trkpt lat="41.806700" lon="-8.131529">
        <ele>747.51</ele>
        <time>2013-06-08T10:09:01Z</time>
      </trkpt>
      <trkpt lat="41.806873" lon="-8.131460">
        <ele>747.31</ele>
        <time>2013-06-08T10:09:13Z</time>
      </trkpt>
      <trkpt lat="41.806899" lon="-8.131469">
        <ele>747.79</ele>
        <time>2013-06-08T10:09:15Z</time>
      </trkpt>
      <trkpt lat="41.806990" lon="-8.131430">
        <ele>747.46</ele>
        <time>2013-06-08T10:09:27Z</time>
      </trkpt>
      <trkpt lat="41.807078" lon="-8.131389">
        <ele>747.09</ele>
        <time>2013-06-08T10:09:38Z</time>
      </trkpt>
      <trkpt lat="41.807907" lon="-8.131524">
        <ele>767.05</ele>
        <time>2013-06-08T10:12:34Z</time>
      </trkpt>
      <trkpt lat="41.807973" lon="-8.131480">
        <ele>766.42</ele>
        <time>2013-06-08T10:12:46Z</time>
      </trkpt>
      <trkpt lat="41.808084" lon="-8.131489">
        <ele>768.05</ele>
        <time>2013-06-08T10:13:00Z</time>
      </trkpt>
      <trkpt lat="41.808165" lon="-8.131496">
        <ele>769.28</ele>
        <time>2013-06-08T10:13:12Z</time>
      </trkpt>
      <trkpt lat="41.808255" lon="-8.131338">
        <ele>765.05</ele>
        <time>2013-06-08T10:13:24Z</time>
      </trkpt>
      <trkpt lat="41.808273" lon="-8.131337">
        <ele>765.21</ele>
        <time>2013-06-08T10:13:36Z</time>
      </trkpt>
      <trkpt lat="41.808303" lon="-8.131314">
        <ele>764.82</ele>
        <time>2013-06-08T10:13:42Z</time>
      </trkpt>
      <trkpt lat="41.808350" lon="-8.131296">
        <ele>764.71</ele>
        <time>2013-06-08T10:13:55Z</time>
      </trkpt>
      <trkpt lat="41.808417" lon="-8.131340">
        <ele>767.08</ele>
        <time>2013-06-08T10:14:04Z</time>
      </trkpt>
      <trkpt lat="41.808506" lon="-8.131480">
        <ele>772.65</ele>
        <time>2013-06-08T10:14:20Z</time>
      </trkpt>
      <trkpt lat="41.808511" lon="-8.131441">
        <ele>771.42</ele>
        <time>2013-06-08T10:14:36Z</time>
      </trkpt>
      <trkpt lat="41.808517" lon="-8.131458">
        <ele>772.02</ele>
        <time>2013-06-08T10:14:57Z</time>
      </trkpt>
      <trkpt lat="41.808502" lon="-8.131456">
        <ele>771.82</ele>
        <time>2013-06-08T10:15:21Z</time>
      </trkpt>
      <trkpt lat="41.808505" lon="-8.131461">
        <ele>772.02</ele>
        <time>2013-06-08T10:15:44Z</time>
      </trkpt>
      <trkpt lat="41.808508" lon="-8.131449">
        <ele>771.67</ele>
        <time>2013-06-08T10:16:07Z</time>
      </trkpt>
      <trkpt lat="41.808501" lon="-8.131446">
        <ele>771.41</ele>
        <time>2013-06-08T10:16:32Z</time>
      </trkpt>
      <trkpt lat="41.808497" lon="-8.131446">
        <ele>771.47</ele>
        <time>2013-06-08T10:17:07Z</time>
      </trkpt>
      <trkpt lat="41.808488" lon="-8.131429">
        <ele>770.71</ele>
        <time>2013-06-08T10:17:29Z</time>
      </trkpt>
      <trkpt lat="41.808466" lon="-8.131388">
        <ele>769.11</ele>
        <time>2013-06-08T10:17:33Z</time>
      </trkpt>
      <trkpt lat="41.808458" lon="-8.131295">
        <ele>766.07</ele>
        <time>2013-06-08T10:17:41Z</time>
      </trkpt>
      <trkpt lat="41.808450" lon="-8.131306">
        <ele>766.25</ele>
        <time>2013-06-08T10:17:55Z</time>
      </trkpt>
      <trkpt lat="41.808502" lon="-8.131288">
        <ele>766.39</ele>
        <time>2013-06-08T10:18:19Z</time>
      </trkpt>
      <trkpt lat="41.808657" lon="-8.131277">
        <ele>767.89</ele>
        <time>2013-06-08T10:18:26Z</time>
      </trkpt>
      <trkpt lat="41.808991" lon="-8.131410">
        <ele>772.07</ele>
        <time>2013-06-08T10:18:37Z</time>
      </trkpt>
      <trkpt lat="41.809091" lon="-8.131427">
        <ele>772.05</ele>
        <time>2013-06-08T10:18:39Z</time>
      </trkpt>
      <trkpt lat="41.809147" lon="-8.131421">
        <ele>771.55</ele>
        <time>2013-06-08T10:18:40Z</time>
      </trkpt>
      <trkpt lat="41.809206" lon="-8.131399">
        <ele>770.68</ele>
        <time>2013-06-08T10:18:41Z</time>
      </trkpt>
      <trkpt lat="41.809270" lon="-8.131368">
        <ele>769.46</ele>
        <time>2013-06-08T10:18:42Z</time>
      </trkpt>
      <trkpt lat="41.809334" lon="-8.131327">
        <ele>768.03</ele>
        <time>2013-06-08T10:18:43Z</time>
      </trkpt>
      <trkpt lat="41.809393" lon="-8.131273">
        <ele>766.31</ele>
        <time>2013-06-08T10:18:44Z</time>
      </trkpt>
      <trkpt lat="41.809448" lon="-8.131204">
        <ele>765.22</ele>
        <time>2013-06-08T10:18:45Z</time>
      </trkpt>
      <trkpt lat="41.809500" lon="-8.131120">
        <ele>764.42</ele>
        <time>2013-06-08T10:18:46Z</time>
      </trkpt>
      <trkpt lat="41.809549" lon="-8.131021">
        <ele>763.76</ele>
        <time>2013-06-08T10:18:47Z</time>
      </trkpt>
      <trkpt lat="41.809589" lon="-8.130907">
        <ele>762.88</ele>
        <time>2013-06-08T10:18:48Z</time>
      </trkpt>
      <trkpt lat="41.809626" lon="-8.130787">
        <ele>761.48</ele>
        <time>2013-06-08T10:18:49Z</time>
      </trkpt>
      <trkpt lat="41.809907" lon="-8.130113">
        <ele>754.56</ele>
        <time>2013-06-08T10:18:55Z</time>
      </trkpt>
      <trkpt lat="41.809977" lon="-8.130020">
        <ele>753.45</ele>
        <time>2013-06-08T10:18:56Z</time>
      </trkpt>
      <trkpt lat="41.810799" lon="-8.129094">
        <ele>743.32</ele>
        <time>2013-06-08T10:19:07Z</time>
      </trkpt>
      <trkpt lat="41.810882" lon="-8.129034">
        <ele>741.69</ele>
        <time>2013-06-08T10:19:08Z</time>
      </trkpt>
      <trkpt lat="41.810969" lon="-8.128995">
        <ele>739.41</ele>
        <time>2013-06-08T10:19:09Z</time>
      </trkpt>
      <trkpt lat="41.811295" lon="-8.128862">
        <ele>730.41</ele>
        <time>2013-06-08T10:19:13Z</time>
      </trkpt>
      <trkpt lat="41.811363" lon="-8.128799">
        <ele>729.39</ele>
        <time>2013-06-08T10:19:14Z</time>
      </trkpt>
      <trkpt lat="41.811417" lon="-8.128711">
        <ele>729.30</ele>
        <time>2013-06-08T10:19:15Z</time>
      </trkpt>
      <trkpt lat="41.811452" lon="-8.128606">
        <ele>730.33</ele>
        <time>2013-06-08T10:19:16Z</time>
      </trkpt>
      <trkpt lat="41.811476" lon="-8.128496">
        <ele>731.88</ele>
        <time>2013-06-08T10:19:17Z</time>
      </trkpt>
      <trkpt lat="41.811501" lon="-8.128385">
        <ele>733.24</ele>
        <time>2013-06-08T10:19:18Z</time>
      </trkpt>
      <trkpt lat="41.811603" lon="-8.127923">
        <ele>738.33</ele>
        <time>2013-06-08T10:19:22Z</time>
      </trkpt>
      <trkpt lat="41.811651" lon="-8.127820">
        <ele>738.47</ele>
        <time>2013-06-08T10:19:23Z</time>
      </trkpt>
      <trkpt lat="41.811718" lon="-8.127732">
        <ele>737.51</ele>
        <time>2013-06-08T10:19:24Z</time>
      </trkpt>
      <trkpt lat="41.811794" lon="-8.127655">
        <ele>736.14</ele>
        <time>2013-06-08T10:19:25Z</time>
      </trkpt>
      <trkpt lat="41.811879" lon="-8.127584">
        <ele>734.31</ele>
        <time>2013-06-08T10:19:26Z</time>
      </trkpt>
      <trkpt lat="41.811966" lon="-8.127516">
        <ele>732.51</ele>
        <time>2013-06-08T10:19:27Z</time>
      </trkpt>
      <trkpt lat="41.812981" lon="-8.126885">
        <ele>715.38</ele>
        <time>2013-06-08T10:19:38Z</time>
      </trkpt>
      <trkpt lat="41.813362" lon="-8.126785">
        <ele>713.02</ele>
        <time>2013-06-08T10:19:42Z</time>
      </trkpt>
      <trkpt lat="41.813461" lon="-8.126782">
        <ele>711.69</ele>
        <time>2013-06-08T10:19:43Z</time>
      </trkpt>
      <trkpt lat="41.813560" lon="-8.126792">
        <ele>710.09</ele>
        <time>2013-06-08T10:19:44Z</time>
      </trkpt>
      <trkpt lat="41.813656" lon="-8.126817">
        <ele>708.12</ele>
        <time>2013-06-08T10:19:45Z</time>
      </trkpt>
      <trkpt lat="41.813749" lon="-8.126851">
        <ele>706.09</ele>
        <time>2013-06-08T10:19:46Z</time>
      </trkpt>
      <trkpt lat="41.813846" lon="-8.126882">
        <ele>704.55</ele>
        <time>2013-06-08T10:19:47Z</time>
      </trkpt>
      <trkpt lat="41.814156" lon="-8.126950">
        <ele>700.58</ele>
        <time>2013-06-08T10:19:50Z</time>
      </trkpt>
      <trkpt lat="41.814266" lon="-8.126944">
        <ele>699.79</ele>
        <time>2013-06-08T10:19:51Z</time>
      </trkpt>
      <trkpt lat="41.814379" lon="-8.126915">
        <ele>699.42</ele>
        <time>2013-06-08T10:19:52Z</time>
      </trkpt>
      <trkpt lat="41.814492" lon="-8.126865">
        <ele>699.51</ele>
        <time>2013-06-08T10:19:53Z</time>
      </trkpt>
      <trkpt lat="41.814607" lon="-8.126807">
        <ele>699.71</ele>
        <time>2013-06-08T10:19:54Z</time>
      </trkpt>
      <trkpt lat="41.814724" lon="-8.126757">
        <ele>699.59</ele>
        <time>2013-06-08T10:19:55Z</time>
      </trkpt>
      <trkpt lat="41.814840" lon="-8.126724">
        <ele>699.03</ele>
        <time>2013-06-08T10:19:56Z</time>
      </trkpt>
      <trkpt lat="41.814957" lon="-8.126712">
        <ele>698.05</ele>
        <time>2013-06-08T10:19:57Z</time>
      </trkpt>
      <trkpt lat="41.815075" lon="-8.126727">
        <ele>696.44</ele>
        <time>2013-06-08T10:19:58Z</time>
      </trkpt>
      <trkpt lat="41.815195" lon="-8.126755">
        <ele>694.55</ele>
        <time>2013-06-08T10:19:59Z</time>
      </trkpt>
      <trkpt lat="41.815318" lon="-8.126772">
        <ele>692.87</ele>
        <time>2013-06-08T10:20:00Z</time>
      </trkpt>
      <trkpt lat="41.815440" lon="-8.126768">
        <ele>691.59</ele>
        <time>2013-06-08T10:20:01Z</time>
      </trkpt>
      <trkpt lat="41.815563" lon="-8.126746">
        <ele>690.66</ele>
        <time>2013-06-08T10:20:02Z</time>
      </trkpt>
      <trkpt lat="41.815688" lon="-8.126725">
        <ele>689.72</ele>
        <time>2013-06-08T10:20:03Z</time>
      </trkpt>
      <trkpt lat="41.815814" lon="-8.126717">
        <ele>688.51</ele>
        <time>2013-06-08T10:20:04Z</time>
      </trkpt>
      <trkpt lat="41.815941" lon="-8.126719">
        <ele>687.08</ele>
        <time>2013-06-08T10:20:05Z</time>
      </trkpt>
      <trkpt lat="41.816065" lon="-8.126724">
        <ele>685.59</ele>
        <time>2013-06-08T10:20:06Z</time>
      </trkpt>
      <trkpt lat="41.816405" lon="-8.126714">
        <ele>681.77</ele>
        <time>2013-06-08T10:20:09Z</time>
      </trkpt>
      <trkpt lat="41.816516" lon="-8.126675">
        <ele>681.33</ele>
        <time>2013-06-08T10:20:10Z</time>
      </trkpt>
      <trkpt lat="41.816627" lon="-8.126621">
        <ele>681.19</ele>
        <time>2013-06-08T10:20:11Z</time>
      </trkpt>
      <trkpt lat="41.816736" lon="-8.126551">
        <ele>681.38</ele>
        <time>2013-06-08T10:20:12Z</time>
      </trkpt>
      <trkpt lat="41.816843" lon="-8.126472">
        <ele>681.65</ele>
        <time>2013-06-08T10:20:13Z</time>
      </trkpt>
      <trkpt lat="41.818325" lon="-8.125318">
        <ele>673.36</ele>
        <time>2013-06-08T10:20:26Z</time>
      </trkpt>
      <trkpt lat="41.819467" lon="-8.124289">
        <ele>664.01</ele>
        <time>2013-06-08T10:20:36Z</time>
      </trkpt>
      <trkpt lat="41.820066" lon="-8.123811">
        <ele>659.02</ele>
        <time>2013-06-08T10:20:42Z</time>
      </trkpt>
      <trkpt lat="41.820167" lon="-8.123771">
        <ele>657.61</ele>
        <time>2013-06-08T10:20:43Z</time>
      </trkpt>
      <trkpt lat="41.820272" lon="-8.123743">
        <ele>655.97</ele>
        <time>2013-06-08T10:20:44Z</time>
      </trkpt>
      <trkpt lat="41.820374" lon="-8.123729">
        <ele>654.33</ele>
        <time>2013-06-08T10:20:45Z</time>
      </trkpt>
      <trkpt lat="41.820461" lon="-8.123736">
        <ele>653.06</ele>
        <time>2013-06-08T10:20:46Z</time>
      </trkpt>
      <trkpt lat="41.820549" lon="-8.123766">
        <ele>652.04</ele>
        <time>2013-06-08T10:20:47Z</time>
      </trkpt>
      <trkpt lat="41.820646" lon="-8.123818">
        <ele>650.91</ele>
        <time>2013-06-08T10:20:48Z</time>
      </trkpt>
      <trkpt lat="41.820744" lon="-8.123880">
        <ele>649.55</ele>
        <time>2013-06-08T10:20:49Z</time>
      </trkpt>
      <trkpt lat="41.821998" lon="-8.124512">
        <ele>633.80</ele>
        <time>2013-06-08T10:21:01Z</time>
      </trkpt>
      <trkpt lat="41.822216" lon="-8.124577">
        <ele>631.70</ele>
        <time>2013-06-08T10:21:03Z</time>
      </trkpt>
      <trkpt lat="41.822318" lon="-8.124571">
        <ele>631.41</ele>
        <time>2013-06-08T10:21:04Z</time>
      </trkpt>
      <trkpt lat="41.822415" lon="-8.124542">
        <ele>631.63</ele>
        <time>2013-06-08T10:21:05Z</time>
      </trkpt>
      <trkpt lat="41.822504" lon="-8.124500">
        <ele>632.11</ele>
        <time>2013-06-08T10:21:06Z</time>
      </trkpt>
      <trkpt lat="41.822589" lon="-8.124442">
        <ele>632.94</ele>
        <time>2013-06-08T10:21:07Z</time>
      </trkpt>
      <trkpt lat="41.822666" lon="-8.124368">
        <ele>634.00</ele>
        <time>2013-06-08T10:21:08Z</time>
      </trkpt>
      <trkpt lat="41.822725" lon="-8.124275">
        <ele>635.44</ele>
        <time>2013-06-08T10:21:09Z</time>
      </trkpt>
      <trkpt lat="41.822765" lon="-8.124160">
        <ele>637.44</ele>
        <time>2013-06-08T10:21:10Z</time>
      </trkpt>
      <trkpt lat="41.822792" lon="-8.124036">
        <ele>639.54</ele>
        <time>2013-06-08T10:21:11Z</time>
      </trkpt>
      <trkpt lat="41.822812" lon="-8.123913">
        <ele>641.64</ele>
        <time>2013-06-08T10:21:12Z</time>
      </trkpt>
      <trkpt lat="41.822882" lon="-8.123592">
        <ele>645.95</ele>
        <time>2013-06-08T10:21:15Z</time>
      </trkpt>
      <trkpt lat="41.822938" lon="-8.123516">
        <ele>645.97</ele>
        <time>2013-06-08T10:21:16Z</time>
      </trkpt>
      <trkpt lat="41.823016" lon="-8.123469">
        <ele>644.41</ele>
        <time>2013-06-08T10:21:17Z</time>
      </trkpt>
      <trkpt lat="41.823109" lon="-8.123458">
        <ele>642.01</ele>
        <time>2013-06-08T10:21:18Z</time>
      </trkpt>
      <trkpt lat="41.823206" lon="-8.123492">
        <ele>639.01</ele>
        <time>2013-06-08T10:21:19Z</time>
      </trkpt>
      <trkpt lat="41.823281" lon="-8.123566">
        <ele>636.08</ele>
        <time>2013-06-08T10:21:20Z</time>
      </trkpt>
      <trkpt lat="41.823349" lon="-8.123653">
        <ele>632.95</ele>
        <time>2013-06-08T10:21:21Z</time>
      </trkpt>
      <trkpt lat="41.823417" lon="-8.123745">
        <ele>629.76</ele>
        <time>2013-06-08T10:21:22Z</time>
      </trkpt>
      <trkpt lat="41.823493" lon="-8.123830">
        <ele>626.47</ele>
        <time>2013-06-08T10:21:23Z</time>
      </trkpt>
      <trkpt lat="41.823578" lon="-8.123900">
        <ele>623.37</ele>
        <time>2013-06-08T10:21:24Z</time>
      </trkpt>
      <trkpt lat="41.823772" lon="-8.124016">
        <ele>617.13</ele>
        <time>2013-06-08T10:21:26Z</time>
      </trkpt>
      <trkpt lat="41.823882" lon="-8.124041">
        <ele>615.43</ele>
        <time>2013-06-08T10:21:27Z</time>
      </trkpt>
      <trkpt lat="41.823993" lon="-8.124021">
        <ele>614.16</ele>
        <time>2013-06-08T10:21:28Z</time>
      </trkpt>
      <trkpt lat="41.824100" lon="-8.123969">
        <ele>613.18</ele>
        <time>2013-06-08T10:21:29Z</time>
      </trkpt>
      <trkpt lat="41.824206" lon="-8.123904">
        <ele>612.21</ele>
        <time>2013-06-08T10:21:30Z</time>
      </trkpt>
      <trkpt lat="41.824652" lon="-8.123643">
        <ele>609.31</ele>
        <time>2013-06-08T10:21:34Z</time>
      </trkpt>
      <trkpt lat="41.824758" lon="-8.123546">
        <ele>609.93</ele>
        <time>2013-06-08T10:21:35Z</time>
      </trkpt>
      <trkpt lat="41.824850" lon="-8.123422">
        <ele>610.97</ele>
        <time>2013-06-08T10:21:36Z</time>
      </trkpt>
      <trkpt lat="41.824931" lon="-8.123281">
        <ele>612.07</ele>
        <time>2013-06-08T10:21:37Z</time>
      </trkpt>
      <trkpt lat="41.825010" lon="-8.123133">
        <ele>613.16</ele>
        <time>2013-06-08T10:21:38Z</time>
      </trkpt>
      <trkpt lat="41.825097" lon="-8.122992">
        <ele>613.71</ele>
        <time>2013-06-08T10:21:39Z</time>
      </trkpt>
      <trkpt lat="41.825381" lon="-8.122635">
        <ele>613.01</ele>
        <time>2013-06-08T10:21:42Z</time>
      </trkpt>
      <trkpt lat="41.825494" lon="-8.122558">
        <ele>611.92</ele>
        <time>2013-06-08T10:21:43Z</time>
      </trkpt>
      <trkpt lat="41.825618" lon="-8.122509">
        <ele>610.17</ele>
        <time>2013-06-08T10:21:44Z</time>
      </trkpt>
      <trkpt lat="41.827205" lon="-8.121941">
        <ele>592.04</ele>
        <time>2013-06-08T10:21:56Z</time>
      </trkpt>
      <trkpt lat="41.827342" lon="-8.121935">
        <ele>589.82</ele>
        <time>2013-06-08T10:21:57Z</time>
      </trkpt>
      <trkpt lat="41.827474" lon="-8.121963">
        <ele>586.81</ele>
        <time>2013-06-08T10:21:58Z</time>
      </trkpt>
      <trkpt lat="41.827607" lon="-8.121994">
        <ele>583.62</ele>
        <time>2013-06-08T10:21:59Z</time>
      </trkpt>
      <trkpt lat="41.827743" lon="-8.121990">
        <ele>581.41</ele>
        <time>2013-06-08T10:22:00Z</time>
      </trkpt>
      <trkpt lat="41.827873" lon="-8.121944">
        <ele>580.43</ele>
        <time>2013-06-08T10:22:01Z</time>
      </trkpt>
      <trkpt lat="41.827994" lon="-8.121853">
        <ele>580.98</ele>
        <time>2013-06-08T10:22:02Z</time>
      </trkpt>
      <trkpt lat="41.828096" lon="-8.121726">
        <ele>582.29</ele>
        <time>2013-06-08T10:22:03Z</time>
      </trkpt>
      <trkpt lat="41.828189" lon="-8.121584">
        <ele>583.57</ele>
        <time>2013-06-08T10:22:04Z</time>
      </trkpt>
      <trkpt lat="41.828293" lon="-8.121459">
        <ele>583.71</ele>
        <time>2013-06-08T10:22:05Z</time>
      </trkpt>
      <trkpt lat="41.828409" lon="-8.121354">
        <ele>582.76</ele>
        <time>2013-06-08T10:22:06Z</time>
      </trkpt>
      <trkpt lat="41.828534" lon="-8.121259">
        <ele>580.88</ele>
        <time>2013-06-08T10:22:07Z</time>
      </trkpt>
      <trkpt lat="41.829808" lon="-8.120463">
        <ele>565.31</ele>
        <time>2013-06-08T10:22:17Z</time>
      </trkpt>
      <trkpt lat="41.829932" lon="-8.120419">
        <ele>562.11</ele>
        <time>2013-06-08T10:22:18Z</time>
      </trkpt>
      <trkpt lat="41.830183" lon="-8.120332">
        <ele>557.56</ele>
        <time>2013-06-08T10:22:20Z</time>
      </trkpt>
      <trkpt lat="41.830305" lon="-8.120254">
        <ele>556.65</ele>
        <time>2013-06-08T10:22:21Z</time>
      </trkpt>
      <trkpt lat="41.830417" lon="-8.120140">
        <ele>557.39</ele>
        <time>2013-06-08T10:22:22Z</time>
      </trkpt>
      <trkpt lat="41.831374" lon="-8.119181">
        <ele>555.85</ele>
        <time>2013-06-08T10:22:31Z</time>
      </trkpt>
      <trkpt lat="41.831498" lon="-8.119119">
        <ele>554.21</ele>
        <time>2013-06-08T10:22:32Z</time>
      </trkpt>
      <trkpt lat="41.831750" lon="-8.119019">
        <ele>549.76</ele>
        <time>2013-06-08T10:22:34Z</time>
      </trkpt>
      <trkpt lat="41.831876" lon="-8.118952">
        <ele>547.83</ele>
        <time>2013-06-08T10:22:35Z</time>
      </trkpt>
      <trkpt lat="41.832256" lon="-8.118762">
        <ele>542.54</ele>
        <time>2013-06-08T10:22:38Z</time>
      </trkpt>
      <trkpt lat="41.832871" lon="-8.118483">
        <ele>539.01</ele>
        <time>2013-06-08T10:22:43Z</time>
      </trkpt>
      <trkpt lat="41.832978" lon="-8.118383">
        <ele>540.41</ele>
        <time>2013-06-08T10:22:44Z</time>
      </trkpt>
      <trkpt lat="41.833065" lon="-8.118253">
        <ele>542.91</ele>
        <time>2013-06-08T10:22:45Z</time>
      </trkpt>
      <trkpt lat="41.833128" lon="-8.118108">
        <ele>545.99</ele>
        <time>2013-06-08T10:22:46Z</time>
      </trkpt>
      <trkpt lat="41.833147" lon="-8.117943">
        <ele>550.78</ele>
        <time>2013-06-08T10:22:47Z</time>
      </trkpt>
      <trkpt lat="41.833143" lon="-8.117778">
        <ele>554.18</ele>
        <time>2013-06-08T10:22:48Z</time>
      </trkpt>
      <trkpt lat="41.833163" lon="-8.117637">
        <ele>555.56</ele>
        <time>2013-06-08T10:22:49Z</time>
      </trkpt>
      <trkpt lat="41.833212" lon="-8.117515">
        <ele>555.56</ele>
        <time>2013-06-08T10:22:50Z</time>
      </trkpt>
      <trkpt lat="41.833273" lon="-8.117416">
        <ele>554.68</ele>
        <time>2013-06-08T10:22:51Z</time>
      </trkpt>
      <trkpt lat="41.833347" lon="-8.117347">
        <ele>552.80</ele>
        <time>2013-06-08T10:22:52Z</time>
      </trkpt>
      <trkpt lat="41.833435" lon="-8.117321">
        <ele>549.50</ele>
        <time>2013-06-08T10:22:53Z</time>
      </trkpt>
      <trkpt lat="41.833528" lon="-8.117328">
        <ele>545.43</ele>
        <time>2013-06-08T10:22:54Z</time>
      </trkpt>
      <trkpt lat="41.833619" lon="-8.117348">
        <ele>541.32</ele>
        <time>2013-06-08T10:22:55Z</time>
      </trkpt>
      <trkpt lat="41.833902" lon="-8.117411">
        <ele>532.71</ele>
        <time>2013-06-08T10:22:58Z</time>
      </trkpt>
      <trkpt lat="41.834003" lon="-8.117397">
        <ele>531.55</ele>
        <time>2013-06-08T10:22:59Z</time>
      </trkpt>
      <trkpt lat="41.834102" lon="-8.117353">
        <ele>530.79</ele>
        <time>2013-06-08T10:23:00Z</time>
      </trkpt>
      <trkpt lat="41.835527" lon="-8.116620">
        <ele>525.27</ele>
        <time>2013-06-08T10:23:14Z</time>
      </trkpt>
      <trkpt lat="41.835621" lon="-8.116601">
        <ele>524.00</ele>
        <time>2013-06-08T10:23:15Z</time>
      </trkpt>
      <trkpt lat="41.835715" lon="-8.116618">
        <ele>521.87</ele>
        <time>2013-06-08T10:23:16Z</time>
      </trkpt>
      <trkpt lat="41.835804" lon="-8.116675">
        <ele>518.82</ele>
        <time>2013-06-08T10:23:17Z</time>
      </trkpt>
      <trkpt lat="41.835874" lon="-8.116765">
        <ele>515.63</ele>
        <time>2013-06-08T10:23:18Z</time>
      </trkpt>
      <trkpt lat="41.835914" lon="-8.116877">
        <ele>512.46</ele>
        <time>2013-06-08T10:23:19Z</time>
      </trkpt>
      <trkpt lat="41.835929" lon="-8.117003">
        <ele>509.44</ele>
        <time>2013-06-08T10:23:20Z</time>
      </trkpt>
      <trkpt lat="41.835919" lon="-8.117128">
        <ele>506.92</ele>
        <time>2013-06-08T10:23:21Z</time>
      </trkpt>
      <trkpt lat="41.835886" lon="-8.117236">
        <ele>505.41</ele>
        <time>2013-06-08T10:23:22Z</time>
      </trkpt>
      <trkpt lat="41.835827" lon="-8.117320">
        <ele>504.77</ele>
        <time>2013-06-08T10:23:23Z</time>
      </trkpt>
      <trkpt lat="41.835752" lon="-8.117377">
        <ele>504.89</ele>
        <time>2013-06-08T10:23:24Z</time>
      </trkpt>
      <trkpt lat="41.835649" lon="-8.117419">
        <ele>505.78</ele>
        <time>2013-06-08T10:23:25Z</time>
      </trkpt>
      <trkpt lat="41.835127" lon="-8.117659">
        <ele>510.11</ele>
        <time>2013-06-08T10:23:30Z</time>
      </trkpt>
      <trkpt lat="41.835034" lon="-8.117737">
        <ele>510.33</ele>
        <time>2013-06-08T10:23:31Z</time>
      </trkpt>
      <trkpt lat="41.834953" lon="-8.117829">
        <ele>510.25</ele>
        <time>2013-06-08T10:23:32Z</time>
      </trkpt>
      <trkpt lat="41.834883" lon="-8.117928">
        <ele>509.81</ele>
        <time>2013-06-08T10:23:33Z</time>
      </trkpt>
      <trkpt lat="41.834827" lon="-8.118034">
        <ele>509.54</ele>
        <time>2013-06-08T10:23:34Z</time>
      </trkpt>
      <trkpt lat="41.834776" lon="-8.118143">
        <ele>509.07</ele>
        <time>2013-06-08T10:23:35Z</time>
      </trkpt>
      <trkpt lat="41.834256" lon="-8.119098">
        <ele>507.32</ele>
        <time>2013-06-08T10:23:44Z</time>
      </trkpt>
      <trkpt lat="41.834209" lon="-8.119200">
        <ele>507.41</ele>
        <time>2013-06-08T10:23:45Z</time>
      </trkpt>
      <trkpt lat="41.834182" lon="-8.119314">
        <ele>507.25</ele>
        <time>2013-06-08T10:23:46Z</time>
      </trkpt>
      <trkpt lat="41.834179" lon="-8.119437">
        <ele>506.68</ele>
        <time>2013-06-08T10:23:47Z</time>
      </trkpt>
      <trkpt lat="41.834202" lon="-8.119558">
        <ele>505.57</ele>
        <time>2013-06-08T10:23:48Z</time>
      </trkpt>
      <trkpt lat="41.834246" lon="-8.119666">
        <ele>506.62</ele>
        <time>2013-06-08T10:23:49Z</time>
      </trkpt>
      <trkpt lat="41.834300" lon="-8.119764">
        <ele>507.89</ele>
        <time>2013-06-08T10:23:50Z</time>
      </trkpt>
      <trkpt lat="41.834356" lon="-8.119861">
        <ele>508.86</ele>
        <time>2013-06-08T10:23:51Z</time>
      </trkpt>
      <trkpt lat="41.834476" lon="-8.120046">
        <ele>509.64</ele>
        <time>2013-06-08T10:23:53Z</time>
      </trkpt>
      <trkpt lat="41.834549" lon="-8.120128">
        <ele>509.16</ele>
        <time>2013-06-08T10:23:54Z</time>
      </trkpt>
      <trkpt lat="41.834627" lon="-8.120195">
        <ele>509.22</ele>
        <time>2013-06-08T10:23:55Z</time>
      </trkpt>
      <trkpt lat="41.834711" lon="-8.120245">
        <ele>510.11</ele>
        <time>2013-06-08T10:23:56Z</time>
      </trkpt>
      <trkpt lat="41.834799" lon="-8.120291">
        <ele>511.01</ele>
        <time>2013-06-08T10:23:57Z</time>
      </trkpt>
      <trkpt lat="41.835439" lon="-8.120635">
        <ele>520.69</ele>
        <time>2013-06-08T10:24:05Z</time>
      </trkpt>
      <trkpt lat="41.835504" lon="-8.120664">
        <ele>520.35</ele>
        <time>2013-06-08T10:24:06Z</time>
      </trkpt>
      <trkpt lat="41.835565" lon="-8.120699">
        <ele>520.34</ele>
        <time>2013-06-08T10:24:07Z</time>
      </trkpt>
      <trkpt lat="41.835623" lon="-8.120739">
        <ele>520.59</ele>
        <time>2013-06-08T10:24:08Z</time>
      </trkpt>
      <trkpt lat="41.835678" lon="-8.120783">
        <ele>520.87</ele>
        <time>2013-06-08T10:24:09Z</time>
      </trkpt>
      <trkpt lat="41.835779" lon="-8.120885">
        <ele>522.11</ele>
        <time>2013-06-08T10:24:11Z</time>
      </trkpt>
      <trkpt lat="41.835822" lon="-8.120948">
        <ele>523.34</ele>
        <time>2013-06-08T10:24:12Z</time>
      </trkpt>
      <trkpt lat="41.835867" lon="-8.121017">
        <ele>524.69</ele>
        <time>2013-06-08T10:24:13Z</time>
      </trkpt>
      <trkpt lat="41.835922" lon="-8.121084">
        <ele>525.81</ele>
        <time>2013-06-08T10:24:14Z</time>
      </trkpt>
      <trkpt lat="41.835985" lon="-8.121151">
        <ele>526.83</ele>
        <time>2013-06-08T10:24:15Z</time>
      </trkpt>
      <trkpt lat="41.836365" lon="-8.121604">
        <ele>531.11</ele>
        <time>2013-06-08T10:24:21Z</time>
      </trkpt>
      <trkpt lat="41.836451" lon="-8.121659">
        <ele>530.87</ele>
        <time>2013-06-08T10:24:22Z</time>
      </trkpt>
      <trkpt lat="41.836546" lon="-8.121694">
        <ele>530.06</ele>
        <time>2013-06-08T10:24:23Z</time>
      </trkpt>
      <trkpt lat="41.836642" lon="-8.121698">
        <ele>528.59</ele>
        <time>2013-06-08T10:24:24Z</time>
      </trkpt>
      <trkpt lat="41.836738" lon="-8.121682">
        <ele>526.43</ele>
        <time>2013-06-08T10:24:25Z</time>
      </trkpt>
      <trkpt lat="41.836998" lon="-8.121590">
        <ele>519.09</ele>
        <time>2013-06-08T10:24:28Z</time>
      </trkpt>
      <trkpt lat="41.837721" lon="-8.121019">
        <ele>500.82</ele>
        <time>2013-06-08T10:24:37Z</time>
      </trkpt>
      <trkpt lat="41.837811" lon="-8.120970">
        <ele>499.48</ele>
        <time>2013-06-08T10:24:38Z</time>
      </trkpt>
      <trkpt lat="41.837911" lon="-8.120933">
        <ele>498.48</ele>
        <time>2013-06-08T10:24:39Z</time>
      </trkpt>
      <trkpt lat="41.838019" lon="-8.120911">
        <ele>496.96</ele>
        <time>2013-06-08T10:24:40Z</time>
      </trkpt>
      <trkpt lat="41.838125" lon="-8.120899">
        <ele>495.83</ele>
        <time>2013-06-08T10:24:41Z</time>
      </trkpt>
      <trkpt lat="41.838654" lon="-8.120858">
        <ele>491.21</ele>
        <time>2013-06-08T10:24:46Z</time>
      </trkpt>
      <trkpt lat="41.838751" lon="-8.120825">
        <ele>489.83</ele>
        <time>2013-06-08T10:24:47Z</time>
      </trkpt>
      <trkpt lat="41.838842" lon="-8.120769">
        <ele>490.25</ele>
        <time>2013-06-08T10:24:48Z</time>
      </trkpt>
      <trkpt lat="41.838921" lon="-8.120696">
        <ele>489.99</ele>
        <time>2013-06-08T10:24:49Z</time>
      </trkpt>
      <trkpt lat="41.838992" lon="-8.120619">
        <ele>489.26</ele>
        <time>2013-06-08T10:24:50Z</time>
      </trkpt>
      <trkpt lat="41.839064" lon="-8.120549">
        <ele>488.75</ele>
        <time>2013-06-08T10:24:51Z</time>
      </trkpt>
      <trkpt lat="41.839139" lon="-8.120496">
        <ele>488.71</ele>
        <time>2013-06-08T10:24:52Z</time>
      </trkpt>
      <trkpt lat="41.839221" lon="-8.120460">
        <ele>489.34</ele>
        <time>2013-06-08T10:24:53Z</time>
      </trkpt>
      <trkpt lat="41.839616" lon="-8.120276">
        <ele>491.85</ele>
        <time>2013-06-08T10:24:58Z</time>
      </trkpt>
      <trkpt lat="41.839693" lon="-8.120250">
        <ele>492.50</ele>
        <time>2013-06-08T10:24:59Z</time>
      </trkpt>
      <trkpt lat="41.839770" lon="-8.120241">
        <ele>493.71</ele>
        <time>2013-06-08T10:25:00Z</time>
      </trkpt>
      <trkpt lat="41.839848" lon="-8.120245">
        <ele>495.31</ele>
        <time>2013-06-08T10:25:01Z</time>
      </trkpt>
      <trkpt lat="41.839927" lon="-8.120253">
        <ele>497.15</ele>
        <time>2013-06-08T10:25:02Z</time>
      </trkpt>
      <trkpt lat="41.840078" lon="-8.120253">
        <ele>500.04</ele>
        <time>2013-06-08T10:25:04Z</time>
      </trkpt>
      <trkpt lat="41.840151" lon="-8.120238">
        <ele>500.97</ele>
        <time>2013-06-08T10:25:05Z</time>
      </trkpt>
      <trkpt lat="41.840221" lon="-8.120210">
        <ele>501.29</ele>
        <time>2013-06-08T10:25:06Z</time>
      </trkpt>
      <trkpt lat="41.840290" lon="-8.120175">
        <ele>501.12</ele>
        <time>2013-06-08T10:25:07Z</time>
      </trkpt>
      <trkpt lat="41.840355" lon="-8.120133">
        <ele>500.74</ele>
        <time>2013-06-08T10:25:08Z</time>
      </trkpt>
      <trkpt lat="41.840417" lon="-8.120082">
        <ele>499.88</ele>
        <time>2013-06-08T10:25:09Z</time>
      </trkpt>
      <trkpt lat="41.840471" lon="-8.120018">
        <ele>498.94</ele>
        <time>2013-06-08T10:25:10Z</time>
      </trkpt>
      <trkpt lat="41.840518" lon="-8.119946">
        <ele>497.52</ele>
        <time>2013-06-08T10:25:11Z</time>
      </trkpt>
      <trkpt lat="41.840652" lon="-8.119728">
        <ele>493.12</ele>
        <time>2013-06-08T10:25:14Z</time>
      </trkpt>
      <trkpt lat="41.840705" lon="-8.119672">
        <ele>492.51</ele>
        <time>2013-06-08T10:25:15Z</time>
      </trkpt>
      <trkpt lat="41.840764" lon="-8.119625">
        <ele>492.57</ele>
        <time>2013-06-08T10:25:16Z</time>
      </trkpt>
      <trkpt lat="41.840941" lon="-8.119519">
        <ele>493.57</ele>
        <time>2013-06-08T10:25:19Z</time>
      </trkpt>
      <trkpt lat="41.841216" lon="-8.119409">
        <ele>496.38</ele>
        <time>2013-06-08T10:25:25Z</time>
      </trkpt>
      <trkpt lat="41.841699" lon="-8.119393">
        <ele>505.25</ele>
        <time>2013-06-08T10:25:37Z</time>
      </trkpt>
      <trkpt lat="41.841795" lon="-8.119398">
        <ele>507.34</ele>
        <time>2013-06-08T10:25:42Z</time>
      </trkpt>
      <trkpt lat="41.841805" lon="-8.119398">
        <ele>507.53</ele>
        <time>2013-06-08T10:25:43Z</time>
      </trkpt>
      <trkpt lat="41.841815" lon="-8.119406">
        <ele>508.14</ele>
        <time>2013-06-08T10:25:44Z</time>
      </trkpt>
      <trkpt lat="41.841830" lon="-8.119405">
        <ele>508.36</ele>
        <time>2013-06-08T10:25:45Z</time>
      </trkpt>
      <trkpt lat="41.841847" lon="-8.119398">
        <ele>508.31</ele>
        <time>2013-06-08T10:25:46Z</time>
      </trkpt>
      <trkpt lat="41.841863" lon="-8.119393">
        <ele>508.32</ele>
        <time>2013-06-08T10:25:47Z</time>
      </trkpt>
      <trkpt lat="41.841878" lon="-8.119392">
        <ele>508.61</ele>
        <time>2013-06-08T10:25:48Z</time>
      </trkpt>
      <trkpt lat="41.841891" lon="-8.119395">
        <ele>509.03</ele>
        <time>2013-06-08T10:25:49Z</time>
      </trkpt>
      <trkpt lat="41.841904" lon="-8.119398">
        <ele>509.44</ele>
        <time>2013-06-08T10:25:50Z</time>
      </trkpt>
      <trkpt lat="41.842142" lon="-8.119394">
        <ele>513.77</ele>
        <time>2013-06-08T10:26:03Z</time>
      </trkpt>
      <trkpt lat="41.842470" lon="-8.119283">
        <ele>514.42</ele>
        <time>2013-06-08T10:26:15Z</time>
      </trkpt>
      <trkpt lat="41.842477" lon="-8.119245">
        <ele>512.89</ele>
        <time>2013-06-08T10:26:16Z</time>
      </trkpt>
      <trkpt lat="41.842482" lon="-8.119204">
        <ele>511.14</ele>
        <time>2013-06-08T10:26:17Z</time>
      </trkpt>
      <trkpt lat="41.842485" lon="-8.119157">
        <ele>509.05</ele>
        <time>2013-06-08T10:26:18Z</time>
      </trkpt>
      <trkpt lat="41.842483" lon="-8.119107">
        <ele>506.78</ele>
        <time>2013-06-08T10:26:19Z</time>
      </trkpt>
      <trkpt lat="41.842477" lon="-8.119061">
        <ele>504.53</ele>
        <time>2013-06-08T10:26:20Z</time>
      </trkpt>
      <trkpt lat="41.842467" lon="-8.119013">
        <ele>502.13</ele>
        <time>2013-06-08T10:26:21Z</time>
      </trkpt>
      <trkpt lat="41.842453" lon="-8.118968">
        <ele>499.81</ele>
        <time>2013-06-08T10:26:22Z</time>
      </trkpt>
      <trkpt lat="41.842415" lon="-8.118490">
        <ele>483.55</ele>
        <time>2013-06-08T10:26:34Z</time>
      </trkpt>
      <trkpt lat="41.842569" lon="-8.118319">
        <ele>484.67</ele>
        <time>2013-06-08T10:26:41Z</time>
      </trkpt>
      <trkpt lat="41.842613" lon="-8.118303">
        <ele>485.79</ele>
        <time>2013-06-08T10:26:42Z</time>
      </trkpt>
      <trkpt lat="41.843175" lon="-8.118153">
        <ele>499.63</ele>
        <time>2013-06-08T10:26:52Z</time>
      </trkpt>
      <trkpt lat="41.843894" lon="-8.117813">
        <ele>505.69</ele>
        <time>2013-06-08T10:27:04Z</time>
      </trkpt>
      <trkpt lat="41.844268" lon="-8.117641">
        <ele>503.58</ele>
        <time>2013-06-08T10:27:09Z</time>
      </trkpt>
      <trkpt lat="41.844343" lon="-8.117592">
        <ele>502.35</ele>
        <time>2013-06-08T10:27:10Z</time>
      </trkpt>
      <trkpt lat="41.844418" lon="-8.117536">
        <ele>500.86</ele>
        <time>2013-06-08T10:27:11Z</time>
      </trkpt>
      <trkpt lat="41.845042" lon="-8.116944">
        <ele>484.08</ele>
        <time>2013-06-08T10:27:20Z</time>
      </trkpt>
      <trkpt lat="41.845305" lon="-8.116777">
        <ele>483.61</ele>
        <time>2013-06-08T10:27:24Z</time>
      </trkpt>
      <trkpt lat="41.845361" lon="-8.116723">
        <ele>483.01</ele>
        <time>2013-06-08T10:27:25Z</time>
      </trkpt>
      <trkpt lat="41.845554" lon="-8.116511">
        <ele>480.47</ele>
        <time>2013-06-08T10:27:29Z</time>
      </trkpt>
      <trkpt lat="41.845604" lon="-8.116474">
        <ele>480.31</ele>
        <time>2013-06-08T10:27:30Z</time>
      </trkpt>
      <trkpt lat="41.846117" lon="-8.116151">
        <ele>481.37</ele>
        <time>2013-06-08T10:27:38Z</time>
      </trkpt>
      <trkpt lat="41.846197" lon="-8.116126">
        <ele>482.15</ele>
        <time>2013-06-08T10:27:39Z</time>
      </trkpt>
      <trkpt lat="41.846599" lon="-8.116023">
        <ele>487.73</ele>
        <time>2013-06-08T10:27:44Z</time>
      </trkpt>
      <trkpt lat="41.846680" lon="-8.115981">
        <ele>487.97</ele>
        <time>2013-06-08T10:27:45Z</time>
      </trkpt>
      <trkpt lat="41.846759" lon="-8.115930">
        <ele>487.71</ele>
        <time>2013-06-08T10:27:46Z</time>
      </trkpt>
      <trkpt lat="41.847807" lon="-8.115212">
        <ele>477.16</ele>
        <time>2013-06-08T10:27:58Z</time>
      </trkpt>
      <trkpt lat="41.847889" lon="-8.115143">
        <ele>476.05</ele>
        <time>2013-06-08T10:27:59Z</time>
      </trkpt>
      <trkpt lat="41.848711" lon="-8.114540">
        <ele>471.22</ele>
        <time>2013-06-08T10:28:08Z</time>
      </trkpt>
      <trkpt lat="41.848787" lon="-8.114434">
        <ele>469.81</ele>
        <time>2013-06-08T10:28:09Z</time>
      </trkpt>
      <trkpt lat="41.848965" lon="-8.114130">
        <ele>465.30</ele>
        <time>2013-06-08T10:28:12Z</time>
      </trkpt>
      <trkpt lat="41.849032" lon="-8.114056">
        <ele>464.51</ele>
        <time>2013-06-08T10:28:13Z</time>
      </trkpt>
      <trkpt lat="41.849106" lon="-8.113997">
        <ele>464.45</ele>
        <time>2013-06-08T10:28:14Z</time>
      </trkpt>
      <trkpt lat="41.849180" lon="-8.113953">
        <ele>464.64</ele>
        <time>2013-06-08T10:28:15Z</time>
      </trkpt>
      <trkpt lat="41.849257" lon="-8.113923">
        <ele>465.26</ele>
        <time>2013-06-08T10:28:16Z</time>
      </trkpt>
      <trkpt lat="41.849343" lon="-8.113901">
        <ele>466.22</ele>
        <time>2013-06-08T10:28:17Z</time>
      </trkpt>
      <trkpt lat="41.849877" lon="-8.113829">
        <ele>470.45</ele>
        <time>2013-06-08T10:28:23Z</time>
      </trkpt>
      <trkpt lat="41.849957" lon="-8.113851">
        <ele>471.53</ele>
        <time>2013-06-08T10:28:24Z</time>
      </trkpt>
      <trkpt lat="41.850680" lon="-8.114060">
        <ele>478.32</ele>
        <time>2013-06-08T10:28:32Z</time>
      </trkpt>
      <trkpt lat="41.850779" lon="-8.114058">
        <ele>477.32</ele>
        <time>2013-06-08T10:28:33Z</time>
      </trkpt>
      <trkpt lat="41.851861" lon="-8.113807">
        <ele>463.61</ele>
        <time>2013-06-08T10:28:44Z</time>
      </trkpt>
      <trkpt lat="41.851953" lon="-8.113803">
        <ele>463.64</ele>
        <time>2013-06-08T10:28:45Z</time>
      </trkpt>
      <trkpt lat="41.852037" lon="-8.113813">
        <ele>464.23</ele>
        <time>2013-06-08T10:28:46Z</time>
      </trkpt>
      <trkpt lat="41.852119" lon="-8.113838">
        <ele>464.87</ele>
        <time>2013-06-08T10:28:47Z</time>
      </trkpt>
      <trkpt lat="41.852200" lon="-8.113873">
        <ele>465.16</ele>
        <time>2013-06-08T10:28:48Z</time>
      </trkpt>
      <trkpt lat="41.852281" lon="-8.113937">
        <ele>466.59</ele>
        <time>2013-06-08T10:28:49Z</time>
      </trkpt>
      <trkpt lat="41.852362" lon="-8.114017">
        <ele>468.48</ele>
        <time>2013-06-08T10:28:50Z</time>
      </trkpt>
      <trkpt lat="41.852538" lon="-8.114159">
        <ele>471.35</ele>
        <time>2013-06-08T10:28:52Z</time>
      </trkpt>
      <trkpt lat="41.852635" lon="-8.114209">
        <ele>471.88</ele>
        <time>2013-06-08T10:28:53Z</time>
      </trkpt>
      <trkpt lat="41.852732" lon="-8.114225">
        <ele>471.29</ele>
        <time>2013-06-08T10:28:54Z</time>
      </trkpt>
      <trkpt lat="41.852830" lon="-8.114227">
        <ele>470.12</ele>
        <time>2013-06-08T10:28:55Z</time>
      </trkpt>
      <trkpt lat="41.852914" lon="-8.114197">
        <ele>468.11</ele>
        <time>2013-06-08T10:28:56Z</time>
      </trkpt>
      <trkpt lat="41.852992" lon="-8.114152">
        <ele>466.41</ele>
        <time>2013-06-08T10:28:57Z</time>
      </trkpt>
      <trkpt lat="41.853068" lon="-8.114095">
        <ele>464.43</ele>
        <time>2013-06-08T10:28:58Z</time>
      </trkpt>
      <trkpt lat="41.853942" lon="-8.113290">
        <ele>444.51</ele>
        <time>2013-06-08T10:29:10Z</time>
      </trkpt>
      <trkpt lat="41.854827" lon="-8.112576">
        <ele>442.57</ele>
        <time>2013-06-08T10:29:21Z</time>
      </trkpt>
      <trkpt lat="41.855734" lon="-8.111941">
        <ele>435.36</ele>
        <time>2013-06-08T10:29:31Z</time>
      </trkpt>
      <trkpt lat="41.855832" lon="-8.111891">
        <ele>434.74</ele>
        <time>2013-06-08T10:29:32Z</time>
      </trkpt>
      <trkpt lat="41.855939" lon="-8.111866">
        <ele>435.09</ele>
        <time>2013-06-08T10:29:33Z</time>
      </trkpt>
      <trkpt lat="41.856050" lon="-8.111870">
        <ele>436.30</ele>
        <time>2013-06-08T10:29:34Z</time>
      </trkpt>
      <trkpt lat="41.856154" lon="-8.111881">
        <ele>437.51</ele>
        <time>2013-06-08T10:29:35Z</time>
      </trkpt>
      <trkpt lat="41.856251" lon="-8.111887">
        <ele>438.63</ele>
        <time>2013-06-08T10:29:36Z</time>
      </trkpt>
      <trkpt lat="41.856341" lon="-8.111882">
        <ele>437.41</ele>
        <time>2013-06-08T10:29:37Z</time>
      </trkpt>
      <trkpt lat="41.856427" lon="-8.111850">
        <ele>435.76</ele>
        <time>2013-06-08T10:29:38Z</time>
      </trkpt>
      <trkpt lat="41.856507" lon="-8.111784">
        <ele>433.44</ele>
        <time>2013-06-08T10:29:39Z</time>
      </trkpt>
      <trkpt lat="41.856581" lon="-8.111699">
        <ele>430.82</ele>
        <time>2013-06-08T10:29:40Z</time>
      </trkpt>
      <trkpt lat="41.856802" lon="-8.111461">
        <ele>424.87</ele>
        <time>2013-06-08T10:29:43Z</time>
      </trkpt>
      <trkpt lat="41.856877" lon="-8.111400">
        <ele>423.51</ele>
        <time>2013-06-08T10:29:44Z</time>
      </trkpt>
      <trkpt lat="41.856954" lon="-8.111355">
        <ele>422.69</ele>
        <time>2013-06-08T10:29:45Z</time>
      </trkpt>
      <trkpt lat="41.857033" lon="-8.111326">
        <ele>422.16</ele>
        <time>2013-06-08T10:29:46Z</time>
      </trkpt>
      <trkpt lat="41.857116" lon="-8.111304">
        <ele>421.83</ele>
        <time>2013-06-08T10:29:47Z</time>
      </trkpt>
      <trkpt lat="41.857460" lon="-8.111203">
        <ele>421.49</ele>
        <time>2013-06-08T10:29:51Z</time>
      </trkpt>
      <trkpt lat="41.857535" lon="-8.111132">
        <ele>420.81</ele>
        <time>2013-06-08T10:29:52Z</time>
      </trkpt>
      <trkpt lat="41.857594" lon="-8.111039">
        <ele>420.01</ele>
        <time>2013-06-08T10:29:53Z</time>
      </trkpt>
      <trkpt lat="41.857796" lon="-8.110571">
        <ele>416.02</ele>
        <time>2013-06-08T10:29:58Z</time>
      </trkpt>
      <trkpt lat="41.857841" lon="-8.110499">
        <ele>415.50</ele>
        <time>2013-06-08T10:29:59Z</time>
      </trkpt>
      <trkpt lat="41.857891" lon="-8.110438">
        <ele>415.19</ele>
        <time>2013-06-08T10:30:00Z</time>
      </trkpt>
      <trkpt lat="41.857947" lon="-8.110390">
        <ele>415.03</ele>
        <time>2013-06-08T10:30:01Z</time>
      </trkpt>
      <trkpt lat="41.858007" lon="-8.110352">
        <ele>415.32</ele>
        <time>2013-06-08T10:30:02Z</time>
      </trkpt>
      <trkpt lat="41.858069" lon="-8.110321">
        <ele>415.87</ele>
        <time>2013-06-08T10:30:03Z</time>
      </trkpt>
      <trkpt lat="41.858626" lon="-8.110074">
        <ele>419.22</ele>
        <time>2013-06-08T10:30:11Z</time>
      </trkpt>
      <trkpt lat="41.858701" lon="-8.110067">
        <ele>420.16</ele>
        <time>2013-06-08T10:30:12Z</time>
      </trkpt>
      <trkpt lat="41.858777" lon="-8.110077">
        <ele>420.96</ele>
        <time>2013-06-08T10:30:13Z</time>
      </trkpt>
      <trkpt lat="41.858856" lon="-8.110101">
        <ele>421.21</ele>
        <time>2013-06-08T10:30:14Z</time>
      </trkpt>
      <trkpt lat="41.858934" lon="-8.110133">
        <ele>421.71</ele>
        <time>2013-06-08T10:30:15Z</time>
      </trkpt>
      <trkpt lat="41.859013" lon="-8.110172">
        <ele>422.48</ele>
        <time>2013-06-08T10:30:16Z</time>
      </trkpt>
      <trkpt lat="41.859448" lon="-8.110349">
        <ele>425.64</ele>
        <time>2013-06-08T10:30:21Z</time>
      </trkpt>
      <trkpt lat="41.859538" lon="-8.110340">
        <ele>425.43</ele>
        <time>2013-06-08T10:30:22Z</time>
      </trkpt>
      <trkpt lat="41.859620" lon="-8.110300">
        <ele>424.84</ele>
        <time>2013-06-08T10:30:23Z</time>
      </trkpt>
      <trkpt lat="41.859691" lon="-8.110238">
        <ele>424.02</ele>
        <time>2013-06-08T10:30:24Z</time>
      </trkpt>
      <trkpt lat="41.859751" lon="-8.110161">
        <ele>423.05</ele>
        <time>2013-06-08T10:30:25Z</time>
      </trkpt>
      <trkpt lat="41.859803" lon="-8.110077">
        <ele>421.86</ele>
        <time>2013-06-08T10:30:26Z</time>
      </trkpt>
      <trkpt lat="41.859845" lon="-8.109992">
        <ele>420.62</ele>
        <time>2013-06-08T10:30:27Z</time>
      </trkpt>
      <trkpt lat="41.859876" lon="-8.109904">
        <ele>419.28</ele>
        <time>2013-06-08T10:30:28Z</time>
      </trkpt>
      <trkpt lat="41.859905" lon="-8.109818">
        <ele>418.01</ele>
        <time>2013-06-08T10:30:29Z</time>
      </trkpt>
      <trkpt lat="41.859937" lon="-8.109732">
        <ele>416.81</ele>
        <time>2013-06-08T10:30:30Z</time>
      </trkpt>
      <trkpt lat="41.860042" lon="-8.109470">
        <ele>413.60</ele>
        <time>2013-06-08T10:30:33Z</time>
      </trkpt>
      <trkpt lat="41.860092" lon="-8.109391">
        <ele>412.66</ele>
        <time>2013-06-08T10:30:34Z</time>
      </trkpt>
      <trkpt lat="41.860156" lon="-8.109324">
        <ele>412.20</ele>
        <time>2013-06-08T10:30:35Z</time>
      </trkpt>
      <trkpt lat="41.860232" lon="-8.109273">
        <ele>412.01</ele>
        <time>2013-06-08T10:30:36Z</time>
      </trkpt>
      <trkpt lat="41.860315" lon="-8.109227">
        <ele>412.10</ele>
        <time>2013-06-08T10:30:37Z</time>
      </trkpt>
      <trkpt lat="41.861423" lon="-8.108564">
        <ele>411.93</ele>
        <time>2013-06-08T10:30:49Z</time>
      </trkpt>
      <trkpt lat="41.861841" lon="-8.108233">
        <ele>405.50</ele>
        <time>2013-06-08T10:30:54Z</time>
      </trkpt>
      <trkpt lat="41.861927" lon="-8.108207">
        <ele>405.30</ele>
        <time>2013-06-08T10:30:55Z</time>
      </trkpt>
      <trkpt lat="41.862017" lon="-8.108213">
        <ele>406.15</ele>
        <time>2013-06-08T10:30:56Z</time>
      </trkpt>
      <trkpt lat="41.862104" lon="-8.108251">
        <ele>407.82</ele>
        <time>2013-06-08T10:30:57Z</time>
      </trkpt>
      <trkpt lat="41.862187" lon="-8.108305">
        <ele>410.01</ele>
        <time>2013-06-08T10:30:58Z</time>
      </trkpt>
      <trkpt lat="41.862270" lon="-8.108339">
        <ele>411.68</ele>
        <time>2013-06-08T10:30:59Z</time>
      </trkpt>
      <trkpt lat="41.862356" lon="-8.108334">
        <ele>412.19</ele>
        <time>2013-06-08T10:31:00Z</time>
      </trkpt>
      <trkpt lat="41.862440" lon="-8.108296">
        <ele>411.81</ele>
        <time>2013-06-08T10:31:01Z</time>
      </trkpt>
      <trkpt lat="41.862512" lon="-8.108236">
        <ele>410.83</ele>
        <time>2013-06-08T10:31:02Z</time>
      </trkpt>
      <trkpt lat="41.862578" lon="-8.108166">
        <ele>409.68</ele>
        <time>2013-06-08T10:31:03Z</time>
      </trkpt>
      <trkpt lat="41.863075" lon="-8.107623">
        <ele>402.84</ele>
        <time>2013-06-08T10:31:11Z</time>
      </trkpt>
      <trkpt lat="41.863149" lon="-8.107579">
        <ele>403.19</ele>
        <time>2013-06-08T10:31:12Z</time>
      </trkpt>
      <trkpt lat="41.863229" lon="-8.107549">
        <ele>404.01</ele>
        <time>2013-06-08T10:31:13Z</time>
      </trkpt>
      <trkpt lat="41.863311" lon="-8.107528">
        <ele>405.12</ele>
        <time>2013-06-08T10:31:14Z</time>
      </trkpt>
      <trkpt lat="41.863398" lon="-8.107511">
        <ele>406.50</ele>
        <time>2013-06-08T10:31:15Z</time>
      </trkpt>
      <trkpt lat="41.864775" lon="-8.107230">
        <ele>406.71</ele>
        <time>2013-06-08T10:31:30Z</time>
      </trkpt>
      <trkpt lat="41.864852" lon="-8.107182">
        <ele>404.07</ele>
        <time>2013-06-08T10:31:31Z</time>
      </trkpt>
      <trkpt lat="41.864917" lon="-8.107105">
        <ele>400.34</ele>
        <time>2013-06-08T10:31:32Z</time>
      </trkpt>
      <trkpt lat="41.864957" lon="-8.107001">
        <ele>396.92</ele>
        <time>2013-06-08T10:31:33Z</time>
      </trkpt>
      <trkpt lat="41.864970" lon="-8.106889">
        <ele>394.03</ele>
        <time>2013-06-08T10:31:34Z</time>
      </trkpt>
      <trkpt lat="41.864967" lon="-8.106782">
        <ele>391.40</ele>
        <time>2013-06-08T10:31:35Z</time>
      </trkpt>
      <trkpt lat="41.864962" lon="-8.106683">
        <ele>388.82</ele>
        <time>2013-06-08T10:31:36Z</time>
      </trkpt>
      <trkpt lat="41.864934" lon="-8.106346">
        <ele>380.39</ele>
        <time>2013-06-08T10:31:40Z</time>
      </trkpt>
      <trkpt lat="41.864896" lon="-8.106293">
        <ele>378.97</ele>
        <time>2013-06-08T10:31:41Z</time>
      </trkpt>
      <trkpt lat="41.864841" lon="-8.106271">
        <ele>378.28</ele>
        <time>2013-06-08T10:31:42Z</time>
      </trkpt>
      <trkpt lat="41.864782" lon="-8.106280">
        <ele>378.32</ele>
        <time>2013-06-08T10:31:43Z</time>
      </trkpt>
      <trkpt lat="41.864722" lon="-8.106302">
        <ele>378.81</ele>
        <time>2013-06-08T10:31:44Z</time>
      </trkpt>
      <trkpt lat="41.864244" lon="-8.106404">
        <ele>381.52</ele>
        <time>2013-06-08T10:31:51Z</time>
      </trkpt>
      <trkpt lat="41.864185" lon="-8.106404">
        <ele>381.56</ele>
        <time>2013-06-08T10:31:52Z</time>
      </trkpt>
      <trkpt lat="41.864082" lon="-8.106403">
        <ele>381.39</ele>
        <time>2013-06-08T10:31:54Z</time>
      </trkpt>
      <trkpt lat="41.863989" lon="-8.106393">
        <ele>381.01</ele>
        <time>2013-06-08T10:31:56Z</time>
      </trkpt>
      <trkpt lat="41.863945" lon="-8.106394">
        <ele>381.03</ele>
        <time>2013-06-08T10:31:57Z</time>
      </trkpt>
      <trkpt lat="41.863901" lon="-8.106392">
        <ele>380.95</ele>
        <time>2013-06-08T10:31:58Z</time>
      </trkpt>
      <trkpt lat="41.863336" lon="-8.106287">
        <ele>377.74</ele>
        <time>2013-06-08T10:32:13Z</time>
      </trkpt>
      <trkpt lat="41.862723" lon="-8.106281">
        <ele>377.75</ele>
        <time>2013-06-08T10:32:30Z</time>
      </trkpt>
      <trkpt lat="41.862634" lon="-8.106318">
        <ele>378.20</ele>
        <time>2013-06-08T10:32:35Z</time>
      </trkpt>
      <trkpt lat="41.862617" lon="-8.106323">
        <ele>378.21</ele>
        <time>2013-06-08T10:32:44Z</time>
      </trkpt>
      <trkpt lat="41.862620" lon="-8.106330">
        <ele>378.31</ele>
        <time>2013-06-08T10:33:03Z</time>
      </trkpt>
      <trkpt lat="41.862616" lon="-8.106314">
        <ele>378.28</ele>
        <time>2013-06-08T10:33:43Z</time>
      </trkpt>
      <trkpt lat="41.862614" lon="-8.106303">
        <ele>378.13</ele>
        <time>2013-06-08T10:34:07Z</time>
      </trkpt>
      <trkpt lat="41.862624" lon="-8.106290">
        <ele>378.03</ele>
        <time>2013-06-08T10:34:08Z</time>
      </trkpt>
      <trkpt lat="41.862635" lon="-8.106286">
        <ele>377.94</ele>
        <time>2013-06-08T10:34:09Z</time>
      </trkpt>
      <trkpt lat="41.862660" lon="-8.106269">
        <ele>377.84</ele>
        <time>2013-06-08T10:34:12Z</time>
      </trkpt>
      <trkpt lat="41.862716" lon="-8.106200">
        <ele>378.15</ele>
        <time>2013-06-08T10:34:26Z</time>
      </trkpt>
      <trkpt lat="41.862701" lon="-8.106218">
        <ele>377.92</ele>
        <time>2013-06-08T10:34:57Z</time>
      </trkpt>
      <trkpt lat="41.862706" lon="-8.106207">
        <ele>378.14</ele>
        <time>2013-06-08T10:35:28Z</time>
      </trkpt>
      <trkpt lat="41.862712" lon="-8.106212">
        <ele>378.07</ele>
        <time>2013-06-08T10:35:58Z</time>
      </trkpt>
      <trkpt lat="41.862734" lon="-8.106221">
        <ele>377.82</ele>
        <time>2013-06-08T10:36:29Z</time>
      </trkpt>
      <trkpt lat="41.862754" lon="-8.106201">
        <ele>378.01</ele>
        <time>2013-06-08T10:37:06Z</time>
      </trkpt>
      <trkpt lat="41.862749" lon="-8.106213">
        <ele>377.92</ele>
        <time>2013-06-08T10:37:41Z</time>
      </trkpt>
      <trkpt lat="41.862736" lon="-8.106219">
        <ele>377.90</ele>
        <time>2013-06-08T10:38:12Z</time>
      </trkpt>
      <trkpt lat="41.862742" lon="-8.106225">
        <ele>377.76</ele>
        <time>2013-06-08T10:38:42Z</time>
      </trkpt>
      <trkpt lat="41.862743" lon="-8.106221">
        <ele>377.84</ele>
        <time>2013-06-08T10:39:11Z</time>
      </trkpt>
      <trkpt lat="41.862742" lon="-8.106213">
        <ele>377.94</ele>
        <time>2013-06-08T10:39:41Z</time>
      </trkpt>
      <trkpt lat="41.862730" lon="-8.106218">
        <ele>377.96</ele>
        <time>2013-06-08T10:40:09Z</time>
      </trkpt>
      <trkpt lat="41.862731" lon="-8.106220">
        <ele>377.89</ele>
        <time>2013-06-08T10:40:42Z</time>
      </trkpt>
      <trkpt lat="41.862710" lon="-8.106206">
        <ele>378.11</ele>
        <time>2013-06-08T10:41:17Z</time>
      </trkpt>
      <trkpt lat="41.862718" lon="-8.106218">
        <ele>377.92</ele>
        <time>2013-06-08T10:41:48Z</time>
      </trkpt>
      <trkpt lat="41.862734" lon="-8.106225">
        <ele>377.80</ele>
        <time>2013-06-08T10:42:17Z</time>
      </trkpt>
      <trkpt lat="41.862745" lon="-8.106229">
        <ele>377.71</ele>
        <time>2013-06-08T10:42:56Z</time>
      </trkpt>
      <trkpt lat="41.862740" lon="-8.106226">
        <ele>377.74</ele>
        <time>2013-06-08T10:43:35Z</time>
      </trkpt>
      <trkpt lat="41.862739" lon="-8.106212">
        <ele>378.00</ele>
        <time>2013-06-08T10:44:06Z</time>
      </trkpt>
      <trkpt lat="41.862749" lon="-8.106219">
        <ele>377.84</ele>
        <time>2013-06-08T10:44:13Z</time>
      </trkpt>
      <trkpt lat="41.862770" lon="-8.106221">
        <ele>377.79</ele>
        <time>2013-06-08T10:44:15Z</time>
      </trkpt>
      <trkpt lat="41.862780" lon="-8.106217">
        <ele>377.74</ele>
        <time>2013-06-08T10:44:16Z</time>
      </trkpt>
      <trkpt lat="41.862797" lon="-8.106193">
        <ele>378.01</ele>
        <time>2013-06-08T10:44:19Z</time>
      </trkpt>
      <trkpt lat="41.862804" lon="-8.106184">
        <ele>378.19</ele>
        <time>2013-06-08T10:44:20Z</time>
      </trkpt>
      <trkpt lat="41.862814" lon="-8.106176">
        <ele>378.29</ele>
        <time>2013-06-08T10:44:21Z</time>
      </trkpt>
      <trkpt lat="41.862824" lon="-8.106170">
        <ele>378.26</ele>
        <time>2013-06-08T10:44:22Z</time>
      </trkpt>
      <trkpt lat="41.862836" lon="-8.106169">
        <ele>378.22</ele>
        <time>2013-06-08T10:44:23Z</time>
      </trkpt>
      <trkpt lat="41.862849" lon="-8.106171">
        <ele>378.11</ele>
        <time>2013-06-08T10:44:24Z</time>
      </trkpt>
      <trkpt lat="41.862868" lon="-8.106179">
        <ele>378.04</ele>
        <time>2013-06-08T10:44:26Z</time>
      </trkpt>
      <trkpt lat="41.862881" lon="-8.106179">
        <ele>378.00</ele>
        <time>2013-06-08T10:44:27Z</time>
      </trkpt>
      <trkpt lat="41.862984" lon="-8.106195">
        <ele>377.79</ele>
        <time>2013-06-08T10:44:39Z</time>
      </trkpt>
      <trkpt lat="41.862992" lon="-8.106210">
        <ele>377.55</ele>
        <time>2013-06-08T10:45:12Z</time>
      </trkpt>
      <trkpt lat="41.862980" lon="-8.106195">
        <ele>377.72</ele>
        <time>2013-06-08T10:45:44Z</time>
      </trkpt>
      <trkpt lat="41.862980" lon="-8.106200">
        <ele>377.66</ele>
        <time>2013-06-08T10:46:17Z</time>
      </trkpt>
      <trkpt lat="41.862989" lon="-8.106194">
        <ele>377.74</ele>
        <time>2013-06-08T10:46:51Z</time>
      </trkpt>
      <trkpt lat="41.862997" lon="-8.106195">
        <ele>377.79</ele>
        <time>2013-06-08T10:47:24Z</time>
      </trkpt>
      <trkpt lat="41.862998" lon="-8.106178">
        <ele>377.96</ele>
        <time>2013-06-08T10:47:53Z</time>
      </trkpt>
      <trkpt lat="41.862992" lon="-8.106183">
        <ele>377.83</ele>
        <time>2013-06-08T10:48:28Z</time>
      </trkpt>
      <trkpt lat="41.863088" lon="-8.106206">
        <ele>377.51</ele>
        <time>2013-06-08T10:48:45Z</time>
      </trkpt>
      <trkpt lat="41.863508" lon="-8.106246">
        <ele>377.14</ele>
        <time>2013-06-08T10:48:59Z</time>
      </trkpt>
      <trkpt lat="41.863623" lon="-8.106261">
        <ele>377.33</ele>
        <time>2013-06-08T10:49:02Z</time>
      </trkpt>
      <trkpt lat="41.863665" lon="-8.106266">
        <ele>377.49</ele>
        <time>2013-06-08T10:49:03Z</time>
      </trkpt>
      <trkpt lat="41.863702" lon="-8.106279">
        <ele>377.77</ele>
        <time>2013-06-08T10:49:04Z</time>
      </trkpt>
      <trkpt lat="41.863738" lon="-8.106288">
        <ele>378.04</ele>
        <time>2013-06-08T10:49:05Z</time>
      </trkpt>
      <trkpt lat="41.863772" lon="-8.106289">
        <ele>378.03</ele>
        <time>2013-06-08T10:49:06Z</time>
      </trkpt>
      <trkpt lat="41.864094" lon="-8.106318">
        <ele>378.98</ele>
        <time>2013-06-08T10:49:16Z</time>
      </trkpt>
      <trkpt lat="41.864200" lon="-8.106333">
        <ele>379.47</ele>
        <time>2013-06-08T10:49:19Z</time>
      </trkpt>
      <trkpt lat="41.864233" lon="-8.106343">
        <ele>379.71</ele>
        <time>2013-06-08T10:49:20Z</time>
      </trkpt>
      <trkpt lat="41.864260" lon="-8.106357">
        <ele>380.11</ele>
        <time>2013-06-08T10:49:21Z</time>
      </trkpt>
      <trkpt lat="41.864291" lon="-8.106355">
        <ele>380.11</ele>
        <time>2013-06-08T10:49:22Z</time>
      </trkpt>
      <trkpt lat="41.864326" lon="-8.106354">
        <ele>380.15</ele>
        <time>2013-06-08T10:49:23Z</time>
      </trkpt>
      <trkpt lat="41.864365" lon="-8.106355">
        <ele>380.11</ele>
        <time>2013-06-08T10:49:24Z</time>
      </trkpt>
      <trkpt lat="41.864407" lon="-8.106352">
        <ele>380.14</ele>
        <time>2013-06-08T10:49:25Z</time>
      </trkpt>
      <trkpt lat="41.864890" lon="-8.106235">
        <ele>377.85</ele>
        <time>2013-06-08T10:49:38Z</time>
      </trkpt>
      <trkpt lat="41.864915" lon="-8.106202">
        <ele>378.02</ele>
        <time>2013-06-08T10:49:40Z</time>
      </trkpt>
      <trkpt lat="41.864922" lon="-8.106179">
        <ele>378.23</ele>
        <time>2013-06-08T10:49:41Z</time>
      </trkpt>
      <trkpt lat="41.864931" lon="-8.106153">
        <ele>378.37</ele>
        <time>2013-06-08T10:49:42Z</time>
      </trkpt>
      <trkpt lat="41.864941" lon="-8.106120">
        <ele>378.57</ele>
        <time>2013-06-08T10:49:43Z</time>
      </trkpt>
      <trkpt lat="41.864951" lon="-8.106081">
        <ele>378.77</ele>
        <time>2013-06-08T10:49:44Z</time>
      </trkpt>
      <trkpt lat="41.865007" lon="-8.105845">
        <ele>379.71</ele>
        <time>2013-06-08T10:49:49Z</time>
      </trkpt>
      <trkpt lat="41.865099" lon="-8.105651">
        <ele>380.31</ele>
        <time>2013-06-08T10:49:53Z</time>
      </trkpt>
      <trkpt lat="41.865128" lon="-8.105613">
        <ele>380.44</ele>
        <time>2013-06-08T10:49:54Z</time>
      </trkpt>
      <trkpt lat="41.865157" lon="-8.105575">
        <ele>380.43</ele>
        <time>2013-06-08T10:49:55Z</time>
      </trkpt>
      <trkpt lat="41.865188" lon="-8.105539">
        <ele>380.57</ele>
        <time>2013-06-08T10:49:56Z</time>
      </trkpt>
      <trkpt lat="41.865223" lon="-8.105510">
        <ele>380.51</ele>
        <time>2013-06-08T10:49:57Z</time>
      </trkpt>
      <trkpt lat="41.865259" lon="-8.105480">
        <ele>380.41</ele>
        <time>2013-06-08T10:49:58Z</time>
      </trkpt>
      <trkpt lat="41.865634" lon="-8.105230">
        <ele>382.01</ele>
        <time>2013-06-08T10:50:07Z</time>
      </trkpt>
      <trkpt lat="41.865676" lon="-8.105204">
        <ele>382.24</ele>
        <time>2013-06-08T10:50:08Z</time>
      </trkpt>
      <trkpt lat="41.866119" lon="-8.104944">
        <ele>385.97</ele>
        <time>2013-06-08T10:50:20Z</time>
      </trkpt>
      <trkpt lat="41.866599" lon="-8.104684">
        <ele>387.38</ele>
        <time>2013-06-08T10:50:34Z</time>
      </trkpt>
      <trkpt lat="41.866898" lon="-8.104521">
        <ele>386.72</ele>
        <time>2013-06-08T10:50:45Z</time>
      </trkpt>
      <trkpt lat="41.866945" lon="-8.104483">
        <ele>386.81</ele>
        <time>2013-06-08T10:50:46Z</time>
      </trkpt>
      <trkpt lat="41.867000" lon="-8.104450">
        <ele>386.87</ele>
        <time>2013-06-08T10:50:47Z</time>
      </trkpt>
      <trkpt lat="41.867649" lon="-8.104038">
        <ele>384.43</ele>
        <time>2013-06-08T10:51:00Z</time>
      </trkpt>
      <trkpt lat="41.867734" lon="-8.103970">
        <ele>383.98</ele>
        <time>2013-06-08T10:51:02Z</time>
      </trkpt>
      <trkpt lat="41.867773" lon="-8.103931">
        <ele>383.71</ele>
        <time>2013-06-08T10:51:03Z</time>
      </trkpt>
      <trkpt lat="41.868370" lon="-8.103279">
        <ele>386.96</ele>
        <time>2013-06-08T10:51:17Z</time>
      </trkpt>
      <trkpt lat="41.868887" lon="-8.102710">
        <ele>388.66</ele>
        <time>2013-06-08T10:51:31Z</time>
      </trkpt>
      <trkpt lat="41.869555" lon="-8.102280">
        <ele>388.34</ele>
        <time>2013-06-08T10:51:46Z</time>
      </trkpt>
      <trkpt lat="41.869655" lon="-8.102249">
        <ele>388.44</ele>
        <time>2013-06-08T10:51:48Z</time>
      </trkpt>
      <trkpt lat="41.870473" lon="-8.102084">
        <ele>389.00</ele>
        <time>2013-06-08T10:52:04Z</time>
      </trkpt>
      <trkpt lat="41.871315" lon="-8.101754">
        <ele>391.42</ele>
        <time>2013-06-08T10:52:20Z</time>
      </trkpt>
      <trkpt lat="41.871801" lon="-8.101384">
        <ele>393.71</ele>
        <time>2013-06-08T10:52:31Z</time>
      </trkpt>
      <trkpt lat="41.872510" lon="-8.100643">
        <ele>400.34</ele>
        <time>2013-06-08T10:52:48Z</time>
      </trkpt>
      <trkpt lat="41.873255" lon="-8.100147">
        <ele>401.06</ele>
        <time>2013-06-08T10:53:02Z</time>
      </trkpt>
      <trkpt lat="41.873725" lon="-8.099882">
        <ele>398.84</ele>
        <time>2013-06-08T10:53:10Z</time>
      </trkpt>
      <trkpt lat="41.873787" lon="-8.099852">
        <ele>398.54</ele>
        <time>2013-06-08T10:53:11Z</time>
      </trkpt>
      <trkpt lat="41.874537" lon="-8.099436">
        <ele>395.45</ele>
        <time>2013-06-08T10:53:24Z</time>
      </trkpt>
      <trkpt lat="41.875345" lon="-8.098838">
        <ele>398.04</ele>
        <time>2013-06-08T10:53:39Z</time>
      </trkpt>
      <trkpt lat="41.875632" lon="-8.098564">
        <ele>400.05</ele>
        <time>2013-06-08T10:53:45Z</time>
      </trkpt>
      <trkpt lat="41.876231" lon="-8.098001">
        <ele>404.61</ele>
        <time>2013-06-08T10:53:59Z</time>
      </trkpt>
      <trkpt lat="41.876948" lon="-8.097289">
        <ele>407.13</ele>
        <time>2013-06-08T10:54:17Z</time>
      </trkpt>
      <trkpt lat="41.877408" lon="-8.096889">
        <ele>409.31</ele>
        <time>2013-06-08T10:54:29Z</time>
      </trkpt>
      <trkpt lat="41.877453" lon="-8.096869">
        <ele>409.41</ele>
        <time>2013-06-08T10:54:30Z</time>
      </trkpt>
      <trkpt lat="41.878042" lon="-8.096846">
        <ele>410.58</ele>
        <time>2013-06-08T10:54:43Z</time>
      </trkpt>
      <trkpt lat="41.878085" lon="-8.096874">
        <ele>410.82</ele>
        <time>2013-06-08T10:54:44Z</time>
      </trkpt>
      <trkpt lat="41.878166" lon="-8.096941">
        <ele>411.40</ele>
        <time>2013-06-08T10:54:46Z</time>
      </trkpt>
      <trkpt lat="41.878271" lon="-8.097059">
        <ele>412.10</ele>
        <time>2013-06-08T10:54:49Z</time>
      </trkpt>
      <trkpt lat="41.878337" lon="-8.097135">
        <ele>412.66</ele>
        <time>2013-06-08T10:54:51Z</time>
      </trkpt>
      <trkpt lat="41.878801" lon="-8.097875">
        <ele>418.35</ele>
        <time>2013-06-08T10:55:06Z</time>
      </trkpt>
      <trkpt lat="41.878889" lon="-8.098007">
        <ele>419.62</ele>
        <time>2013-06-08T10:55:09Z</time>
      </trkpt>
      <trkpt lat="41.878968" lon="-8.098135">
        <ele>420.80</ele>
        <time>2013-06-08T10:55:12Z</time>
      </trkpt>
      <trkpt lat="41.878997" lon="-8.098179">
        <ele>421.15</ele>
        <time>2013-06-08T10:55:13Z</time>
      </trkpt>
      <trkpt lat="41.879179" lon="-8.098453">
        <ele>423.52</ele>
        <time>2013-06-08T10:55:19Z</time>
      </trkpt>
      <trkpt lat="41.879212" lon="-8.098499">
        <ele>423.91</ele>
        <time>2013-06-08T10:55:20Z</time>
      </trkpt>
      <trkpt lat="41.879406" lon="-8.098767">
        <ele>426.08</ele>
        <time>2013-06-08T10:55:26Z</time>
      </trkpt>
      <trkpt lat="41.879861" lon="-8.099121">
        <ele>430.46</ele>
        <time>2013-06-08T10:55:38Z</time>
      </trkpt>
      <trkpt lat="41.880459" lon="-8.099082">
        <ele>432.72</ele>
        <time>2013-06-08T10:55:53Z</time>
      </trkpt>
      <trkpt lat="41.881029" lon="-8.098934">
        <ele>433.76</ele>
        <time>2013-06-08T10:56:09Z</time>
      </trkpt>
      <trkpt lat="41.881435" lon="-8.098820">
        <ele>435.15</ele>
        <time>2013-06-08T10:56:22Z</time>
      </trkpt>
      <trkpt lat="41.881942" lon="-8.098686">
        <ele>437.24</ele>
        <time>2013-06-08T10:56:38Z</time>
      </trkpt>
      <trkpt lat="41.882315" lon="-8.098576">
        <ele>439.69</ele>
        <time>2013-06-08T10:56:50Z</time>
      </trkpt>
      <trkpt lat="41.882656" lon="-8.098491">
        <ele>441.91</ele>
        <time>2013-06-08T10:57:01Z</time>
      </trkpt>
      <trkpt lat="41.883153" lon="-8.098364">
        <ele>445.14</ele>
        <time>2013-06-08T10:57:16Z</time>
      </trkpt>
      <trkpt lat="41.883652" lon="-8.098243">
        <ele>448.11</ele>
        <time>2013-06-08T10:57:31Z</time>
      </trkpt>
      <trkpt lat="41.883794" lon="-8.098220">
        <ele>448.51</ele>
        <time>2013-06-08T10:57:36Z</time>
      </trkpt>
      <trkpt lat="41.883835" lon="-8.098267">
        <ele>447.74</ele>
        <time>2013-06-08T10:57:43Z</time>
      </trkpt>
      <trkpt lat="41.883848" lon="-8.098258">
        <ele>447.80</ele>
        <time>2013-06-08T10:58:12Z</time>
      </trkpt>
      <trkpt lat="41.883848" lon="-8.098257">
        <ele>447.79</ele>
        <time>2013-06-08T10:58:20Z</time>
      </trkpt>
      <trkpt lat="41.884081" lon="-8.098108">
        <ele>448.43</ele>
        <time>2013-06-08T10:58:30Z</time>
      </trkpt>
      <trkpt lat="41.884493" lon="-8.097756">
        <ele>452.33</ele>
        <time>2013-06-08T10:58:43Z</time>
      </trkpt>
      <trkpt lat="41.884623" lon="-8.097508">
        <ele>454.96</ele>
        <time>2013-06-08T10:58:49Z</time>
      </trkpt>
      <trkpt lat="41.884640" lon="-8.097458">
        <ele>455.39</ele>
        <time>2013-06-08T10:58:50Z</time>
      </trkpt>
      <trkpt lat="41.884656" lon="-8.097408">
        <ele>455.83</ele>
        <time>2013-06-08T10:58:51Z</time>
      </trkpt>
      <trkpt lat="41.884671" lon="-8.097356">
        <ele>456.39</ele>
        <time>2013-06-08T10:58:52Z</time>
      </trkpt>
      <trkpt lat="41.884686" lon="-8.097305">
        <ele>456.81</ele>
        <time>2013-06-08T10:58:53Z</time>
      </trkpt>
      <trkpt lat="41.884935" lon="-8.096446">
        <ele>464.61</ele>
        <time>2013-06-08T10:59:11Z</time>
      </trkpt>
      <trkpt lat="41.885216" lon="-8.096095">
        <ele>466.93</ele>
        <time>2013-06-08T10:59:21Z</time>
      </trkpt>
      <trkpt lat="41.885458" lon="-8.095992">
        <ele>466.74</ele>
        <time>2013-06-08T10:59:27Z</time>
      </trkpt>
      <trkpt lat="41.885504" lon="-8.095978">
        <ele>466.90</ele>
        <time>2013-06-08T10:59:28Z</time>
      </trkpt>
      <trkpt lat="41.886115" lon="-8.095918">
        <ele>466.27</ele>
        <time>2013-06-08T10:59:40Z</time>
      </trkpt>
      <trkpt lat="41.886219" lon="-8.095911">
        <ele>466.18</ele>
        <time>2013-06-08T10:59:42Z</time>
      </trkpt>
      <trkpt lat="41.886567" lon="-8.095884">
        <ele>465.83</ele>
        <time>2013-06-08T10:59:49Z</time>
      </trkpt>
      <trkpt lat="41.886617" lon="-8.095871">
        <ele>465.87</ele>
        <time>2013-06-08T10:59:50Z</time>
      </trkpt>
      <trkpt lat="41.886722" lon="-8.095840">
        <ele>466.11</ele>
        <time>2013-06-08T10:59:52Z</time>
      </trkpt>
      <trkpt lat="41.886825" lon="-8.095795">
        <ele>466.54</ele>
        <time>2013-06-08T10:59:54Z</time>
      </trkpt>
      <trkpt lat="41.886978" lon="-8.095696">
        <ele>467.81</ele>
        <time>2013-06-08T10:59:57Z</time>
      </trkpt>
      <trkpt lat="41.887028" lon="-8.095653">
        <ele>468.41</ele>
        <time>2013-06-08T10:59:58Z</time>
      </trkpt>
      <trkpt lat="41.887170" lon="-8.095488">
        <ele>470.80</ele>
        <time>2013-06-08T11:00:01Z</time>
      </trkpt>
      <trkpt lat="41.887252" lon="-8.095359">
        <ele>472.20</ele>
        <time>2013-06-08T11:00:03Z</time>
      </trkpt>
      <trkpt lat="41.887286" lon="-8.095291">
        <ele>472.66</ele>
        <time>2013-06-08T11:00:04Z</time>
      </trkpt>
      <trkpt lat="41.887315" lon="-8.095219">
        <ele>473.14</ele>
        <time>2013-06-08T11:00:05Z</time>
      </trkpt>
      <trkpt lat="41.887340" lon="-8.095144">
        <ele>473.80</ele>
        <time>2013-06-08T11:00:06Z</time>
      </trkpt>
      <trkpt lat="41.887360" lon="-8.095066">
        <ele>474.36</ele>
        <time>2013-06-08T11:00:07Z</time>
      </trkpt>
      <trkpt lat="41.887376" lon="-8.094983">
        <ele>474.94</ele>
        <time>2013-06-08T11:00:08Z</time>
      </trkpt>
      <trkpt lat="41.887415" lon="-8.094630">
        <ele>477.64</ele>
        <time>2013-06-08T11:00:12Z</time>
      </trkpt>
      <trkpt lat="41.887412" lon="-8.094539">
        <ele>477.97</ele>
        <time>2013-06-08T11:00:13Z</time>
      </trkpt>
      <trkpt lat="41.887403" lon="-8.094450">
        <ele>477.82</ele>
        <time>2013-06-08T11:00:14Z</time>
      </trkpt>
      <trkpt lat="41.887245" lon="-8.092959">
        <ele>474.31</ele>
        <time>2013-06-08T11:00:28Z</time>
      </trkpt>
      <trkpt lat="41.887107" lon="-8.091536">
        <ele>464.26</ele>
        <time>2013-06-08T11:00:38Z</time>
      </trkpt>
      <trkpt lat="41.887117" lon="-8.091395">
        <ele>463.95</ele>
        <time>2013-06-08T11:00:39Z</time>
      </trkpt>
      <trkpt lat="41.887136" lon="-8.091258">
        <ele>463.70</ele>
        <time>2013-06-08T11:00:40Z</time>
      </trkpt>
      <trkpt lat="41.887161" lon="-8.091124">
        <ele>463.88</ele>
        <time>2013-06-08T11:00:41Z</time>
      </trkpt>
      <trkpt lat="41.887192" lon="-8.090996">
        <ele>463.96</ele>
        <time>2013-06-08T11:00:42Z</time>
      </trkpt>
      <trkpt lat="41.887230" lon="-8.090873">
        <ele>463.98</ele>
        <time>2013-06-08T11:00:43Z</time>
      </trkpt>
      <trkpt lat="41.887274" lon="-8.090758">
        <ele>463.82</ele>
        <time>2013-06-08T11:00:44Z</time>
      </trkpt>
      <trkpt lat="41.887320" lon="-8.090647">
        <ele>463.64</ele>
        <time>2013-06-08T11:00:45Z</time>
      </trkpt>
      <trkpt lat="41.887467" lon="-8.090356">
        <ele>462.85</ele>
        <time>2013-06-08T11:00:48Z</time>
      </trkpt>
      <trkpt lat="41.888068" lon="-8.089845">
        <ele>459.61</ele>
        <time>2013-06-08T11:00:58Z</time>
      </trkpt>
      <trkpt lat="41.888852" lon="-8.089664">
        <ele>459.91</ele>
        <time>2013-06-08T11:01:11Z</time>
      </trkpt>
      <trkpt lat="41.889312" lon="-8.089544">
        <ele>461.85</ele>
        <time>2013-06-08T11:01:19Z</time>
      </trkpt>
      <trkpt lat="41.890100" lon="-8.089315">
        <ele>465.69</ele>
        <time>2013-06-08T11:01:33Z</time>
      </trkpt>
      <trkpt lat="41.890790" lon="-8.089059">
        <ele>468.09</ele>
        <time>2013-06-08T11:01:46Z</time>
      </trkpt>
      <trkpt lat="41.891507" lon="-8.088717">
        <ele>470.92</ele>
        <time>2013-06-08T11:02:00Z</time>
      </trkpt>
      <trkpt lat="41.891601" lon="-8.088662">
        <ele>471.56</ele>
        <time>2013-06-08T11:02:02Z</time>
      </trkpt>
      <trkpt lat="41.892379" lon="-8.088231">
        <ele>471.14</ele>
        <time>2013-06-08T11:02:15Z</time>
      </trkpt>
      <trkpt lat="41.893495" lon="-8.087468">
        <ele>462.33</ele>
        <time>2013-06-08T11:02:29Z</time>
      </trkpt>
      <trkpt lat="41.893854" lon="-8.087150">
        <ele>459.63</ele>
        <time>2013-06-08T11:02:33Z</time>
      </trkpt>
      <trkpt lat="41.893932" lon="-8.087039">
        <ele>459.49</ele>
        <time>2013-06-08T11:02:34Z</time>
      </trkpt>
      <trkpt lat="41.894003" lon="-8.086918">
        <ele>459.51</ele>
        <time>2013-06-08T11:02:35Z</time>
      </trkpt>
      <trkpt lat="41.894062" lon="-8.086783">
        <ele>459.91</ele>
        <time>2013-06-08T11:02:36Z</time>
      </trkpt>
      <trkpt lat="41.894111" lon="-8.086635">
        <ele>460.52</ele>
        <time>2013-06-08T11:02:37Z</time>
      </trkpt>
      <trkpt lat="41.894145" lon="-8.086481">
        <ele>461.59</ele>
        <time>2013-06-08T11:02:38Z</time>
      </trkpt>
      <trkpt lat="41.894165" lon="-8.086323">
        <ele>462.85</ele>
        <time>2013-06-08T11:02:39Z</time>
      </trkpt>
      <trkpt lat="41.894171" lon="-8.086168">
        <ele>463.27</ele>
        <time>2013-06-08T11:02:40Z</time>
      </trkpt>
      <trkpt lat="41.894168" lon="-8.086016">
        <ele>462.86</ele>
        <time>2013-06-08T11:02:41Z</time>
      </trkpt>
      <trkpt lat="41.894189" lon="-8.085546">
        <ele>460.94</ele>
        <time>2013-06-08T11:02:44Z</time>
      </trkpt>
      <trkpt lat="41.894217" lon="-8.085394">
        <ele>459.83</ele>
        <time>2013-06-08T11:02:45Z</time>
      </trkpt>
      <trkpt lat="41.894253" lon="-8.085245">
        <ele>458.37</ele>
        <time>2013-06-08T11:02:46Z</time>
      </trkpt>
      <trkpt lat="41.894304" lon="-8.085100">
        <ele>456.54</ele>
        <time>2013-06-08T11:02:47Z</time>
      </trkpt>
      <trkpt lat="41.894365" lon="-8.084963">
        <ele>454.51</ele>
        <time>2013-06-08T11:02:48Z</time>
      </trkpt>
      <trkpt lat="41.894437" lon="-8.084836">
        <ele>452.41</ele>
        <time>2013-06-08T11:02:49Z</time>
      </trkpt>
      <trkpt lat="41.894523" lon="-8.084723">
        <ele>450.09</ele>
        <time>2013-06-08T11:02:50Z</time>
      </trkpt>
      <trkpt lat="41.894619" lon="-8.084633">
        <ele>447.67</ele>
        <time>2013-06-08T11:02:51Z</time>
      </trkpt>
      <trkpt lat="41.894722" lon="-8.084574">
        <ele>445.86</ele>
        <time>2013-06-08T11:02:52Z</time>
      </trkpt>
      <trkpt lat="41.894830" lon="-8.084551">
        <ele>444.30</ele>
        <time>2013-06-08T11:02:53Z</time>
      </trkpt>
      <trkpt lat="41.894941" lon="-8.084568">
        <ele>442.17</ele>
        <time>2013-06-08T11:02:54Z</time>
      </trkpt>
      <trkpt lat="41.895048" lon="-8.084624">
        <ele>440.33</ele>
        <time>2013-06-08T11:02:55Z</time>
      </trkpt>
      <trkpt lat="41.895151" lon="-8.084697">
        <ele>438.52</ele>
        <time>2013-06-08T11:02:56Z</time>
      </trkpt>
      <trkpt lat="41.896275" lon="-8.085204">
        <ele>427.28</ele>
        <time>2013-06-08T11:03:06Z</time>
      </trkpt>
      <trkpt lat="41.896394" lon="-8.085202">
        <ele>426.71</ele>
        <time>2013-06-08T11:03:07Z</time>
      </trkpt>
      <trkpt lat="41.896513" lon="-8.085184">
        <ele>426.42</ele>
        <time>2013-06-08T11:03:08Z</time>
      </trkpt>
      <trkpt lat="41.897251" lon="-8.084931">
        <ele>425.21</ele>
        <time>2013-06-08T11:03:15Z</time>
      </trkpt>
      <trkpt lat="41.897325" lon="-8.084852">
        <ele>425.23</ele>
        <time>2013-06-08T11:03:16Z</time>
      </trkpt>
      <trkpt lat="41.897379" lon="-8.084741">
        <ele>425.69</ele>
        <time>2013-06-08T11:03:17Z</time>
      </trkpt>
      <trkpt lat="41.897418" lon="-8.084615">
        <ele>426.17</ele>
        <time>2013-06-08T11:03:18Z</time>
      </trkpt>
      <trkpt lat="41.897456" lon="-8.084488">
        <ele>426.57</ele>
        <time>2013-06-08T11:03:19Z</time>
      </trkpt>
      <trkpt lat="41.897602" lon="-8.084119">
        <ele>426.62</ele>
        <time>2013-06-08T11:03:22Z</time>
      </trkpt>
      <trkpt lat="41.897669" lon="-8.084009">
        <ele>426.16</ele>
        <time>2013-06-08T11:03:23Z</time>
      </trkpt>
      <trkpt lat="41.897746" lon="-8.083907">
        <ele>425.36</ele>
        <time>2013-06-08T11:03:24Z</time>
      </trkpt>
      <trkpt lat="41.897839" lon="-8.083834">
        <ele>424.15</ele>
        <time>2013-06-08T11:03:25Z</time>
      </trkpt>
      <trkpt lat="41.897942" lon="-8.083807">
        <ele>422.65</ele>
        <time>2013-06-08T11:03:26Z</time>
      </trkpt>
      <trkpt lat="41.898050" lon="-8.083819">
        <ele>421.31</ele>
        <time>2013-06-08T11:03:27Z</time>
      </trkpt>
      <trkpt lat="41.898159" lon="-8.083844">
        <ele>420.01</ele>
        <time>2013-06-08T11:03:28Z</time>
      </trkpt>
      <trkpt lat="41.898266" lon="-8.083861">
        <ele>418.72</ele>
        <time>2013-06-08T11:03:29Z</time>
      </trkpt>
      <trkpt lat="41.898373" lon="-8.083853">
        <ele>417.51</ele>
        <time>2013-06-08T11:03:30Z</time>
      </trkpt>
      <trkpt lat="41.898479" lon="-8.083819">
        <ele>416.37</ele>
        <time>2013-06-08T11:03:31Z</time>
      </trkpt>
      <trkpt lat="41.898582" lon="-8.083764">
        <ele>415.04</ele>
        <time>2013-06-08T11:03:32Z</time>
      </trkpt>
      <trkpt lat="41.898678" lon="-8.083701">
        <ele>414.03</ele>
        <time>2013-06-08T11:03:33Z</time>
      </trkpt>
      <trkpt lat="41.898770" lon="-8.083630">
        <ele>413.28</ele>
        <time>2013-06-08T11:03:34Z</time>
      </trkpt>
      <trkpt lat="41.898847" lon="-8.083539">
        <ele>413.05</ele>
        <time>2013-06-08T11:03:35Z</time>
      </trkpt>
      <trkpt lat="41.898905" lon="-8.083429">
        <ele>413.09</ele>
        <time>2013-06-08T11:03:36Z</time>
      </trkpt>
      <trkpt lat="41.898947" lon="-8.083311">
        <ele>413.14</ele>
        <time>2013-06-08T11:03:37Z</time>
      </trkpt>
      <trkpt lat="41.898978" lon="-8.083197">
        <ele>413.23</ele>
        <time>2013-06-08T11:03:38Z</time>
      </trkpt>
      <trkpt lat="41.899047" lon="-8.082996">
        <ele>413.41</ele>
        <time>2013-06-08T11:03:40Z</time>
      </trkpt>
      <trkpt lat="41.899092" lon="-8.082916">
        <ele>413.44</ele>
        <time>2013-06-08T11:03:41Z</time>
      </trkpt>
      <trkpt lat="41.899153" lon="-8.082869">
        <ele>413.44</ele>
        <time>2013-06-08T11:03:42Z</time>
      </trkpt>
      <trkpt lat="41.899225" lon="-8.082869">
        <ele>413.14</ele>
        <time>2013-06-08T11:03:43Z</time>
      </trkpt>
      <trkpt lat="41.899301" lon="-8.082903">
        <ele>412.50</ele>
        <time>2013-06-08T11:03:44Z</time>
      </trkpt>
      <trkpt lat="41.899374" lon="-8.082943">
        <ele>411.98</ele>
        <time>2013-06-08T11:03:45Z</time>
      </trkpt>
      <trkpt lat="41.899817" lon="-8.083196">
        <ele>409.88</ele>
        <time>2013-06-08T11:03:52Z</time>
      </trkpt>
      <trkpt lat="41.899876" lon="-8.083217">
        <ele>409.51</ele>
        <time>2013-06-08T11:03:53Z</time>
      </trkpt>
      <trkpt lat="41.900711" lon="-8.083642">
        <ele>405.92</ele>
        <time>2013-06-08T11:04:07Z</time>
      </trkpt>
      <trkpt lat="41.901341" lon="-8.083982">
        <ele>404.38</ele>
        <time>2013-06-08T11:04:19Z</time>
      </trkpt>
      <trkpt lat="41.901564" lon="-8.084082">
        <ele>404.01</ele>
        <time>2013-06-08T11:04:24Z</time>
      </trkpt>
      <trkpt lat="41.901650" lon="-8.084091">
        <ele>404.11</ele>
        <time>2013-06-08T11:04:26Z</time>
      </trkpt>
      <trkpt lat="41.901696" lon="-8.084080">
        <ele>404.38</ele>
        <time>2013-06-08T11:04:27Z</time>
      </trkpt>
      <trkpt lat="41.901742" lon="-8.084062">
        <ele>404.68</ele>
        <time>2013-06-08T11:04:28Z</time>
      </trkpt>
      <trkpt lat="41.901784" lon="-8.084042">
        <ele>404.87</ele>
        <time>2013-06-08T11:04:29Z</time>
      </trkpt>
      <trkpt lat="41.901826" lon="-8.084020">
        <ele>405.20</ele>
        <time>2013-06-08T11:04:30Z</time>
      </trkpt>
      <trkpt lat="41.901867" lon="-8.083998">
        <ele>405.42</ele>
        <time>2013-06-08T11:04:31Z</time>
      </trkpt>
      <trkpt lat="41.901906" lon="-8.083973">
        <ele>405.77</ele>
        <time>2013-06-08T11:04:32Z</time>
      </trkpt>
      <trkpt lat="41.901986" lon="-8.083901">
        <ele>406.52</ele>
        <time>2013-06-08T11:04:34Z</time>
      </trkpt>
      <trkpt lat="41.902029" lon="-8.083852">
        <ele>407.05</ele>
        <time>2013-06-08T11:04:35Z</time>
      </trkpt>
      <trkpt lat="41.902073" lon="-8.083815">
        <ele>407.40</ele>
        <time>2013-06-08T11:04:36Z</time>
      </trkpt>
      <trkpt lat="41.902153" lon="-8.083754">
        <ele>407.81</ele>
        <time>2013-06-08T11:04:38Z</time>
      </trkpt>
      <trkpt lat="41.902179" lon="-8.083722">
        <ele>408.01</ele>
        <time>2013-06-08T11:04:39Z</time>
      </trkpt>
      <trkpt lat="41.902203" lon="-8.083692">
        <ele>408.30</ele>
        <time>2013-06-08T11:04:40Z</time>
      </trkpt>
      <trkpt lat="41.902235" lon="-8.083671">
        <ele>408.46</ele>
        <time>2013-06-08T11:04:41Z</time>
      </trkpt>
      <trkpt lat="41.902276" lon="-8.083644">
        <ele>408.56</ele>
        <time>2013-06-08T11:04:42Z</time>
      </trkpt>
      <trkpt lat="41.902324" lon="-8.083611">
        <ele>408.84</ele>
        <time>2013-06-08T11:04:43Z</time>
      </trkpt>
      <trkpt lat="41.902379" lon="-8.083585">
        <ele>409.01</ele>
        <time>2013-06-08T11:04:44Z</time>
      </trkpt>
      <trkpt lat="41.902432" lon="-8.083569">
        <ele>409.06</ele>
        <time>2013-06-08T11:04:45Z</time>
      </trkpt>
      <trkpt lat="41.902491" lon="-8.083557">
        <ele>409.20</ele>
        <time>2013-06-08T11:04:46Z</time>
      </trkpt>
      <trkpt lat="41.902556" lon="-8.083553">
        <ele>409.17</ele>
        <time>2013-06-08T11:04:47Z</time>
      </trkpt>
      <trkpt lat="41.902977" lon="-8.083495">
        <ele>409.23</ele>
        <time>2013-06-08T11:04:55Z</time>
      </trkpt>
      <trkpt lat="41.903489" lon="-8.083368">
        <ele>409.32</ele>
        <time>2013-06-08T11:05:06Z</time>
      </trkpt>
      <trkpt lat="41.903570" lon="-8.083333">
        <ele>409.51</ele>
        <time>2013-06-08T11:05:08Z</time>
      </trkpt>
      <trkpt lat="41.903609" lon="-8.083305">
        <ele>409.81</ele>
        <time>2013-06-08T11:05:09Z</time>
      </trkpt>
      <trkpt lat="41.904097" lon="-8.082945">
        <ele>413.83</ele>
        <time>2013-06-08T11:05:22Z</time>
      </trkpt>
      <trkpt lat="41.904139" lon="-8.082922">
        <ele>414.08</ele>
        <time>2013-06-08T11:05:23Z</time>
      </trkpt>
      <trkpt lat="41.904186" lon="-8.082904">
        <ele>414.11</ele>
        <time>2013-06-08T11:05:24Z</time>
      </trkpt>
      <trkpt lat="41.904234" lon="-8.082882">
        <ele>414.17</ele>
        <time>2013-06-08T11:05:25Z</time>
      </trkpt>
      <trkpt lat="41.904479" lon="-8.082782">
        <ele>414.08</ele>
        <time>2013-06-08T11:05:30Z</time>
      </trkpt>
      <trkpt lat="41.905077" lon="-8.082341">
        <ele>410.96</ele>
        <time>2013-06-08T11:05:41Z</time>
      </trkpt>
      <trkpt lat="41.905498" lon="-8.081949">
        <ele>409.45</ele>
        <time>2013-06-08T11:05:48Z</time>
      </trkpt>
      <trkpt lat="41.905559" lon="-8.081909">
        <ele>408.90</ele>
        <time>2013-06-08T11:05:49Z</time>
      </trkpt>
      <trkpt lat="41.905629" lon="-8.081888">
        <ele>408.32</ele>
        <time>2013-06-08T11:05:50Z</time>
      </trkpt>
      <trkpt lat="41.905705" lon="-8.081887">
        <ele>407.71</ele>
        <time>2013-06-08T11:05:51Z</time>
      </trkpt>
      <trkpt lat="41.905783" lon="-8.081905">
        <ele>406.93</ele>
        <time>2013-06-08T11:05:52Z</time>
      </trkpt>
      <trkpt lat="41.905859" lon="-8.081935">
        <ele>406.38</ele>
        <time>2013-06-08T11:05:53Z</time>
      </trkpt>
      <trkpt lat="41.905935" lon="-8.081973">
        <ele>405.63</ele>
        <time>2013-06-08T11:05:54Z</time>
      </trkpt>
      <trkpt lat="41.906011" lon="-8.082018">
        <ele>405.03</ele>
        <time>2013-06-08T11:05:55Z</time>
      </trkpt>
      <trkpt lat="41.906459" lon="-8.082272">
        <ele>400.87</ele>
        <time>2013-06-08T11:06:01Z</time>
      </trkpt>
      <trkpt lat="41.906539" lon="-8.082288">
        <ele>400.55</ele>
        <time>2013-06-08T11:06:02Z</time>
      </trkpt>
      <trkpt lat="41.906624" lon="-8.082293">
        <ele>400.22</ele>
        <time>2013-06-08T11:06:03Z</time>
      </trkpt>
      <trkpt lat="41.906711" lon="-8.082281">
        <ele>400.17</ele>
        <time>2013-06-08T11:06:04Z</time>
      </trkpt>
      <trkpt lat="41.906797" lon="-8.082253">
        <ele>400.06</ele>
        <time>2013-06-08T11:06:05Z</time>
      </trkpt>
      <trkpt lat="41.906880" lon="-8.082215">
        <ele>400.02</ele>
        <time>2013-06-08T11:06:06Z</time>
      </trkpt>
      <trkpt lat="41.906963" lon="-8.082171">
        <ele>400.01</ele>
        <time>2013-06-08T11:06:07Z</time>
      </trkpt>
      <trkpt lat="41.908231" lon="-8.081457">
        <ele>399.22</ele>
        <time>2013-06-08T11:06:21Z</time>
      </trkpt>
      <trkpt lat="41.909321" lon="-8.080819">
        <ele>395.07</ele>
        <time>2013-06-08T11:06:31Z</time>
      </trkpt>
      <trkpt lat="41.909543" lon="-8.080619">
        <ele>392.85</ele>
        <time>2013-06-08T11:06:33Z</time>
      </trkpt>
      <trkpt lat="41.909935" lon="-8.080089">
        <ele>386.13</ele>
        <time>2013-06-08T11:06:37Z</time>
      </trkpt>
      <trkpt lat="41.910009" lon="-8.079934">
        <ele>384.27</ele>
        <time>2013-06-08T11:06:38Z</time>
      </trkpt>
      <trkpt lat="41.910072" lon="-8.079770">
        <ele>382.34</ele>
        <time>2013-06-08T11:06:39Z</time>
      </trkpt>
      <trkpt lat="41.910127" lon="-8.079600">
        <ele>380.54</ele>
        <time>2013-06-08T11:06:40Z</time>
      </trkpt>
      <trkpt lat="41.910173" lon="-8.079424">
        <ele>378.46</ele>
        <time>2013-06-08T11:06:41Z</time>
      </trkpt>
      <trkpt lat="41.910209" lon="-8.079244">
        <ele>376.10</ele>
        <time>2013-06-08T11:06:42Z</time>
      </trkpt>
      <trkpt lat="41.910238" lon="-8.079062">
        <ele>373.82</ele>
        <time>2013-06-08T11:06:43Z</time>
      </trkpt>
      <trkpt lat="41.910511" lon="-8.076348">
        <ele>343.31</ele>
        <time>2013-06-08T11:06:58Z</time>
      </trkpt>
      <trkpt lat="41.910710" lon="-8.075510">
        <ele>346.26</ele>
        <time>2013-06-08T11:07:03Z</time>
      </trkpt>
      <trkpt lat="41.910775" lon="-8.075354">
        <ele>346.77</ele>
        <time>2013-06-08T11:07:04Z</time>
      </trkpt>
      <trkpt lat="41.910847" lon="-8.075206">
        <ele>347.15</ele>
        <time>2013-06-08T11:07:05Z</time>
      </trkpt>
      <trkpt lat="41.910929" lon="-8.075067">
        <ele>347.32</ele>
        <time>2013-06-08T11:07:06Z</time>
      </trkpt>
      <trkpt lat="41.911019" lon="-8.074936">
        <ele>347.64</ele>
        <time>2013-06-08T11:07:07Z</time>
      </trkpt>
      <trkpt lat="41.911111" lon="-8.074815">
        <ele>348.05</ele>
        <time>2013-06-08T11:07:08Z</time>
      </trkpt>
      <trkpt lat="41.911971" lon="-8.074057">
        <ele>346.04</ele>
        <time>2013-06-08T11:07:17Z</time>
      </trkpt>
      <trkpt lat="41.912793" lon="-8.073481">
        <ele>340.90</ele>
        <time>2013-06-08T11:07:27Z</time>
      </trkpt>
      <trkpt lat="41.912883" lon="-8.073448">
        <ele>340.12</ele>
        <time>2013-06-08T11:07:28Z</time>
      </trkpt>
      <trkpt lat="41.913723" lon="-8.073437">
        <ele>326.93</ele>
        <time>2013-06-08T11:07:38Z</time>
      </trkpt>
      <trkpt lat="41.913933" lon="-8.073519">
        <ele>327.31</ele>
        <time>2013-06-08T11:07:41Z</time>
      </trkpt>
      <trkpt lat="41.913998" lon="-8.073559">
        <ele>327.73</ele>
        <time>2013-06-08T11:07:42Z</time>
      </trkpt>
      <trkpt lat="41.914687" lon="-8.074229">
        <ele>333.96</ele>
        <time>2013-06-08T11:07:55Z</time>
      </trkpt>
      <trkpt lat="41.915134" lon="-8.074746">
        <ele>334.75</ele>
        <time>2013-06-08T11:08:08Z</time>
      </trkpt>
      <trkpt lat="41.915426" lon="-8.074650">
        <ele>339.93</ele>
        <time>2013-06-08T11:08:17Z</time>
      </trkpt>
      <trkpt lat="41.915456" lon="-8.074310">
        <ele>345.96</ele>
        <time>2013-06-08T11:08:26Z</time>
      </trkpt>
      <trkpt lat="41.915266" lon="-8.073865">
        <ele>349.03</ele>
        <time>2013-06-08T11:08:38Z</time>
      </trkpt>
      <trkpt lat="41.915264" lon="-8.073311">
        <ele>351.29</ele>
        <time>2013-06-08T11:08:51Z</time>
      </trkpt>
      <trkpt lat="41.915435" lon="-8.072892">
        <ele>356.47</ele>
        <time>2013-06-08T11:09:02Z</time>
      </trkpt>
      <trkpt lat="41.915673" lon="-8.072427">
        <ele>360.93</ele>
        <time>2013-06-08T11:09:16Z</time>
      </trkpt>
      <trkpt lat="41.915758" lon="-8.071941">
        <ele>361.72</ele>
        <time>2013-06-08T11:09:29Z</time>
      </trkpt>
      <trkpt lat="41.915666" lon="-8.071529">
        <ele>360.01</ele>
        <time>2013-06-08T11:09:41Z</time>
      </trkpt>
      <trkpt lat="41.915560" lon="-8.070966">
        <ele>360.82</ele>
        <time>2013-06-08T11:09:55Z</time>
      </trkpt>
      <trkpt lat="41.915603" lon="-8.070463">
        <ele>367.51</ele>
        <time>2013-06-08T11:10:08Z</time>
      </trkpt>
      <trkpt lat="41.915810" lon="-8.069919">
        <ele>376.65</ele>
        <time>2013-06-08T11:10:23Z</time>
      </trkpt>
      <trkpt lat="41.916087" lon="-8.069562">
        <ele>386.08</ele>
        <time>2013-06-08T11:10:37Z</time>
      </trkpt>
      <trkpt lat="41.916503" lon="-8.069201">
        <ele>393.31</ele>
        <time>2013-06-08T11:10:52Z</time>
      </trkpt>
      <trkpt lat="41.916805" lon="-8.068917">
        <ele>397.41</ele>
        <time>2013-06-08T11:11:04Z</time>
      </trkpt>
      <trkpt lat="41.917115" lon="-8.068563">
        <ele>400.85</ele>
        <time>2013-06-08T11:11:18Z</time>
      </trkpt>
      <trkpt lat="41.917344" lon="-8.068156">
        <ele>402.12</ele>
        <time>2013-06-08T11:11:30Z</time>
      </trkpt>
      <trkpt lat="41.917530" lon="-8.067780">
        <ele>403.98</ele>
        <time>2013-06-08T11:11:41Z</time>
      </trkpt>
      <trkpt lat="41.917550" lon="-8.067750">
        <ele>404.01</ele>
        <time>2013-06-08T11:11:42Z</time>
      </trkpt>
      <trkpt lat="41.917573" lon="-8.067722">
        <ele>404.31</ele>
        <time>2013-06-08T11:11:43Z</time>
      </trkpt>
      <trkpt lat="41.917591" lon="-8.067695">
        <ele>404.55</ele>
        <time>2013-06-08T11:11:44Z</time>
      </trkpt>
      <trkpt lat="41.917681" lon="-8.067510">
        <ele>404.82</ele>
        <time>2013-06-08T11:11:51Z</time>
      </trkpt>
      <trkpt lat="41.917697" lon="-8.067482">
        <ele>404.96</ele>
        <time>2013-06-08T11:11:52Z</time>
      </trkpt>
      <trkpt lat="41.917719" lon="-8.067452">
        <ele>405.12</ele>
        <time>2013-06-08T11:11:53Z</time>
      </trkpt>
      <trkpt lat="41.918000" lon="-8.067156">
        <ele>408.02</ele>
        <time>2013-06-08T11:12:04Z</time>
      </trkpt>
      <trkpt lat="41.918285" lon="-8.066995">
        <ele>410.74</ele>
        <time>2013-06-08T11:12:16Z</time>
      </trkpt>
      <trkpt lat="41.918695" lon="-8.066915">
        <ele>416.33</ele>
        <time>2013-06-08T11:12:30Z</time>
      </trkpt>
      <trkpt lat="41.918992" lon="-8.066929">
        <ele>419.81</ele>
        <time>2013-06-08T11:12:41Z</time>
      </trkpt>
      <trkpt lat="41.919337" lon="-8.066709">
        <ele>421.54</ele>
        <time>2013-06-08T11:12:53Z</time>
      </trkpt>
      <trkpt lat="41.919685" lon="-8.066347">
        <ele>422.41</ele>
        <time>2013-06-08T11:13:06Z</time>
      </trkpt>
      <trkpt lat="41.919987" lon="-8.066151">
        <ele>424.31</ele>
        <time>2013-06-08T11:13:16Z</time>
      </trkpt>
      <trkpt lat="41.920409" lon="-8.065874">
        <ele>427.93</ele>
        <time>2013-06-08T11:13:30Z</time>
      </trkpt>
      <trkpt lat="41.920633" lon="-8.065615">
        <ele>428.72</ele>
        <time>2013-06-08T11:13:42Z</time>
      </trkpt>
      <trkpt lat="41.920912" lon="-8.065274">
        <ele>431.15</ele>
        <time>2013-06-08T11:13:57Z</time>
      </trkpt>
      <trkpt lat="41.920950" lon="-8.065242">
        <ele>431.58</ele>
        <time>2013-06-08T11:13:59Z</time>
      </trkpt>
      <trkpt lat="41.921237" lon="-8.065381">
        <ele>432.27</ele>
        <time>2013-06-08T11:14:11Z</time>
      </trkpt>
      <trkpt lat="41.921694" lon="-8.065630">
        <ele>430.14</ele>
        <time>2013-06-08T11:14:26Z</time>
      </trkpt>
      <trkpt lat="41.921925" lon="-8.065710">
        <ele>429.14</ele>
        <time>2013-06-08T11:14:32Z</time>
      </trkpt>
      <trkpt lat="41.921974" lon="-8.065716">
        <ele>429.02</ele>
        <time>2013-06-08T11:14:33Z</time>
      </trkpt>
      <trkpt lat="41.922026" lon="-8.065722">
        <ele>428.94</ele>
        <time>2013-06-08T11:14:34Z</time>
      </trkpt>
      <trkpt lat="41.922821" lon="-8.065954">
        <ele>424.20</ele>
        <time>2013-06-08T11:14:45Z</time>
      </trkpt>
      <trkpt lat="41.923190" lon="-8.066098">
        <ele>421.41</ele>
        <time>2013-06-08T11:14:49Z</time>
      </trkpt>
      <trkpt lat="41.923820" lon="-8.066160">
        <ele>418.19</ele>
        <time>2013-06-08T11:14:58Z</time>
      </trkpt>
      <trkpt lat="41.924649" lon="-8.066062">
        <ele>417.66</ele>
        <time>2013-06-08T11:15:10Z</time>
      </trkpt>
      <trkpt lat="41.924715" lon="-8.066043">
        <ele>417.93</ele>
        <time>2013-06-08T11:15:11Z</time>
      </trkpt>
      <trkpt lat="41.924772" lon="-8.066017">
        <ele>418.01</ele>
        <time>2013-06-08T11:15:12Z</time>
      </trkpt>
      <trkpt lat="41.924818" lon="-8.065981">
        <ele>418.14</ele>
        <time>2013-06-08T11:15:13Z</time>
      </trkpt>
      <trkpt lat="41.924860" lon="-8.065942">
        <ele>418.23</ele>
        <time>2013-06-08T11:15:14Z</time>
      </trkpt>
      <trkpt lat="41.924897" lon="-8.065898">
        <ele>418.30</ele>
        <time>2013-06-08T11:15:15Z</time>
      </trkpt>
      <trkpt lat="41.924931" lon="-8.065852">
        <ele>418.23</ele>
        <time>2013-06-08T11:15:16Z</time>
      </trkpt>
      <trkpt lat="41.924965" lon="-8.065806">
        <ele>418.29</ele>
        <time>2013-06-08T11:15:17Z</time>
      </trkpt>
      <trkpt lat="41.925202" lon="-8.065447">
        <ele>416.92</ele>
        <time>2013-06-08T11:15:24Z</time>
      </trkpt>
      <trkpt lat="41.925250" lon="-8.065396">
        <ele>416.31</ele>
        <time>2013-06-08T11:15:25Z</time>
      </trkpt>
      <trkpt lat="41.925302" lon="-8.065348">
        <ele>415.49</ele>
        <time>2013-06-08T11:15:26Z</time>
      </trkpt>
      <trkpt lat="41.925362" lon="-8.065305">
        <ele>414.53</ele>
        <time>2013-06-08T11:15:27Z</time>
      </trkpt>
      <trkpt lat="41.925426" lon="-8.065270">
        <ele>413.78</ele>
        <time>2013-06-08T11:15:28Z</time>
      </trkpt>
      <trkpt lat="41.925495" lon="-8.065244">
        <ele>413.37</ele>
        <time>2013-06-08T11:15:29Z</time>
      </trkpt>
      <trkpt lat="41.925567" lon="-8.065229">
        <ele>413.10</ele>
        <time>2013-06-08T11:15:30Z</time>
      </trkpt>
      <trkpt lat="41.925641" lon="-8.065224">
        <ele>412.99</ele>
        <time>2013-06-08T11:15:31Z</time>
      </trkpt>
      <trkpt lat="41.925716" lon="-8.065229">
        <ele>412.95</ele>
        <time>2013-06-08T11:15:32Z</time>
      </trkpt>
      <trkpt lat="41.925790" lon="-8.065247">
        <ele>413.30</ele>
        <time>2013-06-08T11:15:33Z</time>
      </trkpt>
      <trkpt lat="41.925863" lon="-8.065280">
        <ele>413.72</ele>
        <time>2013-06-08T11:15:34Z</time>
      </trkpt>
      <trkpt lat="41.925937" lon="-8.065318">
        <ele>414.32</ele>
        <time>2013-06-08T11:15:35Z</time>
      </trkpt>
      <trkpt lat="41.926174" lon="-8.065406">
        <ele>415.81</ele>
        <time>2013-06-08T11:15:38Z</time>
      </trkpt>
      <trkpt lat="41.926261" lon="-8.065417">
        <ele>415.89</ele>
        <time>2013-06-08T11:15:39Z</time>
      </trkpt>
      <trkpt lat="41.926349" lon="-8.065415">
        <ele>414.42</ele>
        <time>2013-06-08T11:15:40Z</time>
      </trkpt>
      <trkpt lat="41.926438" lon="-8.065402">
        <ele>412.86</ele>
        <time>2013-06-08T11:15:41Z</time>
      </trkpt>
      <trkpt lat="41.926525" lon="-8.065382">
        <ele>411.26</ele>
        <time>2013-06-08T11:15:42Z</time>
      </trkpt>
      <trkpt lat="41.926610" lon="-8.065348">
        <ele>409.58</ele>
        <time>2013-06-08T11:15:43Z</time>
      </trkpt>
      <trkpt lat="41.926689" lon="-8.065294">
        <ele>407.87</ele>
        <time>2013-06-08T11:15:44Z</time>
      </trkpt>
      <trkpt lat="41.927506" lon="-8.064645">
        <ele>396.14</ele>
        <time>2013-06-08T11:15:54Z</time>
      </trkpt>
      <trkpt lat="41.927583" lon="-8.064544">
        <ele>395.12</ele>
        <time>2013-06-08T11:15:55Z</time>
      </trkpt>
      <trkpt lat="41.927868" lon="-8.064166">
        <ele>390.34</ele>
        <time>2013-06-08T11:15:59Z</time>
      </trkpt>
      <trkpt lat="41.927946" lon="-8.064092">
        <ele>389.40</ele>
        <time>2013-06-08T11:16:00Z</time>
      </trkpt>
      <trkpt lat="41.928033" lon="-8.064028">
        <ele>388.71</ele>
        <time>2013-06-08T11:16:01Z</time>
      </trkpt>
      <trkpt lat="41.928135" lon="-8.063974">
        <ele>388.17</ele>
        <time>2013-06-08T11:16:02Z</time>
      </trkpt>
      <trkpt lat="41.928249" lon="-8.063928">
        <ele>387.60</ele>
        <time>2013-06-08T11:16:03Z</time>
      </trkpt>
      <trkpt lat="41.928729" lon="-8.063784">
        <ele>385.38</ele>
        <time>2013-06-08T11:16:07Z</time>
      </trkpt>
      <trkpt lat="41.928953" lon="-8.063768">
        <ele>382.46</ele>
        <time>2013-06-08T11:16:09Z</time>
      </trkpt>
      <trkpt lat="41.929048" lon="-8.063776">
        <ele>381.29</ele>
        <time>2013-06-08T11:16:10Z</time>
      </trkpt>
      <trkpt lat="41.929128" lon="-8.063808">
        <ele>380.38</ele>
        <time>2013-06-08T11:16:11Z</time>
      </trkpt>
      <trkpt lat="41.929198" lon="-8.063858">
        <ele>379.73</ele>
        <time>2013-06-08T11:16:12Z</time>
      </trkpt>
      <trkpt lat="41.929254" lon="-8.063921">
        <ele>379.28</ele>
        <time>2013-06-08T11:16:13Z</time>
      </trkpt>
      <trkpt lat="41.929306" lon="-8.063984">
        <ele>378.83</ele>
        <time>2013-06-08T11:16:14Z</time>
      </trkpt>
      <trkpt lat="41.929439" lon="-8.064145">
        <ele>377.63</ele>
        <time>2013-06-08T11:16:17Z</time>
      </trkpt>
      <trkpt lat="41.929577" lon="-8.064267">
        <ele>376.01</ele>
        <time>2013-06-08T11:16:20Z</time>
      </trkpt>
      <trkpt lat="41.929623" lon="-8.064292">
        <ele>375.23</ele>
        <time>2013-06-08T11:16:21Z</time>
      </trkpt>
      <trkpt lat="41.929665" lon="-8.064312">
        <ele>374.45</ele>
        <time>2013-06-08T11:16:22Z</time>
      </trkpt>
      <trkpt lat="41.929711" lon="-8.064325">
        <ele>373.61</ele>
        <time>2013-06-08T11:16:23Z</time>
      </trkpt>
      <trkpt lat="41.929761" lon="-8.064333">
        <ele>372.63</ele>
        <time>2013-06-08T11:16:24Z</time>
      </trkpt>
      <trkpt lat="41.929816" lon="-8.064336">
        <ele>371.51</ele>
        <time>2013-06-08T11:16:25Z</time>
      </trkpt>
      <trkpt lat="41.930001" lon="-8.064307">
        <ele>368.09</ele>
        <time>2013-06-08T11:16:28Z</time>
      </trkpt>
      <trkpt lat="41.930054" lon="-8.064275">
        <ele>367.15</ele>
        <time>2013-06-08T11:16:29Z</time>
      </trkpt>
      <trkpt lat="41.930095" lon="-8.064235">
        <ele>366.55</ele>
        <time>2013-06-08T11:16:30Z</time>
      </trkpt>
      <trkpt lat="41.930122" lon="-8.064184">
        <ele>366.45</ele>
        <time>2013-06-08T11:16:31Z</time>
      </trkpt>
      <trkpt lat="41.930135" lon="-8.064130">
        <ele>366.41</ele>
        <time>2013-06-08T11:16:32Z</time>
      </trkpt>
      <trkpt lat="41.930144" lon="-8.064082">
        <ele>366.61</ele>
        <time>2013-06-08T11:16:33Z</time>
      </trkpt>
      <trkpt lat="41.930151" lon="-8.064042">
        <ele>366.76</ele>
        <time>2013-06-08T11:16:34Z</time>
      </trkpt>
      <trkpt lat="41.930161" lon="-8.064009">
        <ele>366.88</ele>
        <time>2013-06-08T11:16:35Z</time>
      </trkpt>
      <trkpt lat="41.930171" lon="-8.063980">
        <ele>366.93</ele>
        <time>2013-06-08T11:16:36Z</time>
      </trkpt>
      <trkpt lat="41.930180" lon="-8.063952">
        <ele>366.92</ele>
        <time>2013-06-08T11:16:37Z</time>
      </trkpt>
      <trkpt lat="41.930184" lon="-8.063922">
        <ele>367.12</ele>
        <time>2013-06-08T11:16:38Z</time>
      </trkpt>
      <trkpt lat="41.930186" lon="-8.063894">
        <ele>367.23</ele>
        <time>2013-06-08T11:16:39Z</time>
      </trkpt>
      <trkpt lat="41.930189" lon="-8.063870">
        <ele>367.44</ele>
        <time>2013-06-08T11:16:40Z</time>
      </trkpt>
      <trkpt lat="41.930199" lon="-8.063853">
        <ele>367.43</ele>
        <time>2013-06-08T11:16:41Z</time>
      </trkpt>
      <trkpt lat="41.930210" lon="-8.063835">
        <ele>367.40</ele>
        <time>2013-06-08T11:16:42Z</time>
      </trkpt>
      <trkpt lat="41.930218" lon="-8.063815">
        <ele>367.42</ele>
        <time>2013-06-08T11:16:43Z</time>
      </trkpt>
      <trkpt lat="41.930226" lon="-8.063792">
        <ele>367.51</ele>
        <time>2013-06-08T11:16:44Z</time>
      </trkpt>
      <trkpt lat="41.930233" lon="-8.063771">
        <ele>367.67</ele>
        <time>2013-06-08T11:16:45Z</time>
      </trkpt>
      <trkpt lat="41.930241" lon="-8.063752">
        <ele>367.73</ele>
        <time>2013-06-08T11:16:46Z</time>
      </trkpt>
      <trkpt lat="41.930248" lon="-8.063734">
        <ele>367.82</ele>
        <time>2013-06-08T11:16:47Z</time>
      </trkpt>
      <trkpt lat="41.930256" lon="-8.063718">
        <ele>367.98</ele>
        <time>2013-06-08T11:16:48Z</time>
      </trkpt>
      <trkpt lat="41.930263" lon="-8.063702">
        <ele>368.02</ele>
        <time>2013-06-08T11:16:49Z</time>
      </trkpt>
      <trkpt lat="41.930361" lon="-8.063417">
        <ele>370.79</ele>
        <time>2013-06-08T11:17:02Z</time>
      </trkpt>
      <trkpt lat="41.930549" lon="-8.063043">
        <ele>372.16</ele>
        <time>2013-06-08T11:17:14Z</time>
      </trkpt>
      <trkpt lat="41.930779" lon="-8.062581">
        <ele>372.15</ele>
        <time>2013-06-08T11:17:25Z</time>
      </trkpt>
      <trkpt lat="41.931016" lon="-8.061961">
        <ele>376.16</ele>
        <time>2013-06-08T11:17:40Z</time>
      </trkpt>
      <trkpt lat="41.931111" lon="-8.061503">
        <ele>382.21</ele>
        <time>2013-06-08T11:17:55Z</time>
      </trkpt>
      <trkpt lat="41.931182" lon="-8.060959">
        <ele>388.71</ele>
        <time>2013-06-08T11:18:08Z</time>
      </trkpt>
      <trkpt lat="41.931272" lon="-8.060359">
        <ele>393.67</ele>
        <time>2013-06-08T11:18:23Z</time>
      </trkpt>
      <trkpt lat="41.931402" lon="-8.059798">
        <ele>391.27</ele>
        <time>2013-06-08T11:18:37Z</time>
      </trkpt>
      <trkpt lat="41.931681" lon="-8.059187">
        <ele>392.26</ele>
        <time>2013-06-08T11:18:54Z</time>
      </trkpt>
      <trkpt lat="41.931983" lon="-8.058741">
        <ele>395.38</ele>
        <time>2013-06-08T11:19:08Z</time>
      </trkpt>
      <trkpt lat="41.932262" lon="-8.058461">
        <ele>397.52</ele>
        <time>2013-06-08T11:19:20Z</time>
      </trkpt>
      <trkpt lat="41.932608" lon="-8.058197">
        <ele>400.77</ele>
        <time>2013-06-08T11:19:33Z</time>
      </trkpt>
      <trkpt lat="41.932840" lon="-8.058116">
        <ele>401.66</ele>
        <time>2013-06-08T11:19:46Z</time>
      </trkpt>
      <trkpt lat="41.932882" lon="-8.058101">
        <ele>401.81</ele>
        <time>2013-06-08T11:19:49Z</time>
      </trkpt>
      <trkpt lat="41.932895" lon="-8.058108">
        <ele>401.63</ele>
        <time>2013-06-08T11:19:50Z</time>
      </trkpt>
      <trkpt lat="41.932902" lon="-8.058118">
        <ele>401.40</ele>
        <time>2013-06-08T11:19:51Z</time>
      </trkpt>
      <trkpt lat="41.932910" lon="-8.058126">
        <ele>401.21</ele>
        <time>2013-06-08T11:19:52Z</time>
      </trkpt>
      <trkpt lat="41.932924" lon="-8.058130">
        <ele>401.14</ele>
        <time>2013-06-08T11:19:53Z</time>
      </trkpt>
      <trkpt lat="41.932937" lon="-8.058123">
        <ele>401.20</ele>
        <time>2013-06-08T11:19:54Z</time>
      </trkpt>
      <trkpt lat="41.932950" lon="-8.058106">
        <ele>401.36</ele>
        <time>2013-06-08T11:19:55Z</time>
      </trkpt>
      <trkpt lat="41.932965" lon="-8.058088">
        <ele>401.48</ele>
        <time>2013-06-08T11:19:56Z</time>
      </trkpt>
      <trkpt lat="41.932987" lon="-8.058073">
        <ele>401.54</ele>
        <time>2013-06-08T11:19:57Z</time>
      </trkpt>
      <trkpt lat="41.933012" lon="-8.058065">
        <ele>401.45</ele>
        <time>2013-06-08T11:19:58Z</time>
      </trkpt>
      <trkpt lat="41.933037" lon="-8.058061">
        <ele>401.26</ele>
        <time>2013-06-08T11:19:59Z</time>
      </trkpt>
      <trkpt lat="41.933404" lon="-8.057911">
        <ele>401.15</ele>
        <time>2013-06-08T11:20:12Z</time>
      </trkpt>
      <trkpt lat="41.933818" lon="-8.057544">
        <ele>408.86</ele>
        <time>2013-06-08T11:20:26Z</time>
      </trkpt>
      <trkpt lat="41.934162" lon="-8.057038">
        <ele>417.22</ele>
        <time>2013-06-08T11:20:41Z</time>
      </trkpt>
      <trkpt lat="41.934504" lon="-8.056537">
        <ele>421.41</ele>
        <time>2013-06-08T11:20:56Z</time>
      </trkpt>
      <trkpt lat="41.934948" lon="-8.056069">
        <ele>422.39</ele>
        <time>2013-06-08T11:21:12Z</time>
      </trkpt>
      <trkpt lat="41.935337" lon="-8.055502">
        <ele>426.95</ele>
        <time>2013-06-08T11:21:28Z</time>
      </trkpt>
      <trkpt lat="41.935536" lon="-8.054970">
        <ele>436.43</ele>
        <time>2013-06-08T11:21:40Z</time>
      </trkpt>
      <trkpt lat="41.935805" lon="-8.054520">
        <ele>441.17</ele>
        <time>2013-06-08T11:21:52Z</time>
      </trkpt>
      <trkpt lat="41.936144" lon="-8.054232">
        <ele>438.14</ele>
        <time>2013-06-08T11:22:04Z</time>
      </trkpt>
      <trkpt lat="41.936594" lon="-8.054108">
        <ele>433.65</ele>
        <time>2013-06-08T11:22:17Z</time>
      </trkpt>
      <trkpt lat="41.937185" lon="-8.054034">
        <ele>429.65</ele>
        <time>2013-06-08T11:22:33Z</time>
      </trkpt>
      <trkpt lat="41.937223" lon="-8.054019">
        <ele>429.81</ele>
        <time>2013-06-08T11:22:34Z</time>
      </trkpt>
      <trkpt lat="41.937647" lon="-8.053735">
        <ele>435.74</ele>
        <time>2013-06-08T11:22:46Z</time>
      </trkpt>
      <trkpt lat="41.937680" lon="-8.053703">
        <ele>436.41</ele>
        <time>2013-06-08T11:22:47Z</time>
      </trkpt>
      <trkpt lat="41.938096" lon="-8.053167">
        <ele>446.81</ele>
        <time>2013-06-08T11:23:02Z</time>
      </trkpt>
      <trkpt lat="41.938504" lon="-8.052764">
        <ele>448.44</ele>
        <time>2013-06-08T11:23:16Z</time>
      </trkpt>
      <trkpt lat="41.938908" lon="-8.052563">
        <ele>446.50</ele>
        <time>2013-06-08T11:23:30Z</time>
      </trkpt>
      <trkpt lat="41.939313" lon="-8.052390">
        <ele>444.34</ele>
        <time>2013-06-08T11:23:47Z</time>
      </trkpt>
      <trkpt lat="41.939630" lon="-8.052191">
        <ele>444.57</ele>
        <time>2013-06-08T11:24:01Z</time>
      </trkpt>
      <trkpt lat="41.939962" lon="-8.051898">
        <ele>451.24</ele>
        <time>2013-06-08T11:24:16Z</time>
      </trkpt>
      <trkpt lat="41.940288" lon="-8.051618">
        <ele>457.44</ele>
        <time>2013-06-08T11:24:31Z</time>
      </trkpt>
      <trkpt lat="41.940607" lon="-8.051446">
        <ele>461.76</ele>
        <time>2013-06-08T11:24:43Z</time>
      </trkpt>
      <trkpt lat="41.940971" lon="-8.051300">
        <ele>466.77</ele>
        <time>2013-06-08T11:24:55Z</time>
      </trkpt>
      <trkpt lat="41.941388" lon="-8.051123">
        <ele>470.84</ele>
        <time>2013-06-08T11:25:09Z</time>
      </trkpt>
      <trkpt lat="41.941747" lon="-8.050846">
        <ele>473.53</ele>
        <time>2013-06-08T11:25:22Z</time>
      </trkpt>
      <trkpt lat="41.942002" lon="-8.050439">
        <ele>478.61</ele>
        <time>2013-06-08T11:25:35Z</time>
      </trkpt>
      <trkpt lat="41.942224" lon="-8.049899">
        <ele>482.07</ele>
        <time>2013-06-08T11:25:49Z</time>
      </trkpt>
      <trkpt lat="41.942353" lon="-8.049291">
        <ele>488.19</ele>
        <time>2013-06-08T11:26:04Z</time>
      </trkpt>
      <trkpt lat="41.942520" lon="-8.048628">
        <ele>494.96</ele>
        <time>2013-06-08T11:26:20Z</time>
      </trkpt>
      <trkpt lat="41.942803" lon="-8.048085">
        <ele>498.13</ele>
        <time>2013-06-08T11:26:34Z</time>
      </trkpt>
      <trkpt lat="41.943061" lon="-8.047620">
        <ele>499.24</ele>
        <time>2013-06-08T11:26:46Z</time>
      </trkpt>
      <trkpt lat="41.943379" lon="-8.046947">
        <ele>501.51</ele>
        <time>2013-06-08T11:27:03Z</time>
      </trkpt>
      <trkpt lat="41.943575" lon="-8.046386">
        <ele>509.03</ele>
        <time>2013-06-08T11:27:16Z</time>
      </trkpt>
      <trkpt lat="41.943709" lon="-8.045780">
        <ele>516.83</ele>
        <time>2013-06-08T11:27:29Z</time>
      </trkpt>
      <trkpt lat="41.943809" lon="-8.045091">
        <ele>524.12</ele>
        <time>2013-06-08T11:27:43Z</time>
      </trkpt>
      <trkpt lat="41.943917" lon="-8.044403">
        <ele>528.62</ele>
        <time>2013-06-08T11:27:56Z</time>
      </trkpt>
      <trkpt lat="41.944104" lon="-8.043811">
        <ele>527.61</ele>
        <time>2013-06-08T11:28:08Z</time>
      </trkpt>
      <trkpt lat="41.944402" lon="-8.043013">
        <ele>528.67</ele>
        <time>2013-06-08T11:28:24Z</time>
      </trkpt>
      <trkpt lat="41.944459" lon="-8.042423">
        <ele>537.46</ele>
        <time>2013-06-08T11:28:36Z</time>
      </trkpt>
      <trkpt lat="41.944457" lon="-8.042371">
        <ele>538.45</ele>
        <time>2013-06-08T11:28:37Z</time>
      </trkpt>
      <trkpt lat="41.944451" lon="-8.042261">
        <ele>540.55</ele>
        <time>2013-06-08T11:28:39Z</time>
      </trkpt>
      <trkpt lat="41.944361" lon="-8.041709">
        <ele>548.84</ele>
        <time>2013-06-08T11:28:51Z</time>
      </trkpt>
      <trkpt lat="41.944251" lon="-8.041318">
        <ele>554.66</ele>
        <time>2013-06-08T11:28:59Z</time>
      </trkpt>
      <trkpt lat="41.944228" lon="-8.041270">
        <ele>555.56</ele>
        <time>2013-06-08T11:29:00Z</time>
      </trkpt>
      <trkpt lat="41.944209" lon="-8.041220">
        <ele>555.69</ele>
        <time>2013-06-08T11:29:01Z</time>
      </trkpt>
      <trkpt lat="41.944195" lon="-8.041166">
        <ele>555.16</ele>
        <time>2013-06-08T11:29:02Z</time>
      </trkpt>
      <trkpt lat="41.944181" lon="-8.041110">
        <ele>554.52</ele>
        <time>2013-06-08T11:29:03Z</time>
      </trkpt>
      <trkpt lat="41.944167" lon="-8.041061">
        <ele>554.01</ele>
        <time>2013-06-08T11:29:04Z</time>
      </trkpt>
      <trkpt lat="41.944004" lon="-8.040485">
        <ele>549.37</ele>
        <time>2013-06-08T11:29:18Z</time>
      </trkpt>
      <trkpt lat="41.943900" lon="-8.040033">
        <ele>536.59</ele>
        <time>2013-06-08T11:29:30Z</time>
      </trkpt>
      <trkpt lat="41.943819" lon="-8.039411">
        <ele>518.72</ele>
        <time>2013-06-08T11:29:46Z</time>
      </trkpt>
      <trkpt lat="41.943821" lon="-8.038823">
        <ele>511.60</ele>
        <time>2013-06-08T11:30:00Z</time>
      </trkpt>
      <trkpt lat="41.943911" lon="-8.038101">
        <ele>520.68</ele>
        <time>2013-06-08T11:30:16Z</time>
      </trkpt>
      <trkpt lat="41.944092" lon="-8.037425">
        <ele>526.81</ele>
        <time>2013-06-08T11:30:31Z</time>
      </trkpt>
      <trkpt lat="41.944422" lon="-8.036817">
        <ele>533.02</ele>
        <time>2013-06-08T11:30:46Z</time>
      </trkpt>
      <trkpt lat="41.944775" lon="-8.036265">
        <ele>535.25</ele>
        <time>2013-06-08T11:31:00Z</time>
      </trkpt>
      <trkpt lat="41.945066" lon="-8.035791">
        <ele>538.70</ele>
        <time>2013-06-08T11:31:13Z</time>
      </trkpt>
      <trkpt lat="41.945309" lon="-8.035469">
        <ele>542.02</ele>
        <time>2013-06-08T11:31:25Z</time>
      </trkpt>
      <trkpt lat="41.945622" lon="-8.035165">
        <ele>546.41</ele>
        <time>2013-06-08T11:31:39Z</time>
      </trkpt>
      <trkpt lat="41.946211" lon="-8.034583">
        <ele>550.75</ele>
        <time>2013-06-08T11:31:54Z</time>
      </trkpt>
      <trkpt lat="41.946781" lon="-8.033997">
        <ele>548.26</ele>
        <time>2013-06-08T11:32:11Z</time>
      </trkpt>
      <trkpt lat="41.946971" lon="-8.033861">
        <ele>548.27</ele>
        <time>2013-06-08T11:32:19Z</time>
      </trkpt>
      <trkpt lat="41.946969" lon="-8.033921">
        <ele>548.64</ele>
        <time>2013-06-08T11:32:22Z</time>
      </trkpt>
      <trkpt lat="41.946923" lon="-8.033982">
        <ele>548.82</ele>
        <time>2013-06-08T11:32:32Z</time>
      </trkpt>
      <trkpt lat="41.946928" lon="-8.033994">
        <ele>548.93</ele>
        <time>2013-06-08T11:32:59Z</time>
      </trkpt>
      <trkpt lat="41.946926" lon="-8.034004">
        <ele>549.02</ele>
        <time>2013-06-08T11:33:37Z</time>
      </trkpt>
      <trkpt lat="41.946922" lon="-8.033985">
        <ele>548.81</ele>
        <time>2013-06-08T11:34:15Z</time>
      </trkpt>
      <trkpt lat="41.946921" lon="-8.033986">
        <ele>548.83</ele>
        <time>2013-06-08T11:34:32Z</time>
      </trkpt>
      <trkpt lat="41.946927" lon="-8.033856">
        <ele>547.90</ele>
        <time>2013-06-08T11:34:40Z</time>
      </trkpt>
      <trkpt lat="41.947228" lon="-8.033538">
        <ele>549.11</ele>
        <time>2013-06-08T11:34:54Z</time>
      </trkpt>
      <trkpt lat="41.947697" lon="-8.033042">
        <ele>553.03</ele>
        <time>2013-06-08T11:35:12Z</time>
      </trkpt>
      <trkpt lat="41.948115" lon="-8.032683">
        <ele>556.23</ele>
        <time>2013-06-08T11:35:26Z</time>
      </trkpt>
      <trkpt lat="41.948353" lon="-8.032595">
        <ele>558.20</ele>
        <time>2013-06-08T11:35:32Z</time>
      </trkpt>
      <trkpt lat="41.948393" lon="-8.032580">
        <ele>558.45</ele>
        <time>2013-06-08T11:35:33Z</time>
      </trkpt>
      <trkpt lat="41.948433" lon="-8.032559">
        <ele>558.80</ele>
        <time>2013-06-08T11:35:34Z</time>
      </trkpt>
      <trkpt lat="41.948473" lon="-8.032545">
        <ele>559.16</ele>
        <time>2013-06-08T11:35:35Z</time>
      </trkpt>
      <trkpt lat="41.948513" lon="-8.032540">
        <ele>559.48</ele>
        <time>2013-06-08T11:35:36Z</time>
      </trkpt>
      <trkpt lat="41.948556" lon="-8.032542">
        <ele>559.89</ele>
        <time>2013-06-08T11:35:37Z</time>
      </trkpt>
      <trkpt lat="41.948601" lon="-8.032547">
        <ele>560.24</ele>
        <time>2013-06-08T11:35:38Z</time>
      </trkpt>
      <trkpt lat="41.949338" lon="-8.032736">
        <ele>568.53</ele>
        <time>2013-06-08T11:35:53Z</time>
      </trkpt>
      <trkpt lat="41.949634" lon="-8.032797">
        <ele>572.51</ele>
        <time>2013-06-08T11:35:59Z</time>
      </trkpt>
      <trkpt lat="41.949689" lon="-8.032800">
        <ele>572.66</ele>
        <time>2013-06-08T11:36:00Z</time>
      </trkpt>
      <trkpt lat="41.949746" lon="-8.032796">
        <ele>572.57</ele>
        <time>2013-06-08T11:36:01Z</time>
      </trkpt>
      <trkpt lat="41.949918" lon="-8.032757">
        <ele>571.61</ele>
        <time>2013-06-08T11:36:04Z</time>
      </trkpt>
      <trkpt lat="41.949976" lon="-8.032730">
        <ele>571.03</ele>
        <time>2013-06-08T11:36:05Z</time>
      </trkpt>
      <trkpt lat="41.950203" lon="-8.032595">
        <ele>567.91</ele>
        <time>2013-06-08T11:36:09Z</time>
      </trkpt>
      <trkpt lat="41.950303" lon="-8.032510">
        <ele>565.99</ele>
        <time>2013-06-08T11:36:11Z</time>
      </trkpt>
      <trkpt lat="41.950393" lon="-8.032412">
        <ele>563.55</ele>
        <time>2013-06-08T11:36:13Z</time>
      </trkpt>
      <trkpt lat="41.950433" lon="-8.032357">
        <ele>562.52</ele>
        <time>2013-06-08T11:36:14Z</time>
      </trkpt>
      <trkpt lat="41.950470" lon="-8.032298">
        <ele>561.98</ele>
        <time>2013-06-08T11:36:15Z</time>
      </trkpt>
      <trkpt lat="41.950971" lon="-8.031304">
        <ele>559.51</ele>
        <time>2013-06-08T11:36:31Z</time>
      </trkpt>
      <trkpt lat="41.951500" lon="-8.030151">
        <ele>559.41</ele>
        <time>2013-06-08T11:36:47Z</time>
      </trkpt>
      <trkpt lat="41.951770" lon="-8.028627">
        <ele>551.17</ele>
        <time>2013-06-08T11:37:01Z</time>
      </trkpt>
      <trkpt lat="41.952020" lon="-8.026892">
        <ele>547.30</ele>
        <time>2013-06-08T11:37:17Z</time>
      </trkpt>
      <trkpt lat="41.952065" lon="-8.026676">
        <ele>547.36</ele>
        <time>2013-06-08T11:37:20Z</time>
      </trkpt>
      <trkpt lat="41.952444" lon="-8.025913">
        <ele>550.96</ele>
        <time>2013-06-08T11:37:34Z</time>
      </trkpt>
      <trkpt lat="41.952608" lon="-8.025698">
        <ele>552.80</ele>
        <time>2013-06-08T11:37:38Z</time>
      </trkpt>
      <trkpt lat="41.952684" lon="-8.025547">
        <ele>553.55</ele>
        <time>2013-06-08T11:37:40Z</time>
      </trkpt>
      <trkpt lat="41.952739" lon="-8.025478">
        <ele>554.16</ele>
        <time>2013-06-08T11:37:41Z</time>
      </trkpt>
      <trkpt lat="41.952799" lon="-8.025413">
        <ele>554.77</ele>
        <time>2013-06-08T11:37:42Z</time>
      </trkpt>
      <trkpt lat="41.952857" lon="-8.025348">
        <ele>555.18</ele>
        <time>2013-06-08T11:37:43Z</time>
      </trkpt>
      <trkpt lat="41.952910" lon="-8.025283">
        <ele>555.31</ele>
        <time>2013-06-08T11:37:44Z</time>
      </trkpt>
      <trkpt lat="41.952964" lon="-8.025223">
        <ele>555.31</ele>
        <time>2013-06-08T11:37:45Z</time>
      </trkpt>
      <trkpt lat="41.953009" lon="-8.025161">
        <ele>555.21</ele>
        <time>2013-06-08T11:37:46Z</time>
      </trkpt>
      <trkpt lat="41.953042" lon="-8.025089">
        <ele>555.19</ele>
        <time>2013-06-08T11:37:47Z</time>
      </trkpt>
      <trkpt lat="41.953069" lon="-8.025011">
        <ele>554.93</ele>
        <time>2013-06-08T11:37:48Z</time>
      </trkpt>
      <trkpt lat="41.953093" lon="-8.024925">
        <ele>554.65</ele>
        <time>2013-06-08T11:37:49Z</time>
      </trkpt>
      <trkpt lat="41.953112" lon="-8.024835">
        <ele>554.32</ele>
        <time>2013-06-08T11:37:50Z</time>
      </trkpt>
      <trkpt lat="41.953127" lon="-8.024743">
        <ele>554.09</ele>
        <time>2013-06-08T11:37:51Z</time>
      </trkpt>
      <trkpt lat="41.953136" lon="-8.024200">
        <ele>552.61</ele>
        <time>2013-06-08T11:37:57Z</time>
      </trkpt>
      <trkpt lat="41.953095" lon="-8.023930">
        <ele>552.03</ele>
        <time>2013-06-08T11:38:00Z</time>
      </trkpt>
      <trkpt lat="41.953071" lon="-8.023842">
        <ele>551.77</ele>
        <time>2013-06-08T11:38:01Z</time>
      </trkpt>
      <trkpt lat="41.953011" lon="-8.023671">
        <ele>551.31</ele>
        <time>2013-06-08T11:38:03Z</time>
      </trkpt>
      <trkpt lat="41.952971" lon="-8.023590">
        <ele>551.01</ele>
        <time>2013-06-08T11:38:04Z</time>
      </trkpt>
      <trkpt lat="41.952596" lon="-8.023148">
        <ele>549.66</ele>
        <time>2013-06-08T11:38:11Z</time>
      </trkpt>
      <trkpt lat="41.952533" lon="-8.023113">
        <ele>549.35</ele>
        <time>2013-06-08T11:38:12Z</time>
      </trkpt>
      <trkpt lat="41.951697" lon="-8.022703">
        <ele>546.79</ele>
        <time>2013-06-08T11:38:26Z</time>
      </trkpt>
      <trkpt lat="41.951461" lon="-8.022453">
        <ele>546.25</ele>
        <time>2013-06-08T11:38:31Z</time>
      </trkpt>
      <trkpt lat="41.951422" lon="-8.022392">
        <ele>546.06</ele>
        <time>2013-06-08T11:38:32Z</time>
      </trkpt>
      <trkpt lat="41.951148" lon="-8.021415">
        <ele>548.66</ele>
        <time>2013-06-08T11:38:45Z</time>
      </trkpt>
      <trkpt lat="41.951053" lon="-8.020180">
        <ele>555.09</ele>
        <time>2013-06-08T11:39:02Z</time>
      </trkpt>
      <trkpt lat="41.950996" lon="-8.019199">
        <ele>555.31</ele>
        <time>2013-06-08T11:39:16Z</time>
      </trkpt>
      <trkpt lat="41.951014" lon="-8.018917">
        <ele>554.92</ele>
        <time>2013-06-08T11:39:20Z</time>
      </trkpt>
      <trkpt lat="41.951031" lon="-8.018845">
        <ele>554.90</ele>
        <time>2013-06-08T11:39:21Z</time>
      </trkpt>
      <trkpt lat="41.951049" lon="-8.018775">
        <ele>554.81</ele>
        <time>2013-06-08T11:39:22Z</time>
      </trkpt>
      <trkpt lat="41.951067" lon="-8.018702">
        <ele>554.76</ele>
        <time>2013-06-08T11:39:23Z</time>
      </trkpt>
      <trkpt lat="41.951086" lon="-8.018630">
        <ele>554.68</ele>
        <time>2013-06-08T11:39:24Z</time>
      </trkpt>
      <trkpt lat="41.951109" lon="-8.018558">
        <ele>554.48</ele>
        <time>2013-06-08T11:39:25Z</time>
      </trkpt>
      <trkpt lat="41.951162" lon="-8.018417">
        <ele>554.25</ele>
        <time>2013-06-08T11:39:27Z</time>
      </trkpt>
      <trkpt lat="41.951196" lon="-8.018349">
        <ele>554.27</ele>
        <time>2013-06-08T11:39:28Z</time>
      </trkpt>
      <trkpt lat="41.951812" lon="-8.017711">
        <ele>558.32</ele>
        <time>2013-06-08T11:39:40Z</time>
      </trkpt>
      <trkpt lat="41.952297" lon="-8.017271">
        <ele>559.32</ele>
        <time>2013-06-08T11:39:48Z</time>
      </trkpt>
      <trkpt lat="41.952534" lon="-8.016806">
        <ele>556.44</ele>
        <time>2013-06-08T11:39:54Z</time>
      </trkpt>
      <trkpt lat="41.952807" lon="-8.015963">
        <ele>552.45</ele>
        <time>2013-06-08T11:40:03Z</time>
      </trkpt>
      <trkpt lat="41.953353" lon="-8.015176">
        <ele>554.91</ele>
        <time>2013-06-08T11:40:16Z</time>
      </trkpt>
      <trkpt lat="41.953399" lon="-8.015131">
        <ele>555.21</ele>
        <time>2013-06-08T11:40:17Z</time>
      </trkpt>
      <trkpt lat="41.953448" lon="-8.015092">
        <ele>555.47</ele>
        <time>2013-06-08T11:40:18Z</time>
      </trkpt>
      <trkpt lat="41.953497" lon="-8.015062">
        <ele>555.88</ele>
        <time>2013-06-08T11:40:19Z</time>
      </trkpt>
      <trkpt lat="41.953547" lon="-8.015038">
        <ele>556.16</ele>
        <time>2013-06-08T11:40:20Z</time>
      </trkpt>
      <trkpt lat="41.953598" lon="-8.015014">
        <ele>556.47</ele>
        <time>2013-06-08T11:40:21Z</time>
      </trkpt>
      <trkpt lat="41.953646" lon="-8.014979">
        <ele>556.57</ele>
        <time>2013-06-08T11:40:22Z</time>
      </trkpt>
      <trkpt lat="41.953692" lon="-8.014933">
        <ele>556.46</ele>
        <time>2013-06-08T11:40:23Z</time>
      </trkpt>
      <trkpt lat="41.953739" lon="-8.014882">
        <ele>556.27</ele>
        <time>2013-06-08T11:40:24Z</time>
      </trkpt>
      <trkpt lat="41.954449" lon="-8.014273">
        <ele>555.96</ele>
        <time>2013-06-08T11:40:37Z</time>
      </trkpt>
      <trkpt lat="41.955215" lon="-8.013806">
        <ele>557.10</ele>
        <time>2013-06-08T11:40:50Z</time>
      </trkpt>
      <trkpt lat="41.955934" lon="-8.013528">
        <ele>557.62</ele>
        <time>2013-06-08T11:41:03Z</time>
      </trkpt>
      <trkpt lat="41.956500" lon="-8.013372">
        <ele>560.71</ele>
        <time>2013-06-08T11:41:13Z</time>
      </trkpt>
      <trkpt lat="41.956690" lon="-8.013346">
        <ele>563.07</ele>
        <time>2013-06-08T11:41:16Z</time>
      </trkpt>
      <trkpt lat="41.956766" lon="-8.013314">
        <ele>563.64</ele>
        <time>2013-06-08T11:41:17Z</time>
      </trkpt>
      <trkpt lat="41.956914" lon="-8.013238">
        <ele>564.56</ele>
        <time>2013-06-08T11:41:19Z</time>
      </trkpt>
      <trkpt lat="41.957237" lon="-8.012992">
        <ele>564.79</ele>
        <time>2013-06-08T11:41:24Z</time>
      </trkpt>
      <trkpt lat="41.957291" lon="-8.012941">
        <ele>564.66</ele>
        <time>2013-06-08T11:41:25Z</time>
      </trkpt>
      <trkpt lat="41.957342" lon="-8.012888">
        <ele>564.59</ele>
        <time>2013-06-08T11:41:26Z</time>
      </trkpt>
      <trkpt lat="41.957390" lon="-8.012831">
        <ele>564.40</ele>
        <time>2013-06-08T11:41:27Z</time>
      </trkpt>
      <trkpt lat="41.957435" lon="-8.012775">
        <ele>564.29</ele>
        <time>2013-06-08T11:41:28Z</time>
      </trkpt>
      <trkpt lat="41.957523" lon="-8.012675">
        <ele>564.01</ele>
        <time>2013-06-08T11:41:30Z</time>
      </trkpt>
      <trkpt lat="41.957643" lon="-8.012517">
        <ele>563.63</ele>
        <time>2013-06-08T11:41:33Z</time>
      </trkpt>
      <trkpt lat="41.958283" lon="-8.011699">
        <ele>565.31</ele>
        <time>2013-06-08T11:41:49Z</time>
      </trkpt>
      <trkpt lat="41.959065" lon="-8.010804">
        <ele>566.99</ele>
        <time>2013-06-08T11:42:07Z</time>
      </trkpt>
      <trkpt lat="41.959689" lon="-8.010131">
        <ele>569.83</ele>
        <time>2013-06-08T11:42:22Z</time>
      </trkpt>
      <trkpt lat="41.959732" lon="-8.010084">
        <ele>569.88</ele>
        <time>2013-06-08T11:42:23Z</time>
      </trkpt>
      <trkpt lat="41.959777" lon="-8.010034">
        <ele>569.86</ele>
        <time>2013-06-08T11:42:24Z</time>
      </trkpt>
      <trkpt lat="41.960425" lon="-8.009369">
        <ele>567.17</ele>
        <time>2013-06-08T11:42:34Z</time>
      </trkpt>
      <trkpt lat="41.961447" lon="-8.008561">
        <ele>558.43</ele>
        <time>2013-06-08T11:42:47Z</time>
      </trkpt>
      <trkpt lat="41.962905" lon="-8.008029">
        <ele>554.93</ele>
        <time>2013-06-08T11:43:04Z</time>
      </trkpt>
      <trkpt lat="41.964425" lon="-8.007500">
        <ele>555.17</ele>
        <time>2013-06-08T11:43:21Z</time>
      </trkpt>
      <trkpt lat="41.965833" lon="-8.007008">
        <ele>555.60</ele>
        <time>2013-06-08T11:43:37Z</time>
      </trkpt>
      <trkpt lat="41.966680" lon="-8.006717">
        <ele>560.02</ele>
        <time>2013-06-08T11:43:49Z</time>
      </trkpt>
      <trkpt lat="41.967587" lon="-8.006445">
        <ele>563.71</ele>
        <time>2013-06-08T11:44:04Z</time>
      </trkpt>
      <trkpt lat="41.968406" lon="-8.006432">
        <ele>567.39</ele>
        <time>2013-06-08T11:44:17Z</time>
      </trkpt>
      <trkpt lat="41.969030" lon="-8.006350">
        <ele>565.15</ele>
        <time>2013-06-08T11:44:27Z</time>
      </trkpt>
      <trkpt lat="41.969432" lon="-8.006089">
        <ele>558.94</ele>
        <time>2013-06-08T11:44:34Z</time>
      </trkpt>
      <trkpt lat="41.969625" lon="-8.005866">
        <ele>555.05</ele>
        <time>2013-06-08T11:44:38Z</time>
      </trkpt>
      <trkpt lat="41.969783" lon="-8.005607">
        <ele>552.41</ele>
        <time>2013-06-08T11:44:42Z</time>
      </trkpt>
      <trkpt lat="41.970002" lon="-8.004600">
        <ele>549.59</ele>
        <time>2013-06-08T11:44:55Z</time>
      </trkpt>
      <trkpt lat="41.970241" lon="-8.003066">
        <ele>557.64</ele>
        <time>2013-06-08T11:45:14Z</time>
      </trkpt>
      <trkpt lat="41.970680" lon="-8.001810">
        <ele>559.37</ele>
        <time>2013-06-08T11:45:30Z</time>
      </trkpt>
      <trkpt lat="41.971261" lon="-8.000264">
        <ele>561.36</ele>
        <time>2013-06-08T11:45:50Z</time>
      </trkpt>
      <trkpt lat="41.971739" lon="-7.999013">
        <ele>565.42</ele>
        <time>2013-06-08T11:46:07Z</time>
      </trkpt>
      <trkpt lat="41.972158" lon="-7.997783">
        <ele>562.91</ele>
        <time>2013-06-08T11:46:22Z</time>
      </trkpt>
      <trkpt lat="41.972171" lon="-7.997674">
        <ele>562.64</ele>
        <time>2013-06-08T11:46:23Z</time>
      </trkpt>
      <trkpt lat="41.972160" lon="-7.997221">
        <ele>561.52</ele>
        <time>2013-06-08T11:46:27Z</time>
      </trkpt>
      <trkpt lat="41.972142" lon="-7.997110">
        <ele>561.26</ele>
        <time>2013-06-08T11:46:28Z</time>
      </trkpt>
      <trkpt lat="41.971813" lon="-7.996019">
        <ele>560.55</ele>
        <time>2013-06-08T11:46:40Z</time>
      </trkpt>
      <trkpt lat="41.971682" lon="-7.995632">
        <ele>561.76</ele>
        <time>2013-06-08T11:46:45Z</time>
      </trkpt>
      <trkpt lat="41.971318" lon="-7.994693">
        <ele>568.22</ele>
        <time>2013-06-08T11:46:59Z</time>
      </trkpt>
      <trkpt lat="41.970835" lon="-7.993684">
        <ele>573.11</ele>
        <time>2013-06-08T11:47:16Z</time>
      </trkpt>
      <trkpt lat="41.970774" lon="-7.993505">
        <ele>572.35</ele>
        <time>2013-06-08T11:47:19Z</time>
      </trkpt>
      <trkpt lat="41.970758" lon="-7.993446">
        <ele>571.93</ele>
        <time>2013-06-08T11:47:20Z</time>
      </trkpt>
      <trkpt lat="41.970724" lon="-7.993261">
        <ele>570.72</ele>
        <time>2013-06-08T11:47:23Z</time>
      </trkpt>
      <trkpt lat="41.970713" lon="-7.992813">
        <ele>567.31</ele>
        <time>2013-06-08T11:47:30Z</time>
      </trkpt>
      <trkpt lat="41.970765" lon="-7.992515">
        <ele>565.57</ele>
        <time>2013-06-08T11:47:35Z</time>
      </trkpt>
      <trkpt lat="41.970955" lon="-7.991973">
        <ele>566.15</ele>
        <time>2013-06-08T11:47:46Z</time>
      </trkpt>
      <trkpt lat="41.971011" lon="-7.991893">
        <ele>566.83</ele>
        <time>2013-06-08T11:47:48Z</time>
      </trkpt>
      <trkpt lat="41.971424" lon="-7.991541">
        <ele>572.93</ele>
        <time>2013-06-08T11:48:00Z</time>
      </trkpt>
      <trkpt lat="41.972152" lon="-7.991107">
        <ele>582.38</ele>
        <time>2013-06-08T11:48:16Z</time>
      </trkpt>
      <trkpt lat="41.972710" lon="-7.990414">
        <ele>582.40</ele>
        <time>2013-06-08T11:48:30Z</time>
      </trkpt>
      <trkpt lat="41.973180" lon="-7.989288">
        <ele>582.15</ele>
        <time>2013-06-08T11:48:46Z</time>
      </trkpt>
      <trkpt lat="41.973688" lon="-7.988019">
        <ele>580.43</ele>
        <time>2013-06-08T11:49:03Z</time>
      </trkpt>
      <trkpt lat="41.974105" lon="-7.986937">
        <ele>581.69</ele>
        <time>2013-06-08T11:49:17Z</time>
      </trkpt>
      <trkpt lat="41.974676" lon="-7.985451">
        <ele>578.91</ele>
        <time>2013-06-08T11:49:34Z</time>
      </trkpt>
      <trkpt lat="41.975218" lon="-7.984099">
        <ele>573.91</ele>
        <time>2013-06-08T11:49:49Z</time>
      </trkpt>
      <trkpt lat="41.975256" lon="-7.984003">
        <ele>573.50</ele>
        <time>2013-06-08T11:49:50Z</time>
      </trkpt>
      <trkpt lat="41.975296" lon="-7.983913">
        <ele>573.12</ele>
        <time>2013-06-08T11:49:51Z</time>
      </trkpt>
      <trkpt lat="41.975343" lon="-7.983828">
        <ele>572.95</ele>
        <time>2013-06-08T11:49:52Z</time>
      </trkpt>
      <trkpt lat="41.975396" lon="-7.983750">
        <ele>572.82</ele>
        <time>2013-06-08T11:49:53Z</time>
      </trkpt>
      <trkpt lat="41.975453" lon="-7.983681">
        <ele>572.73</ele>
        <time>2013-06-08T11:49:54Z</time>
      </trkpt>
      <trkpt lat="41.975514" lon="-7.983621">
        <ele>572.87</ele>
        <time>2013-06-08T11:49:55Z</time>
      </trkpt>
      <trkpt lat="41.975580" lon="-7.983569">
        <ele>572.92</ele>
        <time>2013-06-08T11:49:56Z</time>
      </trkpt>
      <trkpt lat="41.975657" lon="-7.983528">
        <ele>573.32</ele>
        <time>2013-06-08T11:49:57Z</time>
      </trkpt>
      <trkpt lat="41.975739" lon="-7.983493">
        <ele>573.84</ele>
        <time>2013-06-08T11:49:58Z</time>
      </trkpt>
      <trkpt lat="41.976007" lon="-7.983430">
        <ele>575.80</ele>
        <time>2013-06-08T11:50:01Z</time>
      </trkpt>
      <trkpt lat="41.976096" lon="-7.983432">
        <ele>576.71</ele>
        <time>2013-06-08T11:50:02Z</time>
      </trkpt>
      <trkpt lat="41.976184" lon="-7.983444">
        <ele>577.80</ele>
        <time>2013-06-08T11:50:03Z</time>
      </trkpt>
      <trkpt lat="41.976271" lon="-7.983469">
        <ele>578.60</ele>
        <time>2013-06-08T11:50:04Z</time>
      </trkpt>
      <trkpt lat="41.976355" lon="-7.983507">
        <ele>578.55</ele>
        <time>2013-06-08T11:50:05Z</time>
      </trkpt>
      <trkpt lat="41.976432" lon="-7.983560">
        <ele>578.68</ele>
        <time>2013-06-08T11:50:06Z</time>
      </trkpt>
      <trkpt lat="41.976507" lon="-7.983627">
        <ele>578.93</ele>
        <time>2013-06-08T11:50:07Z</time>
      </trkpt>
      <trkpt lat="41.976579" lon="-7.983701">
        <ele>579.17</ele>
        <time>2013-06-08T11:50:08Z</time>
      </trkpt>
      <trkpt lat="41.977270" lon="-7.984623">
        <ele>584.04</ele>
        <time>2013-06-08T11:50:20Z</time>
      </trkpt>
      <trkpt lat="41.977846" lon="-7.985437">
        <ele>584.15</ele>
        <time>2013-06-08T11:50:34Z</time>
      </trkpt>
      <trkpt lat="41.977953" lon="-7.985588">
        <ele>584.71</ele>
        <time>2013-06-08T11:50:37Z</time>
      </trkpt>
      <trkpt lat="41.978212" lon="-7.985838">
        <ele>586.12</ele>
        <time>2013-06-08T11:50:43Z</time>
      </trkpt>
      <trkpt lat="41.978307" lon="-7.985891">
        <ele>586.21</ele>
        <time>2013-06-08T11:50:45Z</time>
      </trkpt>
      <trkpt lat="41.978494" lon="-7.985965">
        <ele>586.00</ele>
        <time>2013-06-08T11:50:49Z</time>
      </trkpt>
      <trkpt lat="41.979173" lon="-7.985965">
        <ele>588.05</ele>
        <time>2013-06-08T11:51:02Z</time>
      </trkpt>
      <trkpt lat="41.979957" lon="-7.985849">
        <ele>591.81</ele>
        <time>2013-06-08T11:51:17Z</time>
      </trkpt>
      <trkpt lat="41.980461" lon="-7.985740">
        <ele>592.45</ele>
        <time>2013-06-08T11:51:27Z</time>
      </trkpt>
      <trkpt lat="41.980900" lon="-7.985340">
        <ele>592.99</ele>
        <time>2013-06-08T11:51:40Z</time>
      </trkpt>
      <trkpt lat="41.981268" lon="-7.984662">
        <ele>588.28</ele>
        <time>2013-06-08T11:51:54Z</time>
      </trkpt>
      <trkpt lat="41.981323" lon="-7.984549">
        <ele>587.72</ele>
        <time>2013-06-08T11:51:56Z</time>
      </trkpt>
      <trkpt lat="41.981352" lon="-7.984495">
        <ele>587.83</ele>
        <time>2013-06-08T11:51:57Z</time>
      </trkpt>
      <trkpt lat="41.981808" lon="-7.983514">
        <ele>588.09</ele>
        <time>2013-06-08T11:52:13Z</time>
      </trkpt>
      <trkpt lat="41.982106" lon="-7.982894">
        <ele>586.22</ele>
        <time>2013-06-08T11:52:25Z</time>
      </trkpt>
      <trkpt lat="41.982153" lon="-7.982783">
        <ele>586.11</ele>
        <time>2013-06-08T11:52:27Z</time>
      </trkpt>
      <trkpt lat="41.982565" lon="-7.981865">
        <ele>587.14</ele>
        <time>2013-06-08T11:52:42Z</time>
      </trkpt>
      <trkpt lat="41.983097" lon="-7.980711">
        <ele>588.38</ele>
        <time>2013-06-08T11:53:00Z</time>
      </trkpt>
      <trkpt lat="41.983582" lon="-7.980148">
        <ele>588.29</ele>
        <time>2013-06-08T11:53:08Z</time>
      </trkpt>
      <trkpt lat="41.983668" lon="-7.980103">
        <ele>588.69</ele>
        <time>2013-06-08T11:53:09Z</time>
      </trkpt>
      <trkpt lat="41.983758" lon="-7.980065">
        <ele>588.94</ele>
        <time>2013-06-08T11:53:10Z</time>
      </trkpt>
      <trkpt lat="41.983948" lon="-7.980013">
        <ele>588.86</ele>
        <time>2013-06-08T11:53:12Z</time>
      </trkpt>
      <trkpt lat="41.984147" lon="-7.979993">
        <ele>588.93</ele>
        <time>2013-06-08T11:53:14Z</time>
      </trkpt>
      <trkpt lat="41.984252" lon="-7.979983">
        <ele>588.94</ele>
        <time>2013-06-08T11:53:15Z</time>
      </trkpt>
      <trkpt lat="41.984460" lon="-7.979978">
        <ele>589.17</ele>
        <time>2013-06-08T11:53:17Z</time>
      </trkpt>
      <trkpt lat="41.984565" lon="-7.979955">
        <ele>588.92</ele>
        <time>2013-06-08T11:53:18Z</time>
      </trkpt>
      <trkpt lat="41.984780" lon="-7.979876">
        <ele>587.71</ele>
        <time>2013-06-08T11:53:20Z</time>
      </trkpt>
      <trkpt lat="41.984882" lon="-7.979818">
        <ele>586.84</ele>
        <time>2013-06-08T11:53:21Z</time>
      </trkpt>
      <trkpt lat="41.984976" lon="-7.979755">
        <ele>585.80</ele>
        <time>2013-06-08T11:53:22Z</time>
      </trkpt>
      <trkpt lat="41.985065" lon="-7.979685">
        <ele>584.53</ele>
        <time>2013-06-08T11:53:23Z</time>
      </trkpt>
      <trkpt lat="41.985149" lon="-7.979604">
        <ele>583.05</ele>
        <time>2013-06-08T11:53:24Z</time>
      </trkpt>
      <trkpt lat="41.985224" lon="-7.979507">
        <ele>581.87</ele>
        <time>2013-06-08T11:53:25Z</time>
      </trkpt>
      <trkpt lat="41.985287" lon="-7.979401">
        <ele>580.94</ele>
        <time>2013-06-08T11:53:26Z</time>
      </trkpt>
      <trkpt lat="41.985341" lon="-7.979290">
        <ele>579.92</ele>
        <time>2013-06-08T11:53:27Z</time>
      </trkpt>
      <trkpt lat="41.985383" lon="-7.979173">
        <ele>579.10</ele>
        <time>2013-06-08T11:53:28Z</time>
      </trkpt>
      <trkpt lat="41.985415" lon="-7.979055">
        <ele>578.21</ele>
        <time>2013-06-08T11:53:29Z</time>
      </trkpt>
      <trkpt lat="41.985440" lon="-7.978934">
        <ele>577.63</ele>
        <time>2013-06-08T11:53:30Z</time>
      </trkpt>
      <trkpt lat="41.985458" lon="-7.978812">
        <ele>577.01</ele>
        <time>2013-06-08T11:53:31Z</time>
      </trkpt>
      <trkpt lat="41.985465" lon="-7.978690">
        <ele>576.55</ele>
        <time>2013-06-08T11:53:32Z</time>
      </trkpt>
      <trkpt lat="41.985471" lon="-7.978569">
        <ele>576.37</ele>
        <time>2013-06-08T11:53:33Z</time>
      </trkpt>
      <trkpt lat="41.985595" lon="-7.977220">
        <ele>574.33</ele>
        <time>2013-06-08T11:53:45Z</time>
      </trkpt>
      <trkpt lat="41.985967" lon="-7.975889">
        <ele>576.28</ele>
        <time>2013-06-08T11:53:57Z</time>
      </trkpt>
      <trkpt lat="41.986714" lon="-7.974335">
        <ele>563.45</ele>
        <time>2013-06-08T11:54:09Z</time>
      </trkpt>
      <trkpt lat="41.987537" lon="-7.972626">
        <ele>558.59</ele>
        <time>2013-06-08T11:54:23Z</time>
      </trkpt>
      <trkpt lat="41.988420" lon="-7.970906">
        <ele>555.56</ele>
        <time>2013-06-08T11:54:40Z</time>
      </trkpt>
      <trkpt lat="41.989085" lon="-7.970221">
        <ele>557.89</ele>
        <time>2013-06-08T11:54:50Z</time>
      </trkpt>
      <trkpt lat="41.989700" lon="-7.969699">
        <ele>562.64</ele>
        <time>2013-06-08T11:55:02Z</time>
      </trkpt>
      <trkpt lat="41.990168" lon="-7.969320">
        <ele>567.23</ele>
        <time>2013-06-08T11:55:13Z</time>
      </trkpt>
      <trkpt lat="41.990206" lon="-7.969284">
        <ele>567.51</ele>
        <time>2013-06-08T11:55:14Z</time>
      </trkpt>
      <trkpt lat="41.990245" lon="-7.969248">
        <ele>567.86</ele>
        <time>2013-06-08T11:55:15Z</time>
      </trkpt>
      <trkpt lat="41.990691" lon="-7.968902">
        <ele>571.32</ele>
        <time>2013-06-08T11:55:27Z</time>
      </trkpt>
      <trkpt lat="41.990724" lon="-7.968869">
        <ele>571.55</ele>
        <time>2013-06-08T11:55:28Z</time>
      </trkpt>
      <trkpt lat="41.990759" lon="-7.968839">
        <ele>571.76</ele>
        <time>2013-06-08T11:55:29Z</time>
      </trkpt>
      <trkpt lat="41.991231" lon="-7.968474">
        <ele>576.81</ele>
        <time>2013-06-08T11:55:43Z</time>
      </trkpt>
      <trkpt lat="41.991501" lon="-7.968303">
        <ele>578.63</ele>
        <time>2013-06-08T11:55:50Z</time>
      </trkpt>
      <trkpt lat="41.992231" lon="-7.968024">
        <ele>581.39</ele>
        <time>2013-06-08T11:56:07Z</time>
      </trkpt>
      <trkpt lat="41.992904" lon="-7.967985">
        <ele>587.49</ele>
        <time>2013-06-08T11:56:22Z</time>
      </trkpt>
      <trkpt lat="41.993607" lon="-7.968153">
        <ele>590.36</ele>
        <time>2013-06-08T11:56:38Z</time>
      </trkpt>
      <trkpt lat="41.994226" lon="-7.968511">
        <ele>596.43</ele>
        <time>2013-06-08T11:56:53Z</time>
      </trkpt>
      <trkpt lat="41.994346" lon="-7.968591">
        <ele>597.81</ele>
        <time>2013-06-08T11:56:56Z</time>
      </trkpt>
      <trkpt lat="41.994951" lon="-7.969141">
        <ele>602.29</ele>
        <time>2013-06-08T11:57:12Z</time>
      </trkpt>
      <trkpt lat="41.995111" lon="-7.969261">
        <ele>602.33</ele>
        <time>2013-06-08T11:57:16Z</time>
      </trkpt>
      <trkpt lat="41.995154" lon="-7.969279">
        <ele>602.13</ele>
        <time>2013-06-08T11:57:17Z</time>
      </trkpt>
      <trkpt lat="41.995195" lon="-7.969296">
        <ele>602.03</ele>
        <time>2013-06-08T11:57:18Z</time>
      </trkpt>
      <trkpt lat="41.995277" lon="-7.969333">
        <ele>601.79</ele>
        <time>2013-06-08T11:57:20Z</time>
      </trkpt>
      <trkpt lat="41.995320" lon="-7.969345">
        <ele>601.55</ele>
        <time>2013-06-08T11:57:21Z</time>
      </trkpt>
      <trkpt lat="41.995363" lon="-7.969360">
        <ele>601.31</ele>
        <time>2013-06-08T11:57:22Z</time>
      </trkpt>
      <trkpt lat="41.995406" lon="-7.969379">
        <ele>601.24</ele>
        <time>2013-06-08T11:57:23Z</time>
      </trkpt>
      <trkpt lat="41.995450" lon="-7.969392">
        <ele>601.50</ele>
        <time>2013-06-08T11:57:24Z</time>
      </trkpt>
      <trkpt lat="41.995494" lon="-7.969403">
        <ele>602.02</ele>
        <time>2013-06-08T11:57:25Z</time>
      </trkpt>
      <trkpt lat="41.995630" lon="-7.969423">
        <ele>603.11</ele>
        <time>2013-06-08T11:57:28Z</time>
      </trkpt>
      <trkpt lat="41.995677" lon="-7.969424">
        <ele>603.46</ele>
        <time>2013-06-08T11:57:29Z</time>
      </trkpt>
      <trkpt lat="41.995939" lon="-7.969401">
        <ele>604.44</ele>
        <time>2013-06-08T11:57:35Z</time>
      </trkpt>
      <trkpt lat="41.996279" lon="-7.969259">
        <ele>604.05</ele>
        <time>2013-06-08T11:57:43Z</time>
      </trkpt>
      <trkpt lat="41.996399" lon="-7.969169">
        <ele>602.94</ele>
        <time>2013-06-08T11:57:46Z</time>
      </trkpt>
      <trkpt lat="41.996894" lon="-7.968537">
        <ele>595.80</ele>
        <time>2013-06-08T11:58:00Z</time>
      </trkpt>
      <trkpt lat="41.997045" lon="-7.968256">
        <ele>592.13</ele>
        <time>2013-06-08T11:58:05Z</time>
      </trkpt>
      <trkpt lat="41.997382" lon="-7.967729">
        <ele>593.27</ele>
        <time>2013-06-08T11:58:15Z</time>
      </trkpt>
      <trkpt lat="41.997425" lon="-7.967689">
        <ele>594.04</ele>
        <time>2013-06-08T11:58:16Z</time>
      </trkpt>
      <trkpt lat="41.997987" lon="-7.967446">
        <ele>602.92</ele>
        <time>2013-06-08T11:58:27Z</time>
      </trkpt>
      <trkpt lat="41.998852" lon="-7.967514">
        <ele>607.42</ele>
        <time>2013-06-08T11:58:42Z</time>
      </trkpt>
      <trkpt lat="41.999799" lon="-7.967377">
        <ele>607.61</ele>
        <time>2013-06-08T11:58:59Z</time>
      </trkpt>
      <trkpt lat="42.000566" lon="-7.967066">
        <ele>610.16</ele>
        <time>2013-06-08T11:59:14Z</time>
      </trkpt>
      <trkpt lat="42.000722" lon="-7.967020">
        <ele>609.45</ele>
        <time>2013-06-08T11:59:17Z</time>
      </trkpt>
      <trkpt lat="42.001107" lon="-7.967048">
        <ele>611.65</ele>
        <time>2013-06-08T11:59:24Z</time>
      </trkpt>
      <trkpt lat="42.001391" lon="-7.967180">
        <ele>613.11</ele>
        <time>2013-06-08T11:59:29Z</time>
      </trkpt>
      <trkpt lat="42.001666" lon="-7.967458">
        <ele>614.47</ele>
        <time>2013-06-08T11:59:35Z</time>
      </trkpt>
      <trkpt lat="42.001910" lon="-7.967924">
        <ele>617.90</ele>
        <time>2013-06-08T11:59:42Z</time>
      </trkpt>
      <trkpt lat="42.002293" lon="-7.968847">
        <ele>625.52</ele>
        <time>2013-06-08T11:59:54Z</time>
      </trkpt>
      <trkpt lat="42.002344" lon="-7.968914">
        <ele>625.44</ele>
        <time>2013-06-08T11:59:55Z</time>
      </trkpt>
      <trkpt lat="42.002575" lon="-7.969134">
        <ele>624.12</ele>
        <time>2013-06-08T11:59:59Z</time>
      </trkpt>
      <trkpt lat="42.003328" lon="-7.969410">
        <ele>617.52</ele>
        <time>2013-06-08T12:00:10Z</time>
      </trkpt>
      <trkpt lat="42.004172" lon="-7.969686">
        <ele>611.31</ele>
        <time>2013-06-08T12:00:23Z</time>
      </trkpt>
      <trkpt lat="42.004284" lon="-7.969763">
        <ele>610.79</ele>
        <time>2013-06-08T12:00:25Z</time>
      </trkpt>
      <trkpt lat="42.004393" lon="-7.969860">
        <ele>610.37</ele>
        <time>2013-06-08T12:00:27Z</time>
      </trkpt>
      <trkpt lat="42.004441" lon="-7.969916">
        <ele>610.30</ele>
        <time>2013-06-08T12:00:28Z</time>
      </trkpt>
      <trkpt lat="42.004821" lon="-7.970720">
        <ele>612.12</ele>
        <time>2013-06-08T12:00:39Z</time>
      </trkpt>
      <trkpt lat="42.005044" lon="-7.971917">
        <ele>620.66</ele>
        <time>2013-06-08T12:00:54Z</time>
      </trkpt>
      <trkpt lat="42.005543" lon="-7.973112">
        <ele>622.28</ele>
        <time>2013-06-08T12:01:12Z</time>
      </trkpt>
      <trkpt lat="42.006123" lon="-7.973817">
        <ele>625.00</ele>
        <time>2013-06-08T12:01:25Z</time>
      </trkpt>
      <trkpt lat="42.006904" lon="-7.974202">
        <ele>623.05</ele>
        <time>2013-06-08T12:01:38Z</time>
      </trkpt>
      <trkpt lat="42.007043" lon="-7.974213">
        <ele>620.60</ele>
        <time>2013-06-08T12:01:40Z</time>
      </trkpt>
      <trkpt lat="42.007111" lon="-7.974210">
        <ele>619.82</ele>
        <time>2013-06-08T12:01:41Z</time>
      </trkpt>
      <trkpt lat="42.007178" lon="-7.974203">
        <ele>619.51</ele>
        <time>2013-06-08T12:01:42Z</time>
      </trkpt>
      <trkpt lat="42.007247" lon="-7.974187">
        <ele>619.24</ele>
        <time>2013-06-08T12:01:43Z</time>
      </trkpt>
      <trkpt lat="42.007315" lon="-7.974166">
        <ele>618.71</ele>
        <time>2013-06-08T12:01:44Z</time>
      </trkpt>
      <trkpt lat="42.008016" lon="-7.973610">
        <ele>613.29</ele>
        <time>2013-06-08T12:01:56Z</time>
      </trkpt>
      <trkpt lat="42.008725" lon="-7.972900">
        <ele>611.16</ele>
        <time>2013-06-08T12:02:11Z</time>
      </trkpt>
      <trkpt lat="42.009154" lon="-7.972565">
        <ele>619.77</ele>
        <time>2013-06-08T12:02:22Z</time>
      </trkpt>
      <trkpt lat="42.009275" lon="-7.972494">
        <ele>621.39</ele>
        <time>2013-06-08T12:02:25Z</time>
      </trkpt>
      <trkpt lat="42.009317" lon="-7.972476">
        <ele>621.73</ele>
        <time>2013-06-08T12:02:26Z</time>
      </trkpt>
      <trkpt lat="42.009359" lon="-7.972458">
        <ele>622.13</ele>
        <time>2013-06-08T12:02:27Z</time>
      </trkpt>
      <trkpt lat="42.009398" lon="-7.972443">
        <ele>622.49</ele>
        <time>2013-06-08T12:02:28Z</time>
      </trkpt>
      <trkpt lat="42.009438" lon="-7.972429">
        <ele>622.81</ele>
        <time>2013-06-08T12:02:29Z</time>
      </trkpt>
      <trkpt lat="42.009884" lon="-7.972299">
        <ele>624.71</ele>
        <time>2013-06-08T12:02:40Z</time>
      </trkpt>
      <trkpt lat="42.010513" lon="-7.972328">
        <ele>624.97</ele>
        <time>2013-06-08T12:02:55Z</time>
      </trkpt>
      <trkpt lat="42.010726" lon="-7.972383">
        <ele>625.28</ele>
        <time>2013-06-08T12:03:00Z</time>
      </trkpt>
      <trkpt lat="42.010768" lon="-7.972395">
        <ele>625.34</ele>
        <time>2013-06-08T12:03:01Z</time>
      </trkpt>
      <trkpt lat="42.011386" lon="-7.972692">
        <ele>625.45</ele>
        <time>2013-06-08T12:03:17Z</time>
      </trkpt>
      <trkpt lat="42.011768" lon="-7.972988">
        <ele>625.78</ele>
        <time>2013-06-08T12:03:30Z</time>
      </trkpt>
      <trkpt lat="42.012139" lon="-7.973380">
        <ele>625.69</ele>
        <time>2013-06-08T12:03:44Z</time>
      </trkpt>
      <trkpt lat="42.012525" lon="-7.973775">
        <ele>627.99</ele>
        <time>2013-06-08T12:03:58Z</time>
      </trkpt>
      <trkpt lat="42.012935" lon="-7.974123">
        <ele>630.07</ele>
        <time>2013-06-08T12:04:12Z</time>
      </trkpt>
      <trkpt lat="42.013367" lon="-7.974305">
        <ele>633.21</ele>
        <time>2013-06-08T12:04:26Z</time>
      </trkpt>
      <trkpt lat="42.013744" lon="-7.974309">
        <ele>636.91</ele>
        <time>2013-06-08T12:04:38Z</time>
      </trkpt>
      <trkpt lat="42.014218" lon="-7.974189">
        <ele>641.51</ele>
        <time>2013-06-08T12:04:53Z</time>
      </trkpt>
      <trkpt lat="42.014593" lon="-7.973932">
        <ele>647.46</ele>
        <time>2013-06-08T12:05:06Z</time>
      </trkpt>
      <trkpt lat="42.015045" lon="-7.973323">
        <ele>654.73</ele>
        <time>2013-06-08T12:05:23Z</time>
      </trkpt>
      <trkpt lat="42.015440" lon="-7.972748">
        <ele>656.93</ele>
        <time>2013-06-08T12:05:38Z</time>
      </trkpt>
      <trkpt lat="42.015870" lon="-7.972185">
        <ele>659.77</ele>
        <time>2013-06-08T12:05:54Z</time>
      </trkpt>
      <trkpt lat="42.016301" lon="-7.971708">
        <ele>660.52</ele>
        <time>2013-06-08T12:06:09Z</time>
      </trkpt>
      <trkpt lat="42.016648" lon="-7.971346">
        <ele>662.14</ele>
        <time>2013-06-08T12:06:21Z</time>
      </trkpt>
      <trkpt lat="42.017069" lon="-7.970963">
        <ele>664.68</ele>
        <time>2013-06-08T12:06:35Z</time>
      </trkpt>
      <trkpt lat="42.017464" lon="-7.970524">
        <ele>667.78</ele>
        <time>2013-06-08T12:06:49Z</time>
      </trkpt>
      <trkpt lat="42.017719" lon="-7.970274">
        <ele>668.30</ele>
        <time>2013-06-08T12:07:00Z</time>
      </trkpt>
      <trkpt lat="42.017762" lon="-7.970064">
        <ele>671.13</ele>
        <time>2013-06-08T12:07:06Z</time>
      </trkpt>
      <trkpt lat="42.017776" lon="-7.970036">
        <ele>671.41</ele>
        <time>2013-06-08T12:07:07Z</time>
      </trkpt>
      <trkpt lat="42.017796" lon="-7.970027">
        <ele>671.36</ele>
        <time>2013-06-08T12:07:08Z</time>
      </trkpt>
      <trkpt lat="42.017821" lon="-7.970034">
        <ele>671.03</ele>
        <time>2013-06-08T12:07:09Z</time>
      </trkpt>
      <trkpt lat="42.017846" lon="-7.970043">
        <ele>670.61</ele>
        <time>2013-06-08T12:07:10Z</time>
      </trkpt>
      <trkpt lat="42.017878" lon="-7.970046">
        <ele>670.26</ele>
        <time>2013-06-08T12:07:11Z</time>
      </trkpt>
      <trkpt lat="42.017909" lon="-7.970035">
        <ele>670.09</ele>
        <time>2013-06-08T12:07:12Z</time>
      </trkpt>
      <trkpt lat="42.017939" lon="-7.970017">
        <ele>670.12</ele>
        <time>2013-06-08T12:07:13Z</time>
      </trkpt>
      <trkpt lat="42.017966" lon="-7.969992">
        <ele>670.47</ele>
        <time>2013-06-08T12:07:14Z</time>
      </trkpt>
      <trkpt lat="42.017993" lon="-7.969966">
        <ele>670.67</ele>
        <time>2013-06-08T12:07:15Z</time>
      </trkpt>
      <trkpt lat="42.018373" lon="-7.969572">
        <ele>672.88</ele>
        <time>2013-06-08T12:07:29Z</time>
      </trkpt>
      <trkpt lat="42.018823" lon="-7.969210">
        <ele>675.22</ele>
        <time>2013-06-08T12:07:45Z</time>
      </trkpt>
      <trkpt lat="42.019267" lon="-7.969052">
        <ele>676.61</ele>
        <time>2013-06-08T12:07:59Z</time>
      </trkpt>
      <trkpt lat="42.019649" lon="-7.969058">
        <ele>676.38</ele>
        <time>2013-06-08T12:08:13Z</time>
      </trkpt>
      <trkpt lat="42.019998" lon="-7.969103">
        <ele>678.88</ele>
        <time>2013-06-08T12:08:26Z</time>
      </trkpt>
      <trkpt lat="42.020480" lon="-7.969227">
        <ele>681.22</ele>
        <time>2013-06-08T12:08:41Z</time>
      </trkpt>
      <trkpt lat="42.020875" lon="-7.969325">
        <ele>682.51</ele>
        <time>2013-06-08T12:08:53Z</time>
      </trkpt>
      <trkpt lat="42.021396" lon="-7.969448">
        <ele>684.37</ele>
        <time>2013-06-08T12:09:08Z</time>
      </trkpt>
      <trkpt lat="42.021829" lon="-7.969560">
        <ele>686.91</ele>
        <time>2013-06-08T12:09:21Z</time>
      </trkpt>
      <trkpt lat="42.022176" lon="-7.969658">
        <ele>689.88</ele>
        <time>2013-06-08T12:09:33Z</time>
      </trkpt>
      <trkpt lat="42.022606" lon="-7.969732">
        <ele>692.64</ele>
        <time>2013-06-08T12:09:46Z</time>
      </trkpt>
      <trkpt lat="42.023147" lon="-7.969858">
        <ele>696.37</ele>
        <time>2013-06-08T12:10:02Z</time>
      </trkpt>
      <trkpt lat="42.023590" lon="-7.969953">
        <ele>699.52</ele>
        <time>2013-06-08T12:10:16Z</time>
      </trkpt>
      <trkpt lat="42.024116" lon="-7.969993">
        <ele>704.01</ele>
        <time>2013-06-08T12:10:32Z</time>
      </trkpt>
      <trkpt lat="42.024613" lon="-7.969838">
        <ele>708.98</ele>
        <time>2013-06-08T12:10:47Z</time>
      </trkpt>
      <trkpt lat="42.025242" lon="-7.969545">
        <ele>713.95</ele>
        <time>2013-06-08T12:11:05Z</time>
      </trkpt>
      <trkpt lat="42.025562" lon="-7.969391">
        <ele>715.86</ele>
        <time>2013-06-08T12:11:14Z</time>
      </trkpt>
      <trkpt lat="42.026252" lon="-7.969089">
        <ele>715.89</ele>
        <time>2013-06-08T12:11:28Z</time>
      </trkpt>
      <trkpt lat="42.026500" lon="-7.969041">
        <ele>714.08</ele>
        <time>2013-06-08T12:11:33Z</time>
      </trkpt>
      <trkpt lat="42.027283" lon="-7.969173">
        <ele>710.30</ele>
        <time>2013-06-08T12:11:48Z</time>
      </trkpt>
      <trkpt lat="42.027411" lon="-7.969169">
        <ele>710.42</ele>
        <time>2013-06-08T12:11:52Z</time>
      </trkpt>
      <trkpt lat="42.027436" lon="-7.969199">
        <ele>710.31</ele>
        <time>2013-06-08T12:11:53Z</time>
      </trkpt>
      <trkpt lat="42.027840" lon="-7.969595">
        <ele>708.23</ele>
        <time>2013-06-08T12:12:05Z</time>
      </trkpt>
      <trkpt lat="42.027933" lon="-7.969702">
        <ele>707.71</ele>
        <time>2013-06-08T12:12:08Z</time>
      </trkpt>
      <trkpt lat="42.028082" lon="-7.969891">
        <ele>707.81</ele>
        <time>2013-06-08T12:12:13Z</time>
      </trkpt>
      <trkpt lat="42.028217" lon="-7.970064">
        <ele>708.17</ele>
        <time>2013-06-08T12:12:17Z</time>
      </trkpt>
      <trkpt lat="42.028252" lon="-7.970111">
        <ele>708.30</ele>
        <time>2013-06-08T12:12:18Z</time>
      </trkpt>
      <trkpt lat="42.028816" lon="-7.970945">
        <ele>707.33</ele>
        <time>2013-06-08T12:12:34Z</time>
      </trkpt>
      <trkpt lat="42.029070" lon="-7.971382">
        <ele>706.69</ele>
        <time>2013-06-08T12:12:42Z</time>
      </trkpt>
      <trkpt lat="42.029146" lon="-7.971563">
        <ele>706.49</ele>
        <time>2013-06-08T12:12:45Z</time>
      </trkpt>
      <trkpt lat="42.029393" lon="-7.972668">
        <ele>707.00</ele>
        <time>2013-06-08T12:13:02Z</time>
      </trkpt>
      <trkpt lat="42.029438" lon="-7.972835">
        <ele>707.76</ele>
        <time>2013-06-08T12:13:05Z</time>
      </trkpt>
      <trkpt lat="42.029713" lon="-7.973507">
        <ele>710.79</ele>
        <time>2013-06-08T12:13:19Z</time>
      </trkpt>
      <trkpt lat="42.030040" lon="-7.974002">
        <ele>715.17</ele>
        <time>2013-06-08T12:13:32Z</time>
      </trkpt>
      <trkpt lat="42.030422" lon="-7.974586">
        <ele>720.12</ele>
        <time>2013-06-08T12:13:47Z</time>
      </trkpt>
      <trkpt lat="42.030835" lon="-7.975111">
        <ele>725.61</ele>
        <time>2013-06-08T12:14:02Z</time>
      </trkpt>
      <trkpt lat="42.031139" lon="-7.975245">
        <ele>727.52</ele>
        <time>2013-06-08T12:14:13Z</time>
      </trkpt>
      <trkpt lat="42.031391" lon="-7.975178">
        <ele>728.25</ele>
        <time>2013-06-08T12:14:24Z</time>
      </trkpt>
      <trkpt lat="42.031406" lon="-7.975164">
        <ele>728.39</ele>
        <time>2013-06-08T12:14:25Z</time>
      </trkpt>
      <trkpt lat="42.031426" lon="-7.975163">
        <ele>728.36</ele>
        <time>2013-06-08T12:14:26Z</time>
      </trkpt>
      <trkpt lat="42.031442" lon="-7.975171">
        <ele>728.31</ele>
        <time>2013-06-08T12:14:27Z</time>
      </trkpt>
      <trkpt lat="42.031454" lon="-7.975180">
        <ele>728.35</ele>
        <time>2013-06-08T12:14:28Z</time>
      </trkpt>
      <trkpt lat="42.031468" lon="-7.975194">
        <ele>728.33</ele>
        <time>2013-06-08T12:14:29Z</time>
      </trkpt>
      <trkpt lat="42.031486" lon="-7.975206">
        <ele>728.45</ele>
        <time>2013-06-08T12:14:30Z</time>
      </trkpt>
      <trkpt lat="42.031506" lon="-7.975205">
        <ele>728.45</ele>
        <time>2013-06-08T12:14:31Z</time>
      </trkpt>
      <trkpt lat="42.031527" lon="-7.975191">
        <ele>728.51</ele>
        <time>2013-06-08T12:14:32Z</time>
      </trkpt>
      <trkpt lat="42.031543" lon="-7.975175">
        <ele>728.51</ele>
        <time>2013-06-08T12:14:33Z</time>
      </trkpt>
      <trkpt lat="42.031557" lon="-7.975160">
        <ele>728.64</ele>
        <time>2013-06-08T12:14:34Z</time>
      </trkpt>
      <trkpt lat="42.031571" lon="-7.975147">
        <ele>728.66</ele>
        <time>2013-06-08T12:14:35Z</time>
      </trkpt>
      <trkpt lat="42.031584" lon="-7.975134">
        <ele>728.77</ele>
        <time>2013-06-08T12:14:36Z</time>
      </trkpt>
      <trkpt lat="42.031597" lon="-7.975123">
        <ele>728.71</ele>
        <time>2013-06-08T12:14:37Z</time>
      </trkpt>
      <trkpt lat="42.031610" lon="-7.975114">
        <ele>728.86</ele>
        <time>2013-06-08T12:14:38Z</time>
      </trkpt>
      <trkpt lat="42.031622" lon="-7.975102">
        <ele>728.84</ele>
        <time>2013-06-08T12:14:39Z</time>
      </trkpt>
      <trkpt lat="42.031645" lon="-7.975039">
        <ele>729.19</ele>
        <time>2013-06-08T12:14:43Z</time>
      </trkpt>
      <trkpt lat="42.031660" lon="-7.975035">
        <ele>729.13</ele>
        <time>2013-06-08T12:14:44Z</time>
      </trkpt>
      <trkpt lat="42.031675" lon="-7.975036">
        <ele>729.23</ele>
        <time>2013-06-08T12:14:45Z</time>
      </trkpt>
      <trkpt lat="42.031694" lon="-7.975042">
        <ele>729.21</ele>
        <time>2013-06-08T12:14:46Z</time>
      </trkpt>
      <trkpt lat="42.031709" lon="-7.975047">
        <ele>729.21</ele>
        <time>2013-06-08T12:14:47Z</time>
      </trkpt>
      <trkpt lat="42.031725" lon="-7.975039">
        <ele>729.33</ele>
        <time>2013-06-08T12:14:49Z</time>
      </trkpt>
      <trkpt lat="42.031726" lon="-7.975018">
        <ele>729.43</ele>
        <time>2013-06-08T12:14:50Z</time>
      </trkpt>
      <trkpt lat="42.031727" lon="-7.975002">
        <ele>729.49</ele>
        <time>2013-06-08T12:14:51Z</time>
      </trkpt>
      <trkpt lat="42.031738" lon="-7.974975">
        <ele>729.62</ele>
        <time>2013-06-08T12:14:53Z</time>
      </trkpt>
      <trkpt lat="42.031748" lon="-7.974947">
        <ele>729.80</ele>
        <time>2013-06-08T12:15:10Z</time>
      </trkpt>
      <trkpt lat="42.031778" lon="-7.974832">
        <ele>730.23</ele>
        <time>2013-06-08T12:15:23Z</time>
      </trkpt>
      <trkpt lat="42.031776" lon="-7.974723">
        <ele>730.67</ele>
        <time>2013-06-08T12:15:36Z</time>
      </trkpt>
      <trkpt lat="42.031756" lon="-7.974686">
        <ele>730.79</ele>
        <time>2013-06-08T12:15:49Z</time>
      </trkpt>
      <trkpt lat="42.031755" lon="-7.974684">
        <ele>730.77</ele>
        <time>2013-06-08T12:15:53Z</time>
      </trkpt>
      <trkpt lat="42.032010" lon="-7.974406">
        <ele>734.02</ele>
        <time>2013-06-08T12:41:08Z</time>
      </trkpt>
      <trkpt lat="42.031689" lon="-7.974644">
        <ele>730.41</ele>
        <time>2013-06-08T12:41:23Z</time>
      </trkpt>
      <trkpt lat="42.031631" lon="-7.974601">
        <ele>730.28</ele>
        <time>2013-06-08T12:41:44Z</time>
      </trkpt>
      <trkpt lat="42.031643" lon="-7.974476">
        <ele>730.96</ele>
        <time>2013-06-08T12:42:06Z</time>
      </trkpt>
      <trkpt lat="42.031516" lon="-7.974617">
        <ele>729.53</ele>
        <time>2013-06-08T12:42:28Z</time>
      </trkpt>
      <trkpt lat="42.031461" lon="-7.974692">
        <ele>729.13</ele>
        <time>2013-06-08T12:42:54Z</time>
      </trkpt>
      <trkpt lat="42.031509" lon="-7.974706">
        <ele>729.37</ele>
        <time>2013-06-08T12:43:19Z</time>
      </trkpt>
      <trkpt lat="42.031585" lon="-7.974630">
        <ele>729.98</ele>
        <time>2013-06-08T12:43:48Z</time>
      </trkpt>
      <trkpt lat="42.031607" lon="-7.974525">
        <ele>730.41</ele>
        <time>2013-06-08T12:43:57Z</time>
      </trkpt>
      <trkpt lat="42.031695" lon="-7.974532">
        <ele>731.09</ele>
        <time>2013-06-08T12:44:21Z</time>
      </trkpt>
      <trkpt lat="42.031633" lon="-7.974601">
        <ele>730.24</ele>
        <time>2013-06-08T12:44:41Z</time>
      </trkpt>
      <trkpt lat="42.031684" lon="-7.974674">
        <ele>730.33</ele>
        <time>2013-06-08T12:48:45Z</time>
      </trkpt>
      <trkpt lat="42.031711" lon="-7.974722">
        <ele>730.31</ele>
        <time>2013-06-08T12:48:54Z</time>
      </trkpt>
      <trkpt lat="42.031839" lon="-7.974510">
        <ele>732.08</ele>
        <time>2013-06-08T13:37:58Z</time>
      </trkpt>
      <trkpt lat="42.031745" lon="-7.974724">
        <ele>730.59</ele>
        <time>2013-06-08T13:38:19Z</time>
      </trkpt>
      <trkpt lat="42.031763" lon="-7.974660">
        <ele>730.86</ele>
        <time>2013-06-08T13:38:31Z</time>
      </trkpt>
      <trkpt lat="42.031626" lon="-7.974489">
        <ele>730.73</ele>
        <time>2013-06-08T13:38:44Z</time>
      </trkpt>
      <trkpt lat="42.031498" lon="-7.974458">
        <ele>730.08</ele>
        <time>2013-06-08T13:38:54Z</time>
      </trkpt>
      <trkpt lat="42.031429" lon="-7.974488">
        <ele>729.41</ele>
        <time>2013-06-08T13:39:06Z</time>
      </trkpt>
      <trkpt lat="42.031394" lon="-7.974513">
        <ele>729.11</ele>
        <time>2013-06-08T13:39:24Z</time>
      </trkpt>
      <trkpt lat="42.031429" lon="-7.974604">
        <ele>729.04</ele>
        <time>2013-06-08T13:39:35Z</time>
      </trkpt>
      <trkpt lat="42.031465" lon="-7.974654">
        <ele>729.20</ele>
        <time>2013-06-08T13:39:39Z</time>
      </trkpt>
      <trkpt lat="42.031702" lon="-7.974955">
        <ele>729.52</ele>
        <time>2013-06-08T13:39:50Z</time>
      </trkpt>
      <trkpt lat="42.031848" lon="-7.975140">
        <ele>729.21</ele>
        <time>2013-06-08T13:40:01Z</time>
      </trkpt>
      <trkpt lat="42.031863" lon="-7.975173">
        <ele>729.20</ele>
        <time>2013-06-08T13:40:03Z</time>
      </trkpt>
      <trkpt lat="42.031995" lon="-7.975203">
        <ele>729.18</ele>
        <time>2013-06-08T13:40:14Z</time>
      </trkpt>
      <trkpt lat="42.032036" lon="-7.975202">
        <ele>729.26</ele>
        <time>2013-06-08T13:40:36Z</time>
      </trkpt>
      <trkpt lat="42.031981" lon="-7.975230">
        <ele>729.03</ele>
        <time>2013-06-08T13:40:55Z</time>
      </trkpt>
      <trkpt lat="42.031972" lon="-7.975235">
        <ele>728.99</ele>
        <time>2013-06-08T13:41:09Z</time>
      </trkpt>
      <trkpt lat="42.031962" lon="-7.975244">
        <ele>728.99</ele>
        <time>2013-06-08T13:41:21Z</time>
      </trkpt>
      <trkpt lat="42.031995" lon="-7.975237">
        <ele>729.06</ele>
        <time>2013-06-08T13:41:27Z</time>
      </trkpt>
      <trkpt lat="42.031973" lon="-7.975274">
        <ele>728.76</ele>
        <time>2013-06-08T13:41:41Z</time>
      </trkpt>
      <trkpt lat="42.031969" lon="-7.975241">
        <ele>728.94</ele>
        <time>2013-06-08T13:41:57Z</time>
      </trkpt>
      <trkpt lat="42.031961" lon="-7.975203">
        <ele>729.12</ele>
        <time>2013-06-08T13:42:24Z</time>
      </trkpt>
      <trkpt lat="42.031896" lon="-7.975230">
        <ele>728.91</ele>
        <time>2013-06-08T13:42:39Z</time>
      </trkpt>
      <trkpt lat="42.031884" lon="-7.975184">
        <ele>729.13</ele>
        <time>2013-06-08T13:43:06Z</time>
      </trkpt>
      <trkpt lat="42.031988" lon="-7.975196">
        <ele>729.25</ele>
        <time>2013-06-08T13:43:44Z</time>
      </trkpt>
      <trkpt lat="42.031996" lon="-7.975201">
        <ele>729.23</ele>
        <time>2013-06-08T13:44:25Z</time>
      </trkpt>
      <trkpt lat="42.031985" lon="-7.975183">
        <ele>729.26</ele>
        <time>2013-06-08T13:45:03Z</time>
      </trkpt>
      <trkpt lat="42.031992" lon="-7.975175">
        <ele>729.35</ele>
        <time>2013-06-08T13:45:34Z</time>
      </trkpt>
      <trkpt lat="42.031991" lon="-7.975180">
        <ele>729.34</ele>
        <time>2013-06-08T13:46:05Z</time>
      </trkpt>
      <trkpt lat="42.032004" lon="-7.975175">
        <ele>729.36</ele>
        <time>2013-06-08T13:46:40Z</time>
      </trkpt>
      <trkpt lat="42.032014" lon="-7.975169">
        <ele>729.41</ele>
        <time>2013-06-08T13:47:16Z</time>
      </trkpt>
      <trkpt lat="42.032018" lon="-7.975161">
        <ele>729.42</ele>
        <time>2013-06-08T13:47:52Z</time>
      </trkpt>
      <trkpt lat="42.032013" lon="-7.975154">
        <ele>729.40</ele>
        <time>2013-06-08T13:48:23Z</time>
      </trkpt>
      <trkpt lat="42.032010" lon="-7.975157">
        <ele>729.41</ele>
        <time>2013-06-08T13:49:00Z</time>
      </trkpt>
      <trkpt lat="42.032000" lon="-7.975154">
        <ele>729.47</ele>
        <time>2013-06-08T13:49:37Z</time>
      </trkpt>
      <trkpt lat="42.031983" lon="-7.975177">
        <ele>729.36</ele>
        <time>2013-06-08T13:50:03Z</time>
      </trkpt>
      <trkpt lat="42.032002" lon="-7.975165">
        <ele>729.46</ele>
        <time>2013-06-08T13:50:14Z</time>
      </trkpt>
      <trkpt lat="42.031983" lon="-7.975134">
        <ele>729.54</ele>
        <time>2013-06-08T13:50:17Z</time>
      </trkpt>
      <trkpt lat="42.031935" lon="-7.975107">
        <ele>729.52</ele>
        <time>2013-06-08T13:50:31Z</time>
      </trkpt>
      <trkpt lat="42.031916" lon="-7.975106">
        <ele>729.60</ele>
        <time>2013-06-08T13:50:38Z</time>
      </trkpt>
      <trkpt lat="42.031871" lon="-7.975029">
        <ele>729.76</ele>
        <time>2013-06-08T13:50:44Z</time>
      </trkpt>
      <trkpt lat="42.031882" lon="-7.974989">
        <ele>729.98</ele>
        <time>2013-06-08T13:50:47Z</time>
      </trkpt>
      <trkpt lat="42.032150" lon="-7.974918">
        <ele>731.03</ele>
        <time>2013-06-08T13:50:59Z</time>
      </trkpt>
      <trkpt lat="42.032495" lon="-7.974832">
        <ele>731.63</ele>
        <time>2013-06-08T13:51:11Z</time>
      </trkpt>
      <trkpt lat="42.032846" lon="-7.974699">
        <ele>732.81</ele>
        <time>2013-06-08T13:51:23Z</time>
      </trkpt>
      <trkpt lat="42.033184" lon="-7.974554">
        <ele>733.13</ele>
        <time>2013-06-08T13:51:36Z</time>
      </trkpt>
      <trkpt lat="42.033473" lon="-7.974346">
        <ele>734.68</ele>
        <time>2013-06-08T13:51:47Z</time>
      </trkpt>
      <trkpt lat="42.033794" lon="-7.973958">
        <ele>737.79</ele>
        <time>2013-06-08T13:52:02Z</time>
      </trkpt>
      <trkpt lat="42.034082" lon="-7.973526">
        <ele>739.91</ele>
        <time>2013-06-08T13:52:17Z</time>
      </trkpt>
      <trkpt lat="42.034262" lon="-7.973045">
        <ele>744.22</ele>
        <time>2013-06-08T13:52:31Z</time>
      </trkpt>
      <trkpt lat="42.034559" lon="-7.972729">
        <ele>742.94</ele>
        <time>2013-06-08T13:52:46Z</time>
      </trkpt>
      <trkpt lat="42.034856" lon="-7.972493">
        <ele>744.75</ele>
        <time>2013-06-08T13:53:02Z</time>
      </trkpt>
      <trkpt lat="42.035228" lon="-7.972069">
        <ele>748.15</ele>
        <time>2013-06-08T13:53:18Z</time>
      </trkpt>
      <trkpt lat="42.035510" lon="-7.971618">
        <ele>751.96</ele>
        <time>2013-06-08T13:53:33Z</time>
      </trkpt>
      <trkpt lat="42.035747" lon="-7.971208">
        <ele>753.92</ele>
        <time>2013-06-08T13:53:44Z</time>
      </trkpt>
      <trkpt lat="42.036139" lon="-7.970684">
        <ele>753.21</ele>
        <time>2013-06-08T13:53:59Z</time>
      </trkpt>
      <trkpt lat="42.036689" lon="-7.970228">
        <ele>751.92</ele>
        <time>2013-06-08T13:54:15Z</time>
      </trkpt>
      <trkpt lat="42.036723" lon="-7.970205">
        <ele>752.05</ele>
        <time>2013-06-08T13:54:16Z</time>
      </trkpt>
      <trkpt lat="42.037282" lon="-7.969793">
        <ele>754.64</ele>
        <time>2013-06-08T13:54:33Z</time>
      </trkpt>
      <trkpt lat="42.037559" lon="-7.969504">
        <ele>756.42</ele>
        <time>2013-06-08T13:54:44Z</time>
      </trkpt>
      <trkpt lat="42.037970" lon="-7.969053">
        <ele>761.26</ele>
        <time>2013-06-08T13:54:59Z</time>
      </trkpt>
      <trkpt lat="42.038424" lon="-7.968684">
        <ele>763.10</ele>
        <time>2013-06-08T13:55:15Z</time>
      </trkpt>
      <trkpt lat="42.038551" lon="-7.968589">
        <ele>763.19</ele>
        <time>2013-06-08T13:55:25Z</time>
      </trkpt>
      <trkpt lat="42.038554" lon="-7.968584">
        <ele>763.12</ele>
        <time>2013-06-08T13:55:37Z</time>
      </trkpt>
      <trkpt lat="42.038548" lon="-7.968601">
        <ele>763.06</ele>
        <time>2013-06-08T13:56:08Z</time>
      </trkpt>
      <trkpt lat="42.038551" lon="-7.968599">
        <ele>763.01</ele>
        <time>2013-06-08T13:56:27Z</time>
      </trkpt>
      <trkpt lat="42.038557" lon="-7.968597">
        <ele>762.91</ele>
        <time>2013-06-08T13:56:40Z</time>
      </trkpt>
      <trkpt lat="42.038570" lon="-7.968592">
        <ele>762.97</ele>
        <time>2013-06-08T13:56:41Z</time>
      </trkpt>
      <trkpt lat="42.038887" lon="-7.968381">
        <ele>764.20</ele>
        <time>2013-06-08T13:56:53Z</time>
      </trkpt>
      <trkpt lat="42.039389" lon="-7.968095">
        <ele>767.59</ele>
        <time>2013-06-08T13:57:10Z</time>
      </trkpt>
      <trkpt lat="42.039831" lon="-7.967750">
        <ele>770.67</ele>
        <time>2013-06-08T13:57:24Z</time>
      </trkpt>
      <trkpt lat="42.040214" lon="-7.967356">
        <ele>774.10</ele>
        <time>2013-06-08T13:57:36Z</time>
      </trkpt>
      <trkpt lat="42.040621" lon="-7.966894">
        <ele>777.85</ele>
        <time>2013-06-08T13:57:50Z</time>
      </trkpt>
      <trkpt lat="42.041103" lon="-7.966763">
        <ele>773.92</ele>
        <time>2013-06-08T13:58:03Z</time>
      </trkpt>
      <trkpt lat="42.041378" lon="-7.966854">
        <ele>771.57</ele>
        <time>2013-06-08T13:58:15Z</time>
      </trkpt>
      <trkpt lat="42.041684" lon="-7.967037">
        <ele>770.48</ele>
        <time>2013-06-08T13:58:28Z</time>
      </trkpt>
      <trkpt lat="42.042074" lon="-7.967260">
        <ele>770.22</ele>
        <time>2013-06-08T13:58:40Z</time>
      </trkpt>
      <trkpt lat="42.042324" lon="-7.967394">
        <ele>771.51</ele>
        <time>2013-06-08T13:58:47Z</time>
      </trkpt>
      <trkpt lat="42.042364" lon="-7.967418">
        <ele>771.75</ele>
        <time>2013-06-08T13:58:48Z</time>
      </trkpt>
      <trkpt lat="42.043075" lon="-7.967761">
        <ele>774.46</ele>
        <time>2013-06-08T13:59:05Z</time>
      </trkpt>
      <trkpt lat="42.043642" lon="-7.967902">
        <ele>774.88</ele>
        <time>2013-06-08T13:59:19Z</time>
      </trkpt>
      <trkpt lat="42.044339" lon="-7.967886">
        <ele>779.19</ele>
        <time>2013-06-08T13:59:36Z</time>
      </trkpt>
      <trkpt lat="42.044955" lon="-7.967711">
        <ele>783.74</ele>
        <time>2013-06-08T13:59:50Z</time>
      </trkpt>
      <trkpt lat="42.045851" lon="-7.967358">
        <ele>785.98</ele>
        <time>2013-06-08T14:00:08Z</time>
      </trkpt>
      <trkpt lat="42.046659" lon="-7.967036">
        <ele>783.47</ele>
        <time>2013-06-08T14:00:24Z</time>
      </trkpt>
      <trkpt lat="42.047339" lon="-7.966765">
        <ele>784.05</ele>
        <time>2013-06-08T14:00:37Z</time>
      </trkpt>
      <trkpt lat="42.048479" lon="-7.966266">
        <ele>788.50</ele>
        <time>2013-06-08T14:00:58Z</time>
      </trkpt>
      <trkpt lat="42.049502" lon="-7.965737">
        <ele>791.91</ele>
        <time>2013-06-08T14:01:16Z</time>
      </trkpt>
      <trkpt lat="42.050332" lon="-7.965429">
        <ele>788.51</ele>
        <time>2013-06-08T14:01:30Z</time>
      </trkpt>
      <trkpt lat="42.050752" lon="-7.965409">
        <ele>788.12</ele>
        <time>2013-06-08T14:01:37Z</time>
      </trkpt>
      <trkpt lat="42.050811" lon="-7.965411">
        <ele>788.12</ele>
        <time>2013-06-08T14:01:38Z</time>
      </trkpt>
      <trkpt lat="42.051211" lon="-7.965391">
        <ele>788.27</ele>
        <time>2013-06-08T14:01:45Z</time>
      </trkpt>
      <trkpt lat="42.051786" lon="-7.965345">
        <ele>791.98</ele>
        <time>2013-06-08T14:01:57Z</time>
      </trkpt>
      <trkpt lat="42.052382" lon="-7.965304">
        <ele>794.97</ele>
        <time>2013-06-08T14:02:11Z</time>
      </trkpt>
      <trkpt lat="42.052892" lon="-7.965271">
        <ele>796.36</ele>
        <time>2013-06-08T14:02:25Z</time>
      </trkpt>
      <trkpt lat="42.053301" lon="-7.965379">
        <ele>798.17</ele>
        <time>2013-06-08T14:02:37Z</time>
      </trkpt>
      <trkpt lat="42.053770" lon="-7.965773">
        <ele>800.47</ele>
        <time>2013-06-08T14:02:52Z</time>
      </trkpt>
      <trkpt lat="42.054249" lon="-7.966270">
        <ele>803.80</ele>
        <time>2013-06-08T14:03:08Z</time>
      </trkpt>
      <trkpt lat="42.054765" lon="-7.966799">
        <ele>808.62</ele>
        <time>2013-06-08T14:03:25Z</time>
      </trkpt>
      <trkpt lat="42.055183" lon="-7.967195">
        <ele>812.91</ele>
        <time>2013-06-08T14:03:39Z</time>
      </trkpt>
      <trkpt lat="42.055624" lon="-7.967531">
        <ele>816.69</ele>
        <time>2013-06-08T14:03:53Z</time>
      </trkpt>
      <trkpt lat="42.056103" lon="-7.967786">
        <ele>820.36</ele>
        <time>2013-06-08T14:04:08Z</time>
      </trkpt>
      <trkpt lat="42.056610" lon="-7.967994">
        <ele>822.94</ele>
        <time>2013-06-08T14:04:23Z</time>
      </trkpt>
      <trkpt lat="42.057189" lon="-7.968104">
        <ele>825.62</ele>
        <time>2013-06-08T14:04:39Z</time>
      </trkpt>
      <trkpt lat="42.057810" lon="-7.968111">
        <ele>829.33</ele>
        <time>2013-06-08T14:04:55Z</time>
      </trkpt>
      <trkpt lat="42.058395" lon="-7.968035">
        <ele>834.93</ele>
        <time>2013-06-08T14:05:10Z</time>
      </trkpt>
      <trkpt lat="42.058927" lon="-7.967944">
        <ele>839.43</ele>
        <time>2013-06-08T14:05:24Z</time>
      </trkpt>
      <trkpt lat="42.059602" lon="-7.967824">
        <ele>841.96</ele>
        <time>2013-06-08T14:05:41Z</time>
      </trkpt>
      <trkpt lat="42.060120" lon="-7.967731">
        <ele>839.54</ele>
        <time>2013-06-08T14:05:56Z</time>
      </trkpt>
      <trkpt lat="42.060779" lon="-7.967611">
        <ele>838.72</ele>
        <time>2013-06-08T14:06:12Z</time>
      </trkpt>
      <trkpt lat="42.061331" lon="-7.967507">
        <ele>839.31</ele>
        <time>2013-06-08T14:06:25Z</time>
      </trkpt>
      <trkpt lat="42.061840" lon="-7.967420">
        <ele>841.72</ele>
        <time>2013-06-08T14:06:36Z</time>
      </trkpt>
      <trkpt lat="42.061887" lon="-7.967413">
        <ele>841.96</ele>
        <time>2013-06-08T14:06:37Z</time>
      </trkpt>
      <trkpt lat="42.062284" lon="-7.967324">
        <ele>843.41</ele>
        <time>2013-06-08T14:06:46Z</time>
      </trkpt>
      <trkpt lat="42.062327" lon="-7.967313">
        <ele>843.53</ele>
        <time>2013-06-08T14:06:47Z</time>
      </trkpt>
      <trkpt lat="42.063098" lon="-7.967048">
        <ele>847.06</ele>
        <time>2013-06-08T14:07:04Z</time>
      </trkpt>
      <trkpt lat="42.063623" lon="-7.966815">
        <ele>850.61</ele>
        <time>2013-06-08T14:07:16Z</time>
      </trkpt>
      <trkpt lat="42.064248" lon="-7.966543">
        <ele>853.57</ele>
        <time>2013-06-08T14:07:31Z</time>
      </trkpt>
      <trkpt lat="42.064739" lon="-7.966335">
        <ele>854.79</ele>
        <time>2013-06-08T14:07:43Z</time>
      </trkpt>
      <trkpt lat="42.065212" lon="-7.966120">
        <ele>855.97</ele>
        <time>2013-06-08T14:07:53Z</time>
      </trkpt>
      <trkpt lat="42.065979" lon="-7.965838">
        <ele>854.92</ele>
        <time>2013-06-08T14:08:06Z</time>
      </trkpt>
      <trkpt lat="42.066912" lon="-7.965602">
        <ele>852.01</ele>
        <time>2013-06-08T14:08:20Z</time>
      </trkpt>
      <trkpt lat="42.067843" lon="-7.965270">
        <ele>851.46</ele>
        <time>2013-06-08T14:08:34Z</time>
      </trkpt>
      <trkpt lat="42.068743" lon="-7.964458">
        <ele>852.54</ele>
        <time>2013-06-08T14:08:47Z</time>
      </trkpt>
      <trkpt lat="42.069789" lon="-7.963809">
        <ele>844.47</ele>
        <time>2013-06-08T14:08:59Z</time>
      </trkpt>
      <trkpt lat="42.070941" lon="-7.962929">
        <ele>843.65</ele>
        <time>2013-06-08T14:09:13Z</time>
      </trkpt>
      <trkpt lat="42.072267" lon="-7.961991">
        <ele>835.26</ele>
        <time>2013-06-08T14:09:27Z</time>
      </trkpt>
      <trkpt lat="42.073659" lon="-7.961212">
        <ele>830.62</ele>
        <time>2013-06-08T14:09:41Z</time>
      </trkpt>
      <trkpt lat="42.075162" lon="-7.960544">
        <ele>821.31</ele>
        <time>2013-06-08T14:09:56Z</time>
      </trkpt>
      <trkpt lat="42.075477" lon="-7.960366">
        <ele>820.40</ele>
        <time>2013-06-08T14:09:59Z</time>
      </trkpt>
      <trkpt lat="42.075577" lon="-7.960284">
        <ele>820.62</ele>
        <time>2013-06-08T14:10:00Z</time>
      </trkpt>
      <trkpt lat="42.076998" lon="-7.959018">
        <ele>815.53</ele>
        <time>2013-06-08T14:10:14Z</time>
      </trkpt>
      <trkpt lat="42.078548" lon="-7.957867">
        <ele>804.71</ele>
        <time>2013-06-08T14:10:28Z</time>
      </trkpt>
      <trkpt lat="42.079927" lon="-7.956579">
        <ele>803.06</ele>
        <time>2013-06-08T14:10:41Z</time>
      </trkpt>
      <trkpt lat="42.081191" lon="-7.955478">
        <ele>791.99</ele>
        <time>2013-06-08T14:10:53Z</time>
      </trkpt>
      <trkpt lat="42.082317" lon="-7.955063">
        <ele>788.79</ele>
        <time>2013-06-08T14:11:03Z</time>
      </trkpt>
      <trkpt lat="42.083721" lon="-7.954870">
        <ele>787.43</ele>
        <time>2013-06-08T14:11:16Z</time>
      </trkpt>
      <trkpt lat="42.085286" lon="-7.954489">
        <ele>778.96</ele>
        <time>2013-06-08T14:11:29Z</time>
      </trkpt>
      <trkpt lat="42.086662" lon="-7.954396">
        <ele>771.67</ele>
        <time>2013-06-08T14:11:39Z</time>
      </trkpt>
      <trkpt lat="42.087997" lon="-7.954787">
        <ele>767.03</ele>
        <time>2013-06-08T14:11:50Z</time>
      </trkpt>
      <trkpt lat="42.088931" lon="-7.955090">
        <ele>770.08</ele>
        <time>2013-06-08T14:12:01Z</time>
      </trkpt>
      <trkpt lat="42.089812" lon="-7.955169">
        <ele>773.63</ele>
        <time>2013-06-08T14:12:13Z</time>
      </trkpt>
      <trkpt lat="42.090399" lon="-7.954952">
        <ele>770.82</ele>
        <time>2013-06-08T14:12:21Z</time>
      </trkpt>
      <trkpt lat="42.091283" lon="-7.954438">
        <ele>768.71</ele>
        <time>2013-06-08T14:12:31Z</time>
      </trkpt>
      <trkpt lat="42.092332" lon="-7.953851">
        <ele>761.09</ele>
        <time>2013-06-08T14:12:41Z</time>
      </trkpt>
      <trkpt lat="42.093503" lon="-7.953127">
        <ele>757.36</ele>
        <time>2013-06-08T14:12:53Z</time>
      </trkpt>
      <trkpt lat="42.095123" lon="-7.952036">
        <ele>752.56</ele>
        <time>2013-06-08T14:13:13Z</time>
      </trkpt>
      <trkpt lat="42.096459" lon="-7.951408">
        <ele>747.37</ele>
        <time>2013-06-08T14:13:28Z</time>
      </trkpt>
      <trkpt lat="42.097250" lon="-7.951223">
        <ele>744.52</ele>
        <time>2013-06-08T14:13:36Z</time>
      </trkpt>
      <trkpt lat="42.098703" lon="-7.950978">
        <ele>741.43</ele>
        <time>2013-06-08T14:13:51Z</time>
      </trkpt>
      <trkpt lat="42.099783" lon="-7.950780">
        <ele>736.38</ele>
        <time>2013-06-08T14:14:02Z</time>
      </trkpt>
      <trkpt lat="42.100874" lon="-7.951219">
        <ele>735.30</ele>
        <time>2013-06-08T14:14:13Z</time>
      </trkpt>
      <trkpt lat="42.102129" lon="-7.951632">
        <ele>730.23</ele>
        <time>2013-06-08T14:14:26Z</time>
      </trkpt>
      <trkpt lat="42.103175" lon="-7.951408">
        <ele>726.32</ele>
        <time>2013-06-08T14:14:38Z</time>
      </trkpt>
      <trkpt lat="42.104172" lon="-7.951340">
        <ele>724.61</ele>
        <time>2013-06-08T14:14:50Z</time>
      </trkpt>
      <trkpt lat="42.104255" lon="-7.951384">
        <ele>724.76</ele>
        <time>2013-06-08T14:14:51Z</time>
      </trkpt>
      <trkpt lat="42.105495" lon="-7.952257">
        <ele>723.88</ele>
        <time>2013-06-08T14:15:06Z</time>
      </trkpt>
      <trkpt lat="42.106320" lon="-7.952989">
        <ele>721.35</ele>
        <time>2013-06-08T14:15:17Z</time>
      </trkpt>
      <trkpt lat="42.106810" lon="-7.953768">
        <ele>716.30</ele>
        <time>2013-06-08T14:15:25Z</time>
      </trkpt>
      <trkpt lat="42.106891" lon="-7.953849">
        <ele>714.73</ele>
        <time>2013-06-08T14:15:26Z</time>
      </trkpt>
      <trkpt lat="42.106978" lon="-7.953920">
        <ele>713.12</ele>
        <time>2013-06-08T14:15:27Z</time>
      </trkpt>
      <trkpt lat="42.107069" lon="-7.953976">
        <ele>711.42</ele>
        <time>2013-06-08T14:15:28Z</time>
      </trkpt>
      <trkpt lat="42.107164" lon="-7.954019">
        <ele>710.93</ele>
        <time>2013-06-08T14:15:29Z</time>
      </trkpt>
      <trkpt lat="42.107262" lon="-7.954051">
        <ele>710.66</ele>
        <time>2013-06-08T14:15:30Z</time>
      </trkpt>
      <trkpt lat="42.107359" lon="-7.954072">
        <ele>710.51</ele>
        <time>2013-06-08T14:15:31Z</time>
      </trkpt>
      <trkpt lat="42.107456" lon="-7.954079">
        <ele>710.31</ele>
        <time>2013-06-08T14:15:32Z</time>
      </trkpt>
      <trkpt lat="42.107553" lon="-7.954077">
        <ele>710.23</ele>
        <time>2013-06-08T14:15:33Z</time>
      </trkpt>
      <trkpt lat="42.107649" lon="-7.954063">
        <ele>710.10</ele>
        <time>2013-06-08T14:15:34Z</time>
      </trkpt>
      <trkpt lat="42.107743" lon="-7.954038">
        <ele>709.80</ele>
        <time>2013-06-08T14:15:35Z</time>
      </trkpt>
      <trkpt lat="42.107834" lon="-7.954002">
        <ele>709.37</ele>
        <time>2013-06-08T14:15:36Z</time>
      </trkpt>
      <trkpt lat="42.107922" lon="-7.953956">
        <ele>708.85</ele>
        <time>2013-06-08T14:15:37Z</time>
      </trkpt>
      <trkpt lat="42.108004" lon="-7.953904">
        <ele>708.92</ele>
        <time>2013-06-08T14:15:38Z</time>
      </trkpt>
      <trkpt lat="42.108082" lon="-7.953842">
        <ele>708.95</ele>
        <time>2013-06-08T14:15:39Z</time>
      </trkpt>
      <trkpt lat="42.109117" lon="-7.952905">
        <ele>705.59</ele>
        <time>2013-06-08T14:15:54Z</time>
      </trkpt>
      <trkpt lat="42.109929" lon="-7.952378">
        <ele>706.38</ele>
        <time>2013-06-08T14:16:06Z</time>
      </trkpt>
      <trkpt lat="42.110677" lon="-7.952521">
        <ele>709.72</ele>
        <time>2013-06-08T14:16:16Z</time>
      </trkpt>
      <trkpt lat="42.111255" lon="-7.953210">
        <ele>712.41</ele>
        <time>2013-06-08T14:16:26Z</time>
      </trkpt>
      <trkpt lat="42.111875" lon="-7.954556">
        <ele>710.84</ele>
        <time>2013-06-08T14:16:40Z</time>
      </trkpt>
      <trkpt lat="42.111940" lon="-7.954637">
        <ele>711.24</ele>
        <time>2013-06-08T14:16:41Z</time>
      </trkpt>
      <trkpt lat="42.112009" lon="-7.954712">
        <ele>711.78</ele>
        <time>2013-06-08T14:16:42Z</time>
      </trkpt>
      <trkpt lat="42.112080" lon="-7.954781">
        <ele>712.13</ele>
        <time>2013-06-08T14:16:43Z</time>
      </trkpt>
      <trkpt lat="42.112152" lon="-7.954842">
        <ele>712.29</ele>
        <time>2013-06-08T14:16:44Z</time>
      </trkpt>
      <trkpt lat="42.112452" lon="-7.955022">
        <ele>710.98</ele>
        <time>2013-06-08T14:16:48Z</time>
      </trkpt>
      <trkpt lat="42.112530" lon="-7.955048">
        <ele>710.22</ele>
        <time>2013-06-08T14:16:49Z</time>
      </trkpt>
      <trkpt lat="42.113233" lon="-7.955057">
        <ele>705.57</ele>
        <time>2013-06-08T14:16:58Z</time>
      </trkpt>
      <trkpt lat="42.113375" lon="-7.955001">
        <ele>705.17</ele>
        <time>2013-06-08T14:17:00Z</time>
      </trkpt>
      <trkpt lat="42.113753" lon="-7.954723">
        <ele>702.51</ele>
        <time>2013-06-08T14:17:06Z</time>
      </trkpt>
      <trkpt lat="42.114499" lon="-7.953940">
        <ele>698.51</ele>
        <time>2013-06-08T14:17:18Z</time>
      </trkpt>
      <trkpt lat="42.115846" lon="-7.952493">
        <ele>691.56</ele>
        <time>2013-06-08T14:17:37Z</time>
      </trkpt>
      <trkpt lat="42.116991" lon="-7.951335">
        <ele>689.63</ele>
        <time>2013-06-08T14:17:54Z</time>
      </trkpt>
      <trkpt lat="42.117136" lon="-7.951254">
        <ele>690.27</ele>
        <time>2013-06-08T14:17:56Z</time>
      </trkpt>
      <trkpt lat="42.117458" lon="-7.951168">
        <ele>690.56</ele>
        <time>2013-06-08T14:18:00Z</time>
      </trkpt>
      <trkpt lat="42.117544" lon="-7.951167">
        <ele>690.67</ele>
        <time>2013-06-08T14:18:01Z</time>
      </trkpt>
      <trkpt lat="42.117630" lon="-7.951177">
        <ele>690.91</ele>
        <time>2013-06-08T14:18:02Z</time>
      </trkpt>
      <trkpt lat="42.117717" lon="-7.951196">
        <ele>691.26</ele>
        <time>2013-06-08T14:18:03Z</time>
      </trkpt>
      <trkpt lat="42.117805" lon="-7.951223">
        <ele>691.63</ele>
        <time>2013-06-08T14:18:04Z</time>
      </trkpt>
      <trkpt lat="42.117892" lon="-7.951259">
        <ele>692.02</ele>
        <time>2013-06-08T14:18:05Z</time>
      </trkpt>
      <trkpt lat="42.117977" lon="-7.951307">
        <ele>692.32</ele>
        <time>2013-06-08T14:18:06Z</time>
      </trkpt>
      <trkpt lat="42.118061" lon="-7.951366">
        <ele>692.61</ele>
        <time>2013-06-08T14:18:07Z</time>
      </trkpt>
      <trkpt lat="42.118145" lon="-7.951435">
        <ele>693.03</ele>
        <time>2013-06-08T14:18:08Z</time>
      </trkpt>
      <trkpt lat="42.118226" lon="-7.951513">
        <ele>693.49</ele>
        <time>2013-06-08T14:18:09Z</time>
      </trkpt>
      <trkpt lat="42.118305" lon="-7.951600">
        <ele>694.05</ele>
        <time>2013-06-08T14:18:10Z</time>
      </trkpt>
      <trkpt lat="42.119358" lon="-7.952880">
        <ele>699.34</ele>
        <time>2013-06-08T14:18:23Z</time>
      </trkpt>
      <trkpt lat="42.119526" lon="-7.953019">
        <ele>699.64</ele>
        <time>2013-06-08T14:18:25Z</time>
      </trkpt>
      <trkpt lat="42.119627" lon="-7.953061">
        <ele>699.28</ele>
        <time>2013-06-08T14:18:26Z</time>
      </trkpt>
      <trkpt lat="42.119734" lon="-7.953091">
        <ele>698.68</ele>
        <time>2013-06-08T14:18:27Z</time>
      </trkpt>
      <trkpt lat="42.119837" lon="-7.953104">
        <ele>697.87</ele>
        <time>2013-06-08T14:18:28Z</time>
      </trkpt>
      <trkpt lat="42.119940" lon="-7.953102">
        <ele>696.90</ele>
        <time>2013-06-08T14:18:29Z</time>
      </trkpt>
      <trkpt lat="42.120146" lon="-7.953079">
        <ele>694.72</ele>
        <time>2013-06-08T14:18:31Z</time>
      </trkpt>
      <trkpt lat="42.120247" lon="-7.953054">
        <ele>693.41</ele>
        <time>2013-06-08T14:18:32Z</time>
      </trkpt>
      <trkpt lat="42.121478" lon="-7.952552">
        <ele>679.67</ele>
        <time>2013-06-08T14:18:44Z</time>
      </trkpt>
      <trkpt lat="42.123145" lon="-7.951861">
        <ele>671.13</ele>
        <time>2013-06-08T14:19:01Z</time>
      </trkpt>
      <trkpt lat="42.124501" lon="-7.951290">
        <ele>666.64</ele>
        <time>2013-06-08T14:19:15Z</time>
      </trkpt>
      <trkpt lat="42.125745" lon="-7.950421">
        <ele>646.96</ele>
        <time>2013-06-08T14:19:27Z</time>
      </trkpt>
      <trkpt lat="42.126081" lon="-7.950058">
        <ele>643.52</ele>
        <time>2013-06-08T14:19:31Z</time>
      </trkpt>
      <trkpt lat="42.126246" lon="-7.949458">
        <ele>638.64</ele>
        <time>2013-06-08T14:19:37Z</time>
      </trkpt>
      <trkpt lat="42.126581" lon="-7.949326">
        <ele>636.92</ele>
        <time>2013-06-08T14:19:42Z</time>
      </trkpt>
      <trkpt lat="42.126722" lon="-7.949541">
        <ele>638.18</ele>
        <time>2013-06-08T14:19:45Z</time>
      </trkpt>
      <trkpt lat="42.127150" lon="-7.949964">
        <ele>643.96</ele>
        <time>2013-06-08T14:19:53Z</time>
      </trkpt>
      <trkpt lat="42.127450" lon="-7.949950">
        <ele>643.52</ele>
        <time>2013-06-08T14:19:57Z</time>
      </trkpt>
      <trkpt lat="42.127719" lon="-7.949835">
        <ele>641.71</ele>
        <time>2013-06-08T14:20:01Z</time>
      </trkpt>
      <trkpt lat="42.128536" lon="-7.949269">
        <ele>636.59</ele>
        <time>2013-06-08T14:20:15Z</time>
      </trkpt>
      <trkpt lat="42.129249" lon="-7.948848">
        <ele>634.54</ele>
        <time>2013-06-08T14:20:29Z</time>
      </trkpt>
      <trkpt lat="42.129594" lon="-7.948466">
        <ele>634.85</ele>
        <time>2013-06-08T14:20:40Z</time>
      </trkpt>
      <trkpt lat="42.129636" lon="-7.948429">
        <ele>635.46</ele>
        <time>2013-06-08T14:20:41Z</time>
      </trkpt>
      <trkpt lat="42.129685" lon="-7.948398">
        <ele>636.16</ele>
        <time>2013-06-08T14:20:42Z</time>
      </trkpt>
      <trkpt lat="42.129735" lon="-7.948365">
        <ele>636.85</ele>
        <time>2013-06-08T14:20:43Z</time>
      </trkpt>
      <trkpt lat="42.129782" lon="-7.948323">
        <ele>637.35</ele>
        <time>2013-06-08T14:20:44Z</time>
      </trkpt>
      <trkpt lat="42.129824" lon="-7.948274">
        <ele>637.77</ele>
        <time>2013-06-08T14:20:45Z</time>
      </trkpt>
      <trkpt lat="42.129859" lon="-7.948222">
        <ele>638.03</ele>
        <time>2013-06-08T14:20:46Z</time>
      </trkpt>
      <trkpt lat="42.129888" lon="-7.948169">
        <ele>638.12</ele>
        <time>2013-06-08T14:20:47Z</time>
      </trkpt>
      <trkpt lat="42.130012" lon="-7.947910">
        <ele>638.11</ele>
        <time>2013-06-08T14:20:51Z</time>
      </trkpt>
      <trkpt lat="42.130052" lon="-7.947842">
        <ele>638.07</ele>
        <time>2013-06-08T14:20:52Z</time>
      </trkpt>
      <trkpt lat="42.130724" lon="-7.947240">
        <ele>637.35</ele>
        <time>2013-06-08T14:21:02Z</time>
      </trkpt>
      <trkpt lat="42.131885" lon="-7.946416">
        <ele>628.05</ele>
        <time>2013-06-08T14:21:15Z</time>
      </trkpt>
      <trkpt lat="42.132527" lon="-7.945974">
        <ele>623.23</ele>
        <time>2013-06-08T14:21:22Z</time>
      </trkpt>
      <trkpt lat="42.132618" lon="-7.945946">
        <ele>622.74</ele>
        <time>2013-06-08T14:21:23Z</time>
      </trkpt>
      <trkpt lat="42.132713" lon="-7.945933">
        <ele>622.48</ele>
        <time>2013-06-08T14:21:24Z</time>
      </trkpt>
      <trkpt lat="42.132810" lon="-7.945938">
        <ele>622.34</ele>
        <time>2013-06-08T14:21:25Z</time>
      </trkpt>
      <trkpt lat="42.132909" lon="-7.945963">
        <ele>622.56</ele>
        <time>2013-06-08T14:21:26Z</time>
      </trkpt>
      <trkpt lat="42.133008" lon="-7.946004">
        <ele>622.28</ele>
        <time>2013-06-08T14:21:27Z</time>
      </trkpt>
      <trkpt lat="42.133103" lon="-7.946062">
        <ele>622.11</ele>
        <time>2013-06-08T14:21:28Z</time>
      </trkpt>
      <trkpt lat="42.133194" lon="-7.946136">
        <ele>622.41</ele>
        <time>2013-06-08T14:21:29Z</time>
      </trkpt>
      <trkpt lat="42.133283" lon="-7.946219">
        <ele>623.03</ele>
        <time>2013-06-08T14:21:30Z</time>
      </trkpt>
      <trkpt lat="42.133933" lon="-7.946840">
        <ele>629.69</ele>
        <time>2013-06-08T14:21:37Z</time>
      </trkpt>
      <trkpt lat="42.134046" lon="-7.946888">
        <ele>629.06</ele>
        <time>2013-06-08T14:21:38Z</time>
      </trkpt>
      <trkpt lat="42.134166" lon="-7.946911">
        <ele>627.87</ele>
        <time>2013-06-08T14:21:39Z</time>
      </trkpt>
      <trkpt lat="42.134289" lon="-7.946911">
        <ele>625.94</ele>
        <time>2013-06-08T14:21:40Z</time>
      </trkpt>
      <trkpt lat="42.134410" lon="-7.946890">
        <ele>623.54</ele>
        <time>2013-06-08T14:21:41Z</time>
      </trkpt>
      <trkpt lat="42.134527" lon="-7.946848">
        <ele>620.71</ele>
        <time>2013-06-08T14:21:42Z</time>
      </trkpt>
      <trkpt lat="42.134637" lon="-7.946799">
        <ele>617.95</ele>
        <time>2013-06-08T14:21:43Z</time>
      </trkpt>
      <trkpt lat="42.135062" lon="-7.946615">
        <ele>609.00</ele>
        <time>2013-06-08T14:21:47Z</time>
      </trkpt>
      <trkpt lat="42.135169" lon="-7.946591">
        <ele>607.51</ele>
        <time>2013-06-08T14:21:48Z</time>
      </trkpt>
      <trkpt lat="42.135277" lon="-7.946587">
        <ele>606.41</ele>
        <time>2013-06-08T14:21:49Z</time>
      </trkpt>
      <trkpt lat="42.135388" lon="-7.946605">
        <ele>605.76</ele>
        <time>2013-06-08T14:21:50Z</time>
      </trkpt>
      <trkpt lat="42.135498" lon="-7.946641">
        <ele>605.49</ele>
        <time>2013-06-08T14:21:51Z</time>
      </trkpt>
      <trkpt lat="42.135606" lon="-7.946692">
        <ele>605.55</ele>
        <time>2013-06-08T14:21:52Z</time>
      </trkpt>
      <trkpt lat="42.135708" lon="-7.946754">
        <ele>605.87</ele>
        <time>2013-06-08T14:21:53Z</time>
      </trkpt>
      <trkpt lat="42.135809" lon="-7.946818">
        <ele>606.14</ele>
        <time>2013-06-08T14:21:54Z</time>
      </trkpt>
      <trkpt lat="42.136217" lon="-7.947043">
        <ele>606.68</ele>
        <time>2013-06-08T14:21:58Z</time>
      </trkpt>
      <trkpt lat="42.136326" lon="-7.947074">
        <ele>605.99</ele>
        <time>2013-06-08T14:21:59Z</time>
      </trkpt>
      <trkpt lat="42.136438" lon="-7.947090">
        <ele>604.88</ele>
        <time>2013-06-08T14:22:00Z</time>
      </trkpt>
      <trkpt lat="42.136551" lon="-7.947093">
        <ele>603.56</ele>
        <time>2013-06-08T14:22:01Z</time>
      </trkpt>
      <trkpt lat="42.136664" lon="-7.947084">
        <ele>602.03</ele>
        <time>2013-06-08T14:22:02Z</time>
      </trkpt>
      <trkpt lat="42.137878" lon="-7.946887">
        <ele>588.11</ele>
        <time>2013-06-08T14:22:13Z</time>
      </trkpt>
      <trkpt lat="42.137983" lon="-7.946906">
        <ele>587.31</ele>
        <time>2013-06-08T14:22:14Z</time>
      </trkpt>
      <trkpt lat="42.138088" lon="-7.946941">
        <ele>586.61</ele>
        <time>2013-06-08T14:22:15Z</time>
      </trkpt>
      <trkpt lat="42.138191" lon="-7.946989">
        <ele>585.93</ele>
        <time>2013-06-08T14:22:16Z</time>
      </trkpt>
      <trkpt lat="42.138288" lon="-7.947047">
        <ele>585.36</ele>
        <time>2013-06-08T14:22:17Z</time>
      </trkpt>
      <trkpt lat="42.138381" lon="-7.947114">
        <ele>584.75</ele>
        <time>2013-06-08T14:22:18Z</time>
      </trkpt>
      <trkpt lat="42.138471" lon="-7.947190">
        <ele>584.28</ele>
        <time>2013-06-08T14:22:19Z</time>
      </trkpt>
      <trkpt lat="42.138559" lon="-7.947270">
        <ele>583.77</ele>
        <time>2013-06-08T14:22:20Z</time>
      </trkpt>
      <trkpt lat="42.139087" lon="-7.947710">
        <ele>581.47</ele>
        <time>2013-06-08T14:22:26Z</time>
      </trkpt>
      <trkpt lat="42.139188" lon="-7.947757">
        <ele>580.97</ele>
        <time>2013-06-08T14:22:27Z</time>
      </trkpt>
      <trkpt lat="42.139292" lon="-7.947794">
        <ele>580.31</ele>
        <time>2013-06-08T14:22:28Z</time>
      </trkpt>
      <trkpt lat="42.140772" lon="-7.948202">
        <ele>571.71</ele>
        <time>2013-06-08T14:22:42Z</time>
      </trkpt>
      <trkpt lat="42.140869" lon="-7.948259">
        <ele>571.01</ele>
        <time>2013-06-08T14:22:43Z</time>
      </trkpt>
      <trkpt lat="42.140963" lon="-7.948332">
        <ele>570.35</ele>
        <time>2013-06-08T14:22:44Z</time>
      </trkpt>
      <trkpt lat="42.141051" lon="-7.948421">
        <ele>569.57</ele>
        <time>2013-06-08T14:22:45Z</time>
      </trkpt>
      <trkpt lat="42.141133" lon="-7.948523">
        <ele>568.63</ele>
        <time>2013-06-08T14:22:46Z</time>
      </trkpt>
      <trkpt lat="42.141210" lon="-7.948637">
        <ele>567.68</ele>
        <time>2013-06-08T14:22:47Z</time>
      </trkpt>
      <trkpt lat="42.141281" lon="-7.948758">
        <ele>566.55</ele>
        <time>2013-06-08T14:22:48Z</time>
      </trkpt>
      <trkpt lat="42.141943" lon="-7.950258">
        <ele>557.45</ele>
        <time>2013-06-08T14:22:59Z</time>
      </trkpt>
      <trkpt lat="42.142284" lon="-7.952036">
        <ele>549.46</ele>
        <time>2013-06-08T14:23:11Z</time>
      </trkpt>
      <trkpt lat="42.142567" lon="-7.953531">
        <ele>541.00</ele>
        <time>2013-06-08T14:23:21Z</time>
      </trkpt>
      <trkpt lat="42.142624" lon="-7.953663">
        <ele>540.72</ele>
        <time>2013-06-08T14:23:22Z</time>
      </trkpt>
      <trkpt lat="42.142688" lon="-7.953780">
        <ele>540.81</ele>
        <time>2013-06-08T14:23:23Z</time>
      </trkpt>
      <trkpt lat="42.143051" lon="-7.954201">
        <ele>543.54</ele>
        <time>2013-06-08T14:23:28Z</time>
      </trkpt>
      <trkpt lat="42.144080" lon="-7.954871">
        <ele>548.18</ele>
        <time>2013-06-08T14:23:41Z</time>
      </trkpt>
      <trkpt lat="42.145053" lon="-7.955844">
        <ele>541.68</ele>
        <time>2013-06-08T14:23:53Z</time>
      </trkpt>
      <trkpt lat="42.145152" lon="-7.955906">
        <ele>540.08</ele>
        <time>2013-06-08T14:23:54Z</time>
      </trkpt>
      <trkpt lat="42.145257" lon="-7.955953">
        <ele>538.17</ele>
        <time>2013-06-08T14:23:55Z</time>
      </trkpt>
      <trkpt lat="42.145365" lon="-7.955984">
        <ele>536.26</ele>
        <time>2013-06-08T14:23:56Z</time>
      </trkpt>
      <trkpt lat="42.145474" lon="-7.956009">
        <ele>534.82</ele>
        <time>2013-06-08T14:23:57Z</time>
      </trkpt>
      <trkpt lat="42.146323" lon="-7.956193">
        <ele>528.38</ele>
        <time>2013-06-08T14:24:05Z</time>
      </trkpt>
      <trkpt lat="42.146418" lon="-7.956257">
        <ele>527.66</ele>
        <time>2013-06-08T14:24:06Z</time>
      </trkpt>
      <trkpt lat="42.147233" lon="-7.956997">
        <ele>517.42</ele>
        <time>2013-06-08T14:24:16Z</time>
      </trkpt>
      <trkpt lat="42.147289" lon="-7.957091">
        <ele>517.01</ele>
        <time>2013-06-08T14:24:17Z</time>
      </trkpt>
      <trkpt lat="42.147332" lon="-7.957200">
        <ele>516.05</ele>
        <time>2013-06-08T14:24:18Z</time>
      </trkpt>
      <trkpt lat="42.147356" lon="-7.957323">
        <ele>515.11</ele>
        <time>2013-06-08T14:24:19Z</time>
      </trkpt>
      <trkpt lat="42.147362" lon="-7.957454">
        <ele>514.42</ele>
        <time>2013-06-08T14:24:20Z</time>
      </trkpt>
      <trkpt lat="42.147363" lon="-7.957588">
        <ele>513.73</ele>
        <time>2013-06-08T14:24:21Z</time>
      </trkpt>
      <trkpt lat="42.147398" lon="-7.958697">
        <ele>508.57</ele>
        <time>2013-06-08T14:24:29Z</time>
      </trkpt>
      <trkpt lat="42.147426" lon="-7.958789">
        <ele>508.24</ele>
        <time>2013-06-08T14:24:30Z</time>
      </trkpt>
      <trkpt lat="42.147472" lon="-7.958846">
        <ele>508.17</ele>
        <time>2013-06-08T14:24:31Z</time>
      </trkpt>
      <trkpt lat="42.147539" lon="-7.958860">
        <ele>507.95</ele>
        <time>2013-06-08T14:24:32Z</time>
      </trkpt>
      <trkpt lat="42.147618" lon="-7.958844">
        <ele>507.89</ele>
        <time>2013-06-08T14:24:33Z</time>
      </trkpt>
      <trkpt lat="42.147697" lon="-7.958819">
        <ele>507.62</ele>
        <time>2013-06-08T14:24:34Z</time>
      </trkpt>
      <trkpt lat="42.147773" lon="-7.958792">
        <ele>507.41</ele>
        <time>2013-06-08T14:24:35Z</time>
      </trkpt>
      <trkpt lat="42.148348" lon="-7.958549">
        <ele>508.49</ele>
        <time>2013-06-08T14:24:43Z</time>
      </trkpt>
      <trkpt lat="42.149091" lon="-7.957888">
        <ele>508.35</ele>
        <time>2013-06-08T14:24:56Z</time>
      </trkpt>
      <trkpt lat="42.149734" lon="-7.957316">
        <ele>506.98</ele>
        <time>2013-06-08T14:25:09Z</time>
      </trkpt>
      <trkpt lat="42.150233" lon="-7.956861">
        <ele>507.69</ele>
        <time>2013-06-08T14:25:24Z</time>
      </trkpt>
      <trkpt lat="42.150638" lon="-7.956484">
        <ele>508.06</ele>
        <time>2013-06-08T14:25:36Z</time>
      </trkpt>
      <trkpt lat="42.150849" lon="-7.956295">
        <ele>508.58</ele>
        <time>2013-06-08T14:25:42Z</time>
      </trkpt>
      <trkpt lat="42.151332" lon="-7.955822">
        <ele>508.29</ele>
        <time>2013-06-08T14:25:55Z</time>
      </trkpt>
      <trkpt lat="42.151555" lon="-7.955615">
        <ele>507.92</ele>
        <time>2013-06-08T14:26:04Z</time>
      </trkpt>
      <trkpt lat="42.151795" lon="-7.955423">
        <ele>507.71</ele>
        <time>2013-06-08T14:26:14Z</time>
      </trkpt>
      <trkpt lat="42.151846" lon="-7.955339">
        <ele>507.42</ele>
        <time>2013-06-08T14:26:17Z</time>
      </trkpt>
      <trkpt lat="42.151966" lon="-7.955203">
        <ele>507.41</ele>
        <time>2013-06-08T14:26:22Z</time>
      </trkpt>
      <trkpt lat="42.151975" lon="-7.955173">
        <ele>507.38</ele>
        <time>2013-06-08T14:26:23Z</time>
      </trkpt>
      <trkpt lat="42.152001" lon="-7.955144">
        <ele>507.32</ele>
        <time>2013-06-08T14:26:24Z</time>
      </trkpt>
      <trkpt lat="42.152136" lon="-7.955061">
        <ele>507.89</ele>
        <time>2013-06-08T14:26:28Z</time>
      </trkpt>
      <trkpt lat="42.152184" lon="-7.955053">
        <ele>508.02</ele>
        <time>2013-06-08T14:26:29Z</time>
      </trkpt>
      <trkpt lat="42.152454" lon="-7.955030">
        <ele>509.48</ele>
        <time>2013-06-08T14:26:35Z</time>
      </trkpt>
      <trkpt lat="42.152595" lon="-7.955055">
        <ele>510.55</ele>
        <time>2013-06-08T14:26:38Z</time>
      </trkpt>
      <trkpt lat="42.152640" lon="-7.955062">
        <ele>510.82</ele>
        <time>2013-06-08T14:26:39Z</time>
      </trkpt>
      <trkpt lat="42.152687" lon="-7.955066">
        <ele>511.17</ele>
        <time>2013-06-08T14:26:40Z</time>
      </trkpt>
      <trkpt lat="42.152785" lon="-7.955072">
        <ele>511.73</ele>
        <time>2013-06-08T14:26:42Z</time>
      </trkpt>
      <trkpt lat="42.152836" lon="-7.955079">
        <ele>512.12</ele>
        <time>2013-06-08T14:26:43Z</time>
      </trkpt>
      <trkpt lat="42.152934" lon="-7.955082">
        <ele>512.71</ele>
        <time>2013-06-08T14:26:45Z</time>
      </trkpt>
      <trkpt lat="42.153252" lon="-7.955098">
        <ele>514.42</ele>
        <time>2013-06-08T14:26:52Z</time>
      </trkpt>
      <trkpt lat="42.153342" lon="-7.955115">
        <ele>514.91</ele>
        <time>2013-06-08T14:26:54Z</time>
      </trkpt>
      <trkpt lat="42.153429" lon="-7.955136">
        <ele>515.44</ele>
        <time>2013-06-08T14:26:56Z</time>
      </trkpt>
      <trkpt lat="42.153550" lon="-7.955106">
        <ele>515.94</ele>
        <time>2013-06-08T14:26:59Z</time>
      </trkpt>
      <trkpt lat="42.153586" lon="-7.955073">
        <ele>515.99</ele>
        <time>2013-06-08T14:27:00Z</time>
      </trkpt>
      <trkpt lat="42.153677" lon="-7.954977">
        <ele>516.07</ele>
        <time>2013-06-08T14:27:03Z</time>
      </trkpt>
      <trkpt lat="42.153716" lon="-7.954887">
        <ele>515.92</ele>
        <time>2013-06-08T14:27:05Z</time>
      </trkpt>
      <trkpt lat="42.153740" lon="-7.954838">
        <ele>515.99</ele>
        <time>2013-06-08T14:27:06Z</time>
      </trkpt>
      <trkpt lat="42.154079" lon="-7.954164">
        <ele>513.68</ele>
        <time>2013-06-08T14:27:19Z</time>
      </trkpt>
      <trkpt lat="42.154144" lon="-7.954127">
        <ele>513.72</ele>
        <time>2013-06-08T14:27:20Z</time>
      </trkpt>
      <trkpt lat="42.154256" lon="-7.954045">
        <ele>513.71</ele>
        <time>2013-06-08T14:27:22Z</time>
      </trkpt>
      <trkpt lat="42.154309" lon="-7.953997">
        <ele>513.73</ele>
        <time>2013-06-08T14:27:23Z</time>
      </trkpt>
      <trkpt lat="42.154360" lon="-7.953950">
        <ele>513.77</ele>
        <time>2013-06-08T14:27:24Z</time>
      </trkpt>
      <trkpt lat="42.154721" lon="-7.953631">
        <ele>513.32</ele>
        <time>2013-06-08T14:27:32Z</time>
      </trkpt>
      <trkpt lat="42.155192" lon="-7.953246">
        <ele>513.03</ele>
        <time>2013-06-08T14:27:43Z</time>
      </trkpt>
      <trkpt lat="42.155216" lon="-7.953209">
        <ele>512.94</ele>
        <time>2013-06-08T14:27:44Z</time>
      </trkpt>
      <trkpt lat="42.155233" lon="-7.953163">
        <ele>512.79</ele>
        <time>2013-06-08T14:27:45Z</time>
      </trkpt>
      <trkpt lat="42.155254" lon="-7.953115">
        <ele>512.69</ele>
        <time>2013-06-08T14:27:46Z</time>
      </trkpt>
      <trkpt lat="42.155274" lon="-7.953068">
        <ele>512.53</ele>
        <time>2013-06-08T14:27:47Z</time>
      </trkpt>
      <trkpt lat="42.155292" lon="-7.953021">
        <ele>512.49</ele>
        <time>2013-06-08T14:27:48Z</time>
      </trkpt>
      <trkpt lat="42.155328" lon="-7.952980">
        <ele>512.52</ele>
        <time>2013-06-08T14:27:49Z</time>
      </trkpt>
      <trkpt lat="42.155373" lon="-7.952944">
        <ele>512.71</ele>
        <time>2013-06-08T14:27:50Z</time>
      </trkpt>
      <trkpt lat="42.155926" lon="-7.952562">
        <ele>512.99</ele>
        <time>2013-06-08T14:28:03Z</time>
      </trkpt>
      <trkpt lat="42.155958" lon="-7.952525">
        <ele>512.85</ele>
        <time>2013-06-08T14:28:04Z</time>
      </trkpt>
      <trkpt lat="42.155998" lon="-7.952490">
        <ele>512.78</ele>
        <time>2013-06-08T14:28:05Z</time>
      </trkpt>
      <trkpt lat="42.156042" lon="-7.952457">
        <ele>512.72</ele>
        <time>2013-06-08T14:28:06Z</time>
      </trkpt>
      <trkpt lat="42.156083" lon="-7.952427">
        <ele>512.72</ele>
        <time>2013-06-08T14:28:07Z</time>
      </trkpt>
      <trkpt lat="42.156128" lon="-7.952393">
        <ele>512.65</ele>
        <time>2013-06-08T14:28:08Z</time>
      </trkpt>
      <trkpt lat="42.156775" lon="-7.951805">
        <ele>511.68</ele>
        <time>2013-06-08T14:28:24Z</time>
      </trkpt>
      <trkpt lat="42.157457" lon="-7.951109">
        <ele>506.52</ele>
        <time>2013-06-08T14:28:36Z</time>
      </trkpt>
      <trkpt lat="42.158284" lon="-7.950172">
        <ele>498.56</ele>
        <time>2013-06-08T14:28:47Z</time>
      </trkpt>
      <trkpt lat="42.158671" lon="-7.949646">
        <ele>492.71</ele>
        <time>2013-06-08T14:28:52Z</time>
      </trkpt>
      <trkpt lat="42.158760" lon="-7.949572">
        <ele>491.81</ele>
        <time>2013-06-08T14:28:53Z</time>
      </trkpt>
      <trkpt lat="42.158856" lon="-7.949513">
        <ele>491.00</ele>
        <time>2013-06-08T14:28:54Z</time>
      </trkpt>
      <trkpt lat="42.158959" lon="-7.949473">
        <ele>490.36</ele>
        <time>2013-06-08T14:28:55Z</time>
      </trkpt>
      <trkpt lat="42.159061" lon="-7.949451">
        <ele>489.85</ele>
        <time>2013-06-08T14:28:56Z</time>
      </trkpt>
      <trkpt lat="42.159161" lon="-7.949452">
        <ele>489.73</ele>
        <time>2013-06-08T14:28:57Z</time>
      </trkpt>
      <trkpt lat="42.159266" lon="-7.949489">
        <ele>489.83</ele>
        <time>2013-06-08T14:28:58Z</time>
      </trkpt>
      <trkpt lat="42.159369" lon="-7.949551">
        <ele>490.26</ele>
        <time>2013-06-08T14:28:59Z</time>
      </trkpt>
      <trkpt lat="42.159466" lon="-7.949622">
        <ele>490.60</ele>
        <time>2013-06-08T14:29:00Z</time>
      </trkpt>
      <trkpt lat="42.159564" lon="-7.949699">
        <ele>490.73</ele>
        <time>2013-06-08T14:29:01Z</time>
      </trkpt>
      <trkpt lat="42.160790" lon="-7.950783">
        <ele>484.30</ele>
        <time>2013-06-08T14:29:14Z</time>
      </trkpt>
      <trkpt lat="42.162213" lon="-7.951797">
        <ele>471.32</ele>
        <time>2013-06-08T14:29:28Z</time>
      </trkpt>
      <trkpt lat="42.163269" lon="-7.952221">
        <ele>460.61</ele>
        <time>2013-06-08T14:29:39Z</time>
      </trkpt>
      <trkpt lat="42.164048" lon="-7.952400">
        <ele>458.05</ele>
        <time>2013-06-08T14:29:49Z</time>
      </trkpt>
      <trkpt lat="42.164085" lon="-7.952395">
        <ele>457.89</ele>
        <time>2013-06-08T14:29:51Z</time>
      </trkpt>
      <trkpt lat="42.164097" lon="-7.952395">
        <ele>457.83</ele>
        <time>2013-06-08T14:29:52Z</time>
      </trkpt>
      <trkpt lat="42.164107" lon="-7.952408">
        <ele>457.84</ele>
        <time>2013-06-08T14:29:53Z</time>
      </trkpt>
      <trkpt lat="42.164069" lon="-7.952423">
        <ele>458.04</ele>
        <time>2013-06-08T14:29:56Z</time>
      </trkpt>
      <trkpt lat="42.163967" lon="-7.952348">
        <ele>458.08</ele>
        <time>2013-06-08T14:30:02Z</time>
      </trkpt>
      <trkpt lat="42.163843" lon="-7.952257">
        <ele>458.16</ele>
        <time>2013-06-08T14:30:11Z</time>
      </trkpt>
      <trkpt lat="42.163838" lon="-7.952259">
        <ele>458.16</ele>
        <time>2013-06-08T14:30:26Z</time>
      </trkpt>
      <trkpt lat="42.163823" lon="-7.952243">
        <ele>458.25</ele>
        <time>2013-06-08T14:30:38Z</time>
      </trkpt>
      <trkpt lat="42.163808" lon="-7.952222">
        <ele>458.12</ele>
        <time>2013-06-08T14:31:06Z</time>
      </trkpt>
      <trkpt lat="42.163826" lon="-7.952238">
        <ele>458.11</ele>
        <time>2013-06-08T14:31:48Z</time>
      </trkpt>
      <trkpt lat="42.163826" lon="-7.952232">
        <ele>458.15</ele>
        <time>2013-06-08T14:32:23Z</time>
      </trkpt>
      <trkpt lat="42.163820" lon="-7.952234">
        <ele>458.16</ele>
        <time>2013-06-08T14:32:59Z</time>
      </trkpt>
      <trkpt lat="42.163828" lon="-7.952230">
        <ele>458.11</ele>
        <time>2013-06-08T14:33:37Z</time>
      </trkpt>
      <trkpt lat="42.163828" lon="-7.952221">
        <ele>458.12</ele>
        <time>2013-06-08T14:34:22Z</time>
      </trkpt>
      <trkpt lat="42.163818" lon="-7.952225">
        <ele>458.14</ele>
        <time>2013-06-08T14:35:02Z</time>
      </trkpt>
      <trkpt lat="42.163831" lon="-7.952201">
        <ele>458.09</ele>
        <time>2013-06-08T14:35:43Z</time>
      </trkpt>
      <trkpt lat="42.163819" lon="-7.952236">
        <ele>458.18</ele>
        <time>2013-06-08T14:36:24Z</time>
      </trkpt>
      <trkpt lat="42.163816" lon="-7.952225">
        <ele>458.18</ele>
        <time>2013-06-08T14:37:05Z</time>
      </trkpt>
      <trkpt lat="42.163832" lon="-7.952230">
        <ele>458.13</ele>
        <time>2013-06-08T14:37:18Z</time>
      </trkpt>
      <trkpt lat="42.163851" lon="-7.952201">
        <ele>458.02</ele>
        <time>2013-06-08T14:37:26Z</time>
      </trkpt>
      <trkpt lat="42.163877" lon="-7.952104">
        <ele>457.61</ele>
        <time>2013-06-08T14:37:32Z</time>
      </trkpt>
      <trkpt lat="42.163911" lon="-7.951875">
        <ele>457.23</ele>
        <time>2013-06-08T14:37:45Z</time>
      </trkpt>
      <trkpt lat="42.163910" lon="-7.951831">
        <ele>457.19</ele>
        <time>2013-06-08T14:37:48Z</time>
      </trkpt>
      <trkpt lat="42.163921" lon="-7.951699">
        <ele>456.98</ele>
        <time>2013-06-08T14:37:58Z</time>
      </trkpt>
      <trkpt lat="42.163902" lon="-7.951644">
        <ele>457.07</ele>
        <time>2013-06-08T14:38:12Z</time>
      </trkpt>
      <trkpt lat="42.163894" lon="-7.951608">
        <ele>457.01</ele>
        <time>2013-06-08T14:38:22Z</time>
      </trkpt>
      <trkpt lat="42.163852" lon="-7.951556">
        <ele>457.25</ele>
        <time>2013-06-08T14:38:36Z</time>
      </trkpt>
      <trkpt lat="42.163831" lon="-7.951506">
        <ele>457.43</ele>
        <time>2013-06-08T14:38:47Z</time>
      </trkpt>
      <trkpt lat="42.163826" lon="-7.951520">
        <ele>457.44</ele>
        <time>2013-06-08T14:39:02Z</time>
      </trkpt>
      <trkpt lat="42.163830" lon="-7.951520">
        <ele>457.46</ele>
        <time>2013-06-08T14:39:33Z</time>
      </trkpt>
      <trkpt lat="42.163839" lon="-7.951512">
        <ele>457.31</ele>
        <time>2013-06-08T14:40:06Z</time>
      </trkpt>
      <trkpt lat="42.163832" lon="-7.951519">
        <ele>457.41</ele>
        <time>2013-06-08T14:40:43Z</time>
      </trkpt>
      <trkpt lat="42.163836" lon="-7.951516">
        <ele>457.35</ele>
        <time>2013-06-08T14:41:12Z</time>
      </trkpt>
      <trkpt lat="42.163831" lon="-7.951535">
        <ele>457.45</ele>
        <time>2013-06-08T14:41:25Z</time>
      </trkpt>
      <trkpt lat="42.163837" lon="-7.951547">
        <ele>457.42</ele>
        <time>2013-06-08T14:41:40Z</time>
      </trkpt>
      <trkpt lat="42.163839" lon="-7.951551">
        <ele>457.36</ele>
        <time>2013-06-08T14:41:44Z</time>
      </trkpt>
      <trkpt lat="42.163863" lon="-7.951579">
        <ele>457.25</ele>
        <time>2013-06-08T14:41:47Z</time>
      </trkpt>
      <trkpt lat="42.163894" lon="-7.951683">
        <ele>457.12</ele>
        <time>2013-06-08T14:41:52Z</time>
      </trkpt>
      <trkpt lat="42.164030" lon="-7.952082">
        <ele>457.09</ele>
        <time>2013-06-08T14:42:06Z</time>
      </trkpt>
      <trkpt lat="42.164060" lon="-7.952201">
        <ele>457.36</ele>
        <time>2013-06-08T14:42:09Z</time>
      </trkpt>
      <trkpt lat="42.164137" lon="-7.952383">
        <ele>457.75</ele>
        <time>2013-06-08T14:42:15Z</time>
      </trkpt>
      <trkpt lat="42.164409" lon="-7.952449">
        <ele>457.22</ele>
        <time>2013-06-08T14:42:24Z</time>
      </trkpt>
      <trkpt lat="42.164457" lon="-7.952449">
        <ele>457.11</ele>
        <time>2013-06-08T14:42:25Z</time>
      </trkpt>
      <trkpt lat="42.164501" lon="-7.952443">
        <ele>456.99</ele>
        <time>2013-06-08T14:42:26Z</time>
      </trkpt>
      <trkpt lat="42.164538" lon="-7.952443">
        <ele>456.81</ele>
        <time>2013-06-08T14:42:27Z</time>
      </trkpt>
      <trkpt lat="42.164571" lon="-7.952454">
        <ele>456.89</ele>
        <time>2013-06-08T14:42:28Z</time>
      </trkpt>
      <trkpt lat="42.164597" lon="-7.952470">
        <ele>456.85</ele>
        <time>2013-06-08T14:42:29Z</time>
      </trkpt>
      <trkpt lat="42.164621" lon="-7.952485">
        <ele>456.81</ele>
        <time>2013-06-08T14:42:30Z</time>
      </trkpt>
      <trkpt lat="42.164644" lon="-7.952506">
        <ele>456.93</ele>
        <time>2013-06-08T14:42:31Z</time>
      </trkpt>
      <trkpt lat="42.164667" lon="-7.952535">
        <ele>457.10</ele>
        <time>2013-06-08T14:42:32Z</time>
      </trkpt>
      <trkpt lat="42.164691" lon="-7.952554">
        <ele>457.08</ele>
        <time>2013-06-08T14:42:33Z</time>
      </trkpt>
      <trkpt lat="42.164725" lon="-7.952563">
        <ele>457.06</ele>
        <time>2013-06-08T14:42:34Z</time>
      </trkpt>
      <trkpt lat="42.164769" lon="-7.952575">
        <ele>457.03</ele>
        <time>2013-06-08T14:42:35Z</time>
      </trkpt>
      <trkpt lat="42.164815" lon="-7.952586">
        <ele>457.01</ele>
        <time>2013-06-08T14:42:36Z</time>
      </trkpt>
      <trkpt lat="42.165587" lon="-7.952761">
        <ele>457.24</ele>
        <time>2013-06-08T14:42:49Z</time>
      </trkpt>
      <trkpt lat="42.166589" lon="-7.953042">
        <ele>459.02</ele>
        <time>2013-06-08T14:43:03Z</time>
      </trkpt>
      <trkpt lat="42.166729" lon="-7.953120">
        <ele>460.01</ele>
        <time>2013-06-08T14:43:05Z</time>
      </trkpt>
      <trkpt lat="42.167768" lon="-7.953860">
        <ele>462.04</ele>
        <time>2013-06-08T14:43:22Z</time>
      </trkpt>
      <trkpt lat="42.168037" lon="-7.954159">
        <ele>457.49</ele>
        <time>2013-06-08T14:43:27Z</time>
      </trkpt>
      <trkpt lat="42.168084" lon="-7.954237">
        <ele>456.33</ele>
        <time>2013-06-08T14:43:28Z</time>
      </trkpt>
      <trkpt lat="42.168126" lon="-7.954323">
        <ele>455.52</ele>
        <time>2013-06-08T14:43:29Z</time>
      </trkpt>
      <trkpt lat="42.168162" lon="-7.954417">
        <ele>454.92</ele>
        <time>2013-06-08T14:43:30Z</time>
      </trkpt>
      <trkpt lat="42.168192" lon="-7.954516">
        <ele>454.60</ele>
        <time>2013-06-08T14:43:31Z</time>
      </trkpt>
      <trkpt lat="42.168216" lon="-7.954622">
        <ele>454.01</ele>
        <time>2013-06-08T14:43:32Z</time>
      </trkpt>
      <trkpt lat="42.168235" lon="-7.954732">
        <ele>452.51</ele>
        <time>2013-06-08T14:43:33Z</time>
      </trkpt>
      <trkpt lat="42.168247" lon="-7.954847">
        <ele>451.39</ele>
        <time>2013-06-08T14:43:34Z</time>
      </trkpt>
      <trkpt lat="42.168250" lon="-7.954967">
        <ele>450.35</ele>
        <time>2013-06-08T14:43:35Z</time>
      </trkpt>
      <trkpt lat="42.168418" lon="-7.956392">
        <ele>447.67</ele>
        <time>2013-06-08T14:43:46Z</time>
      </trkpt>
      <trkpt lat="42.168561" lon="-7.956794">
        <ele>449.15</ele>
        <time>2013-06-08T14:43:49Z</time>
      </trkpt>
      <trkpt lat="42.168629" lon="-7.956917">
        <ele>448.78</ele>
        <time>2013-06-08T14:43:50Z</time>
      </trkpt>
      <trkpt lat="42.168709" lon="-7.957031">
        <ele>447.73</ele>
        <time>2013-06-08T14:43:51Z</time>
      </trkpt>
      <trkpt lat="42.168803" lon="-7.957126">
        <ele>445.75</ele>
        <time>2013-06-08T14:43:52Z</time>
      </trkpt>
      <trkpt lat="42.168908" lon="-7.957203">
        <ele>443.06</ele>
        <time>2013-06-08T14:43:53Z</time>
      </trkpt>
      <trkpt lat="42.169022" lon="-7.957260">
        <ele>439.76</ele>
        <time>2013-06-08T14:43:54Z</time>
      </trkpt>
      <trkpt lat="42.169142" lon="-7.957290">
        <ele>436.01</ele>
        <time>2013-06-08T14:43:55Z</time>
      </trkpt>
      <trkpt lat="42.169264" lon="-7.957291">
        <ele>432.11</ele>
        <time>2013-06-08T14:43:56Z</time>
      </trkpt>
      <trkpt lat="42.169387" lon="-7.957267">
        <ele>428.06</ele>
        <time>2013-06-08T14:43:57Z</time>
      </trkpt>
      <trkpt lat="42.169507" lon="-7.957220">
        <ele>423.93</ele>
        <time>2013-06-08T14:43:58Z</time>
      </trkpt>
      <trkpt lat="42.169621" lon="-7.957151">
        <ele>421.56</ele>
        <time>2013-06-08T14:43:59Z</time>
      </trkpt>
      <trkpt lat="42.169725" lon="-7.957058">
        <ele>421.91</ele>
        <time>2013-06-08T14:44:00Z</time>
      </trkpt>
      <trkpt lat="42.169817" lon="-7.956946">
        <ele>421.73</ele>
        <time>2013-06-08T14:44:01Z</time>
      </trkpt>
      <trkpt lat="42.169893" lon="-7.956815">
        <ele>421.30</ele>
        <time>2013-06-08T14:44:02Z</time>
      </trkpt>
      <trkpt lat="42.169955" lon="-7.956668">
        <ele>420.33</ele>
        <time>2013-06-08T14:44:03Z</time>
      </trkpt>
      <trkpt lat="42.169999" lon="-7.956507">
        <ele>419.24</ele>
        <time>2013-06-08T14:44:04Z</time>
      </trkpt>
      <trkpt lat="42.170032" lon="-7.956341">
        <ele>417.81</ele>
        <time>2013-06-08T14:44:05Z</time>
      </trkpt>
      <trkpt lat="42.170061" lon="-7.956173">
        <ele>416.21</ele>
        <time>2013-06-08T14:44:06Z</time>
      </trkpt>
      <trkpt lat="42.170643" lon="-7.953740">
        <ele>396.11</ele>
        <time>2013-06-08T14:44:20Z</time>
      </trkpt>
      <trkpt lat="42.171466" lon="-7.951432">
        <ele>383.40</ele>
        <time>2013-06-08T14:44:34Z</time>
      </trkpt>
      <trkpt lat="42.172573" lon="-7.949494">
        <ele>379.33</ele>
        <time>2013-06-08T14:44:48Z</time>
      </trkpt>
      <trkpt lat="42.172769" lon="-7.949315">
        <ele>380.27</ele>
        <time>2013-06-08T14:44:50Z</time>
      </trkpt>
      <trkpt lat="42.172876" lon="-7.949251">
        <ele>380.97</ele>
        <time>2013-06-08T14:44:51Z</time>
      </trkpt>
      <trkpt lat="42.172986" lon="-7.949206">
        <ele>381.64</ele>
        <time>2013-06-08T14:44:52Z</time>
      </trkpt>
      <trkpt lat="42.173093" lon="-7.949182">
        <ele>382.38</ele>
        <time>2013-06-08T14:44:53Z</time>
      </trkpt>
      <trkpt lat="42.173197" lon="-7.949174">
        <ele>383.44</ele>
        <time>2013-06-08T14:44:54Z</time>
      </trkpt>
      <trkpt lat="42.173306" lon="-7.949174">
        <ele>384.62</ele>
        <time>2013-06-08T14:44:55Z</time>
      </trkpt>
      <trkpt lat="42.174158" lon="-7.949126">
        <ele>391.79</ele>
        <time>2013-06-08T14:45:03Z</time>
      </trkpt>
      <trkpt lat="42.174258" lon="-7.949083">
        <ele>391.12</ele>
        <time>2013-06-08T14:45:04Z</time>
      </trkpt>
      <trkpt lat="42.174348" lon="-7.949026">
        <ele>389.71</ele>
        <time>2013-06-08T14:45:05Z</time>
      </trkpt>
      <trkpt lat="42.175351" lon="-7.948294">
        <ele>378.67</ele>
        <time>2013-06-08T14:45:17Z</time>
      </trkpt>
      <trkpt lat="42.175441" lon="-7.948265">
        <ele>378.53</ele>
        <time>2013-06-08T14:45:18Z</time>
      </trkpt>
      <trkpt lat="42.175532" lon="-7.948247">
        <ele>378.62</ele>
        <time>2013-06-08T14:45:19Z</time>
      </trkpt>
      <trkpt lat="42.175621" lon="-7.948238">
        <ele>379.17</ele>
        <time>2013-06-08T14:45:20Z</time>
      </trkpt>
      <trkpt lat="42.175710" lon="-7.948234">
        <ele>379.84</ele>
        <time>2013-06-08T14:45:21Z</time>
      </trkpt>
      <trkpt lat="42.175795" lon="-7.948237">
        <ele>380.82</ele>
        <time>2013-06-08T14:45:22Z</time>
      </trkpt>
      <trkpt lat="42.176519" lon="-7.948364">
        <ele>390.56</ele>
        <time>2013-06-08T14:45:31Z</time>
      </trkpt>
      <trkpt lat="42.176596" lon="-7.948357">
        <ele>390.50</ele>
        <time>2013-06-08T14:45:32Z</time>
      </trkpt>
      <trkpt lat="42.176670" lon="-7.948341">
        <ele>390.05</ele>
        <time>2013-06-08T14:45:33Z</time>
      </trkpt>
      <trkpt lat="42.176744" lon="-7.948323">
        <ele>389.62</ele>
        <time>2013-06-08T14:45:34Z</time>
      </trkpt>
      <trkpt lat="42.176816" lon="-7.948299">
        <ele>389.11</ele>
        <time>2013-06-08T14:45:35Z</time>
      </trkpt>
      <trkpt lat="42.176888" lon="-7.948269">
        <ele>388.64</ele>
        <time>2013-06-08T14:45:36Z</time>
      </trkpt>
      <trkpt lat="42.176960" lon="-7.948234">
        <ele>388.05</ele>
        <time>2013-06-08T14:45:37Z</time>
      </trkpt>
      <trkpt lat="42.177098" lon="-7.948139">
        <ele>386.73</ele>
        <time>2013-06-08T14:45:39Z</time>
      </trkpt>
      <trkpt lat="42.177281" lon="-7.947947">
        <ele>384.70</ele>
        <time>2013-06-08T14:45:42Z</time>
      </trkpt>
      <trkpt lat="42.177887" lon="-7.946852">
        <ele>369.69</ele>
        <time>2013-06-08T14:45:55Z</time>
      </trkpt>
      <trkpt lat="42.178175" lon="-7.946512">
        <ele>369.86</ele>
        <time>2013-06-08T14:46:00Z</time>
      </trkpt>
      <trkpt lat="42.178243" lon="-7.946456">
        <ele>370.11</ele>
        <time>2013-06-08T14:46:01Z</time>
      </trkpt>
      <trkpt lat="42.179110" lon="-7.946136">
        <ele>376.45</ele>
        <time>2013-06-08T14:46:13Z</time>
      </trkpt>
      <trkpt lat="42.180458" lon="-7.946028">
        <ele>374.80</ele>
        <time>2013-06-08T14:46:29Z</time>
      </trkpt>
      <trkpt lat="42.180646" lon="-7.945955">
        <ele>374.31</ele>
        <time>2013-06-08T14:46:31Z</time>
      </trkpt>
      <trkpt lat="42.181782" lon="-7.945115">
        <ele>359.41</ele>
        <time>2013-06-08T14:46:44Z</time>
      </trkpt>
      <trkpt lat="42.181968" lon="-7.944996">
        <ele>358.19</ele>
        <time>2013-06-08T14:46:46Z</time>
      </trkpt>
      <trkpt lat="42.182066" lon="-7.944954">
        <ele>357.84</ele>
        <time>2013-06-08T14:46:47Z</time>
      </trkpt>
      <trkpt lat="42.182165" lon="-7.944924">
        <ele>357.08</ele>
        <time>2013-06-08T14:46:48Z</time>
      </trkpt>
      <trkpt lat="42.182268" lon="-7.944906">
        <ele>356.47</ele>
        <time>2013-06-08T14:46:49Z</time>
      </trkpt>
      <trkpt lat="42.182374" lon="-7.944903">
        <ele>356.25</ele>
        <time>2013-06-08T14:46:50Z</time>
      </trkpt>
      <trkpt lat="42.182478" lon="-7.944914">
        <ele>356.23</ele>
        <time>2013-06-08T14:46:51Z</time>
      </trkpt>
      <trkpt lat="42.182580" lon="-7.944935">
        <ele>356.46</ele>
        <time>2013-06-08T14:46:52Z</time>
      </trkpt>
      <trkpt lat="42.182683" lon="-7.944959">
        <ele>356.59</ele>
        <time>2013-06-08T14:46:53Z</time>
      </trkpt>
      <trkpt lat="42.183384" lon="-7.945139">
        <ele>352.56</ele>
        <time>2013-06-08T14:47:00Z</time>
      </trkpt>
      <trkpt lat="42.183483" lon="-7.945128">
        <ele>351.23</ele>
        <time>2013-06-08T14:47:01Z</time>
      </trkpt>
      <trkpt lat="42.183579" lon="-7.945106">
        <ele>349.91</ele>
        <time>2013-06-08T14:47:02Z</time>
      </trkpt>
      <trkpt lat="42.183674" lon="-7.945073">
        <ele>348.65</ele>
        <time>2013-06-08T14:47:03Z</time>
      </trkpt>
      <trkpt lat="42.183764" lon="-7.945026">
        <ele>347.65</ele>
        <time>2013-06-08T14:47:04Z</time>
      </trkpt>
      <trkpt lat="42.183850" lon="-7.944965">
        <ele>347.51</ele>
        <time>2013-06-08T14:47:05Z</time>
      </trkpt>
      <trkpt lat="42.183927" lon="-7.944892">
        <ele>347.40</ele>
        <time>2013-06-08T14:47:06Z</time>
      </trkpt>
      <trkpt lat="42.183997" lon="-7.944810">
        <ele>346.91</ele>
        <time>2013-06-08T14:47:07Z</time>
      </trkpt>
      <trkpt lat="42.184058" lon="-7.944724">
        <ele>346.47</ele>
        <time>2013-06-08T14:47:08Z</time>
      </trkpt>
      <trkpt lat="42.184114" lon="-7.944629">
        <ele>345.88</ele>
        <time>2013-06-08T14:47:09Z</time>
      </trkpt>
      <trkpt lat="42.184167" lon="-7.944529">
        <ele>345.82</ele>
        <time>2013-06-08T14:47:10Z</time>
      </trkpt>
      <trkpt lat="42.184214" lon="-7.944425">
        <ele>346.28</ele>
        <time>2013-06-08T14:47:11Z</time>
      </trkpt>
      <trkpt lat="42.184572" lon="-7.943615">
        <ele>349.01</ele>
        <time>2013-06-08T14:47:19Z</time>
      </trkpt>
      <trkpt lat="42.184629" lon="-7.943528">
        <ele>349.21</ele>
        <time>2013-06-08T14:47:20Z</time>
      </trkpt>
      <trkpt lat="42.184689" lon="-7.943446">
        <ele>349.14</ele>
        <time>2013-06-08T14:47:21Z</time>
      </trkpt>
      <trkpt lat="42.184753" lon="-7.943371">
        <ele>348.88</ele>
        <time>2013-06-08T14:47:22Z</time>
      </trkpt>
      <trkpt lat="42.184821" lon="-7.943301">
        <ele>348.38</ele>
        <time>2013-06-08T14:47:23Z</time>
      </trkpt>
      <trkpt lat="42.184889" lon="-7.943236">
        <ele>347.66</ele>
        <time>2013-06-08T14:47:24Z</time>
      </trkpt>
      <trkpt lat="42.185761" lon="-7.942650">
        <ele>342.35</ele>
        <time>2013-06-08T14:47:36Z</time>
      </trkpt>
      <trkpt lat="42.186655" lon="-7.942195">
        <ele>342.08</ele>
        <time>2013-06-08T14:47:49Z</time>
      </trkpt>
      <trkpt lat="42.187070" lon="-7.942176">
        <ele>338.07</ele>
        <time>2013-06-08T14:47:55Z</time>
      </trkpt>
      <trkpt lat="42.188040" lon="-7.942587">
        <ele>335.16</ele>
        <time>2013-06-08T14:48:09Z</time>
      </trkpt>
      <trkpt lat="42.188830" lon="-7.942638">
        <ele>338.82</ele>
        <time>2013-06-08T14:48:20Z</time>
      </trkpt>
      <trkpt lat="42.189812" lon="-7.942133">
        <ele>334.61</ele>
        <time>2013-06-08T14:48:35Z</time>
      </trkpt>
      <trkpt lat="42.191205" lon="-7.941451">
        <ele>331.91</ele>
        <time>2013-06-08T14:48:56Z</time>
      </trkpt>
      <trkpt lat="42.192050" lon="-7.941287">
        <ele>331.93</ele>
        <time>2013-06-08T14:49:08Z</time>
      </trkpt>
      <trkpt lat="42.192114" lon="-7.941250">
        <ele>332.05</ele>
        <time>2013-06-08T14:49:09Z</time>
      </trkpt>
      <trkpt lat="42.192178" lon="-7.941219">
        <ele>331.96</ele>
        <time>2013-06-08T14:49:10Z</time>
      </trkpt>
      <trkpt lat="42.192246" lon="-7.941210">
        <ele>331.91</ele>
        <time>2013-06-08T14:49:11Z</time>
      </trkpt>
      <trkpt lat="42.192315" lon="-7.941216">
        <ele>331.87</ele>
        <time>2013-06-08T14:49:12Z</time>
      </trkpt>
      <trkpt lat="42.192383" lon="-7.941228">
        <ele>331.79</ele>
        <time>2013-06-08T14:49:13Z</time>
      </trkpt>
      <trkpt lat="42.192530" lon="-7.941235">
        <ele>331.59</ele>
        <time>2013-06-08T14:49:15Z</time>
      </trkpt>
      <trkpt lat="42.193723" lon="-7.941032">
        <ele>327.00</ele>
        <time>2013-06-08T14:49:30Z</time>
      </trkpt>
      <trkpt lat="42.194556" lon="-7.940391">
        <ele>323.23</ele>
        <time>2013-06-08T14:49:41Z</time>
      </trkpt>
      <trkpt lat="42.195004" lon="-7.940193">
        <ele>321.92</ele>
        <time>2013-06-08T14:49:47Z</time>
      </trkpt>
      <trkpt lat="42.195082" lon="-7.940183">
        <ele>321.71</ele>
        <time>2013-06-08T14:49:48Z</time>
      </trkpt>
      <trkpt lat="42.196225" lon="-7.940294">
        <ele>321.32</ele>
        <time>2013-06-08T14:50:03Z</time>
      </trkpt>
      <trkpt lat="42.197108" lon="-7.940402">
        <ele>327.27</ele>
        <time>2013-06-08T14:50:18Z</time>
      </trkpt>
      <trkpt lat="42.197799" lon="-7.940435">
        <ele>335.92</ele>
        <time>2013-06-08T14:50:32Z</time>
      </trkpt>
      <trkpt lat="42.197847" lon="-7.940426">
        <ele>336.33</ele>
        <time>2013-06-08T14:50:33Z</time>
      </trkpt>
      <trkpt lat="42.198144" lon="-7.940332">
        <ele>339.34</ele>
        <time>2013-06-08T14:50:39Z</time>
      </trkpt>
      <trkpt lat="42.198197" lon="-7.940312">
        <ele>339.88</ele>
        <time>2013-06-08T14:50:40Z</time>
      </trkpt>
      <trkpt lat="42.198986" lon="-7.939850">
        <ele>342.13</ele>
        <time>2013-06-08T14:50:56Z</time>
      </trkpt>
      <trkpt lat="42.199852" lon="-7.939351">
        <ele>342.70</ele>
        <time>2013-06-08T14:51:12Z</time>
      </trkpt>
      <trkpt lat="42.200579" lon="-7.938955">
        <ele>339.62</ele>
        <time>2013-06-08T14:51:25Z</time>
      </trkpt>
      <trkpt lat="42.201449" lon="-7.938514">
        <ele>342.23</ele>
        <time>2013-06-08T14:51:41Z</time>
      </trkpt>
      <trkpt lat="42.201605" lon="-7.938459">
        <ele>343.31</ele>
        <time>2013-06-08T14:51:44Z</time>
      </trkpt>
      <trkpt lat="42.201659" lon="-7.938444">
        <ele>343.87</ele>
        <time>2013-06-08T14:51:45Z</time>
      </trkpt>
      <trkpt lat="42.201710" lon="-7.938430">
        <ele>344.38</ele>
        <time>2013-06-08T14:51:46Z</time>
      </trkpt>
      <trkpt lat="42.201814" lon="-7.938406">
        <ele>345.22</ele>
        <time>2013-06-08T14:51:48Z</time>
      </trkpt>
      <trkpt lat="42.202172" lon="-7.938415">
        <ele>349.08</ele>
        <time>2013-06-08T14:51:55Z</time>
      </trkpt>
      <trkpt lat="42.202864" lon="-7.938557">
        <ele>353.47</ele>
        <time>2013-06-08T14:52:08Z</time>
      </trkpt>
      <trkpt lat="42.203071" lon="-7.938612">
        <ele>353.99</ele>
        <time>2013-06-08T14:52:12Z</time>
      </trkpt>
      <trkpt lat="42.203816" lon="-7.938877">
        <ele>355.46</ele>
        <time>2013-06-08T14:52:26Z</time>
      </trkpt>
      <trkpt lat="42.204595" lon="-7.939260">
        <ele>355.96</ele>
        <time>2013-06-08T14:52:39Z</time>
      </trkpt>
      <trkpt lat="42.205344" lon="-7.939644">
        <ele>357.44</ele>
        <time>2013-06-08T14:52:52Z</time>
      </trkpt>
      <trkpt lat="42.206103" lon="-7.939880">
        <ele>355.12</ele>
        <time>2013-06-08T14:53:05Z</time>
      </trkpt>
      <trkpt lat="42.207069" lon="-7.939884">
        <ele>349.21</ele>
        <time>2013-06-08T14:53:23Z</time>
      </trkpt>
      <trkpt lat="42.207964" lon="-7.939942">
        <ele>351.56</ele>
        <time>2013-06-08T14:53:38Z</time>
      </trkpt>
      <trkpt lat="42.208829" lon="-7.940058">
        <ele>351.52</ele>
        <time>2013-06-08T14:53:53Z</time>
      </trkpt>
      <trkpt lat="42.209567" lon="-7.940118">
        <ele>352.87</ele>
        <time>2013-06-08T14:54:08Z</time>
      </trkpt>
      <trkpt lat="42.209612" lon="-7.940115">
        <ele>352.96</ele>
        <time>2013-06-08T14:54:09Z</time>
      </trkpt>
      <trkpt lat="42.209795" lon="-7.940112">
        <ele>353.65</ele>
        <time>2013-06-08T14:54:13Z</time>
      </trkpt>
      <trkpt lat="42.209841" lon="-7.940108">
        <ele>353.75</ele>
        <time>2013-06-08T14:54:14Z</time>
      </trkpt>
      <trkpt lat="42.209891" lon="-7.940108">
        <ele>353.97</ele>
        <time>2013-06-08T14:54:15Z</time>
      </trkpt>
      <trkpt lat="42.209943" lon="-7.940106">
        <ele>354.20</ele>
        <time>2013-06-08T14:54:16Z</time>
      </trkpt>
      <trkpt lat="42.209997" lon="-7.940104">
        <ele>354.33</ele>
        <time>2013-06-08T14:54:17Z</time>
      </trkpt>
      <trkpt lat="42.210049" lon="-7.940100">
        <ele>354.52</ele>
        <time>2013-06-08T14:54:18Z</time>
      </trkpt>
      <trkpt lat="42.210098" lon="-7.940100">
        <ele>354.71</ele>
        <time>2013-06-08T14:54:19Z</time>
      </trkpt>
      <trkpt lat="42.210855" lon="-7.940090">
        <ele>359.37</ele>
        <time>2013-06-08T14:54:36Z</time>
      </trkpt>
      <trkpt lat="42.211430" lon="-7.940034">
        <ele>362.26</ele>
        <time>2013-06-08T14:54:49Z</time>
      </trkpt>
      <trkpt lat="42.211702" lon="-7.939935">
        <ele>361.69</ele>
        <time>2013-06-08T14:54:55Z</time>
      </trkpt>
      <trkpt lat="42.212254" lon="-7.939466">
        <ele>360.65</ele>
        <time>2013-06-08T14:55:08Z</time>
      </trkpt>
      <trkpt lat="42.212749" lon="-7.938590">
        <ele>363.68</ele>
        <time>2013-06-08T14:55:23Z</time>
      </trkpt>
      <trkpt lat="42.213306" lon="-7.937558">
        <ele>365.47</ele>
        <time>2013-06-08T14:55:40Z</time>
      </trkpt>
      <trkpt lat="42.214013" lon="-7.936716">
        <ele>367.86</ele>
        <time>2013-06-08T14:55:57Z</time>
      </trkpt>
      <trkpt lat="42.214720" lon="-7.936235">
        <ele>371.37</ele>
        <time>2013-06-08T14:56:12Z</time>
      </trkpt>
      <trkpt lat="42.215058" lon="-7.936024">
        <ele>375.58</ele>
        <time>2013-06-08T14:56:19Z</time>
      </trkpt>
      <trkpt lat="42.215796" lon="-7.935507">
        <ele>377.62</ele>
        <time>2013-06-08T14:56:34Z</time>
      </trkpt>
      <trkpt lat="42.215996" lon="-7.935225">
        <ele>377.11</ele>
        <time>2013-06-08T14:56:39Z</time>
      </trkpt>
      <trkpt lat="42.216255" lon="-7.934773">
        <ele>374.42</ele>
        <time>2013-06-08T14:56:47Z</time>
      </trkpt>
      <trkpt lat="42.216416" lon="-7.934530">
        <ele>372.99</ele>
        <time>2013-06-08T14:56:52Z</time>
      </trkpt>
      <trkpt lat="42.216617" lon="-7.934287">
        <ele>373.34</ele>
        <time>2013-06-08T14:56:58Z</time>
      </trkpt>
      <trkpt lat="42.217231" lon="-7.933836">
        <ele>374.88</ele>
        <time>2013-06-08T14:57:16Z</time>
      </trkpt>
      <trkpt lat="42.217649" lon="-7.933495">
        <ele>378.91</ele>
        <time>2013-06-08T14:57:29Z</time>
      </trkpt>
      <trkpt lat="42.217679" lon="-7.933456">
        <ele>379.29</ele>
        <time>2013-06-08T14:57:30Z</time>
      </trkpt>
      <trkpt lat="42.217708" lon="-7.933417">
        <ele>379.56</ele>
        <time>2013-06-08T14:57:31Z</time>
      </trkpt>
      <trkpt lat="42.217735" lon="-7.933381">
        <ele>379.86</ele>
        <time>2013-06-08T14:57:32Z</time>
      </trkpt>
      <trkpt lat="42.217763" lon="-7.933351">
        <ele>380.06</ele>
        <time>2013-06-08T14:57:33Z</time>
      </trkpt>
      <trkpt lat="42.218053" lon="-7.932917">
        <ele>383.51</ele>
        <time>2013-06-08T14:57:45Z</time>
      </trkpt>
      <trkpt lat="42.218471" lon="-7.932315">
        <ele>387.31</ele>
        <time>2013-06-08T14:58:02Z</time>
      </trkpt>
      <trkpt lat="42.218937" lon="-7.931973">
        <ele>389.77</ele>
        <time>2013-06-08T14:58:16Z</time>
      </trkpt>
      <trkpt lat="42.219203" lon="-7.931853">
        <ele>393.06</ele>
        <time>2013-06-08T14:58:23Z</time>
      </trkpt>
      <trkpt lat="42.219402" lon="-7.931762">
        <ele>395.06</ele>
        <time>2013-06-08T14:58:28Z</time>
      </trkpt>
      <trkpt lat="42.219442" lon="-7.931747">
        <ele>395.41</ele>
        <time>2013-06-08T14:58:29Z</time>
      </trkpt>
      <trkpt lat="42.219888" lon="-7.931556">
        <ele>398.51</ele>
        <time>2013-06-08T14:58:39Z</time>
      </trkpt>
      <trkpt lat="42.220678" lon="-7.931221">
        <ele>402.80</ele>
        <time>2013-06-08T14:58:56Z</time>
      </trkpt>
      <trkpt lat="42.220887" lon="-7.931134">
        <ele>403.90</ele>
        <time>2013-06-08T14:59:01Z</time>
      </trkpt>
      <trkpt lat="42.220929" lon="-7.931119">
        <ele>404.08</ele>
        <time>2013-06-08T14:59:02Z</time>
      </trkpt>
      <trkpt lat="42.221310" lon="-7.930962">
        <ele>405.76</ele>
        <time>2013-06-08T14:59:12Z</time>
      </trkpt>
      <trkpt lat="42.221349" lon="-7.930944">
        <ele>405.82</ele>
        <time>2013-06-08T14:59:13Z</time>
      </trkpt>
      <trkpt lat="42.221825" lon="-7.930718">
        <ele>407.71</ele>
        <time>2013-06-08T14:59:26Z</time>
      </trkpt>
      <trkpt lat="42.222377" lon="-7.930474">
        <ele>410.79</ele>
        <time>2013-06-08T14:59:41Z</time>
      </trkpt>
      <trkpt lat="42.222922" lon="-7.930234">
        <ele>414.49</ele>
        <time>2013-06-08T14:59:55Z</time>
      </trkpt>
      <trkpt lat="42.223234" lon="-7.930051">
        <ele>415.42</ele>
        <time>2013-06-08T15:00:02Z</time>
      </trkpt>
      <trkpt lat="42.223353" lon="-7.929949">
        <ele>415.79</ele>
        <time>2013-06-08T15:00:05Z</time>
      </trkpt>
      <trkpt lat="42.223449" lon="-7.929828">
        <ele>415.91</ele>
        <time>2013-06-08T15:00:08Z</time>
      </trkpt>
      <trkpt lat="42.223565" lon="-7.929643">
        <ele>416.03</ele>
        <time>2013-06-08T15:00:12Z</time>
      </trkpt>
      <trkpt lat="42.223633" lon="-7.929489">
        <ele>416.62</ele>
        <time>2013-06-08T15:00:15Z</time>
      </trkpt>
      <trkpt lat="42.223651" lon="-7.929438">
        <ele>416.95</ele>
        <time>2013-06-08T15:00:16Z</time>
      </trkpt>
      <trkpt lat="42.223853" lon="-7.928839">
        <ele>420.40</ele>
        <time>2013-06-08T15:00:29Z</time>
      </trkpt>
      <trkpt lat="42.224050" lon="-7.928139">
        <ele>423.41</ele>
        <time>2013-06-08T15:00:43Z</time>
      </trkpt>
      <trkpt lat="42.224372" lon="-7.927387">
        <ele>427.21</ele>
        <time>2013-06-08T15:00:58Z</time>
      </trkpt>
      <trkpt lat="42.224823" lon="-7.926813">
        <ele>430.42</ele>
        <time>2013-06-08T15:01:12Z</time>
      </trkpt>
      <trkpt lat="42.224855" lon="-7.926773">
        <ele>430.54</ele>
        <time>2013-06-08T15:01:13Z</time>
      </trkpt>
      <trkpt lat="42.224893" lon="-7.926737">
        <ele>430.77</ele>
        <time>2013-06-08T15:01:14Z</time>
      </trkpt>
      <trkpt lat="42.225178" lon="-7.926514">
        <ele>431.59</ele>
        <time>2013-06-08T15:01:21Z</time>
      </trkpt>
      <trkpt lat="42.225225" lon="-7.926498">
        <ele>431.67</ele>
        <time>2013-06-08T15:01:22Z</time>
      </trkpt>
      <trkpt lat="42.225273" lon="-7.926480">
        <ele>431.66</ele>
        <time>2013-06-08T15:01:23Z</time>
      </trkpt>
      <trkpt lat="42.225902" lon="-7.926283">
        <ele>430.82</ele>
        <time>2013-06-08T15:01:34Z</time>
      </trkpt>
      <trkpt lat="42.227033" lon="-7.926329">
        <ele>426.36</ele>
        <time>2013-06-08T15:01:49Z</time>
      </trkpt>
      <trkpt lat="42.227549" lon="-7.926254">
        <ele>423.20</ele>
        <time>2013-06-08T15:01:55Z</time>
      </trkpt>
      <trkpt lat="42.227635" lon="-7.926213">
        <ele>422.62</ele>
        <time>2013-06-08T15:01:56Z</time>
      </trkpt>
      <trkpt lat="42.227718" lon="-7.926165">
        <ele>421.91</ele>
        <time>2013-06-08T15:01:57Z</time>
      </trkpt>
      <trkpt lat="42.227797" lon="-7.926108">
        <ele>421.33</ele>
        <time>2013-06-08T15:01:58Z</time>
      </trkpt>
      <trkpt lat="42.227871" lon="-7.926042">
        <ele>420.67</ele>
        <time>2013-06-08T15:01:59Z</time>
      </trkpt>
      <trkpt lat="42.227939" lon="-7.925970">
        <ele>420.04</ele>
        <time>2013-06-08T15:02:00Z</time>
      </trkpt>
      <trkpt lat="42.228000" lon="-7.925895">
        <ele>419.73</ele>
        <time>2013-06-08T15:02:01Z</time>
      </trkpt>
      <trkpt lat="42.228054" lon="-7.925815">
        <ele>419.52</ele>
        <time>2013-06-08T15:02:02Z</time>
      </trkpt>
      <trkpt lat="42.228104" lon="-7.925730">
        <ele>419.37</ele>
        <time>2013-06-08T15:02:03Z</time>
      </trkpt>
      <trkpt lat="42.228449" lon="-7.924944">
        <ele>419.05</ele>
        <time>2013-06-08T15:02:12Z</time>
      </trkpt>
      <trkpt lat="42.228533" lon="-7.924777">
        <ele>418.74</ele>
        <time>2013-06-08T15:02:14Z</time>
      </trkpt>
      <trkpt lat="42.229270" lon="-7.924011">
        <ele>418.45</ele>
        <time>2013-06-08T15:02:26Z</time>
      </trkpt>
      <trkpt lat="42.230788" lon="-7.922814">
        <ele>414.21</ele>
        <time>2013-06-08T15:02:48Z</time>
      </trkpt>
      <trkpt lat="42.232047" lon="-7.922106">
        <ele>409.21</ele>
        <time>2013-06-08T15:03:04Z</time>
      </trkpt>
      <trkpt lat="42.232133" lon="-7.922090">
        <ele>409.18</ele>
        <time>2013-06-08T15:03:05Z</time>
      </trkpt>
      <trkpt lat="42.233080" lon="-7.922215">
        <ele>409.82</ele>
        <time>2013-06-08T15:03:16Z</time>
      </trkpt>
      <trkpt lat="42.233662" lon="-7.922082">
        <ele>404.67</ele>
        <time>2013-06-08T15:03:23Z</time>
      </trkpt>
      <trkpt lat="42.233736" lon="-7.922028">
        <ele>403.93</ele>
        <time>2013-06-08T15:03:24Z</time>
      </trkpt>
      <trkpt lat="42.233805" lon="-7.921968">
        <ele>404.05</ele>
        <time>2013-06-08T15:03:25Z</time>
      </trkpt>
      <trkpt lat="42.233866" lon="-7.921902">
        <ele>404.23</ele>
        <time>2013-06-08T15:03:26Z</time>
      </trkpt>
      <trkpt lat="42.233923" lon="-7.921830">
        <ele>404.39</ele>
        <time>2013-06-08T15:03:27Z</time>
      </trkpt>
      <trkpt lat="42.233976" lon="-7.921756">
        <ele>404.32</ele>
        <time>2013-06-08T15:03:28Z</time>
      </trkpt>
      <trkpt lat="42.234636" lon="-7.920577">
        <ele>402.28</ele>
        <time>2013-06-08T15:03:42Z</time>
      </trkpt>
      <trkpt lat="42.235247" lon="-7.919530">
        <ele>398.61</ele>
        <time>2013-06-08T15:03:54Z</time>
      </trkpt>
      <trkpt lat="42.235310" lon="-7.919457">
        <ele>398.51</ele>
        <time>2013-06-08T15:03:55Z</time>
      </trkpt>
      <trkpt lat="42.235378" lon="-7.919391">
        <ele>398.42</ele>
        <time>2013-06-08T15:03:56Z</time>
      </trkpt>
      <trkpt lat="42.236320" lon="-7.918757">
        <ele>396.48</ele>
        <time>2013-06-08T15:04:08Z</time>
      </trkpt>
      <trkpt lat="42.236385" lon="-7.918692">
        <ele>396.39</ele>
        <time>2013-06-08T15:04:09Z</time>
      </trkpt>
      <trkpt lat="42.236520" lon="-7.918540">
        <ele>396.18</ele>
        <time>2013-06-08T15:04:11Z</time>
      </trkpt>
      <trkpt lat="42.236586" lon="-7.918451">
        <ele>396.08</ele>
        <time>2013-06-08T15:04:12Z</time>
      </trkpt>
      <trkpt lat="42.237360" lon="-7.917191">
        <ele>393.33</ele>
        <time>2013-06-08T15:04:26Z</time>
      </trkpt>
      <trkpt lat="42.238445" lon="-7.915886">
        <ele>389.59</ele>
        <time>2013-06-08T15:04:43Z</time>
      </trkpt>
      <trkpt lat="42.239678" lon="-7.914808">
        <ele>384.91</ele>
        <time>2013-06-08T15:04:59Z</time>
      </trkpt>
      <trkpt lat="42.240898" lon="-7.913854">
        <ele>379.62</ele>
        <time>2013-06-08T15:05:14Z</time>
      </trkpt>
      <trkpt lat="42.241546" lon="-7.912741">
        <ele>378.30</ele>
        <time>2013-06-08T15:05:26Z</time>
      </trkpt>
      <trkpt lat="42.242245" lon="-7.911003">
        <ele>374.01</ele>
        <time>2013-06-08T15:05:43Z</time>
      </trkpt>
      <trkpt lat="42.242860" lon="-7.909752">
        <ele>374.46</ele>
        <time>2013-06-08T15:05:57Z</time>
      </trkpt>
      <trkpt lat="42.243737" lon="-7.908820">
        <ele>378.48</ele>
        <time>2013-06-08T15:06:11Z</time>
      </trkpt>
      <trkpt lat="42.244353" lon="-7.907810">
        <ele>375.95</ele>
        <time>2013-06-08T15:06:23Z</time>
      </trkpt>
      <trkpt lat="42.244902" lon="-7.906445">
        <ele>372.19</ele>
        <time>2013-06-08T15:06:37Z</time>
      </trkpt>
      <trkpt lat="42.244966" lon="-7.906365">
        <ele>372.25</ele>
        <time>2013-06-08T15:06:38Z</time>
      </trkpt>
      <trkpt lat="42.245033" lon="-7.906289">
        <ele>372.50</ele>
        <time>2013-06-08T15:06:39Z</time>
      </trkpt>
      <trkpt lat="42.245971" lon="-7.905692">
        <ele>370.60</ele>
        <time>2013-06-08T15:06:50Z</time>
      </trkpt>
      <trkpt lat="42.246978" lon="-7.905611">
        <ele>371.40</ele>
        <time>2013-06-08T15:07:01Z</time>
      </trkpt>
      <trkpt lat="42.248175" lon="-7.905983">
        <ele>367.52</ele>
        <time>2013-06-08T15:07:16Z</time>
      </trkpt>
      <trkpt lat="42.248251" lon="-7.905973">
        <ele>367.02</ele>
        <time>2013-06-08T15:07:17Z</time>
      </trkpt>
      <trkpt lat="42.248618" lon="-7.905836">
        <ele>364.61</ele>
        <time>2013-06-08T15:07:22Z</time>
      </trkpt>
      <trkpt lat="42.248882" lon="-7.905638">
        <ele>364.91</ele>
        <time>2013-06-08T15:07:26Z</time>
      </trkpt>
      <trkpt lat="42.249409" lon="-7.904692">
        <ele>367.13</ele>
        <time>2013-06-08T15:07:38Z</time>
      </trkpt>
      <trkpt lat="42.249909" lon="-7.903034">
        <ele>366.11</ele>
        <time>2013-06-08T15:07:56Z</time>
      </trkpt>
      <trkpt lat="42.250636" lon="-7.901518">
        <ele>365.10</ele>
        <time>2013-06-08T15:08:14Z</time>
      </trkpt>
      <trkpt lat="42.251397" lon="-7.900139">
        <ele>366.22</ele>
        <time>2013-06-08T15:08:31Z</time>
      </trkpt>
      <trkpt lat="42.252211" lon="-7.899467">
        <ele>366.84</ele>
        <time>2013-06-08T15:08:43Z</time>
      </trkpt>
      <trkpt lat="42.253105" lon="-7.899409">
        <ele>364.36</ele>
        <time>2013-06-08T15:08:53Z</time>
      </trkpt>
      <trkpt lat="42.254334" lon="-7.900013">
        <ele>365.85</ele>
        <time>2013-06-08T15:09:07Z</time>
      </trkpt>
      <trkpt lat="42.255328" lon="-7.900546">
        <ele>367.46</ele>
        <time>2013-06-08T15:09:20Z</time>
      </trkpt>
      <trkpt lat="42.256418" lon="-7.900904">
        <ele>361.82</ele>
        <time>2013-06-08T15:09:35Z</time>
      </trkpt>
      <trkpt lat="42.257461" lon="-7.901090">
        <ele>366.91</ele>
        <time>2013-06-08T15:09:51Z</time>
      </trkpt>
      <trkpt lat="42.258119" lon="-7.901218">
        <ele>369.87</ele>
        <time>2013-06-08T15:10:02Z</time>
      </trkpt>
      <trkpt lat="42.258185" lon="-7.901230">
        <ele>370.24</ele>
        <time>2013-06-08T15:10:03Z</time>
      </trkpt>
      <trkpt lat="42.258451" lon="-7.901278">
        <ele>371.87</ele>
        <time>2013-06-08T15:10:07Z</time>
      </trkpt>
      <trkpt lat="42.259320" lon="-7.901439">
        <ele>374.99</ele>
        <time>2013-06-08T15:10:21Z</time>
      </trkpt>
      <trkpt lat="42.260331" lon="-7.901797">
        <ele>375.88</ele>
        <time>2013-06-08T15:10:38Z</time>
      </trkpt>
      <trkpt lat="42.261249" lon="-7.902508">
        <ele>383.54</ele>
        <time>2013-06-08T15:10:55Z</time>
      </trkpt>
      <trkpt lat="42.262170" lon="-7.903089">
        <ele>385.73</ele>
        <time>2013-06-08T15:11:12Z</time>
      </trkpt>
      <trkpt lat="42.262582" lon="-7.903174">
        <ele>383.93</ele>
        <time>2013-06-08T15:11:19Z</time>
      </trkpt>
      <trkpt lat="42.262641" lon="-7.903169">
        <ele>383.50</ele>
        <time>2013-06-08T15:11:20Z</time>
      </trkpt>
      <trkpt lat="42.262759" lon="-7.903160">
        <ele>382.72</ele>
        <time>2013-06-08T15:11:22Z</time>
      </trkpt>
      <trkpt lat="42.263361" lon="-7.903193">
        <ele>380.91</ele>
        <time>2013-06-08T15:11:32Z</time>
      </trkpt>
      <trkpt lat="42.263833" lon="-7.903240">
        <ele>380.60</ele>
        <time>2013-06-08T15:11:38Z</time>
      </trkpt>
      <trkpt lat="42.263903" lon="-7.903260">
        <ele>380.83</ele>
        <time>2013-06-08T15:11:39Z</time>
      </trkpt>
      <trkpt lat="42.263972" lon="-7.903263">
        <ele>381.08</ele>
        <time>2013-06-08T15:11:40Z</time>
      </trkpt>
      <trkpt lat="42.264041" lon="-7.903258">
        <ele>381.31</ele>
        <time>2013-06-08T15:11:41Z</time>
      </trkpt>
      <trkpt lat="42.264107" lon="-7.903256">
        <ele>381.57</ele>
        <time>2013-06-08T15:11:42Z</time>
      </trkpt>
      <trkpt lat="42.264170" lon="-7.903260">
        <ele>381.77</ele>
        <time>2013-06-08T15:11:43Z</time>
      </trkpt>
      <trkpt lat="42.265100" lon="-7.903297">
        <ele>384.86</ele>
        <time>2013-06-08T15:11:59Z</time>
      </trkpt>
      <trkpt lat="42.265586" lon="-7.903314">
        <ele>386.35</ele>
        <time>2013-06-08T15:12:08Z</time>
      </trkpt>
      <trkpt lat="42.266371" lon="-7.903351">
        <ele>388.29</ele>
        <time>2013-06-08T15:12:22Z</time>
      </trkpt>
      <trkpt lat="42.267263" lon="-7.903382">
        <ele>389.42</ele>
        <time>2013-06-08T15:12:37Z</time>
      </trkpt>
      <trkpt lat="42.267830" lon="-7.903410">
        <ele>390.41</ele>
        <time>2013-06-08T15:12:46Z</time>
      </trkpt>
      <trkpt lat="42.268320" lon="-7.903286">
        <ele>389.04</ele>
        <time>2013-06-08T15:12:53Z</time>
      </trkpt>
      <trkpt lat="42.269288" lon="-7.902745">
        <ele>386.77</ele>
        <time>2013-06-08T15:13:06Z</time>
      </trkpt>
      <trkpt lat="42.270242" lon="-7.902755">
        <ele>384.74</ele>
        <time>2013-06-08T15:13:18Z</time>
      </trkpt>
      <trkpt lat="42.271554" lon="-7.903105">
        <ele>382.19</ele>
        <time>2013-06-08T15:13:34Z</time>
      </trkpt>
      <trkpt lat="42.272665" lon="-7.903179">
        <ele>379.40</ele>
        <time>2013-06-08T15:13:47Z</time>
      </trkpt>
      <trkpt lat="42.274006" lon="-7.902791">
        <ele>377.23</ele>
        <time>2013-06-08T15:14:02Z</time>
      </trkpt>
      <trkpt lat="42.275386" lon="-7.902257">
        <ele>375.15</ele>
        <time>2013-06-08T15:14:17Z</time>
      </trkpt>
      <trkpt lat="42.276961" lon="-7.901795">
        <ele>367.94</ele>
        <time>2013-06-08T15:14:33Z</time>
      </trkpt>
      <trkpt lat="42.278645" lon="-7.901283">
        <ele>358.17</ele>
        <time>2013-06-08T15:14:49Z</time>
      </trkpt>
      <trkpt lat="42.280193" lon="-7.900701">
        <ele>346.22</ele>
        <time>2013-06-08T15:15:03Z</time>
      </trkpt>
      <trkpt lat="42.280309" lon="-7.900682">
        <ele>345.21</ele>
        <time>2013-06-08T15:15:04Z</time>
      </trkpt>
      <trkpt lat="42.281667" lon="-7.900832">
        <ele>336.58</ele>
        <time>2013-06-08T15:15:16Z</time>
      </trkpt>
      <trkpt lat="42.283392" lon="-7.900860">
        <ele>325.76</ele>
        <time>2013-06-08T15:15:31Z</time>
      </trkpt>
      <trkpt lat="42.284805" lon="-7.901060">
        <ele>315.27</ele>
        <time>2013-06-08T15:15:44Z</time>
      </trkpt>
      <trkpt lat="42.285282" lon="-7.901084">
        <ele>310.51</ele>
        <time>2013-06-08T15:15:48Z</time>
      </trkpt>
      <trkpt lat="42.285404" lon="-7.901063">
        <ele>309.36</ele>
        <time>2013-06-08T15:15:49Z</time>
      </trkpt>
      <trkpt lat="42.285525" lon="-7.901033">
        <ele>308.68</ele>
        <time>2013-06-08T15:15:50Z</time>
      </trkpt>
      <trkpt lat="42.285646" lon="-7.900989">
        <ele>307.99</ele>
        <time>2013-06-08T15:15:51Z</time>
      </trkpt>
      <trkpt lat="42.285761" lon="-7.900931">
        <ele>307.39</ele>
        <time>2013-06-08T15:15:52Z</time>
      </trkpt>
      <trkpt lat="42.285875" lon="-7.900858">
        <ele>306.74</ele>
        <time>2013-06-08T15:15:53Z</time>
      </trkpt>
      <trkpt lat="42.285987" lon="-7.900771">
        <ele>306.23</ele>
        <time>2013-06-08T15:15:54Z</time>
      </trkpt>
      <trkpt lat="42.286097" lon="-7.900670">
        <ele>305.61</ele>
        <time>2013-06-08T15:15:55Z</time>
      </trkpt>
      <trkpt lat="42.286200" lon="-7.900556">
        <ele>305.15</ele>
        <time>2013-06-08T15:15:56Z</time>
      </trkpt>
      <trkpt lat="42.286297" lon="-7.900433">
        <ele>304.85</ele>
        <time>2013-06-08T15:15:57Z</time>
      </trkpt>
      <trkpt lat="42.286388" lon="-7.900299">
        <ele>304.87</ele>
        <time>2013-06-08T15:15:58Z</time>
      </trkpt>
      <trkpt lat="42.286467" lon="-7.900153">
        <ele>304.82</ele>
        <time>2013-06-08T15:15:59Z</time>
      </trkpt>
      <trkpt lat="42.286539" lon="-7.899999">
        <ele>304.64</ele>
        <time>2013-06-08T15:16:00Z</time>
      </trkpt>
      <trkpt lat="42.286604" lon="-7.899841">
        <ele>304.12</ele>
        <time>2013-06-08T15:16:01Z</time>
      </trkpt>
      <trkpt lat="42.286658" lon="-7.899675">
        <ele>303.67</ele>
        <time>2013-06-08T15:16:02Z</time>
      </trkpt>
      <trkpt lat="42.287199" lon="-7.897265">
        <ele>286.62</ele>
        <time>2013-06-08T15:16:16Z</time>
      </trkpt>
      <trkpt lat="42.287678" lon="-7.895106">
        <ele>280.86</ele>
        <time>2013-06-08T15:16:30Z</time>
      </trkpt>
      <trkpt lat="42.287992" lon="-7.893182">
        <ele>274.01</ele>
        <time>2013-06-08T15:16:44Z</time>
      </trkpt>
      <trkpt lat="42.288326" lon="-7.890960">
        <ele>270.41</ele>
        <time>2013-06-08T15:17:00Z</time>
      </trkpt>
      <trkpt lat="42.288993" lon="-7.889760">
        <ele>260.65</ele>
        <time>2013-06-08T15:17:09Z</time>
      </trkpt>
      <trkpt lat="42.290380" lon="-7.888529">
        <ele>252.32</ele>
        <time>2013-06-08T15:17:21Z</time>
      </trkpt>
      <trkpt lat="42.291149" lon="-7.887406">
        <ele>240.64</ele>
        <time>2013-06-08T15:17:29Z</time>
      </trkpt>
      <trkpt lat="42.291877" lon="-7.885598">
        <ele>233.31</ele>
        <time>2013-06-08T15:17:41Z</time>
      </trkpt>
      <trkpt lat="42.292650" lon="-7.884838">
        <ele>236.35</ele>
        <time>2013-06-08T15:17:49Z</time>
      </trkpt>
      <trkpt lat="42.293786" lon="-7.883671">
        <ele>223.39</ele>
        <time>2013-06-08T15:18:00Z</time>
      </trkpt>
      <trkpt lat="42.294180" lon="-7.883223">
        <ele>221.45</ele>
        <time>2013-06-08T15:18:04Z</time>
      </trkpt>
      <trkpt lat="42.294414" lon="-7.883052">
        <ele>221.32</ele>
        <time>2013-06-08T15:18:06Z</time>
      </trkpt>
      <trkpt lat="42.295454" lon="-7.882704">
        <ele>221.66</ele>
        <time>2013-06-08T15:18:14Z</time>
      </trkpt>
      <trkpt lat="42.296437" lon="-7.882064">
        <ele>204.91</ele>
        <time>2013-06-08T15:18:22Z</time>
      </trkpt>
      <trkpt lat="42.297304" lon="-7.880709">
        <ele>189.91</ele>
        <time>2013-06-08T15:18:32Z</time>
      </trkpt>
      <trkpt lat="42.298171" lon="-7.879735">
        <ele>191.46</ele>
        <time>2013-06-08T15:18:42Z</time>
      </trkpt>
      <trkpt lat="42.299283" lon="-7.879032">
        <ele>192.35</ele>
        <time>2013-06-08T15:18:55Z</time>
      </trkpt>
      <trkpt lat="42.300404" lon="-7.878398">
        <ele>188.10</ele>
        <time>2013-06-08T15:19:09Z</time>
      </trkpt>
      <trkpt lat="42.300983" lon="-7.878054">
        <ele>186.95</ele>
        <time>2013-06-08T15:19:17Z</time>
      </trkpt>
      <trkpt lat="42.301325" lon="-7.877796">
        <ele>186.92</ele>
        <time>2013-06-08T15:19:22Z</time>
      </trkpt>
      <trkpt lat="42.302476" lon="-7.877152">
        <ele>186.58</ele>
        <time>2013-06-08T15:19:37Z</time>
      </trkpt>
      <trkpt lat="42.303609" lon="-7.876588">
        <ele>179.70</ele>
        <time>2013-06-08T15:19:51Z</time>
      </trkpt>
      <trkpt lat="42.304645" lon="-7.876632">
        <ele>176.65</ele>
        <time>2013-06-08T15:20:04Z</time>
      </trkpt>
      <trkpt lat="42.305629" lon="-7.877027">
        <ele>183.45</ele>
        <time>2013-06-08T15:20:19Z</time>
      </trkpt>
      <trkpt lat="42.306862" lon="-7.877533">
        <ele>178.91</ele>
        <time>2013-06-08T15:20:38Z</time>
      </trkpt>
      <trkpt lat="42.307937" lon="-7.878016">
        <ele>174.81</ele>
        <time>2013-06-08T15:20:54Z</time>
      </trkpt>
      <trkpt lat="42.309058" lon="-7.878662">
        <ele>174.46</ele>
        <time>2013-06-08T15:21:11Z</time>
      </trkpt>
      <trkpt lat="42.309984" lon="-7.879506">
        <ele>168.11</ele>
        <time>2013-06-08T15:21:26Z</time>
      </trkpt>
      <trkpt lat="42.310327" lon="-7.879659">
        <ele>170.39</ele>
        <time>2013-06-08T15:21:31Z</time>
      </trkpt>
      <trkpt lat="42.311269" lon="-7.879602">
        <ele>169.55</ele>
        <time>2013-06-08T15:21:43Z</time>
      </trkpt>
      <trkpt lat="42.312373" lon="-7.879168">
        <ele>169.45</ele>
        <time>2013-06-08T15:21:56Z</time>
      </trkpt>
      <trkpt lat="42.313465" lon="-7.878712">
        <ele>166.46</ele>
        <time>2013-06-08T15:22:09Z</time>
      </trkpt>
      <trkpt lat="42.314880" lon="-7.878089">
        <ele>166.59</ele>
        <time>2013-06-08T15:22:24Z</time>
      </trkpt>
      <trkpt lat="42.316466" lon="-7.877639">
        <ele>153.94</ele>
        <time>2013-06-08T15:22:40Z</time>
      </trkpt>
      <trkpt lat="42.318042" lon="-7.877646">
        <ele>142.92</ele>
        <time>2013-06-08T15:22:55Z</time>
      </trkpt>
      <trkpt lat="42.319827" lon="-7.877785">
        <ele>131.22</ele>
        <time>2013-06-08T15:23:12Z</time>
      </trkpt>
      <trkpt lat="42.320200" lon="-7.877796">
        <ele>131.01</ele>
        <time>2013-06-08T15:23:18Z</time>
      </trkpt>
      <trkpt lat="42.320977" lon="-7.877918">
        <ele>128.35</ele>
        <time>2013-06-08T15:23:32Z</time>
      </trkpt>
      <trkpt lat="42.321299" lon="-7.877896">
        <ele>127.97</ele>
        <time>2013-06-08T15:23:39Z</time>
      </trkpt>
      <trkpt lat="42.321338" lon="-7.877903">
        <ele>127.80</ele>
        <time>2013-06-08T15:23:40Z</time>
      </trkpt>
      <trkpt lat="42.321418" lon="-7.877922">
        <ele>127.27</ele>
        <time>2013-06-08T15:23:42Z</time>
      </trkpt>
      <trkpt lat="42.321458" lon="-7.877941">
        <ele>126.97</ele>
        <time>2013-06-08T15:23:43Z</time>
      </trkpt>
      <trkpt lat="42.321498" lon="-7.877971">
        <ele>126.63</ele>
        <time>2013-06-08T15:23:44Z</time>
      </trkpt>
      <trkpt lat="42.321536" lon="-7.878007">
        <ele>126.35</ele>
        <time>2013-06-08T15:23:45Z</time>
      </trkpt>
      <trkpt lat="42.321573" lon="-7.878050">
        <ele>125.94</ele>
        <time>2013-06-08T15:23:46Z</time>
      </trkpt>
      <trkpt lat="42.321606" lon="-7.878099">
        <ele>125.68</ele>
        <time>2013-06-08T15:23:47Z</time>
      </trkpt>
      <trkpt lat="42.321639" lon="-7.878148">
        <ele>125.31</ele>
        <time>2013-06-08T15:23:48Z</time>
      </trkpt>
      <trkpt lat="42.321669" lon="-7.878201">
        <ele>125.01</ele>
        <time>2013-06-08T15:23:49Z</time>
      </trkpt>
      <trkpt lat="42.321787" lon="-7.878440">
        <ele>123.72</ele>
        <time>2013-06-08T15:23:53Z</time>
      </trkpt>
      <trkpt lat="42.321819" lon="-7.878487">
        <ele>123.54</ele>
        <time>2013-06-08T15:23:54Z</time>
      </trkpt>
      <trkpt lat="42.322077" lon="-7.878784">
        <ele>122.17</ele>
        <time>2013-06-08T15:24:05Z</time>
      </trkpt>
      <trkpt lat="42.322428" lon="-7.879137">
        <ele>123.48</ele>
        <time>2013-06-08T15:24:17Z</time>
      </trkpt>
      <trkpt lat="42.323198" lon="-7.879447">
        <ele>129.96</ele>
        <time>2013-06-08T15:24:35Z</time>
      </trkpt>
      <trkpt lat="42.323889" lon="-7.879581">
        <ele>136.03</ele>
        <time>2013-06-08T15:24:51Z</time>
      </trkpt>
      <trkpt lat="42.324317" lon="-7.879652">
        <ele>136.54</ele>
        <time>2013-06-08T15:25:05Z</time>
      </trkpt>
      <trkpt lat="42.324676" lon="-7.879697">
        <ele>137.49</ele>
        <time>2013-06-08T15:25:18Z</time>
      </trkpt>
      <trkpt lat="42.325066" lon="-7.879529">
        <ele>139.74</ele>
        <time>2013-06-08T15:25:29Z</time>
      </trkpt>
      <trkpt lat="42.325235" lon="-7.879326">
        <ele>140.03</ele>
        <time>2013-06-08T15:25:34Z</time>
      </trkpt>
      <trkpt lat="42.325557" lon="-7.878684">
        <ele>140.01</ele>
        <time>2013-06-08T15:25:48Z</time>
      </trkpt>
      <trkpt lat="42.325803" lon="-7.878149">
        <ele>140.83</ele>
        <time>2013-06-08T15:26:02Z</time>
      </trkpt>
      <trkpt lat="42.325830" lon="-7.878092">
        <ele>140.85</ele>
        <time>2013-06-08T15:26:03Z</time>
      </trkpt>
      <trkpt lat="42.325854" lon="-7.878029">
        <ele>140.82</ele>
        <time>2013-06-08T15:26:04Z</time>
      </trkpt>
      <trkpt lat="42.325879" lon="-7.877966">
        <ele>140.82</ele>
        <time>2013-06-08T15:26:05Z</time>
      </trkpt>
      <trkpt lat="42.325968" lon="-7.877713">
        <ele>140.59</ele>
        <time>2013-06-08T15:26:11Z</time>
      </trkpt>
      <trkpt lat="42.325987" lon="-7.877595">
        <ele>140.37</ele>
        <time>2013-06-08T15:26:13Z</time>
      </trkpt>
      <trkpt lat="42.326001" lon="-7.877536">
        <ele>140.27</ele>
        <time>2013-06-08T15:26:14Z</time>
      </trkpt>
      <trkpt lat="42.326020" lon="-7.877476">
        <ele>140.18</ele>
        <time>2013-06-08T15:26:15Z</time>
      </trkpt>
      <trkpt lat="42.326048" lon="-7.877418">
        <ele>140.16</ele>
        <time>2013-06-08T15:26:16Z</time>
      </trkpt>
      <trkpt lat="42.326081" lon="-7.877358">
        <ele>140.12</ele>
        <time>2013-06-08T15:26:17Z</time>
      </trkpt>
      <trkpt lat="42.326316" lon="-7.877001">
        <ele>139.91</ele>
        <time>2013-06-08T15:26:22Z</time>
      </trkpt>
      <trkpt lat="42.326890" lon="-7.875732">
        <ele>135.36</ele>
        <time>2013-06-08T15:26:34Z</time>
      </trkpt>
      <trkpt lat="42.327526" lon="-7.874221">
        <ele>129.14</ele>
        <time>2013-06-08T15:26:47Z</time>
      </trkpt>
      <trkpt lat="42.327821" lon="-7.873522">
        <ele>128.11</ele>
        <time>2013-06-08T15:26:54Z</time>
      </trkpt>
      <trkpt lat="42.328250" lon="-7.872552">
        <ele>125.84</ele>
        <time>2013-06-08T15:27:05Z</time>
      </trkpt>
      <trkpt lat="42.328688" lon="-7.871507">
        <ele>126.62</ele>
        <time>2013-06-08T15:27:18Z</time>
      </trkpt>
      <trkpt lat="42.329109" lon="-7.870445">
        <ele>126.71</ele>
        <time>2013-06-08T15:27:32Z</time>
      </trkpt>
      <trkpt lat="42.329317" lon="-7.869912">
        <ele>126.49</ele>
        <time>2013-06-08T15:27:39Z</time>
      </trkpt>
      <trkpt lat="42.329558" lon="-7.869308">
        <ele>123.55</ele>
        <time>2013-06-08T15:27:48Z</time>
      </trkpt>
      <trkpt lat="42.329567" lon="-7.869267">
        <ele>123.13</ele>
        <time>2013-06-08T15:27:49Z</time>
      </trkpt>
      <trkpt lat="42.329581" lon="-7.869227">
        <ele>122.72</ele>
        <time>2013-06-08T15:27:50Z</time>
      </trkpt>
      <trkpt lat="42.329598" lon="-7.869185">
        <ele>122.31</ele>
        <time>2013-06-08T15:27:51Z</time>
      </trkpt>
      <trkpt lat="42.329616" lon="-7.869136">
        <ele>121.87</ele>
        <time>2013-06-08T15:27:52Z</time>
      </trkpt>
      <trkpt lat="42.329630" lon="-7.869081">
        <ele>121.31</ele>
        <time>2013-06-08T15:27:53Z</time>
      </trkpt>
      <trkpt lat="42.329652" lon="-7.869032">
        <ele>120.85</ele>
        <time>2013-06-08T15:27:54Z</time>
      </trkpt>
      <trkpt lat="42.329692" lon="-7.868930">
        <ele>119.97</ele>
        <time>2013-06-08T15:27:56Z</time>
      </trkpt>
      <trkpt lat="42.329753" lon="-7.868770">
        <ele>118.60</ele>
        <time>2013-06-08T15:27:59Z</time>
      </trkpt>
      <trkpt lat="42.329785" lon="-7.868734">
        <ele>118.49</ele>
        <time>2013-06-08T15:28:00Z</time>
      </trkpt>
      <trkpt lat="42.329825" lon="-7.868695">
        <ele>118.42</ele>
        <time>2013-06-08T15:28:01Z</time>
      </trkpt>
      <trkpt lat="42.329861" lon="-7.868642">
        <ele>118.44</ele>
        <time>2013-06-08T15:28:02Z</time>
      </trkpt>
      <trkpt lat="42.329894" lon="-7.868572">
        <ele>118.18</ele>
        <time>2013-06-08T15:28:03Z</time>
      </trkpt>
      <trkpt lat="42.329918" lon="-7.868498">
        <ele>117.81</ele>
        <time>2013-06-08T15:28:04Z</time>
      </trkpt>
      <trkpt lat="42.330050" lon="-7.868185">
        <ele>116.01</ele>
        <time>2013-06-08T15:28:08Z</time>
      </trkpt>
      <trkpt lat="42.330081" lon="-7.868105">
        <ele>115.55</ele>
        <time>2013-06-08T15:28:09Z</time>
      </trkpt>
      <trkpt lat="42.330454" lon="-7.867258">
        <ele>114.04</ele>
        <time>2013-06-08T15:28:22Z</time>
      </trkpt>
      <trkpt lat="42.330474" lon="-7.867206">
        <ele>114.03</ele>
        <time>2013-06-08T15:28:23Z</time>
      </trkpt>
      <trkpt lat="42.330497" lon="-7.867159">
        <ele>114.03</ele>
        <time>2013-06-08T15:28:24Z</time>
      </trkpt>
      <trkpt lat="42.330521" lon="-7.867113">
        <ele>114.04</ele>
        <time>2013-06-08T15:28:25Z</time>
      </trkpt>
      <trkpt lat="42.330543" lon="-7.867066">
        <ele>114.19</ele>
        <time>2013-06-08T15:28:26Z</time>
      </trkpt>
      <trkpt lat="42.330561" lon="-7.867019">
        <ele>114.58</ele>
        <time>2013-06-08T15:28:27Z</time>
      </trkpt>
      <trkpt lat="42.330583" lon="-7.866975">
        <ele>114.83</ele>
        <time>2013-06-08T15:28:28Z</time>
      </trkpt>
      <trkpt lat="42.330603" lon="-7.866929">
        <ele>115.20</ele>
        <time>2013-06-08T15:28:29Z</time>
      </trkpt>
      <trkpt lat="42.330666" lon="-7.866778">
        <ele>116.42</ele>
        <time>2013-06-08T15:28:32Z</time>
      </trkpt>
      <trkpt lat="42.330769" lon="-7.866528">
        <ele>118.61</ele>
        <time>2013-06-08T15:28:37Z</time>
      </trkpt>
      <trkpt lat="42.330780" lon="-7.866476">
        <ele>119.04</ele>
        <time>2013-06-08T15:28:38Z</time>
      </trkpt>
      <trkpt lat="42.330787" lon="-7.866432">
        <ele>119.48</ele>
        <time>2013-06-08T15:28:39Z</time>
      </trkpt>
      <trkpt lat="42.330949" lon="-7.866013">
        <ele>125.37</ele>
        <time>2013-06-08T15:28:49Z</time>
      </trkpt>
      <trkpt lat="42.330958" lon="-7.865981">
        <ele>125.95</ele>
        <time>2013-06-08T15:28:50Z</time>
      </trkpt>
      <trkpt lat="42.330971" lon="-7.865953">
        <ele>126.44</ele>
        <time>2013-06-08T15:28:51Z</time>
      </trkpt>
      <trkpt lat="42.330992" lon="-7.865919">
        <ele>127.17</ele>
        <time>2013-06-08T15:28:52Z</time>
      </trkpt>
      <trkpt lat="42.331020" lon="-7.865883">
        <ele>128.05</ele>
        <time>2013-06-08T15:28:53Z</time>
      </trkpt>
      <trkpt lat="42.331050" lon="-7.865847">
        <ele>128.90</ele>
        <time>2013-06-08T15:28:54Z</time>
      </trkpt>
      <trkpt lat="42.331258" lon="-7.865414">
        <ele>138.91</ele>
        <time>2013-06-08T15:29:05Z</time>
      </trkpt>
      <trkpt lat="42.331286" lon="-7.865249">
        <ele>138.43</ele>
        <time>2013-06-08T15:29:11Z</time>
      </trkpt>
      <trkpt lat="42.331262" lon="-7.865240">
        <ele>138.61</ele>
        <time>2013-06-08T15:29:12Z</time>
      </trkpt>
      <trkpt lat="42.331239" lon="-7.865237">
        <ele>138.71</ele>
        <time>2013-06-08T15:29:13Z</time>
      </trkpt>
      <trkpt lat="42.331209" lon="-7.865222">
        <ele>138.49</ele>
        <time>2013-06-08T15:29:14Z</time>
      </trkpt>
      <trkpt lat="42.331181" lon="-7.865204">
        <ele>138.16</ele>
        <time>2013-06-08T15:29:15Z</time>
      </trkpt>
      <trkpt lat="42.331156" lon="-7.865192">
        <ele>137.86</ele>
        <time>2013-06-08T15:29:16Z</time>
      </trkpt>
      <trkpt lat="42.331137" lon="-7.865183">
        <ele>137.63</ele>
        <time>2013-06-08T15:29:17Z</time>
      </trkpt>
      <trkpt lat="42.331081" lon="-7.865148">
        <ele>137.16</ele>
        <time>2013-06-08T15:29:23Z</time>
      </trkpt>
      <trkpt lat="42.331074" lon="-7.865140">
        <ele>137.05</ele>
        <time>2013-06-08T15:29:24Z</time>
      </trkpt>
      <trkpt lat="42.331044" lon="-7.865126">
        <ele>136.86</ele>
        <time>2013-06-08T15:29:26Z</time>
      </trkpt>
      <trkpt lat="42.331011" lon="-7.865124">
        <ele>136.56</ele>
        <time>2013-06-08T15:29:27Z</time>
      </trkpt>
      <trkpt lat="42.330891" lon="-7.865081">
        <ele>135.51</ele>
        <time>2013-06-08T15:29:31Z</time>
      </trkpt>
      <trkpt lat="42.330848" lon="-7.865058">
        <ele>135.21</ele>
        <time>2013-06-08T15:29:32Z</time>
      </trkpt>
      <trkpt lat="42.330710" lon="-7.864948">
        <ele>134.53</ele>
        <time>2013-06-08T15:29:40Z</time>
      </trkpt>
      <trkpt lat="42.330700" lon="-7.864942">
        <ele>134.53</ele>
        <time>2013-06-08T15:29:41Z</time>
      </trkpt>
      <trkpt lat="42.330688" lon="-7.864936">
        <ele>134.43</ele>
        <time>2013-06-08T15:29:42Z</time>
      </trkpt>
      <trkpt lat="42.330614" lon="-7.864869">
        <ele>134.26</ele>
        <time>2013-06-08T15:29:51Z</time>
      </trkpt>
      <trkpt lat="42.330621" lon="-7.864792">
        <ele>134.74</ele>
        <time>2013-06-08T15:30:09Z</time>
      </trkpt>
      <trkpt lat="42.330598" lon="-7.864790">
        <ele>134.55</ele>
        <time>2013-06-08T15:30:25Z</time>
      </trkpt>
      <trkpt lat="42.330618" lon="-7.864763">
        <ele>134.84</ele>
        <time>2013-06-08T15:30:40Z</time>
      </trkpt>
      <trkpt lat="42.330624" lon="-7.864762">
        <ele>134.89</ele>
        <time>2013-06-08T15:30:44Z</time>
      </trkpt>
      <trkpt lat="42.330646" lon="-7.864796">
        <ele>134.88</ele>
        <time>2013-06-08T15:30:52Z</time>
      </trkpt>
      <trkpt lat="42.330650" lon="-7.864828">
        <ele>134.72</ele>
        <time>2013-06-08T15:30:54Z</time>
      </trkpt>
      <trkpt lat="42.330673" lon="-7.864856">
        <ele>134.71</ele>
        <time>2013-06-08T15:30:55Z</time>
      </trkpt>
      <trkpt lat="42.330702" lon="-7.864877">
        <ele>134.83</ele>
        <time>2013-06-08T15:30:56Z</time>
      </trkpt>
      <trkpt lat="42.330731" lon="-7.864885">
        <ele>134.96</ele>
        <time>2013-06-08T15:30:57Z</time>
      </trkpt>
      <trkpt lat="42.330761" lon="-7.864887">
        <ele>135.17</ele>
        <time>2013-06-08T15:30:58Z</time>
      </trkpt>
      <trkpt lat="42.331113" lon="-7.865052">
        <ele>137.50</ele>
        <time>2013-06-08T15:31:09Z</time>
      </trkpt>
      <trkpt lat="42.331319" lon="-7.865243">
        <ele>138.05</ele>
        <time>2013-06-08T15:31:22Z</time>
      </trkpt>
      <trkpt lat="42.331338" lon="-7.865274">
        <ele>137.74</ele>
        <time>2013-06-08T15:31:23Z</time>
      </trkpt>
      <trkpt lat="42.331369" lon="-7.865304">
        <ele>137.38</ele>
        <time>2013-06-08T15:31:24Z</time>
      </trkpt>
      <trkpt lat="42.331366" lon="-7.865331">
        <ele>137.43</ele>
        <time>2013-06-08T15:31:25Z</time>
      </trkpt>
      <trkpt lat="42.331374" lon="-7.865350">
        <ele>137.20</ele>
        <time>2013-06-08T15:31:26Z</time>
      </trkpt>
      <trkpt lat="42.331389" lon="-7.865367">
        <ele>137.02</ele>
        <time>2013-06-08T15:31:27Z</time>
      </trkpt>
      <trkpt lat="42.331390" lon="-7.865388">
        <ele>137.01</ele>
        <time>2013-06-08T15:31:28Z</time>
      </trkpt>
      <trkpt lat="42.331408" lon="-7.865435">
        <ele>136.45</ele>
        <time>2013-06-08T15:31:30Z</time>
      </trkpt>
      <trkpt lat="42.331422" lon="-7.865439">
        <ele>136.18</ele>
        <time>2013-06-08T15:31:31Z</time>
      </trkpt>
      <trkpt lat="42.331438" lon="-7.865434">
        <ele>136.04</ele>
        <time>2013-06-08T15:31:32Z</time>
      </trkpt>
      <trkpt lat="42.331459" lon="-7.865429">
        <ele>135.89</ele>
        <time>2013-06-08T15:31:33Z</time>
      </trkpt>
      <trkpt lat="42.331483" lon="-7.865428">
        <ele>135.44</ele>
        <time>2013-06-08T15:31:34Z</time>
      </trkpt>
      <trkpt lat="42.331714" lon="-7.865508">
        <ele>130.82</ele>
        <time>2013-06-08T15:31:45Z</time>
      </trkpt>
      <trkpt lat="42.332024" lon="-7.865633">
        <ele>124.67</ele>
        <time>2013-06-08T15:31:54Z</time>
      </trkpt>
      <trkpt lat="42.332609" lon="-7.865866">
        <ele>122.13</ele>
        <time>2013-06-08T15:32:09Z</time>
      </trkpt>
      <trkpt lat="42.332745" lon="-7.865913">
        <ele>121.96</ele>
        <time>2013-06-08T15:32:15Z</time>
      </trkpt>
      <trkpt lat="42.332783" lon="-7.865904">
        <ele>122.21</ele>
        <time>2013-06-08T15:32:16Z</time>
      </trkpt>
      <trkpt lat="42.333215" lon="-7.865838">
        <ele>123.31</ele>
        <time>2013-06-08T15:32:24Z</time>
      </trkpt>
      <trkpt lat="42.333266" lon="-7.865858">
        <ele>123.04</ele>
        <time>2013-06-08T15:32:25Z</time>
      </trkpt>
      <trkpt lat="42.333320" lon="-7.865878">
        <ele>122.67</ele>
        <time>2013-06-08T15:32:26Z</time>
      </trkpt>
      <trkpt lat="42.333574" lon="-7.865958">
        <ele>121.36</ele>
        <time>2013-06-08T15:32:34Z</time>
      </trkpt>
      <trkpt lat="42.333591" lon="-7.865957">
        <ele>121.31</ele>
        <time>2013-06-08T15:32:35Z</time>
      </trkpt>
      <trkpt lat="42.333606" lon="-7.865963">
        <ele>121.29</ele>
        <time>2013-06-08T15:32:36Z</time>
      </trkpt>
      <trkpt lat="42.333627" lon="-7.865953">
        <ele>121.43</ele>
        <time>2013-06-08T15:32:49Z</time>
      </trkpt>
      <trkpt lat="42.333635" lon="-7.865910">
        <ele>122.08</ele>
        <time>2013-06-08T15:33:14Z</time>
      </trkpt>
      <trkpt lat="42.333639" lon="-7.865908">
        <ele>122.05</ele>
        <time>2013-06-08T15:33:28Z</time>
      </trkpt>
      <trkpt lat="42.333634" lon="-7.865898">
        <ele>122.10</ele>
        <time>2013-06-08T15:33:44Z</time>
      </trkpt>
      <trkpt lat="42.333648" lon="-7.865902">
        <ele>122.12</ele>
        <time>2013-06-08T15:33:45Z</time>
      </trkpt>
      <trkpt lat="42.333664" lon="-7.865906">
        <ele>122.01</ele>
        <time>2013-06-08T15:33:46Z</time>
      </trkpt>
      <trkpt lat="42.333681" lon="-7.865903">
        <ele>122.02</ele>
        <time>2013-06-08T15:33:47Z</time>
      </trkpt>
      <trkpt lat="42.333709" lon="-7.865905">
        <ele>122.04</ele>
        <time>2013-06-08T15:33:48Z</time>
      </trkpt>
      <trkpt lat="42.333751" lon="-7.865907">
        <ele>121.92</ele>
        <time>2013-06-08T15:33:49Z</time>
      </trkpt>
      <trkpt lat="42.333797" lon="-7.865906">
        <ele>121.77</ele>
        <time>2013-06-08T15:33:50Z</time>
      </trkpt>
      <trkpt lat="42.333853" lon="-7.865913">
        <ele>121.22</ele>
        <time>2013-06-08T15:33:51Z</time>
      </trkpt>
      <trkpt lat="42.333904" lon="-7.865906">
        <ele>121.05</ele>
        <time>2013-06-08T15:33:52Z</time>
      </trkpt>
      <trkpt lat="42.333982" lon="-7.865886">
        <ele>120.83</ele>
        <time>2013-06-08T15:33:54Z</time>
      </trkpt>
      <trkpt lat="42.334024" lon="-7.865882">
        <ele>120.57</ele>
        <time>2013-06-08T15:33:55Z</time>
      </trkpt>
      <trkpt lat="42.334131" lon="-7.865901">
        <ele>119.66</ele>
        <time>2013-06-08T15:34:03Z</time>
      </trkpt>
      <trkpt lat="42.334193" lon="-7.865906">
        <ele>119.22</ele>
        <time>2013-06-08T15:34:19Z</time>
      </trkpt>
      <trkpt lat="42.334256" lon="-7.865900">
        <ele>118.81</ele>
        <time>2013-06-08T15:34:32Z</time>
      </trkpt>
      <trkpt lat="42.334335" lon="-7.865811">
        <ele>119.45</ele>
        <time>2013-06-08T15:34:39Z</time>
      </trkpt>
      <trkpt lat="42.334346" lon="-7.865795">
        <ele>119.53</ele>
        <time>2013-06-08T15:34:40Z</time>
      </trkpt>
      <trkpt lat="42.334361" lon="-7.865774">
        <ele>119.79</ele>
        <time>2013-06-08T15:34:41Z</time>
      </trkpt>
      <trkpt lat="42.334381" lon="-7.865757">
        <ele>119.79</ele>
        <time>2013-06-08T15:34:42Z</time>
      </trkpt>
      <trkpt lat="42.334408" lon="-7.865738">
        <ele>119.86</ele>
        <time>2013-06-08T15:34:43Z</time>
      </trkpt>
      <trkpt lat="42.334447" lon="-7.865720">
        <ele>119.76</ele>
        <time>2013-06-08T15:34:44Z</time>
      </trkpt>
      <trkpt lat="42.334506" lon="-7.865699">
        <ele>119.54</ele>
        <time>2013-06-08T15:34:45Z</time>
      </trkpt>
      <trkpt lat="42.334559" lon="-7.865664">
        <ele>119.52</ele>
        <time>2013-06-08T15:34:46Z</time>
      </trkpt>
      <trkpt lat="42.334601" lon="-7.865627">
        <ele>119.77</ele>
        <time>2013-06-08T15:34:47Z</time>
      </trkpt>
      <trkpt lat="42.334639" lon="-7.865617">
        <ele>119.91</ele>
        <time>2013-06-08T15:34:48Z</time>
      </trkpt>
      <trkpt lat="42.334675" lon="-7.865617">
        <ele>119.91</ele>
        <time>2013-06-08T15:34:49Z</time>
      </trkpt>
      <trkpt lat="42.334703" lon="-7.865611">
        <ele>120.08</ele>
        <time>2013-06-08T15:34:50Z</time>
      </trkpt>
      <trkpt lat="42.334724" lon="-7.865615">
        <ele>120.04</ele>
        <time>2013-06-08T15:34:51Z</time>
      </trkpt>
      <trkpt lat="42.334735" lon="-7.865638">
        <ele>119.89</ele>
        <time>2013-06-08T15:34:52Z</time>
      </trkpt>
      <trkpt lat="42.334733" lon="-7.865662">
        <ele>119.52</ele>
        <time>2013-06-08T15:34:53Z</time>
      </trkpt>
      <trkpt lat="42.334730" lon="-7.865686">
        <ele>119.37</ele>
        <time>2013-06-08T15:34:54Z</time>
      </trkpt>
      <trkpt lat="42.334728" lon="-7.865712">
        <ele>119.11</ele>
        <time>2013-06-08T15:34:55Z</time>
      </trkpt>
      <trkpt lat="42.334727" lon="-7.865739">
        <ele>118.90</ele>
        <time>2013-06-08T15:34:56Z</time>
      </trkpt>
      <trkpt lat="42.334727" lon="-7.865763">
        <ele>118.66</ele>
        <time>2013-06-08T15:34:57Z</time>
      </trkpt>
      <trkpt lat="42.334723" lon="-7.865784">
        <ele>118.40</ele>
        <time>2013-06-08T15:34:58Z</time>
      </trkpt>
      <trkpt lat="42.334742" lon="-7.865800">
        <ele>118.32</ele>
        <time>2013-06-08T15:35:02Z</time>
      </trkpt>
      <trkpt lat="42.334905" lon="-7.865791">
        <ele>118.81</ele>
        <time>2013-06-08T15:35:11Z</time>
      </trkpt>
      <trkpt lat="42.334983" lon="-7.865802">
        <ele>119.00</ele>
        <time>2013-06-08T15:35:17Z</time>
      </trkpt>
      <trkpt lat="42.335084" lon="-7.865861">
        <ele>118.85</ele>
        <time>2013-06-08T15:35:23Z</time>
      </trkpt>
      <trkpt lat="42.335102" lon="-7.865858">
        <ele>118.98</ele>
        <time>2013-06-08T15:35:24Z</time>
      </trkpt>
      <trkpt lat="42.335441" lon="-7.865812">
        <ele>120.37</ele>
        <time>2013-06-08T15:35:33Z</time>
      </trkpt>
      <trkpt lat="42.335457" lon="-7.865816">
        <ele>120.49</ele>
        <time>2013-06-08T15:35:34Z</time>
      </trkpt>
      <trkpt lat="42.335519" lon="-7.865812">
        <ele>121.08</ele>
        <time>2013-06-08T15:35:37Z</time>
      </trkpt>
      <trkpt lat="42.335541" lon="-7.865815">
        <ele>121.28</ele>
        <time>2013-06-08T15:35:38Z</time>
      </trkpt>
      <trkpt lat="42.335765" lon="-7.865821">
        <ele>123.30</ele>
        <time>2013-06-08T15:35:49Z</time>
      </trkpt>
      <trkpt lat="42.335839" lon="-7.865810">
        <ele>123.92</ele>
        <time>2013-06-08T15:35:53Z</time>
      </trkpt>
      <trkpt lat="42.335855" lon="-7.865800">
        <ele>124.13</ele>
        <time>2013-06-08T15:35:54Z</time>
      </trkpt>
      <trkpt lat="42.335869" lon="-7.865794">
        <ele>124.21</ele>
        <time>2013-06-08T15:35:55Z</time>
      </trkpt>
      <trkpt lat="42.335885" lon="-7.865790">
        <ele>124.46</ele>
        <time>2013-06-08T15:35:56Z</time>
      </trkpt>
      <trkpt lat="42.335908" lon="-7.865779">
        <ele>124.76</ele>
        <time>2013-06-08T15:35:58Z</time>
      </trkpt>
      <trkpt lat="42.335921" lon="-7.865768">
        <ele>124.85</ele>
        <time>2013-06-08T15:35:59Z</time>
      </trkpt>
      <trkpt lat="42.335935" lon="-7.865757">
        <ele>125.08</ele>
        <time>2013-06-08T15:36:00Z</time>
      </trkpt>
      <trkpt lat="42.335950" lon="-7.865755">
        <ele>125.24</ele>
        <time>2013-06-08T15:36:01Z</time>
      </trkpt>
      <trkpt lat="42.335967" lon="-7.865756">
        <ele>125.32</ele>
        <time>2013-06-08T15:36:02Z</time>
      </trkpt>
      <trkpt lat="42.335981" lon="-7.865757">
        <ele>125.47</ele>
        <time>2013-06-08T15:36:03Z</time>
      </trkpt>
      <trkpt lat="42.336054" lon="-7.865743">
        <ele>126.28</ele>
        <time>2013-06-08T15:36:09Z</time>
      </trkpt>
      <trkpt lat="42.336065" lon="-7.865755">
        <ele>126.26</ele>
        <time>2013-06-08T15:36:10Z</time>
      </trkpt>
      <trkpt lat="42.336077" lon="-7.865765">
        <ele>126.33</ele>
        <time>2013-06-08T15:36:11Z</time>
      </trkpt>
      <trkpt lat="42.336093" lon="-7.865774">
        <ele>126.41</ele>
        <time>2013-06-08T15:36:12Z</time>
      </trkpt>
      <trkpt lat="42.336109" lon="-7.865777">
        <ele>126.58</ele>
        <time>2013-06-08T15:36:13Z</time>
      </trkpt>
      <trkpt lat="42.336123" lon="-7.865777">
        <ele>126.79</ele>
        <time>2013-06-08T15:36:14Z</time>
      </trkpt>
      <trkpt lat="42.336142" lon="-7.865774">
        <ele>126.93</ele>
        <time>2013-06-08T15:36:15Z</time>
      </trkpt>
      <trkpt lat="42.336298" lon="-7.865797">
        <ele>128.16</ele>
        <time>2013-06-08T15:36:23Z</time>
      </trkpt>
      <trkpt lat="42.336312" lon="-7.865807">
        <ele>128.19</ele>
        <time>2013-06-08T15:36:24Z</time>
      </trkpt>
      <trkpt lat="42.336574" lon="-7.865831">
        <ele>129.82</ele>
        <time>2013-06-08T15:36:37Z</time>
      </trkpt>
      <trkpt lat="42.336925" lon="-7.865895">
        <ele>132.11</ele>
        <time>2013-06-08T15:36:52Z</time>
      </trkpt>
      <trkpt lat="42.337334" lon="-7.865906">
        <ele>132.65</ele>
        <time>2013-06-08T15:37:05Z</time>
      </trkpt>
      <trkpt lat="42.337417" lon="-7.865877">
        <ele>132.50</ele>
        <time>2013-06-08T15:37:09Z</time>
      </trkpt>
      <trkpt lat="42.337435" lon="-7.865885">
        <ele>132.41</ele>
        <time>2013-06-08T15:37:10Z</time>
      </trkpt>
      <trkpt lat="42.337457" lon="-7.865893">
        <ele>132.31</ele>
        <time>2013-06-08T15:37:11Z</time>
      </trkpt>
      <trkpt lat="42.337853" lon="-7.865879">
        <ele>131.43</ele>
        <time>2013-06-08T15:37:23Z</time>
      </trkpt>
      <trkpt lat="42.338169" lon="-7.865985">
        <ele>130.85</ele>
        <time>2013-06-08T15:37:33Z</time>
      </trkpt>
      <trkpt lat="42.338197" lon="-7.866009">
        <ele>130.61</ele>
        <time>2013-06-08T15:37:34Z</time>
      </trkpt>
      <trkpt lat="42.338224" lon="-7.866022">
        <ele>130.58</ele>
        <time>2013-06-08T15:37:35Z</time>
      </trkpt>
      <trkpt lat="42.338247" lon="-7.866031">
        <ele>130.42</ele>
        <time>2013-06-08T15:37:36Z</time>
      </trkpt>
      <trkpt lat="42.338270" lon="-7.866033">
        <ele>130.46</ele>
        <time>2013-06-08T15:37:37Z</time>
      </trkpt>
      <trkpt lat="42.338296" lon="-7.866020">
        <ele>130.67</ele>
        <time>2013-06-08T15:37:38Z</time>
      </trkpt>
      <trkpt lat="42.338327" lon="-7.865976">
        <ele>131.07</ele>
        <time>2013-06-08T15:37:41Z</time>
      </trkpt>
      <trkpt lat="42.338340" lon="-7.865977">
        <ele>131.03</ele>
        <time>2013-06-08T15:37:42Z</time>
      </trkpt>
      <trkpt lat="42.338354" lon="-7.865987">
        <ele>130.92</ele>
        <time>2013-06-08T15:37:43Z</time>
      </trkpt>
      <trkpt lat="42.338560" lon="-7.866195">
        <ele>128.81</ele>
        <time>2013-06-08T15:37:55Z</time>
      </trkpt>
      <trkpt lat="42.338545" lon="-7.866223">
        <ele>128.52</ele>
        <time>2013-06-08T15:38:08Z</time>
      </trkpt>
      <trkpt lat="42.338495" lon="-7.866269">
        <ele>128.25</ele>
        <time>2013-06-08T15:38:27Z</time>
      </trkpt>
      <trkpt lat="42.338463" lon="-7.866276">
        <ele>128.21</ele>
        <time>2013-06-08T15:38:59Z</time>
      </trkpt>
      <trkpt lat="42.338440" lon="-7.866291">
        <ele>128.17</ele>
        <time>2013-06-08T15:39:29Z</time>
      </trkpt>
      <trkpt lat="42.338429" lon="-7.866298">
        <ele>128.04</ele>
        <time>2013-06-08T15:39:59Z</time>
      </trkpt>
      <trkpt lat="42.338426" lon="-7.866303">
        <ele>128.08</ele>
        <time>2013-06-08T15:40:27Z</time>
      </trkpt>
      <trkpt lat="42.338424" lon="-7.866305">
        <ele>128.06</ele>
        <time>2013-06-08T15:40:54Z</time>
      </trkpt>
      <trkpt lat="42.338425" lon="-7.866311">
        <ele>128.05</ele>
        <time>2013-06-08T15:41:15Z</time>
      </trkpt>
      <trkpt lat="42.338431" lon="-7.866312">
        <ele>127.96</ele>
        <time>2013-06-08T15:41:44Z</time>
      </trkpt>
      <trkpt lat="42.338437" lon="-7.866317">
        <ele>127.91</ele>
        <time>2013-06-08T15:42:11Z</time>
      </trkpt>
      <trkpt lat="42.338438" lon="-7.866322">
        <ele>127.91</ele>
        <time>2013-06-08T15:42:39Z</time>
      </trkpt>
      <trkpt lat="42.338440" lon="-7.866324">
        <ele>127.84</ele>
        <time>2013-06-08T15:43:07Z</time>
      </trkpt>
      <trkpt lat="42.338440" lon="-7.866325">
        <ele>127.89</ele>
        <time>2013-06-08T15:43:35Z</time>
      </trkpt>
      <trkpt lat="42.338446" lon="-7.866325">
        <ele>127.83</ele>
        <time>2013-06-08T15:44:10Z</time>
      </trkpt>
      <trkpt lat="42.338446" lon="-7.866323">
        <ele>127.84</ele>
        <time>2013-06-08T15:44:34Z</time>
      </trkpt>
      <trkpt lat="42.338458" lon="-7.866324">
        <ele>127.86</ele>
        <time>2013-06-08T15:44:56Z</time>
      </trkpt>
      <trkpt lat="42.338522" lon="-7.866399">
        <ele>127.30</ele>
        <time>2013-06-08T15:45:06Z</time>
      </trkpt>
      <trkpt lat="42.338533" lon="-7.866412">
        <ele>127.20</ele>
        <time>2013-06-08T15:45:07Z</time>
      </trkpt>
      <trkpt lat="42.338553" lon="-7.866425">
        <ele>127.08</ele>
        <time>2013-06-08T15:45:08Z</time>
      </trkpt>
      <trkpt lat="42.338595" lon="-7.866439">
        <ele>126.89</ele>
        <time>2013-06-08T15:45:09Z</time>
      </trkpt>
      <trkpt lat="42.338640" lon="-7.866446">
        <ele>126.72</ele>
        <time>2013-06-08T15:45:10Z</time>
      </trkpt>
      <trkpt lat="42.339178" lon="-7.866666">
        <ele>125.81</ele>
        <time>2013-06-08T15:45:24Z</time>
      </trkpt>
      <trkpt lat="42.339349" lon="-7.866691">
        <ele>125.84</ele>
        <time>2013-06-08T15:45:27Z</time>
      </trkpt>
      <trkpt lat="42.339394" lon="-7.866701">
        <ele>125.84</ele>
        <time>2013-06-08T15:45:28Z</time>
      </trkpt>
      <trkpt lat="42.339436" lon="-7.866689">
        <ele>126.09</ele>
        <time>2013-06-08T15:45:29Z</time>
      </trkpt>
      <trkpt lat="42.339534" lon="-7.866654">
        <ele>126.57</ele>
        <time>2013-06-08T15:45:32Z</time>
      </trkpt>
      <trkpt lat="42.339563" lon="-7.866666">
        <ele>126.54</ele>
        <time>2013-06-08T15:45:33Z</time>
      </trkpt>
      <trkpt lat="42.339594" lon="-7.866689">
        <ele>126.33</ele>
        <time>2013-06-08T15:45:34Z</time>
      </trkpt>
      <trkpt lat="42.339624" lon="-7.866720">
        <ele>126.07</ele>
        <time>2013-06-08T15:45:35Z</time>
      </trkpt>
      <trkpt lat="42.339649" lon="-7.866748">
        <ele>125.85</ele>
        <time>2013-06-08T15:45:36Z</time>
      </trkpt>
      <trkpt lat="42.339670" lon="-7.866767">
        <ele>125.66</ele>
        <time>2013-06-08T15:45:37Z</time>
      </trkpt>
      <trkpt lat="42.339736" lon="-7.866739">
        <ele>126.12</ele>
        <time>2013-06-08T15:45:39Z</time>
      </trkpt>
      <trkpt lat="42.339776" lon="-7.866701">
        <ele>126.61</ele>
        <time>2013-06-08T15:45:40Z</time>
      </trkpt>
      <trkpt lat="42.339800" lon="-7.866671">
        <ele>127.08</ele>
        <time>2013-06-08T15:45:41Z</time>
      </trkpt>
      <trkpt lat="42.339823" lon="-7.866637">
        <ele>127.42</ele>
        <time>2013-06-08T15:45:42Z</time>
      </trkpt>
      <trkpt lat="42.339854" lon="-7.866596">
        <ele>128.09</ele>
        <time>2013-06-08T15:45:43Z</time>
      </trkpt>
      <trkpt lat="42.339882" lon="-7.866566">
        <ele>128.42</ele>
        <time>2013-06-08T15:45:44Z</time>
      </trkpt>
      <trkpt lat="42.339908" lon="-7.866540">
        <ele>128.82</ele>
        <time>2013-06-08T15:45:45Z</time>
      </trkpt>
      <trkpt lat="42.339940" lon="-7.866513">
        <ele>129.23</ele>
        <time>2013-06-08T15:45:46Z</time>
      </trkpt>
      <trkpt lat="42.340012" lon="-7.866500">
        <ele>129.55</ele>
        <time>2013-06-08T15:45:54Z</time>
      </trkpt>
      <trkpt lat="42.339921" lon="-7.866617">
        <ele>127.99</ele>
        <time>2013-06-08T15:46:00Z</time>
      </trkpt>
      <trkpt lat="42.339878" lon="-7.866611">
        <ele>127.98</ele>
        <time>2013-06-08T15:46:01Z</time>
      </trkpt>
      <trkpt lat="42.339843" lon="-7.866594">
        <ele>128.02</ele>
        <time>2013-06-08T15:46:02Z</time>
      </trkpt>
      <trkpt lat="42.339752" lon="-7.866547">
        <ele>128.31</ele>
        <time>2013-06-08T15:46:06Z</time>
      </trkpt>
      <trkpt lat="42.339716" lon="-7.866503">
        <ele>128.68</ele>
        <time>2013-06-08T15:46:07Z</time>
      </trkpt>
      <trkpt lat="42.339695" lon="-7.866472">
        <ele>128.93</ele>
        <time>2013-06-08T15:46:08Z</time>
      </trkpt>
      <trkpt lat="42.339682" lon="-7.866438">
        <ele>129.38</ele>
        <time>2013-06-08T15:46:09Z</time>
      </trkpt>
      <trkpt lat="42.339669" lon="-7.866405">
        <ele>129.69</ele>
        <time>2013-06-08T15:46:10Z</time>
      </trkpt>
      <trkpt lat="42.339584" lon="-7.866055">
        <ele>132.45</ele>
        <time>2013-06-08T15:46:23Z</time>
      </trkpt>
      <trkpt lat="42.339420" lon="-7.864908">
        <ele>140.46</ele>
        <time>2013-06-08T15:46:38Z</time>
      </trkpt>
      <trkpt lat="42.339481" lon="-7.864824">
        <ele>141.05</ele>
        <time>2013-06-08T15:46:41Z</time>
      </trkpt>
      <trkpt lat="42.339639" lon="-7.864721">
        <ele>142.19</ele>
        <time>2013-06-09T06:12:18Z</time>
      </trkpt>
      <trkpt lat="42.339960" lon="-7.864713">
        <ele>142.46</ele>
        <time>2013-06-09T06:12:29Z</time>
      </trkpt>
      <trkpt lat="42.340196" lon="-7.864672">
        <ele>143.08</ele>
        <time>2013-06-09T06:12:36Z</time>
      </trkpt>
      <trkpt lat="42.340222" lon="-7.864650">
        <ele>143.21</ele>
        <time>2013-06-09T06:12:37Z</time>
      </trkpt>
      <trkpt lat="42.340248" lon="-7.864638">
        <ele>143.41</ele>
        <time>2013-06-09T06:12:38Z</time>
      </trkpt>
      <trkpt lat="42.340276" lon="-7.864633">
        <ele>143.42</ele>
        <time>2013-06-09T06:12:39Z</time>
      </trkpt>
      <trkpt lat="42.340302" lon="-7.864633">
        <ele>143.56</ele>
        <time>2013-06-09T06:12:40Z</time>
      </trkpt>
      <trkpt lat="42.340563" lon="-7.864718">
        <ele>142.79</ele>
        <time>2013-06-09T06:12:50Z</time>
      </trkpt>
      <trkpt lat="42.340593" lon="-7.864758">
        <ele>142.47</ele>
        <time>2013-06-09T06:12:52Z</time>
      </trkpt>
      <trkpt lat="42.340617" lon="-7.864766">
        <ele>142.41</ele>
        <time>2013-06-09T06:12:53Z</time>
      </trkpt>
      <trkpt lat="42.340641" lon="-7.864765">
        <ele>142.38</ele>
        <time>2013-06-09T06:12:54Z</time>
      </trkpt>
      <trkpt lat="42.340707" lon="-7.864708">
        <ele>142.64</ele>
        <time>2013-06-09T06:13:04Z</time>
      </trkpt>
      <trkpt lat="42.340737" lon="-7.864677">
        <ele>142.78</ele>
        <time>2013-06-09T06:13:24Z</time>
      </trkpt>
      <trkpt lat="42.340750" lon="-7.864671">
        <ele>142.81</ele>
        <time>2013-06-09T06:13:28Z</time>
      </trkpt>
      <trkpt lat="42.340786" lon="-7.864669">
        <ele>142.72</ele>
        <time>2013-06-09T06:13:30Z</time>
      </trkpt>
      <trkpt lat="42.340812" lon="-7.864654">
        <ele>142.71</ele>
        <time>2013-06-09T06:13:31Z</time>
      </trkpt>
      <trkpt lat="42.341041" lon="-7.864627">
        <ele>142.48</ele>
        <time>2013-06-09T06:13:40Z</time>
      </trkpt>
      <trkpt lat="42.341229" lon="-7.864552">
        <ele>142.34</ele>
        <time>2013-06-09T06:13:50Z</time>
      </trkpt>
      <trkpt lat="42.341269" lon="-7.864561">
        <ele>142.39</ele>
        <time>2013-06-09T06:13:52Z</time>
      </trkpt>
      <trkpt lat="42.341292" lon="-7.864583">
        <ele>142.37</ele>
        <time>2013-06-09T06:13:53Z</time>
      </trkpt>
      <trkpt lat="42.341312" lon="-7.864603">
        <ele>142.42</ele>
        <time>2013-06-09T06:13:54Z</time>
      </trkpt>
      <trkpt lat="42.341379" lon="-7.864650">
        <ele>142.75</ele>
        <time>2013-06-09T06:13:58Z</time>
      </trkpt>
      <trkpt lat="42.341397" lon="-7.864651">
        <ele>142.81</ele>
        <time>2013-06-09T06:13:59Z</time>
      </trkpt>
      <trkpt lat="42.341474" lon="-7.864669">
        <ele>143.27</ele>
        <time>2013-06-09T06:14:05Z</time>
      </trkpt>
      <trkpt lat="42.341493" lon="-7.864658">
        <ele>143.38</ele>
        <time>2013-06-09T06:14:06Z</time>
      </trkpt>
      <trkpt lat="42.341549" lon="-7.864626">
        <ele>143.72</ele>
        <time>2013-06-09T06:14:10Z</time>
      </trkpt>
      <trkpt lat="42.341575" lon="-7.864641">
        <ele>143.81</ele>
        <time>2013-06-09T06:14:23Z</time>
      </trkpt>
      <trkpt lat="42.341583" lon="-7.864641">
        <ele>143.87</ele>
        <time>2013-06-09T06:14:34Z</time>
      </trkpt>
      <trkpt lat="42.341609" lon="-7.864663">
        <ele>143.91</ele>
        <time>2013-06-09T06:15:10Z</time>
      </trkpt>
      <trkpt lat="42.341608" lon="-7.864623">
        <ele>144.02</ele>
        <time>2013-06-09T06:15:39Z</time>
      </trkpt>
      <trkpt lat="42.341615" lon="-7.864626">
        <ele>144.15</ele>
        <time>2013-06-09T06:16:08Z</time>
      </trkpt>
      <trkpt lat="42.341616" lon="-7.864600">
        <ele>144.18</ele>
        <time>2013-06-09T06:16:35Z</time>
      </trkpt>
      <trkpt lat="42.341625" lon="-7.864622">
        <ele>144.17</ele>
        <time>2013-06-09T06:17:07Z</time>
      </trkpt>
      <trkpt lat="42.341631" lon="-7.864637">
        <ele>144.18</ele>
        <time>2013-06-09T06:17:41Z</time>
      </trkpt>
      <trkpt lat="42.341651" lon="-7.864633">
        <ele>144.25</ele>
        <time>2013-06-09T06:18:15Z</time>
      </trkpt>
      <trkpt lat="42.341653" lon="-7.864630">
        <ele>144.35</ele>
        <time>2013-06-09T06:18:48Z</time>
      </trkpt>
      <trkpt lat="42.341667" lon="-7.864638">
        <ele>144.31</ele>
        <time>2013-06-09T06:19:19Z</time>
      </trkpt>
      <trkpt lat="42.341645" lon="-7.864639">
        <ele>144.21</ele>
        <time>2013-06-09T06:19:39Z</time>
      </trkpt>
      <trkpt lat="42.341635" lon="-7.864652">
        <ele>144.14</ele>
        <time>2013-06-09T06:19:56Z</time>
      </trkpt>
      <trkpt lat="42.341634" lon="-7.864801">
        <ele>143.61</ele>
        <time>2013-06-09T06:20:03Z</time>
      </trkpt>
      <trkpt lat="42.341708" lon="-7.865040">
        <ele>142.99</ele>
        <time>2013-06-09T06:20:13Z</time>
      </trkpt>
      <trkpt lat="42.341721" lon="-7.865140">
        <ele>142.62</ele>
        <time>2013-06-09T06:20:17Z</time>
      </trkpt>
      <trkpt lat="42.341754" lon="-7.865220">
        <ele>142.37</ele>
        <time>2013-06-09T06:20:24Z</time>
      </trkpt>
      <trkpt lat="42.341820" lon="-7.865137">
        <ele>142.80</ele>
        <time>2013-06-09T06:20:30Z</time>
      </trkpt>
      <trkpt lat="42.341839" lon="-7.865107">
        <ele>143.00</ele>
        <time>2013-06-09T06:20:32Z</time>
      </trkpt>
      <trkpt lat="42.341909" lon="-7.865066">
        <ele>143.30</ele>
        <time>2013-06-09T06:20:37Z</time>
      </trkpt>
      <trkpt lat="42.342059" lon="-7.865003">
        <ele>143.93</ele>
        <time>2013-06-09T06:20:46Z</time>
      </trkpt>
      <trkpt lat="42.342122" lon="-7.864927">
        <ele>144.32</ele>
        <time>2013-06-09T06:20:51Z</time>
      </trkpt>
      <trkpt lat="42.342227" lon="-7.864876">
        <ele>144.01</ele>
        <time>2013-06-09T06:20:58Z</time>
      </trkpt>
      <trkpt lat="42.342352" lon="-7.864752">
        <ele>144.06</ele>
        <time>2013-06-09T06:21:08Z</time>
      </trkpt>
      <trkpt lat="42.342509" lon="-7.864461">
        <ele>144.74</ele>
        <time>2013-06-09T06:21:19Z</time>
      </trkpt>
      <trkpt lat="42.342510" lon="-7.864392">
        <ele>145.16</ele>
        <time>2013-06-09T06:21:33Z</time>
      </trkpt>
      <trkpt lat="42.342512" lon="-7.864386">
        <ele>145.20</ele>
        <time>2013-06-09T06:21:37Z</time>
      </trkpt>
      <trkpt lat="42.342522" lon="-7.864424">
        <ele>144.85</ele>
        <time>2013-06-09T06:21:41Z</time>
      </trkpt>
      <trkpt lat="42.342456" lon="-7.864536">
        <ele>144.62</ele>
        <time>2013-06-09T06:21:46Z</time>
      </trkpt>
      <trkpt lat="42.342444" lon="-7.864597">
        <ele>144.37</ele>
        <time>2013-06-09T06:21:47Z</time>
      </trkpt>
      <trkpt lat="42.342399" lon="-7.864855">
        <ele>143.20</ele>
        <time>2013-06-09T06:21:51Z</time>
      </trkpt>
      <trkpt lat="42.342407" lon="-7.865010">
        <ele>142.22</ele>
        <time>2013-06-09T06:21:53Z</time>
      </trkpt>
      <trkpt lat="42.342614" lon="-7.865830">
        <ele>136.43</ele>
        <time>2013-06-09T06:22:02Z</time>
      </trkpt>
      <trkpt lat="42.342860" lon="-7.866886">
        <ele>129.41</ele>
        <time>2013-06-09T06:22:11Z</time>
      </trkpt>
      <trkpt lat="42.342896" lon="-7.867149">
        <ele>127.56</ele>
        <time>2013-06-09T06:22:14Z</time>
      </trkpt>
      <trkpt lat="42.342904" lon="-7.867239">
        <ele>126.78</ele>
        <time>2013-06-09T06:22:15Z</time>
      </trkpt>
      <trkpt lat="42.342912" lon="-7.867319">
        <ele>126.02</ele>
        <time>2013-06-09T06:22:16Z</time>
      </trkpt>
      <trkpt lat="42.342925" lon="-7.867391">
        <ele>125.45</ele>
        <time>2013-06-09T06:22:17Z</time>
      </trkpt>
      <trkpt lat="42.342935" lon="-7.867463">
        <ele>124.78</ele>
        <time>2013-06-09T06:22:18Z</time>
      </trkpt>
      <trkpt lat="42.342955" lon="-7.867524">
        <ele>124.19</ele>
        <time>2013-06-09T06:22:19Z</time>
      </trkpt>
      <trkpt lat="42.342979" lon="-7.867579">
        <ele>123.54</ele>
        <time>2013-06-09T06:22:20Z</time>
      </trkpt>
      <trkpt lat="42.343025" lon="-7.867695">
        <ele>122.37</ele>
        <time>2013-06-09T06:22:22Z</time>
      </trkpt>
      <trkpt lat="42.343042" lon="-7.867755">
        <ele>121.78</ele>
        <time>2013-06-09T06:22:23Z</time>
      </trkpt>
      <trkpt lat="42.343065" lon="-7.867864">
        <ele>120.72</ele>
        <time>2013-06-09T06:22:25Z</time>
      </trkpt>
      <trkpt lat="42.343084" lon="-7.867979">
        <ele>119.41</ele>
        <time>2013-06-09T06:22:27Z</time>
      </trkpt>
      <trkpt lat="42.343104" lon="-7.868036">
        <ele>118.66</ele>
        <time>2013-06-09T06:22:28Z</time>
      </trkpt>
      <trkpt lat="42.343134" lon="-7.868090">
        <ele>117.92</ele>
        <time>2013-06-09T06:22:29Z</time>
      </trkpt>
      <trkpt lat="42.343177" lon="-7.868135">
        <ele>117.31</ele>
        <time>2013-06-09T06:22:30Z</time>
      </trkpt>
      <trkpt lat="42.343225" lon="-7.868173">
        <ele>116.77</ele>
        <time>2013-06-09T06:22:31Z</time>
      </trkpt>
      <trkpt lat="42.343273" lon="-7.868213">
        <ele>116.28</ele>
        <time>2013-06-09T06:22:32Z</time>
      </trkpt>
      <trkpt lat="42.343320" lon="-7.868256">
        <ele>115.81</ele>
        <time>2013-06-09T06:22:33Z</time>
      </trkpt>
      <trkpt lat="42.343406" lon="-7.868335">
        <ele>115.03</ele>
        <time>2013-06-09T06:22:35Z</time>
      </trkpt>
      <trkpt lat="42.343433" lon="-7.868387">
        <ele>114.53</ele>
        <time>2013-06-09T06:22:36Z</time>
      </trkpt>
      <trkpt lat="42.343450" lon="-7.868451">
        <ele>114.00</ele>
        <time>2013-06-09T06:22:37Z</time>
      </trkpt>
      <trkpt lat="42.343476" lon="-7.868572">
        <ele>113.12</ele>
        <time>2013-06-09T06:22:39Z</time>
      </trkpt>
      <trkpt lat="42.343504" lon="-7.868593">
        <ele>113.01</ele>
        <time>2013-06-09T06:22:40Z</time>
      </trkpt>
      <trkpt lat="42.343691" lon="-7.868572">
        <ele>113.75</ele>
        <time>2013-06-09T06:22:48Z</time>
      </trkpt>
      <trkpt lat="42.343701" lon="-7.868594">
        <ele>113.68</ele>
        <time>2013-06-09T06:22:59Z</time>
      </trkpt>
      <trkpt lat="42.343797" lon="-7.868687">
        <ele>113.06</ele>
        <time>2013-06-09T06:23:18Z</time>
      </trkpt>
      <trkpt lat="42.343841" lon="-7.868708">
        <ele>112.71</ele>
        <time>2013-06-09T06:23:19.44Z</time>
      </trkpt>
      <trkpt lat="42.343851" lon="-7.868717">
        <ele>112.57</ele>
        <time>2013-06-09T06:23:20.07Z</time>
      </trkpt>
      <trkpt lat="42.343851" lon="-7.868717">
        <ele>107.89</ele>
        <time>2013-10-24T21:50:46Z</time>
      </trkpt>
      <trkpt lat="42.343879" lon="-7.868742">
        <ele>108.29</ele>
        <time>2013-10-24T21:51:06Z</time>
      </trkpt>
      <trkpt lat="42.343958" lon="-7.868778">
        <ele>108.62</ele>
        <time>2013-10-24T21:51:26Z</time>
      </trkpt>
      <trkpt lat="42.344044" lon="-7.868815">
        <ele>109.41</ele>
        <time>2013-10-24T21:51:46Z</time>
      </trkpt>
      <trkpt lat="42.344128" lon="-7.868845">
        <ele>110.08</ele>
        <time>2013-10-24T21:52:06Z</time>
      </trkpt>
      <trkpt lat="42.344216" lon="-7.868870">
        <ele>110.81</ele>
        <time>2013-10-24T21:52:26Z</time>
      </trkpt>
      <trkpt lat="42.344306" lon="-7.868888">
        <ele>111.63</ele>
        <time>2013-10-24T21:52:46Z</time>
      </trkpt>
      <trkpt lat="42.344396" lon="-7.868895">
        <ele>112.45</ele>
        <time>2013-10-24T21:53:06Z</time>
      </trkpt>
      <trkpt lat="42.344488" lon="-7.868889">
        <ele>112.82</ele>
        <time>2013-10-24T21:53:26Z</time>
      </trkpt>
      <trkpt lat="42.344580" lon="-7.868875">
        <ele>113.48</ele>
        <time>2013-10-24T21:53:46Z</time>
      </trkpt>
      <trkpt lat="42.344915" lon="-7.868830">
        <ele>114.02</ele>
        <time>2013-10-24T21:54:06Z</time>
      </trkpt>
      <trkpt lat="42.345172" lon="-7.868796">
        <ele>114.08</ele>
        <time>2013-10-24T21:54:26Z</time>
      </trkpt>
      <trkpt lat="42.345227" lon="-7.868792">
        <ele>114.01</ele>
        <time>2013-10-24T21:54:46Z</time>
      </trkpt>
      <trkpt lat="42.345273" lon="-7.868786">
        <ele>114.03</ele>
        <time>2013-10-24T21:55:06Z</time>
      </trkpt>
      <trkpt lat="42.345313" lon="-7.868774">
        <ele>113.61</ele>
        <time>2013-10-24T21:55:26Z</time>
      </trkpt>
      <trkpt lat="42.345352" lon="-7.868762">
        <ele>113.09</ele>
        <time>2013-10-24T21:55:46Z</time>
      </trkpt>
      <trkpt lat="42.345389" lon="-7.868752">
        <ele>112.68</ele>
        <time>2013-10-24T21:56:06Z</time>
      </trkpt>
      <trkpt lat="42.345430" lon="-7.868742">
        <ele>112.29</ele>
        <time>2013-10-24T21:56:26Z</time>
      </trkpt>
      <trkpt lat="42.345599" lon="-7.868699">
        <ele>111.69</ele>
        <time>2013-10-24T21:56:46Z</time>
      </trkpt>
      <trkpt lat="42.345644" lon="-7.868690">
        <ele>111.28</ele>
        <time>2013-10-24T21:57:06Z</time>
      </trkpt>
      <trkpt lat="42.345690" lon="-7.868687">
        <ele>110.87</ele>
        <time>2013-10-24T21:57:26Z</time>
      </trkpt>
      <trkpt lat="42.345738" lon="-7.868685">
        <ele>110.42</ele>
        <time>2013-10-24T21:57:46Z</time>
      </trkpt>
      <trkpt lat="42.345786" lon="-7.868682">
        <ele>110.07</ele>
        <time>2013-10-24T21:58:06Z</time>
      </trkpt>
      <trkpt lat="42.345933" lon="-7.868676">
        <ele>109.69</ele>
        <time>2013-10-24T21:58:26Z</time>
      </trkpt>
      <trkpt lat="42.346033" lon="-7.868677">
        <ele>109.61</ele>
        <time>2013-10-24T21:58:46Z</time>
      </trkpt>
      <trkpt lat="42.346079" lon="-7.868679">
        <ele>109.61</ele>
        <time>2013-10-24T21:59:06Z</time>
      </trkpt>
      <trkpt lat="42.346235" lon="-7.868676">
        <ele>109.64</ele>
        <time>2013-10-24T21:59:26Z</time>
      </trkpt>
      <trkpt lat="42.346808" lon="-7.868693">
        <ele>126.63</ele>
        <time>2013-10-24T21:59:46Z</time>
      </trkpt>
      <trkpt lat="42.346796" lon="-7.868574">
        <ele>126.62</ele>
        <time>2013-10-24T22:00:06Z</time>
      </trkpt>
      <trkpt lat="42.346774" lon="-7.868593">
        <ele>126.17</ele>
        <time>2013-10-24T22:00:26Z</time>
      </trkpt>
      <trkpt lat="42.346660" lon="-7.868591">
        <ele>125.69</ele>
        <time>2013-10-24T22:00:46Z</time>
      </trkpt>
      <trkpt lat="42.346561" lon="-7.868578">
        <ele>122.75</ele>
        <time>2013-10-24T22:01:06Z</time>
      </trkpt>
      <trkpt lat="42.346518" lon="-7.868569">
        <ele>120.87</ele>
        <time>2013-10-24T22:01:26Z</time>
      </trkpt>
      <trkpt lat="42.346501" lon="-7.868546">
        <ele>120.35</ele>
        <time>2013-10-24T22:01:46Z</time>
      </trkpt>
      <trkpt lat="42.346572" lon="-7.867988">
        <ele>117.40</ele>
        <time>2013-10-24T22:02:06Z</time>
      </trkpt>
      <trkpt lat="42.346604" lon="-7.867405">
        <ele>117.41</ele>
        <time>2013-10-24T22:02:26Z</time>
      </trkpt>
      <trkpt lat="42.346560" lon="-7.867122">
        <ele>116.91</ele>
        <time>2013-10-24T22:02:46Z</time>
      </trkpt>
      <trkpt lat="42.346939" lon="-7.866327">
        <ele>116.95</ele>
        <time>2013-10-24T22:03:06Z</time>
      </trkpt>
      <trkpt lat="42.347028" lon="-7.866146">
        <ele>116.99</ele>
        <time>2013-10-24T22:03:26Z</time>
      </trkpt>
      <trkpt lat="42.347184" lon="-7.865838">
        <ele>117.42</ele>
        <time>2013-10-24T22:03:46Z</time>
      </trkpt>
      <trkpt lat="42.347266" lon="-7.865699">
        <ele>116.93</ele>
        <time>2013-10-24T22:04:06Z</time>
      </trkpt>
      <trkpt lat="42.347390" lon="-7.865415">
        <ele>116.91</ele>
        <time>2013-10-24T22:04:26Z</time>
      </trkpt>
      <trkpt lat="42.347493" lon="-7.865168">
        <ele>116.92</ele>
        <time>2013-10-24T22:04:46Z</time>
      </trkpt>
      <trkpt lat="42.347587" lon="-7.864933">
        <ele>115.03</ele>
        <time>2013-10-24T22:05:06Z</time>
      </trkpt>
      <trkpt lat="42.347713" lon="-7.864687">
        <ele>113.69</ele>
        <time>2013-10-24T22:05:26Z</time>
      </trkpt>
      <trkpt lat="42.347798" lon="-7.864563">
        <ele>115.04</ele>
        <time>2013-10-24T22:05:46Z</time>
      </trkpt>
      <trkpt lat="42.347999" lon="-7.864305">
        <ele>118.43</ele>
        <time>2013-10-24T22:06:06Z</time>
      </trkpt>
      <trkpt lat="42.348123" lon="-7.864028">
        <ele>116.91</ele>
        <time>2013-10-24T22:06:26Z</time>
      </trkpt>
      <trkpt lat="42.348199" lon="-7.863859">
        <ele>116.52</ele>
        <time>2013-10-24T22:06:46Z</time>
      </trkpt>
      <trkpt lat="42.348402" lon="-7.863557">
        <ele>116.52</ele>
        <time>2013-10-24T22:07:06Z</time>
      </trkpt>
      <trkpt lat="42.348490" lon="-7.863370">
        <ele>115.10</ele>
        <time>2013-10-24T22:07:26Z</time>
      </trkpt>
      <trkpt lat="42.348707" lon="-7.862968">
        <ele>114.59</ele>
        <time>2013-10-24T22:07:46Z</time>
      </trkpt>
      <trkpt lat="42.349331" lon="-7.862227">
        <ele>114.56</ele>
        <time>2013-10-24T22:08:06Z</time>
      </trkpt>
      <trkpt lat="42.349781" lon="-7.861494">
        <ele>116.55</ele>
        <time>2013-10-24T22:08:26Z</time>
      </trkpt>
      <trkpt lat="42.349808" lon="-7.861463">
        <ele>116.51</ele>
        <time>2013-10-24T22:08:46Z</time>
      </trkpt>
      <trkpt lat="42.349800" lon="-7.861472">
        <ele>116.10</ele>
        <time>2013-10-24T22:09:06Z</time>
      </trkpt>
      <trkpt lat="42.349805" lon="-7.861468">
        <ele>116.01</ele>
        <time>2013-10-24T22:09:26Z</time>
      </trkpt>
      <trkpt lat="42.349805" lon="-7.861458">
        <ele>116.03</ele>
        <time>2013-10-24T22:09:46Z</time>
      </trkpt>
      <trkpt lat="42.350037" lon="-7.861015">
        <ele>115.51</ele>
        <time>2013-10-24T22:10:06Z</time>
      </trkpt>
      <trkpt lat="42.350431" lon="-7.860001">
        <ele>114.51</ele>
        <time>2013-10-24T22:10:26Z</time>
      </trkpt>
      <trkpt lat="42.350644" lon="-7.859066">
        <ele>113.66</ele>
        <time>2013-10-24T22:10:46Z</time>
      </trkpt>
      <trkpt lat="42.350690" lon="-7.858926">
        <ele>113.12</ele>
        <time>2013-10-24T22:11:06Z</time>
      </trkpt>
      <trkpt lat="42.350717" lon="-7.858768">
        <ele>113.16</ele>
        <time>2013-10-24T22:11:26Z</time>
      </trkpt>
      <trkpt lat="42.350692" lon="-7.858777">
        <ele>113.67</ele>
        <time>2013-10-24T22:11:46Z</time>
      </trkpt>
      <trkpt lat="42.350737" lon="-7.858653">
        <ele>113.14</ele>
        <time>2013-10-24T22:12:06Z</time>
      </trkpt>
      <trkpt lat="42.350944" lon="-7.857496">
        <ele>111.75</ele>
        <time>2013-10-24T22:12:26Z</time>
      </trkpt>
      <trkpt lat="42.350932" lon="-7.857107">
        <ele>112.12</ele>
        <time>2013-10-24T22:12:46Z</time>
      </trkpt>
      <trkpt lat="42.351167" lon="-7.856098">
        <ele>111.28</ele>
        <time>2013-10-24T22:13:06Z</time>
      </trkpt>
      <trkpt lat="42.351350" lon="-7.855657">
        <ele>111.71</ele>
        <time>2013-10-24T22:13:26Z</time>
      </trkpt>
      <trkpt lat="42.351516" lon="-7.855378">
        <ele>111.71</ele>
        <time>2013-10-24T22:13:46Z</time>
      </trkpt>
      <trkpt lat="42.352128" lon="-7.854631">
        <ele>111.80</ele>
        <time>2013-10-24T22:14:06Z</time>
      </trkpt>
      <trkpt lat="42.352322" lon="-7.854442">
        <ele>111.29</ele>
        <time>2013-10-24T22:14:26Z</time>
      </trkpt>
      <trkpt lat="42.352596" lon="-7.854139">
        <ele>111.21</ele>
        <time>2013-10-24T22:14:46Z</time>
      </trkpt>
      <trkpt lat="42.352825" lon="-7.854145">
        <ele>111.75</ele>
        <time>2013-10-24T22:15:06Z</time>
      </trkpt>
      <trkpt lat="42.353075" lon="-7.854484">
        <ele>115.03</ele>
        <time>2013-10-24T22:15:26Z</time>
      </trkpt>
      <trkpt lat="42.353180" lon="-7.854635">
        <ele>116.07</ele>
        <time>2013-10-24T22:15:46Z</time>
      </trkpt>
      <trkpt lat="42.353842" lon="-7.855169">
        <ele>116.08</ele>
        <time>2013-10-24T22:16:06Z</time>
      </trkpt>
      <trkpt lat="42.354129" lon="-7.855378">
        <ele>116.59</ele>
        <time>2013-10-24T22:16:26Z</time>
      </trkpt>
      <trkpt lat="42.354159" lon="-7.855411">
        <ele>116.56</ele>
        <time>2013-10-24T22:16:46Z</time>
      </trkpt>
      <trkpt lat="42.354357" lon="-7.855305">
        <ele>117.93</ele>
        <time>2013-10-24T22:17:06Z</time>
      </trkpt>
      <trkpt lat="42.354537" lon="-7.855081">
        <ele>120.81</ele>
        <time>2013-10-24T22:17:26Z</time>
      </trkpt>
      <trkpt lat="42.354657" lon="-7.855122">
        <ele>122.79</ele>
        <time>2013-10-24T22:17:46Z</time>
      </trkpt>
      <trkpt lat="42.354736" lon="-7.855137">
        <ele>123.78</ele>
        <time>2013-10-24T22:18:06Z</time>
      </trkpt>
      <trkpt lat="42.354790" lon="-7.855216">
        <ele>124.62</ele>
        <time>2013-10-24T22:18:26Z</time>
      </trkpt>
      <trkpt lat="42.354824" lon="-7.855359">
        <ele>126.17</ele>
        <time>2013-10-24T22:18:46Z</time>
      </trkpt>
      <trkpt lat="42.354904" lon="-7.855425">
        <ele>127.07</ele>
        <time>2013-10-24T22:19:06Z</time>
      </trkpt>
      <trkpt lat="42.354944" lon="-7.855451">
        <ele>127.59</ele>
        <time>2013-10-24T22:19:26Z</time>
      </trkpt>
      <trkpt lat="42.355005" lon="-7.855532">
        <ele>129.45</ele>
        <time>2013-10-24T22:19:46Z</time>
      </trkpt>
      <trkpt lat="42.355070" lon="-7.855601">
        <ele>130.93</ele>
        <time>2013-10-24T22:20:06Z</time>
      </trkpt>
      <trkpt lat="42.355123" lon="-7.855555">
        <ele>132.32</ele>
        <time>2013-10-24T22:20:26Z</time>
      </trkpt>
      <trkpt lat="42.355273" lon="-7.855162">
        <ele>135.72</ele>
        <time>2013-10-24T22:20:46Z</time>
      </trkpt>
      <trkpt lat="42.355503" lon="-7.854916">
        <ele>139.11</ele>
        <time>2013-10-24T22:21:06Z</time>
      </trkpt>
      <trkpt lat="42.355850" lon="-7.854699">
        <ele>141.53</ele>
        <time>2013-10-24T22:21:26Z</time>
      </trkpt>
      <trkpt lat="42.355922" lon="-7.854675">
        <ele>141.59</ele>
        <time>2013-10-24T22:21:46Z</time>
      </trkpt>
      <trkpt lat="42.355936" lon="-7.854635">
        <ele>140.57</ele>
        <time>2013-10-24T22:22:06Z</time>
      </trkpt>
      <trkpt lat="42.355942" lon="-7.854446">
        <ele>137.20</ele>
        <time>2013-10-24T22:22:26Z</time>
      </trkpt>
      <trkpt lat="42.355945" lon="-7.854399">
        <ele>136.28</ele>
        <time>2013-10-24T22:22:46Z</time>
      </trkpt>
      <trkpt lat="42.355956" lon="-7.854382">
        <ele>135.73</ele>
        <time>2013-10-24T22:23:06Z</time>
      </trkpt>
      <trkpt lat="42.355979" lon="-7.854377">
        <ele>135.29</ele>
        <time>2013-10-24T22:23:26Z</time>
      </trkpt>
      <trkpt lat="42.356041" lon="-7.854410">
        <ele>136.26</ele>
        <time>2013-10-24T22:23:46Z</time>
      </trkpt>
      <trkpt lat="42.356031" lon="-7.854549">
        <ele>139.52</ele>
        <time>2013-10-24T22:24:06Z</time>
      </trkpt>
      <trkpt lat="42.356060" lon="-7.854603">
        <ele>141.01</ele>
        <time>2013-10-24T22:24:26Z</time>
      </trkpt>
      <trkpt lat="42.356364" lon="-7.854498">
        <ele>140.51</ele>
        <time>2013-10-24T22:24:46Z</time>
      </trkpt>
      <trkpt lat="42.356758" lon="-7.854321">
        <ele>141.06</ele>
        <time>2013-10-24T22:25:06Z</time>
      </trkpt>
      <trkpt lat="42.357032" lon="-7.854313">
        <ele>144.38</ele>
        <time>2013-10-24T22:25:26Z</time>
      </trkpt>
      <trkpt lat="42.357205" lon="-7.854369">
        <ele>147.22</ele>
        <time>2013-10-24T22:25:46Z</time>
      </trkpt>
      <trkpt lat="42.357344" lon="-7.854382">
        <ele>149.17</ele>
        <time>2013-10-24T22:26:06Z</time>
      </trkpt>
      <trkpt lat="42.357505" lon="-7.854502">
        <ele>151.59</ele>
        <time>2013-10-24T22:26:26Z</time>
      </trkpt>
      <trkpt lat="42.357498" lon="-7.854543">
        <ele>151.59</ele>
        <time>2013-10-24T22:26:46Z</time>
      </trkpt>
      <trkpt lat="42.357485" lon="-7.854564">
        <ele>151.56</ele>
        <time>2013-10-24T22:27:06Z</time>
      </trkpt>
      <trkpt lat="42.357478" lon="-7.854777">
        <ele>152.53</ele>
        <time>2013-10-24T22:27:26Z</time>
      </trkpt>
      <trkpt lat="42.357626" lon="-7.854800">
        <ele>153.07</ele>
        <time>2013-10-24T22:27:46Z</time>
      </trkpt>
      <trkpt lat="42.357898" lon="-7.854609">
        <ele>150.61</ele>
        <time>2013-10-24T22:28:06Z</time>
      </trkpt>
      <trkpt lat="42.358049" lon="-7.854544">
        <ele>150.11</ele>
        <time>2013-10-24T22:28:26Z</time>
      </trkpt>
      <trkpt lat="42.358230" lon="-7.854418">
        <ele>149.66</ele>
        <time>2013-10-24T22:28:46Z</time>
      </trkpt>
      <trkpt lat="42.358327" lon="-7.854484">
        <ele>149.68</ele>
        <time>2013-10-24T22:29:06Z</time>
      </trkpt>
      <trkpt lat="42.358760" lon="-7.855261">
        <ele>151.54</ele>
        <time>2013-10-24T22:29:26Z</time>
      </trkpt>
      <trkpt lat="42.358781" lon="-7.855309">
        <ele>151.54</ele>
        <time>2013-10-24T22:29:46Z</time>
      </trkpt>
      <trkpt lat="42.359087" lon="-7.855421">
        <ele>152.09</ele>
        <time>2013-10-24T22:30:06Z</time>
      </trkpt>
      <trkpt lat="42.359123" lon="-7.855388">
        <ele>152.03</ele>
        <time>2013-10-24T22:30:26Z</time>
      </trkpt>
      <trkpt lat="42.359756" lon="-7.854649">
        <ele>153.56</ele>
        <time>2013-10-24T22:30:46Z</time>
      </trkpt>
      <trkpt lat="42.360474" lon="-7.854049">
        <ele>152.51</ele>
        <time>2013-10-24T22:31:06Z</time>
      </trkpt>
      <trkpt lat="42.360591" lon="-7.853984">
        <ele>151.55</ele>
        <time>2013-10-24T22:31:26Z</time>
      </trkpt>
      <trkpt lat="42.360998" lon="-7.853761">
        <ele>148.71</ele>
        <time>2013-10-24T22:31:46Z</time>
      </trkpt>
      <trkpt lat="42.361320" lon="-7.853593">
        <ele>145.31</ele>
        <time>2013-10-24T22:32:06Z</time>
      </trkpt>
      <trkpt lat="42.361594" lon="-7.853450">
        <ele>142.45</ele>
        <time>2013-10-24T22:32:26Z</time>
      </trkpt>
      <trkpt lat="42.361891" lon="-7.853278">
        <ele>138.69</ele>
        <time>2013-10-24T22:32:46Z</time>
      </trkpt>
      <trkpt lat="42.362202" lon="-7.853105">
        <ele>135.23</ele>
        <time>2013-10-24T22:33:06Z</time>
      </trkpt>
      <trkpt lat="42.362409" lon="-7.852995">
        <ele>134.76</ele>
        <time>2013-10-24T22:33:26Z</time>
      </trkpt>
      <trkpt lat="42.362763" lon="-7.852885">
        <ele>133.90</ele>
        <time>2013-10-24T22:33:46Z</time>
      </trkpt>
      <trkpt lat="42.362760" lon="-7.852887">
        <ele>134.24</ele>
        <time>2013-10-24T22:34:06Z</time>
      </trkpt>
      <trkpt lat="42.362720" lon="-7.852872">
        <ele>134.75</ele>
        <time>2013-10-24T22:34:26Z</time>
      </trkpt>
      <trkpt lat="42.362715" lon="-7.852856">
        <ele>134.76</ele>
        <time>2013-10-24T22:34:46Z</time>
      </trkpt>
      <trkpt lat="42.362711" lon="-7.852870">
        <ele>134.71</ele>
        <time>2013-10-24T22:35:06Z</time>
      </trkpt>
      <trkpt lat="42.362780" lon="-7.852894">
        <ele>134.22</ele>
        <time>2013-10-24T22:35:26Z</time>
      </trkpt>
      <trkpt lat="42.363448" lon="-7.852904">
        <ele>131.41</ele>
        <time>2013-10-24T22:35:46Z</time>
      </trkpt>
      <trkpt lat="42.364409" lon="-7.852679">
        <ele>131.47</ele>
        <time>2013-10-24T22:36:06Z</time>
      </trkpt>
      <trkpt lat="42.364635" lon="-7.852447">
        <ele>132.90</ele>
        <time>2013-10-24T22:36:26Z</time>
      </trkpt>
      <trkpt lat="42.364861" lon="-7.852087">
        <ele>131.84</ele>
        <time>2013-10-24T22:36:46Z</time>
      </trkpt>
      <trkpt lat="42.364979" lon="-7.851729">
        <ele>129.48</ele>
        <time>2013-10-24T22:37:06Z</time>
      </trkpt>
      <trkpt lat="42.365011" lon="-7.851532">
        <ele>129.01</ele>
        <time>2013-10-24T22:37:26Z</time>
      </trkpt>
      <trkpt lat="42.365304" lon="-7.851038">
        <ele>125.65</ele>
        <time>2013-10-24T22:37:46Z</time>
      </trkpt>
      <trkpt lat="42.366093" lon="-7.850506">
        <ele>124.29</ele>
        <time>2013-10-24T22:38:06Z</time>
      </trkpt>
      <trkpt lat="42.366436" lon="-7.850167">
        <ele>122.74</ele>
        <time>2013-10-24T22:38:26Z</time>
      </trkpt>
      <trkpt lat="42.367070" lon="-7.849345">
        <ele>123.22</ele>
        <time>2013-10-24T22:38:46Z</time>
      </trkpt>
      <trkpt lat="42.367696" lon="-7.848614">
        <ele>124.61</ele>
        <time>2013-10-24T22:39:06Z</time>
      </trkpt>
      <trkpt lat="42.367816" lon="-7.848444">
        <ele>125.61</ele>
        <time>2013-10-24T22:39:26Z</time>
      </trkpt>
      <trkpt lat="42.367911" lon="-7.848267">
        <ele>127.04</ele>
        <time>2013-10-24T22:39:46Z</time>
      </trkpt>
      <trkpt lat="42.367969" lon="-7.848154">
        <ele>127.60</ele>
        <time>2013-10-24T22:40:06Z</time>
      </trkpt>
      <trkpt lat="42.368091" lon="-7.847968">
        <ele>128.53</ele>
        <time>2013-10-24T22:40:26Z</time>
      </trkpt>
      <trkpt lat="42.368323" lon="-7.847584">
        <ele>129.43</ele>
        <time>2013-10-24T22:40:46Z</time>
      </trkpt>
      <trkpt lat="42.368378" lon="-7.847480">
        <ele>129.96</ele>
        <time>2013-10-24T22:41:06Z</time>
      </trkpt>
      <trkpt lat="42.368562" lon="-7.847114">
        <ele>130.41</ele>
        <time>2013-10-24T22:41:26Z</time>
      </trkpt>
      <trkpt lat="42.368802" lon="-7.846760">
        <ele>131.00</ele>
        <time>2013-10-24T22:41:46Z</time>
      </trkpt>
      <trkpt lat="42.368996" lon="-7.846356">
        <ele>130.92</ele>
        <time>2013-10-24T22:42:06Z</time>
      </trkpt>
      <trkpt lat="42.369640" lon="-7.845547">
        <ele>130.98</ele>
        <time>2013-10-24T22:42:26Z</time>
      </trkpt>
      <trkpt lat="42.370061" lon="-7.844987">
        <ele>130.41</ele>
        <time>2013-10-24T22:42:46Z</time>
      </trkpt>
      <trkpt lat="42.370329" lon="-7.844327">
        <ele>127.01</ele>
        <time>2013-10-24T22:43:06Z</time>
      </trkpt>
      <trkpt lat="42.370765" lon="-7.843399">
        <ele>124.66</ele>
        <time>2013-10-24T22:43:26Z</time>
      </trkpt>
      <trkpt lat="42.371695" lon="-7.842340">
        <ele>127.08</ele>
        <time>2013-10-24T22:43:46Z</time>
      </trkpt>
      <trkpt lat="42.372323" lon="-7.841394">
        <ele>128.09</ele>
        <time>2013-10-24T22:44:06Z</time>
      </trkpt>
      <trkpt lat="42.372627" lon="-7.840912">
        <ele>127.09</ele>
        <time>2013-10-24T22:44:26Z</time>
      </trkpt>
      <trkpt lat="42.372737" lon="-7.840693">
        <ele>127.59</ele>
        <time>2013-10-24T22:44:46Z</time>
      </trkpt>
      <trkpt lat="42.372933" lon="-7.840109">
        <ele>131.48</ele>
        <time>2013-10-24T22:45:06Z</time>
      </trkpt>
      <trkpt lat="42.373019" lon="-7.839916">
        <ele>132.85</ele>
        <time>2013-10-24T22:45:26Z</time>
      </trkpt>
      <trkpt lat="42.373239" lon="-7.839531">
        <ele>136.27</ele>
        <time>2013-10-24T22:45:46Z</time>
      </trkpt>
      <trkpt lat="42.373405" lon="-7.839137">
        <ele>139.56</ele>
        <time>2013-10-24T22:46:06Z</time>
      </trkpt>
      <trkpt lat="42.373451" lon="-7.839053">
        <ele>140.02</ele>
        <time>2013-10-24T22:46:26Z</time>
      </trkpt>
      <trkpt lat="42.373947" lon="-7.838241">
        <ele>141.51</ele>
        <time>2013-10-24T22:46:46Z</time>
      </trkpt>
      <trkpt lat="42.374591" lon="-7.836951">
        <ele>140.51</ele>
        <time>2013-10-24T22:47:06Z</time>
      </trkpt>
      <trkpt lat="42.375026" lon="-7.836094">
        <ele>137.11</ele>
        <time>2013-10-24T22:47:26Z</time>
      </trkpt>
      <trkpt lat="42.375804" lon="-7.834909">
        <ele>137.64</ele>
        <time>2013-10-24T22:47:46Z</time>
      </trkpt>
      <trkpt lat="42.376445" lon="-7.834290">
        <ele>141.09</ele>
        <time>2013-10-24T22:48:06Z</time>
      </trkpt>
      <trkpt lat="42.376625" lon="-7.834159">
        <ele>141.99</ele>
        <time>2013-10-24T22:48:26Z</time>
      </trkpt>
      <trkpt lat="42.376973" lon="-7.834046">
        <ele>142.91</ele>
        <time>2013-10-24T22:48:46Z</time>
      </trkpt>
      <trkpt lat="42.377431" lon="-7.833849">
        <ele>144.36</ele>
        <time>2013-10-24T22:49:06Z</time>
      </trkpt>
      <trkpt lat="42.377962" lon="-7.833604">
        <ele>143.98</ele>
        <time>2013-10-24T22:49:26Z</time>
      </trkpt>
      <trkpt lat="42.377952" lon="-7.833601">
        <ele>143.93</ele>
        <time>2013-10-24T22:49:46Z</time>
      </trkpt>
      <trkpt lat="42.377965" lon="-7.833611">
        <ele>143.92</ele>
        <time>2013-10-24T22:50:06Z</time>
      </trkpt>
      <trkpt lat="42.378029" lon="-7.833588">
        <ele>143.41</ele>
        <time>2013-10-24T22:50:26Z</time>
      </trkpt>
      <trkpt lat="42.378205" lon="-7.833532">
        <ele>142.41</ele>
        <time>2013-10-24T22:50:46Z</time>
      </trkpt>
      <trkpt lat="42.378663" lon="-7.833579">
        <ele>139.19</ele>
        <time>2013-10-24T22:51:06Z</time>
      </trkpt>
      <trkpt lat="42.378786" lon="-7.833566">
        <ele>138.19</ele>
        <time>2013-10-24T22:51:26Z</time>
      </trkpt>
      <trkpt lat="42.378894" lon="-7.833535">
        <ele>137.63</ele>
        <time>2013-10-24T22:51:46Z</time>
      </trkpt>
      <trkpt lat="42.378886" lon="-7.833491">
        <ele>137.65</ele>
        <time>2013-10-24T22:52:06Z</time>
      </trkpt>
      <trkpt lat="42.378892" lon="-7.833497">
        <ele>137.69</ele>
        <time>2013-10-24T22:52:26Z</time>
      </trkpt>
      <trkpt lat="42.378898" lon="-7.833489">
        <ele>137.68</ele>
        <time>2013-10-24T22:52:46Z</time>
      </trkpt>
      <trkpt lat="42.378907" lon="-7.833484">
        <ele>137.16</ele>
        <time>2013-10-24T22:53:06Z</time>
      </trkpt>
      <trkpt lat="42.378912" lon="-7.833493">
        <ele>137.10</ele>
        <time>2013-10-24T22:53:26Z</time>
      </trkpt>
      <trkpt lat="42.378924" lon="-7.833526">
        <ele>137.12</ele>
        <time>2013-10-24T22:53:46Z</time>
      </trkpt>
      <trkpt lat="42.379079" lon="-7.833475">
        <ele>136.21</ele>
        <time>2013-10-24T22:54:06Z</time>
      </trkpt>
      <trkpt lat="42.379344" lon="-7.833411">
        <ele>133.81</ele>
        <time>2013-10-24T22:54:26Z</time>
      </trkpt>
      <trkpt lat="42.379728" lon="-7.833490">
        <ele>129.96</ele>
        <time>2013-10-24T22:54:46Z</time>
      </trkpt>
      <trkpt lat="42.380000" lon="-7.833553">
        <ele>127.56</ele>
        <time>2013-10-24T22:55:06Z</time>
      </trkpt>
      <trkpt lat="42.380436" lon="-7.833891">
        <ele>123.24</ele>
        <time>2013-10-24T22:55:26Z</time>
      </trkpt>
      <trkpt lat="42.381366" lon="-7.834945">
        <ele>120.81</ele>
        <time>2013-10-24T22:55:46Z</time>
      </trkpt>
      <trkpt lat="42.382101" lon="-7.835440">
        <ele>122.29</ele>
        <time>2013-10-24T22:56:06Z</time>
      </trkpt>
      <trkpt lat="42.382465" lon="-7.835409">
        <ele>122.26</ele>
        <time>2013-10-24T22:56:26Z</time>
      </trkpt>
      <trkpt lat="42.382935" lon="-7.835242">
        <ele>123.24</ele>
        <time>2013-10-24T22:56:46Z</time>
      </trkpt>
      <trkpt lat="42.382929" lon="-7.835167">
        <ele>123.21</ele>
        <time>2013-10-24T22:57:06Z</time>
      </trkpt>
      <trkpt lat="42.382922" lon="-7.834813">
        <ele>119.32</ele>
        <time>2013-10-24T22:57:26Z</time>
      </trkpt>
      <trkpt lat="42.382924" lon="-7.834731">
        <ele>119.31</ele>
        <time>2013-10-24T22:57:46Z</time>
      </trkpt>
      <trkpt lat="42.382932" lon="-7.834385">
        <ele>120.39</ele>
        <time>2013-10-24T22:58:06Z</time>
      </trkpt>
      <trkpt lat="42.382943" lon="-7.834280">
        <ele>120.32</ele>
        <time>2013-10-24T22:58:26Z</time>
      </trkpt>
      <trkpt lat="42.382930" lon="-7.834223">
        <ele>119.88</ele>
        <time>2013-10-24T22:58:46Z</time>
      </trkpt>
      <trkpt lat="42.382932" lon="-7.834190">
        <ele>119.87</ele>
        <time>2013-10-24T22:59:06Z</time>
      </trkpt>
      <trkpt lat="42.382930" lon="-7.834177">
        <ele>119.89</ele>
        <time>2013-10-24T22:59:26Z</time>
      </trkpt>
      <trkpt lat="42.382930" lon="-7.834176">
        <ele>119.86</ele>
        <time>2013-10-24T22:59:46Z</time>
      </trkpt>
      <trkpt lat="42.382935" lon="-7.834151">
        <ele>120.32</ele>
        <time>2013-10-24T23:00:06Z</time>
      </trkpt>
      <trkpt lat="42.382861" lon="-7.833823">
        <ele>120.33</ele>
        <time>2013-10-24T23:00:26Z</time>
      </trkpt>
      <trkpt lat="42.382799" lon="-7.833389">
        <ele>119.83</ele>
        <time>2013-10-24T23:00:46Z</time>
      </trkpt>
      <trkpt lat="42.382643" lon="-7.832856">
        <ele>119.81</ele>
        <time>2013-10-24T23:01:06Z</time>
      </trkpt>
      <trkpt lat="42.382510" lon="-7.832709">
        <ele>119.81</ele>
        <time>2013-10-24T23:01:26Z</time>
      </trkpt>
      <trkpt lat="42.381969" lon="-7.832574">
        <ele>119.32</ele>
        <time>2013-10-24T23:01:46Z</time>
      </trkpt>
      <trkpt lat="42.381878" lon="-7.832531">
        <ele>119.34</ele>
        <time>2013-10-24T23:02:06Z</time>
      </trkpt>
      <trkpt lat="42.381546" lon="-7.832227">
        <ele>119.32</ele>
        <time>2013-10-24T23:02:26Z</time>
      </trkpt>
      <trkpt lat="42.381469" lon="-7.832189">
        <ele>119.87</ele>
        <time>2013-10-24T23:02:46Z</time>
      </trkpt>
      <trkpt lat="42.381474" lon="-7.832185">
        <ele>119.82</ele>
        <time>2013-10-24T23:03:06Z</time>
      </trkpt>
      <trkpt lat="42.381578" lon="-7.832149">
        <ele>119.82</ele>
        <time>2013-10-24T23:03:26Z</time>
      </trkpt>
      <trkpt lat="42.381573" lon="-7.832147">
        <ele>119.86</ele>
        <time>2013-10-24T23:03:46Z</time>
      </trkpt>
      <trkpt lat="42.381570" lon="-7.832168">
        <ele>119.89</ele>
        <time>2013-10-24T23:04:06Z</time>
      </trkpt>
      <trkpt lat="42.381583" lon="-7.832178">
        <ele>119.81</ele>
        <time>2013-10-24T23:04:26Z</time>
      </trkpt>
      <trkpt lat="42.381654" lon="-7.832072">
        <ele>120.33</ele>
        <time>2013-10-24T23:04:46Z</time>
      </trkpt>
      <trkpt lat="42.382074" lon="-7.831926">
        <ele>123.71</ele>
        <time>2013-10-24T23:05:06Z</time>
      </trkpt>
      <trkpt lat="42.382320" lon="-7.831826">
        <ele>124.64</ele>
        <time>2013-10-24T23:05:26Z</time>
      </trkpt>
      <trkpt lat="42.382584" lon="-7.831737">
        <ele>126.67</ele>
        <time>2013-10-24T23:05:46Z</time>
      </trkpt>
      <trkpt lat="42.383082" lon="-7.831420">
        <ele>127.60</ele>
        <time>2013-10-24T23:06:06Z</time>
      </trkpt>
      <trkpt lat="42.383502" lon="-7.831157">
        <ele>126.11</ele>
        <time>2013-10-24T23:06:26Z</time>
      </trkpt>
      <trkpt lat="42.383697" lon="-7.830770">
        <ele>125.63</ele>
        <time>2013-10-24T23:06:46Z</time>
      </trkpt>
      <trkpt lat="42.383674" lon="-7.829140">
        <ele>125.19</ele>
        <time>2013-10-24T23:07:06Z</time>
      </trkpt>
      <trkpt lat="42.383915" lon="-7.828099">
        <ele>124.62</ele>
        <time>2013-10-24T23:07:26Z</time>
      </trkpt>
      <trkpt lat="42.383864" lon="-7.827931">
        <ele>124.24</ele>
        <time>2013-10-24T23:07:46Z</time>
      </trkpt>
      <trkpt lat="42.383794" lon="-7.827763">
        <ele>122.26</ele>
        <time>2013-10-24T23:08:06Z</time>
      </trkpt>
      <trkpt lat="42.383717" lon="-7.827595">
        <ele>121.71</ele>
        <time>2013-10-24T23:08:26Z</time>
      </trkpt>
      <trkpt lat="42.383678" lon="-7.827371">
        <ele>121.71</ele>
        <time>2013-10-24T23:08:46Z</time>
      </trkpt>
      <trkpt lat="42.383640" lon="-7.826903">
        <ele>122.28</ele>
        <time>2013-10-24T23:09:06Z</time>
      </trkpt>
      <trkpt lat="42.383549" lon="-7.826569">
        <ele>123.74</ele>
        <time>2013-10-24T23:09:26Z</time>
      </trkpt>
      <trkpt lat="42.383434" lon="-7.826263">
        <ele>126.68</ele>
        <time>2013-10-24T23:09:46Z</time>
      </trkpt>
      <trkpt lat="42.383366" lon="-7.826082">
        <ele>128.04</ele>
        <time>2013-10-24T23:10:06Z</time>
      </trkpt>
      <trkpt lat="42.383225" lon="-7.826043">
        <ele>129.04</ele>
        <time>2013-10-24T23:10:26Z</time>
      </trkpt>
      <trkpt lat="42.383127" lon="-7.826086">
        <ele>129.05</ele>
        <time>2013-10-24T23:10:46Z</time>
      </trkpt>
      <trkpt lat="42.383030" lon="-7.826045">
        <ele>128.55</ele>
        <time>2013-10-24T23:11:06Z</time>
      </trkpt>
      <trkpt lat="42.383010" lon="-7.826063">
        <ele>128.07</ele>
        <time>2013-10-24T23:11:26Z</time>
      </trkpt>
      <trkpt lat="42.382919" lon="-7.826067">
        <ele>127.00</ele>
        <time>2013-10-24T23:11:46Z</time>
      </trkpt>
      <trkpt lat="42.382590" lon="-7.826082">
        <ele>122.72</ele>
        <time>2013-10-24T23:12:06Z</time>
      </trkpt>
      <trkpt lat="42.382438" lon="-7.826107">
        <ele>121.31</ele>
        <time>2013-10-24T23:12:26Z</time>
      </trkpt>
      <trkpt lat="42.381975" lon="-7.826061">
        <ele>119.86</ele>
        <time>2013-10-24T23:12:46Z</time>
      </trkpt>
      <trkpt lat="42.381727" lon="-7.825897">
        <ele>119.87</ele>
        <time>2013-10-24T23:13:06Z</time>
      </trkpt>
      <trkpt lat="42.381191" lon="-7.825617">
        <ele>119.85</ele>
        <time>2013-10-24T23:13:26Z</time>
      </trkpt>
      <trkpt lat="42.380709" lon="-7.825400">
        <ele>118.96</ele>
        <time>2013-10-24T23:13:46Z</time>
      </trkpt>
      <trkpt lat="42.380271" lon="-7.825320">
        <ele>119.37</ele>
        <time>2013-10-24T23:14:06Z</time>
      </trkpt>
      <trkpt lat="42.379952" lon="-7.825290">
        <ele>119.85</ele>
        <time>2013-10-24T23:14:26Z</time>
      </trkpt>
      <trkpt lat="42.379721" lon="-7.825205">
        <ele>119.37</ele>
        <time>2013-10-24T23:14:46Z</time>
      </trkpt>
      <trkpt lat="42.379334" lon="-7.824717">
        <ele>119.34</ele>
        <time>2013-10-24T23:15:06Z</time>
      </trkpt>
      <trkpt lat="42.379086" lon="-7.824337">
        <ele>121.75</ele>
        <time>2013-10-24T23:15:26Z</time>
      </trkpt>
      <trkpt lat="42.379001" lon="-7.824124">
        <ele>122.21</ele>
        <time>2013-10-24T23:15:46Z</time>
      </trkpt>
      <trkpt lat="42.379065" lon="-7.824029">
        <ele>124.61</ele>
        <time>2013-10-24T23:16:06Z</time>
      </trkpt>
      <trkpt lat="42.379083" lon="-7.823869">
        <ele>128.10</ele>
        <time>2013-10-24T23:16:26Z</time>
      </trkpt>
      <trkpt lat="42.379082" lon="-7.823805">
        <ele>128.52</ele>
        <time>2013-10-24T23:16:46Z</time>
      </trkpt>
      <trkpt lat="42.379079" lon="-7.823769">
        <ele>129.41</ele>
        <time>2013-10-24T23:17:06Z</time>
      </trkpt>
      <trkpt lat="42.379109" lon="-7.823668">
        <ele>131.47</ele>
        <time>2013-10-24T23:17:26Z</time>
      </trkpt>
      <trkpt lat="42.379120" lon="-7.823588">
        <ele>133.36</ele>
        <time>2013-10-24T23:17:46Z</time>
      </trkpt>
      <trkpt lat="42.379130" lon="-7.823586">
        <ele>133.32</ele>
        <time>2013-10-24T23:18:06Z</time>
      </trkpt>
      <trkpt lat="42.379258" lon="-7.823601">
        <ele>135.75</ele>
        <time>2013-10-24T23:18:26Z</time>
      </trkpt>
      <trkpt lat="42.379307" lon="-7.823569">
        <ele>136.21</ele>
        <time>2013-10-24T23:18:46Z</time>
      </trkpt>
      <trkpt lat="42.379451" lon="-7.823386">
        <ele>137.62</ele>
        <time>2013-10-24T23:19:06Z</time>
      </trkpt>
      <trkpt lat="42.379458" lon="-7.823369">
        <ele>137.60</ele>
        <time>2013-10-24T23:19:26Z</time>
      </trkpt>
      <trkpt lat="42.379485" lon="-7.823318">
        <ele>138.61</ele>
        <time>2013-10-24T23:19:46Z</time>
      </trkpt>
      <trkpt lat="42.379600" lon="-7.823077">
        <ele>141.95</ele>
        <time>2013-10-24T23:20:06Z</time>
      </trkpt>
      <trkpt lat="42.379630" lon="-7.822981">
        <ele>143.47</ele>
        <time>2013-10-24T23:20:26Z</time>
      </trkpt>
      <trkpt lat="42.379691" lon="-7.822764">
        <ele>145.35</ele>
        <time>2013-10-24T23:20:46Z</time>
      </trkpt>
      <trkpt lat="42.379704" lon="-7.822760">
        <ele>145.38</ele>
        <time>2013-10-24T23:21:06Z</time>
      </trkpt>
      <trkpt lat="42.379785" lon="-7.822677">
        <ele>145.40</ele>
        <time>2013-10-24T23:21:26Z</time>
      </trkpt>
      <trkpt lat="42.379899" lon="-7.822549">
        <ele>145.87</ele>
        <time>2013-10-24T23:21:46Z</time>
      </trkpt>
      <trkpt lat="42.379982" lon="-7.822445">
        <ele>146.72</ele>
        <time>2013-10-24T23:22:06Z</time>
      </trkpt>
      <trkpt lat="42.380255" lon="-7.822105">
        <ele>150.20</ele>
        <time>2013-10-24T23:22:26Z</time>
      </trkpt>
      <trkpt lat="42.380301" lon="-7.821961">
        <ele>152.51</ele>
        <time>2013-10-24T23:22:46Z</time>
      </trkpt>
      <trkpt lat="42.380288" lon="-7.821902">
        <ele>153.53</ele>
        <time>2013-10-24T23:23:06Z</time>
      </trkpt>
      <trkpt lat="42.380256" lon="-7.821796">
        <ele>155.91</ele>
        <time>2013-10-24T23:23:26Z</time>
      </trkpt>
      <trkpt lat="42.380515" lon="-7.821634">
        <ele>158.89</ele>
        <time>2013-10-24T23:23:46Z</time>
      </trkpt>
      <trkpt lat="42.380758" lon="-7.821562">
        <ele>162.12</ele>
        <time>2013-10-24T23:24:06Z</time>
      </trkpt>
      <trkpt lat="42.381024" lon="-7.821343">
        <ele>163.14</ele>
        <time>2013-10-24T23:24:26Z</time>
      </trkpt>
      <trkpt lat="42.381103" lon="-7.821283">
        <ele>163.12</ele>
        <time>2013-10-24T23:24:46Z</time>
      </trkpt>
      <trkpt lat="42.381234" lon="-7.820834">
        <ele>164.06</ele>
        <time>2013-10-24T23:25:06Z</time>
      </trkpt>
      <trkpt lat="42.381218" lon="-7.820801">
        <ele>164.04</ele>
        <time>2013-10-24T23:25:26Z</time>
      </trkpt>
      <trkpt lat="42.381220" lon="-7.820802">
        <ele>164.57</ele>
        <time>2013-10-24T23:25:46Z</time>
      </trkpt>
      <trkpt lat="42.381224" lon="-7.820770">
        <ele>164.57</ele>
        <time>2013-10-24T23:26:06Z</time>
      </trkpt>
      <trkpt lat="42.381288" lon="-7.820345">
        <ele>165.09</ele>
        <time>2013-10-24T23:26:26Z</time>
      </trkpt>
      <trkpt lat="42.381313" lon="-7.819695">
        <ele>166.91</ele>
        <time>2013-10-24T23:26:46Z</time>
      </trkpt>
      <trkpt lat="42.381119" lon="-7.819447">
        <ele>166.01</ele>
        <time>2013-10-24T23:27:06Z</time>
      </trkpt>
      <trkpt lat="42.381192" lon="-7.819140">
        <ele>162.61</ele>
        <time>2013-10-24T23:27:26Z</time>
      </trkpt>
      <trkpt lat="42.381197" lon="-7.819000">
        <ele>161.69</ele>
        <time>2013-10-24T23:27:46Z</time>
      </trkpt>
      <trkpt lat="42.381239" lon="-7.818785">
        <ele>161.23</ele>
        <time>2013-10-24T23:28:06Z</time>
      </trkpt>
      <trkpt lat="42.381287" lon="-7.818122">
        <ele>157.89</ele>
        <time>2013-10-24T23:28:26Z</time>
      </trkpt>
      <trkpt lat="42.381289" lon="-7.818038">
        <ele>157.32</ele>
        <time>2013-10-24T23:28:46Z</time>
      </trkpt>
      <trkpt lat="42.381298" lon="-7.817874">
        <ele>156.49</ele>
        <time>2013-10-24T23:29:06Z</time>
      </trkpt>
      <trkpt lat="42.381307" lon="-7.817643">
        <ele>156.41</ele>
        <time>2013-10-24T23:29:26Z</time>
      </trkpt>
      <trkpt lat="42.381202" lon="-7.817136">
        <ele>157.36</ele>
        <time>2013-10-24T23:29:46Z</time>
      </trkpt>
      <trkpt lat="42.381222" lon="-7.816677">
        <ele>160.76</ele>
        <time>2013-10-24T23:30:06Z</time>
      </trkpt>
      <trkpt lat="42.381241" lon="-7.816268">
        <ele>161.61</ele>
        <time>2013-10-24T23:30:26Z</time>
      </trkpt>
      <trkpt lat="42.381340" lon="-7.815670">
        <ele>161.61</ele>
        <time>2013-10-24T23:30:46Z</time>
      </trkpt>
      <trkpt lat="42.381375" lon="-7.815147">
        <ele>161.21</ele>
        <time>2013-10-24T23:31:06Z</time>
      </trkpt>
      <trkpt lat="42.381475" lon="-7.814747">
        <ele>160.80</ele>
        <time>2013-10-24T23:31:26Z</time>
      </trkpt>
      <trkpt lat="42.381619" lon="-7.814228">
        <ele>161.61</ele>
        <time>2013-10-24T23:31:46Z</time>
      </trkpt>
      <trkpt lat="42.381724" lon="-7.813875">
        <ele>162.64</ele>
        <time>2013-10-24T23:32:06Z</time>
      </trkpt>
      <trkpt lat="42.381872" lon="-7.813578">
        <ele>163.64</ele>
        <time>2013-10-24T23:32:26Z</time>
      </trkpt>
      <trkpt lat="42.381892" lon="-7.813546">
        <ele>164.01</ele>
        <time>2013-10-24T23:32:46Z</time>
      </trkpt>
      <trkpt lat="42.382004" lon="-7.813322">
        <ele>166.54</ele>
        <time>2013-10-24T23:33:06Z</time>
      </trkpt>
      <trkpt lat="42.381999" lon="-7.813280">
        <ele>166.01</ele>
        <time>2013-10-24T23:33:26Z</time>
      </trkpt>
      <trkpt lat="42.382006" lon="-7.813266">
        <ele>166.03</ele>
        <time>2013-10-24T23:33:46Z</time>
      </trkpt>
      <trkpt lat="42.381997" lon="-7.813250">
        <ele>166.01</ele>
        <time>2013-10-24T23:34:06Z</time>
      </trkpt>
      <trkpt lat="42.382000" lon="-7.813231">
        <ele>166.51</ele>
        <time>2013-10-24T23:34:26Z</time>
      </trkpt>
      <trkpt lat="42.382020" lon="-7.813173">
        <ele>167.95</ele>
        <time>2013-10-24T23:34:46Z</time>
      </trkpt>
      <trkpt lat="42.382093" lon="-7.813040">
        <ele>170.82</ele>
        <time>2013-10-24T23:35:06Z</time>
      </trkpt>
      <trkpt lat="42.382186" lon="-7.812906">
        <ele>172.26</ele>
        <time>2013-10-24T23:35:26Z</time>
      </trkpt>
      <trkpt lat="42.382240" lon="-7.812813">
        <ele>173.79</ele>
        <time>2013-10-24T23:35:46Z</time>
      </trkpt>
      <trkpt lat="42.382316" lon="-7.812669">
        <ele>175.13</ele>
        <time>2013-10-24T23:36:06Z</time>
      </trkpt>
      <trkpt lat="42.382553" lon="-7.812300">
        <ele>176.17</ele>
        <time>2013-10-24T23:36:26Z</time>
      </trkpt>
      <trkpt lat="42.382835" lon="-7.811917">
        <ele>177.03</ele>
        <time>2013-10-24T23:36:46Z</time>
      </trkpt>
      <trkpt lat="42.383080" lon="-7.811543">
        <ele>176.15</ele>
        <time>2013-10-24T23:37:06Z</time>
      </trkpt>
      <trkpt lat="42.383378" lon="-7.811264">
        <ele>176.15</ele>
        <time>2013-10-24T23:37:26Z</time>
      </trkpt>
      <trkpt lat="42.383741" lon="-7.811069">
        <ele>175.61</ele>
        <time>2013-10-24T23:37:46Z</time>
      </trkpt>
      <trkpt lat="42.383917" lon="-7.810877">
        <ele>173.71</ele>
        <time>2013-10-24T23:38:06Z</time>
      </trkpt>
      <trkpt lat="42.383988" lon="-7.810704">
        <ele>172.23</ele>
        <time>2013-10-24T23:38:26Z</time>
      </trkpt>
      <trkpt lat="42.384127" lon="-7.810402">
        <ele>170.35</ele>
        <time>2013-10-24T23:38:46Z</time>
      </trkpt>
      <trkpt lat="42.384335" lon="-7.810226">
        <ele>169.37</ele>
        <time>2013-10-24T23:39:06Z</time>
      </trkpt>
      <trkpt lat="42.384537" lon="-7.810078">
        <ele>168.98</ele>
        <time>2013-10-24T23:39:26Z</time>
      </trkpt>
      <trkpt lat="42.384679" lon="-7.810110">
        <ele>168.95</ele>
        <time>2013-10-24T23:39:46Z</time>
      </trkpt>
      <trkpt lat="42.384762" lon="-7.810182">
        <ele>169.82</ele>
        <time>2013-10-24T23:40:06Z</time>
      </trkpt>
      <trkpt lat="42.384862" lon="-7.810246">
        <ele>171.35</ele>
        <time>2013-10-24T23:40:26Z</time>
      </trkpt>
      <trkpt lat="42.384915" lon="-7.810284">
        <ele>171.74</ele>
        <time>2013-10-24T23:40:46Z</time>
      </trkpt>
      <trkpt lat="42.385018" lon="-7.810358">
        <ele>172.27</ele>
        <time>2013-10-24T23:41:06Z</time>
      </trkpt>
      <trkpt lat="42.385048" lon="-7.810387">
        <ele>172.72</ele>
        <time>2013-10-24T23:41:26Z</time>
      </trkpt>
      <trkpt lat="42.385311" lon="-7.810270">
        <ele>174.61</ele>
        <time>2013-10-24T23:41:46Z</time>
      </trkpt>
      <trkpt lat="42.385444" lon="-7.810208">
        <ele>174.16</ele>
        <time>2013-10-24T23:42:06Z</time>
      </trkpt>
      <trkpt lat="42.385592" lon="-7.810280">
        <ele>174.65</ele>
        <time>2013-10-24T23:42:26Z</time>
      </trkpt>
      <trkpt lat="42.385723" lon="-7.810303">
        <ele>175.16</ele>
        <time>2013-10-24T23:42:46Z</time>
      </trkpt>
      <trkpt lat="42.385792" lon="-7.810281">
        <ele>176.59</ele>
        <time>2013-10-24T23:43:06Z</time>
      </trkpt>
      <trkpt lat="42.385923" lon="-7.810345">
        <ele>178.01</ele>
        <time>2013-10-24T23:43:26Z</time>
      </trkpt>
      <trkpt lat="42.386064" lon="-7.810408">
        <ele>178.95</ele>
        <time>2013-10-24T23:43:46Z</time>
      </trkpt>
      <trkpt lat="42.386138" lon="-7.810448">
        <ele>178.99</ele>
        <time>2013-10-24T23:44:06Z</time>
      </trkpt>
      <trkpt lat="42.386152" lon="-7.810258">
        <ele>178.52</ele>
        <time>2013-10-24T23:44:26Z</time>
      </trkpt>
      <trkpt lat="42.386120" lon="-7.810174">
        <ele>177.00</ele>
        <time>2013-10-24T23:44:46Z</time>
      </trkpt>
      <trkpt lat="42.386028" lon="-7.809938">
        <ele>174.61</ele>
        <time>2013-10-24T23:45:06Z</time>
      </trkpt>
      <trkpt lat="42.385959" lon="-7.809777">
        <ele>173.21</ele>
        <time>2013-10-24T23:45:26Z</time>
      </trkpt>
      <trkpt lat="42.385880" lon="-7.809556">
        <ele>171.37</ele>
        <time>2013-10-24T23:45:46Z</time>
      </trkpt>
      <trkpt lat="42.385812" lon="-7.808974">
        <ele>170.40</ele>
        <time>2013-10-24T23:46:06Z</time>
      </trkpt>
      <trkpt lat="42.386208" lon="-7.808805">
        <ele>170.31</ele>
        <time>2013-10-24T23:46:26Z</time>
      </trkpt>
      <trkpt lat="42.386621" lon="-7.808739">
        <ele>170.38</ele>
        <time>2013-10-24T23:46:46Z</time>
      </trkpt>
      <trkpt lat="42.387011" lon="-7.808770">
        <ele>171.72</ele>
        <time>2013-10-24T23:47:06Z</time>
      </trkpt>
      <trkpt lat="42.387523" lon="-7.808808">
        <ele>171.73</ele>
        <time>2013-10-24T23:47:26Z</time>
      </trkpt>
      <trkpt lat="42.388063" lon="-7.808656">
        <ele>170.32</ele>
        <time>2013-10-24T23:47:46Z</time>
      </trkpt>
      <trkpt lat="42.388279" lon="-7.808646">
        <ele>172.25</ele>
        <time>2013-10-24T23:48:06Z</time>
      </trkpt>
      <trkpt lat="42.388315" lon="-7.808651">
        <ele>172.76</ele>
        <time>2013-10-24T23:48:26Z</time>
      </trkpt>
      <trkpt lat="42.388470" lon="-7.808626">
        <ele>175.62</ele>
        <time>2013-10-24T23:48:46Z</time>
      </trkpt>
      <trkpt lat="42.388786" lon="-7.808503">
        <ele>176.51</ele>
        <time>2013-10-24T23:49:06Z</time>
      </trkpt>
      <trkpt lat="42.389202" lon="-7.808398">
        <ele>179.95</ele>
        <time>2013-10-24T23:49:26Z</time>
      </trkpt>
      <trkpt lat="42.389489" lon="-7.808389">
        <ele>182.90</ele>
        <time>2013-10-24T23:49:46Z</time>
      </trkpt>
      <trkpt lat="42.389844" lon="-7.808276">
        <ele>185.25</ele>
        <time>2013-10-24T23:50:06Z</time>
      </trkpt>
      <trkpt lat="42.390207" lon="-7.808175">
        <ele>187.61</ele>
        <time>2013-10-24T23:50:26Z</time>
      </trkpt>
      <trkpt lat="42.390552" lon="-7.808129">
        <ele>185.75</ele>
        <time>2013-10-24T23:50:46Z</time>
      </trkpt>
      <trkpt lat="42.390730" lon="-7.808039">
        <ele>184.25</ele>
        <time>2013-10-24T23:51:06Z</time>
      </trkpt>
      <trkpt lat="42.390848" lon="-7.807947">
        <ele>182.90</ele>
        <time>2013-10-24T23:51:26Z</time>
      </trkpt>
      <trkpt lat="42.390989" lon="-7.807868">
        <ele>182.36</ele>
        <time>2013-10-24T23:51:46Z</time>
      </trkpt>
      <trkpt lat="42.391266" lon="-7.807783">
        <ele>181.44</ele>
        <time>2013-10-24T23:52:06Z</time>
      </trkpt>
      <trkpt lat="42.391398" lon="-7.807756">
        <ele>181.42</ele>
        <time>2013-10-24T23:52:26Z</time>
      </trkpt>
      <trkpt lat="42.391537" lon="-7.807752">
        <ele>180.41</ele>
        <time>2013-10-24T23:52:46Z</time>
      </trkpt>
      <trkpt lat="42.391836" lon="-7.807711">
        <ele>180.45</ele>
        <time>2013-10-24T23:53:06Z</time>
      </trkpt>
      <trkpt lat="42.391944" lon="-7.807568">
        <ele>180.45</ele>
        <time>2013-10-24T23:53:26Z</time>
      </trkpt>
      <trkpt lat="42.392201" lon="-7.807341">
        <ele>179.91</ele>
        <time>2013-10-24T23:53:46Z</time>
      </trkpt>
      <trkpt lat="42.392555" lon="-7.807030">
        <ele>182.37</ele>
        <time>2013-10-24T23:54:06Z</time>
      </trkpt>
      <trkpt lat="42.392922" lon="-7.806936">
        <ele>185.28</ele>
        <time>2013-10-24T23:54:26Z</time>
      </trkpt>
      <trkpt lat="42.393158" lon="-7.806968">
        <ele>188.16</ele>
        <time>2013-10-24T23:54:46Z</time>
      </trkpt>
      <trkpt lat="42.393182" lon="-7.806970">
        <ele>188.63</ele>
        <time>2013-10-24T23:55:06Z</time>
      </trkpt>
      <trkpt lat="42.393420" lon="-7.807034">
        <ele>191.02</ele>
        <time>2013-10-24T23:55:26Z</time>
      </trkpt>
      <trkpt lat="42.393524" lon="-7.807002">
        <ele>190.58</ele>
        <time>2013-10-24T23:55:46Z</time>
      </trkpt>
      <trkpt lat="42.393880" lon="-7.807017">
        <ele>192.41</ele>
        <time>2013-10-24T23:56:06Z</time>
      </trkpt>
      <trkpt lat="42.394009" lon="-7.806882">
        <ele>189.51</ele>
        <time>2013-10-24T23:56:26Z</time>
      </trkpt>
      <trkpt lat="42.394016" lon="-7.806865">
        <ele>189.59</ele>
        <time>2013-10-24T23:56:46Z</time>
      </trkpt>
      <trkpt lat="42.394130" lon="-7.806762">
        <ele>186.65</ele>
        <time>2013-10-24T23:57:06Z</time>
      </trkpt>
      <trkpt lat="42.394367" lon="-7.806577">
        <ele>183.36</ele>
        <time>2013-10-24T23:57:26Z</time>
      </trkpt>
      <trkpt lat="42.394700" lon="-7.806086">
        <ele>182.33</ele>
        <time>2013-10-24T23:57:46Z</time>
      </trkpt>
      <trkpt lat="42.394951" lon="-7.805873">
        <ele>181.43</ele>
        <time>2013-10-24T23:58:06Z</time>
      </trkpt>
      <trkpt lat="42.395068" lon="-7.805785">
        <ele>180.96</ele>
        <time>2013-10-24T23:58:26Z</time>
      </trkpt>
      <trkpt lat="42.395225" lon="-7.805653">
        <ele>179.96</ele>
        <time>2013-10-24T23:58:46Z</time>
      </trkpt>
      <trkpt lat="42.395374" lon="-7.805511">
        <ele>177.05</ele>
        <time>2013-10-24T23:59:06Z</time>
      </trkpt>
      <trkpt lat="42.395522" lon="-7.805305">
        <ele>174.15</ele>
        <time>2013-10-24T23:59:26Z</time>
      </trkpt>
      <trkpt lat="42.395611" lon="-7.805260">
        <ele>173.21</ele>
        <time>2013-10-24T23:59:46Z</time>
      </trkpt>
      <trkpt lat="42.396097" lon="-7.805051">
        <ele>171.71</ele>
        <time>2013-10-25T00:00:06Z</time>
      </trkpt>
      <trkpt lat="42.396191" lon="-7.805015">
        <ele>171.37</ele>
        <time>2013-10-25T00:00:26Z</time>
      </trkpt>
      <trkpt lat="42.396574" lon="-7.804912">
        <ele>171.75</ele>
        <time>2013-10-25T00:00:46Z</time>
      </trkpt>
      <trkpt lat="42.396822" lon="-7.804723">
        <ele>169.39</ele>
        <time>2013-10-25T00:01:06Z</time>
      </trkpt>
      <trkpt lat="42.397065" lon="-7.804587">
        <ele>165.51</ele>
        <time>2013-10-25T00:01:26Z</time>
      </trkpt>
      <trkpt lat="42.397121" lon="-7.804564">
        <ele>164.52</ele>
        <time>2013-10-25T00:01:46Z</time>
      </trkpt>
      <trkpt lat="42.397153" lon="-7.804551">
        <ele>164.54</ele>
        <time>2013-10-25T00:02:06Z</time>
      </trkpt>
      <trkpt lat="42.397158" lon="-7.804522">
        <ele>164.54</ele>
        <time>2013-10-25T00:02:26Z</time>
      </trkpt>
      <trkpt lat="42.397272" lon="-7.804472">
        <ele>163.63</ele>
        <time>2013-10-25T00:02:46Z</time>
      </trkpt>
      <trkpt lat="42.397565" lon="-7.804392">
        <ele>160.79</ele>
        <time>2013-10-25T00:03:06Z</time>
      </trkpt>
      <trkpt lat="42.397752" lon="-7.804315">
        <ele>158.31</ele>
        <time>2013-10-25T00:03:26Z</time>
      </trkpt>
      <trkpt lat="42.398036" lon="-7.804229">
        <ele>156.41</ele>
        <time>2013-10-25T00:03:46Z</time>
      </trkpt>
      <trkpt lat="42.398285" lon="-7.804194">
        <ele>155.99</ele>
        <time>2013-10-25T00:04:06Z</time>
      </trkpt>
      <trkpt lat="42.398363" lon="-7.803866">
        <ele>152.02</ele>
        <time>2013-10-25T00:04:26Z</time>
      </trkpt>
      <trkpt lat="42.398378" lon="-7.803656">
        <ele>148.21</ele>
        <time>2013-10-25T00:04:46Z</time>
      </trkpt>
      <trkpt lat="42.398377" lon="-7.803622">
        <ele>147.30</ele>
        <time>2013-10-25T00:05:06Z</time>
      </trkpt>
      <trkpt lat="42.398380" lon="-7.803450">
        <ele>144.89</ele>
        <time>2013-10-25T00:05:26Z</time>
      </trkpt>
      <trkpt lat="42.398350" lon="-7.803296">
        <ele>141.53</ele>
        <time>2013-10-25T00:05:46Z</time>
      </trkpt>
      <trkpt lat="42.398330" lon="-7.803188">
        <ele>139.54</ele>
        <time>2013-10-25T00:06:06Z</time>
      </trkpt>
      <trkpt lat="42.398337" lon="-7.803144">
        <ele>139.16</ele>
        <time>2013-10-25T00:06:26Z</time>
      </trkpt>
      <trkpt lat="42.398438" lon="-7.803001">
        <ele>136.26</ele>
        <time>2013-10-25T00:06:46Z</time>
      </trkpt>
      <trkpt lat="42.398732" lon="-7.802951">
        <ele>136.61</ele>
        <time>2013-10-25T00:07:06Z</time>
      </trkpt>
      <trkpt lat="42.398765" lon="-7.802945">
        <ele>136.61</ele>
        <time>2013-10-25T00:07:26Z</time>
      </trkpt>
      <trkpt lat="42.398852" lon="-7.803020">
        <ele>136.24</ele>
        <time>2013-10-25T00:07:46Z</time>
      </trkpt>
      <trkpt lat="42.398854" lon="-7.803022">
        <ele>136.25</ele>
        <time>2013-10-25T00:08:06Z</time>
      </trkpt>
      <trkpt lat="42.398834" lon="-7.803000">
        <ele>136.69</ele>
        <time>2013-10-25T00:08:26Z</time>
      </trkpt>
      <trkpt lat="42.398788" lon="-7.802940">
        <ele>136.22</ele>
        <time>2013-10-25T00:08:46Z</time>
      </trkpt>
      <trkpt lat="42.398762" lon="-7.802952">
        <ele>136.29</ele>
        <time>2013-10-25T00:09:06Z</time>
      </trkpt>
      <trkpt lat="42.398759" lon="-7.802962">
        <ele>136.28</ele>
        <time>2013-10-25T00:09:26Z</time>
      </trkpt>
      <trkpt lat="42.398853" lon="-7.803018">
        <ele>136.63</ele>
        <time>2013-10-25T00:09:46Z</time>
      </trkpt>
      <trkpt lat="42.398939" lon="-7.803203">
        <ele>135.25</ele>
        <time>2013-10-25T00:10:06Z</time>
      </trkpt>
      <trkpt lat="42.399007" lon="-7.803185">
        <ele>133.36</ele>
        <time>2013-10-25T00:10:26Z</time>
      </trkpt>
      <trkpt lat="42.399038" lon="-7.803130">
        <ele>133.82</ele>
        <time>2013-10-25T00:10:46Z</time>
      </trkpt>
      <trkpt lat="42.399121" lon="-7.803044">
        <ele>135.21</ele>
        <time>2013-10-25T00:11:06Z</time>
      </trkpt>
      <trkpt lat="42.399151" lon="-7.803016">
        <ele>135.29</ele>
        <time>2013-10-25T00:11:26Z</time>
      </trkpt>
      <trkpt lat="42.399211" lon="-7.802987">
        <ele>135.79</ele>
        <time>2013-10-25T00:11:46Z</time>
      </trkpt>
      <trkpt lat="42.399302" lon="-7.803118">
        <ele>139.16</ele>
        <time>2013-10-25T00:12:06Z</time>
      </trkpt>
      <trkpt lat="42.399406" lon="-7.803263">
        <ele>141.08</ele>
        <time>2013-10-25T00:12:26Z</time>
      </trkpt>
      <trkpt lat="42.399411" lon="-7.803263">
        <ele>141.02</ele>
        <time>2013-10-25T00:12:46Z</time>
      </trkpt>
      <trkpt lat="42.399612" lon="-7.803356">
        <ele>140.09</ele>
        <time>2013-10-25T00:13:06Z</time>
      </trkpt>
      <trkpt lat="42.399655" lon="-7.803395">
        <ele>139.15</ele>
        <time>2013-10-25T00:13:26Z</time>
      </trkpt>
      <trkpt lat="42.399401" lon="-7.803450">
        <ele>141.58</ele>
        <time>2013-10-25T00:13:46Z</time>
      </trkpt>
      <trkpt lat="42.399319" lon="-7.803481">
        <ele>142.43</ele>
        <time>2013-10-25T00:14:06Z</time>
      </trkpt>
      <trkpt lat="42.399305" lon="-7.803477">
        <ele>141.52</ele>
        <time>2013-10-25T00:14:26Z</time>
      </trkpt>
      <trkpt lat="42.399317" lon="-7.803470">
        <ele>141.91</ele>
        <time>2013-10-25T00:14:46Z</time>
      </trkpt>
      <trkpt lat="42.399346" lon="-7.803702">
        <ele>144.38</ele>
        <time>2013-10-25T00:15:06Z</time>
      </trkpt>
      <trkpt lat="42.399368" lon="-7.803860">
        <ele>146.35</ele>
        <time>2013-10-25T00:15:26Z</time>
      </trkpt>
      <trkpt lat="42.399368" lon="-7.803872">
        <ele>145.89</ele>
        <time>2013-10-25T00:15:46Z</time>
      </trkpt>
      <trkpt lat="42.399360" lon="-7.803896">
        <ele>146.38</ele>
        <time>2013-10-25T00:16:06Z</time>
      </trkpt>
      <trkpt lat="42.399256" lon="-7.804013">
        <ele>148.22</ele>
        <time>2013-10-25T00:16:26Z</time>
      </trkpt>
      <trkpt lat="42.399250" lon="-7.804047">
        <ele>148.76</ele>
        <time>2013-10-25T00:16:46Z</time>
      </trkpt>
      <trkpt lat="42.399276" lon="-7.804286">
        <ele>151.56</ele>
        <time>2013-10-25T00:17:06Z</time>
      </trkpt>
      <trkpt lat="42.399310" lon="-7.804485">
        <ele>153.54</ele>
        <time>2013-10-25T00:17:26Z</time>
      </trkpt>
      <trkpt lat="42.399344" lon="-7.804619">
        <ele>154.41</ele>
        <time>2013-10-25T00:17:46Z</time>
      </trkpt>
      <trkpt lat="42.399373" lon="-7.804803">
        <ele>156.41</ele>
        <time>2013-10-25T00:18:06Z</time>
      </trkpt>
      <trkpt lat="42.399393" lon="-7.804980">
        <ele>157.81</ele>
        <time>2013-10-25T00:18:26Z</time>
      </trkpt>
      <trkpt lat="42.399395" lon="-7.805018">
        <ele>158.40</ele>
        <time>2013-10-25T00:18:46Z</time>
      </trkpt>
      <trkpt lat="42.399399" lon="-7.805071">
        <ele>159.23</ele>
        <time>2013-10-25T00:19:06Z</time>
      </trkpt>
      <trkpt lat="42.399399" lon="-7.805132">
        <ele>160.75</ele>
        <time>2013-10-25T00:19:26Z</time>
      </trkpt>
      <trkpt lat="42.399356" lon="-7.805283">
        <ele>163.68</ele>
        <time>2013-10-25T00:19:46Z</time>
      </trkpt>
      <trkpt lat="42.399358" lon="-7.805366">
        <ele>164.54</ele>
        <time>2013-10-25T00:20:06Z</time>
      </trkpt>
      <trkpt lat="42.399423" lon="-7.805515">
        <ele>166.56</ele>
        <time>2013-10-25T00:20:26Z</time>
      </trkpt>
      <trkpt lat="42.399449" lon="-7.805532">
        <ele>166.59</ele>
        <time>2013-10-25T00:20:46Z</time>
      </trkpt>
      <trkpt lat="42.399502" lon="-7.805554">
        <ele>166.97</ele>
        <time>2013-10-25T00:21:06Z</time>
      </trkpt>
      <trkpt lat="42.399526" lon="-7.805569">
        <ele>167.43</ele>
        <time>2013-10-25T00:21:26Z</time>
      </trkpt>
      <trkpt lat="42.399531" lon="-7.805758">
        <ele>170.32</ele>
        <time>2013-10-25T00:21:46Z</time>
      </trkpt>
      <trkpt lat="42.399544" lon="-7.805814">
        <ele>171.31</ele>
        <time>2013-10-25T00:22:06Z</time>
      </trkpt>
      <trkpt lat="42.399691" lon="-7.805992">
        <ele>175.13</ele>
        <time>2013-10-25T00:22:26Z</time>
      </trkpt>
      <trkpt lat="42.399883" lon="-7.806181">
        <ele>177.53</ele>
        <time>2013-10-25T00:22:46Z</time>
      </trkpt>
      <trkpt lat="42.400072" lon="-7.806402">
        <ele>179.50</ele>
        <time>2013-10-25T00:23:06Z</time>
      </trkpt>
      <trkpt lat="42.400180" lon="-7.806511">
        <ele>179.97</ele>
        <time>2013-10-25T00:23:26Z</time>
      </trkpt>
      <trkpt lat="42.400223" lon="-7.806487">
        <ele>179.41</ele>
        <time>2013-10-25T00:23:46Z</time>
      </trkpt>
      <trkpt lat="42.400209" lon="-7.806497">
        <ele>179.42</ele>
        <time>2013-10-25T00:24:06Z</time>
      </trkpt>
      <trkpt lat="42.400196" lon="-7.806505">
        <ele>179.43</ele>
        <time>2013-10-25T00:24:26Z</time>
      </trkpt>
      <trkpt lat="42.400211" lon="-7.806499">
        <ele>180.46</ele>
        <time>2013-10-25T00:24:46Z</time>
      </trkpt>
      <trkpt lat="42.400235" lon="-7.806522">
        <ele>179.46</ele>
        <time>2013-10-25T00:25:06Z</time>
      </trkpt>
      <trkpt lat="42.400263" lon="-7.806547">
        <ele>179.41</ele>
        <time>2013-10-25T00:25:26Z</time>
      </trkpt>
      <trkpt lat="42.400521" lon="-7.806748">
        <ele>182.31</ele>
        <time>2013-10-25T00:25:46Z</time>
      </trkpt>
      <trkpt lat="42.400742" lon="-7.806871">
        <ele>185.79</ele>
        <time>2013-10-25T00:26:06Z</time>
      </trkpt>
      <trkpt lat="42.400766" lon="-7.806899">
        <ele>185.75</ele>
        <time>2013-10-25T00:26:26Z</time>
      </trkpt>
      <trkpt lat="42.400755" lon="-7.806923">
        <ele>186.23</ele>
        <time>2013-10-25T00:26:46Z</time>
      </trkpt>
      <trkpt lat="42.400757" lon="-7.806967">
        <ele>186.27</ele>
        <time>2013-10-25T00:27:06Z</time>
      </trkpt>
      <trkpt lat="42.400865" lon="-7.807213">
        <ele>189.06</ele>
        <time>2013-10-25T00:27:26Z</time>
      </trkpt>
      <trkpt lat="42.400975" lon="-7.807368">
        <ele>191.03</ele>
        <time>2013-10-25T00:27:46Z</time>
      </trkpt>
      <trkpt lat="42.401159" lon="-7.807586">
        <ele>192.92</ele>
        <time>2013-10-25T00:28:06Z</time>
      </trkpt>
      <trkpt lat="42.401398" lon="-7.807349">
        <ele>190.02</ele>
        <time>2013-10-25T00:28:26Z</time>
      </trkpt>
      <trkpt lat="42.401669" lon="-7.807125">
        <ele>186.68</ele>
        <time>2013-10-25T00:28:46Z</time>
      </trkpt>
      <trkpt lat="42.401916" lon="-7.806952">
        <ele>183.31</ele>
        <time>2013-10-25T00:29:06Z</time>
      </trkpt>
      <trkpt lat="42.402277" lon="-7.806697">
        <ele>178.91</ele>
        <time>2013-10-25T00:29:26Z</time>
      </trkpt>
      <trkpt lat="42.402763" lon="-7.806385">
        <ele>175.68</ele>
        <time>2013-10-25T00:29:46Z</time>
      </trkpt>
      <trkpt lat="42.403046" lon="-7.806229">
        <ele>173.29</ele>
        <time>2013-10-25T00:30:06Z</time>
      </trkpt>
      <trkpt lat="42.403101" lon="-7.806206">
        <ele>173.24</ele>
        <time>2013-10-25T00:30:26Z</time>
      </trkpt>
      <trkpt lat="42.403371" lon="-7.805965">
        <ele>171.38</ele>
        <time>2013-10-25T00:30:46Z</time>
      </trkpt>
      <trkpt lat="42.403711" lon="-7.805724">
        <ele>171.73</ele>
        <time>2013-10-25T00:31:06Z</time>
      </trkpt>
      <trkpt lat="42.403892" lon="-7.805550">
        <ele>171.75</ele>
        <time>2013-10-25T00:31:26Z</time>
      </trkpt>
      <trkpt lat="42.404054" lon="-7.805440">
        <ele>170.82</ele>
        <time>2013-10-25T00:31:46Z</time>
      </trkpt>
      <trkpt lat="42.404197" lon="-7.805409">
        <ele>169.82</ele>
        <time>2013-10-25T00:32:06Z</time>
      </trkpt>
      <trkpt lat="42.404301" lon="-7.805402">
        <ele>169.33</ele>
        <time>2013-10-25T00:32:26Z</time>
      </trkpt>
      <trkpt lat="42.404389" lon="-7.805404">
        <ele>168.41</ele>
        <time>2013-10-25T00:32:46Z</time>
      </trkpt>
      <trkpt lat="42.404531" lon="-7.805405">
        <ele>167.41</ele>
        <time>2013-10-25T00:33:06Z</time>
      </trkpt>
      <trkpt lat="42.404824" lon="-7.805445">
        <ele>161.64</ele>
        <time>2013-10-25T00:33:26Z</time>
      </trkpt>
      <trkpt lat="42.404954" lon="-7.805464">
        <ele>159.80</ele>
        <time>2013-10-25T00:33:46Z</time>
      </trkpt>
      <trkpt lat="42.405133" lon="-7.805412">
        <ele>158.38</ele>
        <time>2013-10-25T00:34:06Z</time>
      </trkpt>
      <trkpt lat="42.405435" lon="-7.805229">
        <ele>154.45</ele>
        <time>2013-10-25T00:34:26Z</time>
      </trkpt>
      <trkpt lat="42.405486" lon="-7.805190">
        <ele>154.03</ele>
        <time>2013-10-25T00:34:46Z</time>
      </trkpt>
      <trkpt lat="42.405728" lon="-7.805151">
        <ele>150.20</ele>
        <time>2013-10-25T00:35:06Z</time>
      </trkpt>
      <trkpt lat="42.405936" lon="-7.805107">
        <ele>147.73</ele>
        <time>2013-10-25T00:35:26Z</time>
      </trkpt>
      <trkpt lat="42.406002" lon="-7.805092">
        <ele>146.79</ele>
        <time>2013-10-25T00:35:46Z</time>
      </trkpt>
      <trkpt lat="42.406270" lon="-7.804933">
        <ele>142.46</ele>
        <time>2013-10-25T00:36:06Z</time>
      </trkpt>
      <trkpt lat="42.406398" lon="-7.804822">
        <ele>138.62</ele>
        <time>2013-10-25T00:36:26Z</time>
      </trkpt>
      <trkpt lat="42.406578" lon="-7.804698">
        <ele>134.21</ele>
        <time>2013-10-25T00:36:46Z</time>
      </trkpt>
      <trkpt lat="42.406639" lon="-7.804659">
        <ele>133.36</ele>
        <time>2013-10-25T00:37:06Z</time>
      </trkpt>
      <trkpt lat="42.406644" lon="-7.804651">
        <ele>132.82</ele>
        <time>2013-10-25T00:37:26Z</time>
      </trkpt>
      <trkpt lat="42.406633" lon="-7.804468">
        <ele>132.87</ele>
        <time>2013-10-25T00:37:46Z</time>
      </trkpt>
      <trkpt lat="42.406703" lon="-7.804407">
        <ele>132.32</ele>
        <time>2013-10-25T00:38:06Z</time>
      </trkpt>
      <trkpt lat="42.406957" lon="-7.804358">
        <ele>131.83</ele>
        <time>2013-10-25T00:38:26Z</time>
      </trkpt>
      <trkpt lat="42.407117" lon="-7.803995">
        <ele>134.76</ele>
        <time>2013-10-25T00:38:46Z</time>
      </trkpt>
      <trkpt lat="42.407113" lon="-7.803897">
        <ele>133.84</ele>
        <time>2013-10-25T00:39:06Z</time>
      </trkpt>
      <trkpt lat="42.407067" lon="-7.803408">
        <ele>137.20</ele>
        <time>2013-10-25T00:39:26Z</time>
      </trkpt>
      <trkpt lat="42.406833" lon="-7.802773">
        <ele>140.03</ele>
        <time>2013-10-25T00:39:46Z</time>
      </trkpt>
      <trkpt lat="42.406619" lon="-7.802124">
        <ele>142.92</ele>
        <time>2013-10-25T00:40:06Z</time>
      </trkpt>
      <trkpt lat="42.406704" lon="-7.801934">
        <ele>143.41</ele>
        <time>2013-10-25T00:40:26Z</time>
      </trkpt>
      <trkpt lat="42.407362" lon="-7.801655">
        <ele>144.89</ele>
        <time>2013-10-25T00:40:46Z</time>
      </trkpt>
      <trkpt lat="42.407860" lon="-7.801478">
        <ele>142.44</ele>
        <time>2013-10-25T00:41:06Z</time>
      </trkpt>
      <trkpt lat="42.408050" lon="-7.801257">
        <ele>140.09</ele>
        <time>2013-10-25T00:41:26Z</time>
      </trkpt>
      <trkpt lat="42.408133" lon="-7.800918">
        <ele>134.79</ele>
        <time>2013-10-25T00:41:46Z</time>
      </trkpt>
      <trkpt lat="42.408086" lon="-7.800589">
        <ele>129.49</ele>
        <time>2013-10-25T00:42:06Z</time>
      </trkpt>
      <trkpt lat="42.408099" lon="-7.800140">
        <ele>126.15</ele>
        <time>2013-10-25T00:42:26Z</time>
      </trkpt>
      <trkpt lat="42.408271" lon="-7.799800">
        <ele>121.36</ele>
        <time>2013-10-25T00:42:46Z</time>
      </trkpt>
      <trkpt lat="42.408500" lon="-7.799648">
        <ele>118.44</ele>
        <time>2013-10-25T00:43:06Z</time>
      </trkpt>
      <trkpt lat="42.408738" lon="-7.799433">
        <ele>119.88</ele>
        <time>2013-10-25T00:43:26Z</time>
      </trkpt>
      <trkpt lat="42.409010" lon="-7.799152">
        <ele>121.71</ele>
        <time>2013-10-25T00:43:46Z</time>
      </trkpt>
      <trkpt lat="42.409397" lon="-7.798586">
        <ele>123.21</ele>
        <time>2013-10-25T00:44:06Z</time>
      </trkpt>
      <trkpt lat="42.409593" lon="-7.798463">
        <ele>123.29</ele>
        <time>2013-10-25T00:44:26Z</time>
      </trkpt>
      <trkpt lat="42.410207" lon="-7.798367">
        <ele>122.27</ele>
        <time>2013-10-25T00:44:46Z</time>
      </trkpt>
      <trkpt lat="42.410437" lon="-7.798297">
        <ele>119.39</ele>
        <time>2013-10-25T00:45:06Z</time>
      </trkpt>
      <trkpt lat="42.410727" lon="-7.798368">
        <ele>120.33</ele>
        <time>2013-10-25T00:45:26Z</time>
      </trkpt>
      <trkpt lat="42.410853" lon="-7.798271">
        <ele>119.31</ele>
        <time>2013-10-25T00:45:46Z</time>
      </trkpt>
      <trkpt lat="42.411058" lon="-7.797857">
        <ele>119.82</ele>
        <time>2013-10-25T00:46:06Z</time>
      </trkpt>
      <trkpt lat="42.411098" lon="-7.797616">
        <ele>120.36</ele>
        <time>2013-10-25T00:46:26Z</time>
      </trkpt>
      <trkpt lat="42.411183" lon="-7.797298">
        <ele>123.71</ele>
        <time>2013-10-25T00:46:46Z</time>
      </trkpt>
      <trkpt lat="42.411267" lon="-7.797065">
        <ele>127.02</ele>
        <time>2013-10-25T00:47:06Z</time>
      </trkpt>
      <trkpt lat="42.411284" lon="-7.796870">
        <ele>129.90</ele>
        <time>2013-10-25T00:47:26Z</time>
      </trkpt>
      <trkpt lat="42.411284" lon="-7.796857">
        <ele>130.41</ele>
        <time>2013-10-25T00:47:46Z</time>
      </trkpt>
      <trkpt lat="42.411216" lon="-7.796679">
        <ele>133.82</ele>
        <time>2013-10-25T00:48:06Z</time>
      </trkpt>
      <trkpt lat="42.411124" lon="-7.796536">
        <ele>136.66</ele>
        <time>2013-10-25T00:48:26Z</time>
      </trkpt>
      <trkpt lat="42.411026" lon="-7.796414">
        <ele>140.09</ele>
        <time>2013-10-25T00:48:46Z</time>
      </trkpt>
      <trkpt lat="42.410920" lon="-7.796316">
        <ele>142.99</ele>
        <time>2013-10-25T00:49:06Z</time>
      </trkpt>
      <trkpt lat="42.410849" lon="-7.796252">
        <ele>144.84</ele>
        <time>2013-10-25T00:49:26Z</time>
      </trkpt>
      <trkpt lat="42.410709" lon="-7.796103">
        <ele>148.29</ele>
        <time>2013-10-25T00:49:46Z</time>
      </trkpt>
      <trkpt lat="42.410700" lon="-7.796085">
        <ele>148.72</ele>
        <time>2013-10-25T00:50:06Z</time>
      </trkpt>
      <trkpt lat="42.410713" lon="-7.795973">
        <ele>150.69</ele>
        <time>2013-10-25T00:50:26Z</time>
      </trkpt>
      <trkpt lat="42.410938" lon="-7.795963">
        <ele>154.07</ele>
        <time>2013-10-25T00:50:46Z</time>
      </trkpt>
      <trkpt lat="42.411068" lon="-7.795784">
        <ele>156.82</ele>
        <time>2013-10-25T00:51:06Z</time>
      </trkpt>
      <trkpt lat="42.411121" lon="-7.795571">
        <ele>160.21</ele>
        <time>2013-10-25T00:51:26Z</time>
      </trkpt>
      <trkpt lat="42.411158" lon="-7.795338">
        <ele>163.18</ele>
        <time>2013-10-25T00:51:46Z</time>
      </trkpt>
      <trkpt lat="42.411227" lon="-7.795092">
        <ele>166.54</ele>
        <time>2013-10-25T00:52:06Z</time>
      </trkpt>
      <trkpt lat="42.411349" lon="-7.794833">
        <ele>169.89</ele>
        <time>2013-10-25T00:52:26Z</time>
      </trkpt>
      <trkpt lat="42.411531" lon="-7.794727">
        <ele>172.79</ele>
        <time>2013-10-25T00:52:46Z</time>
      </trkpt>
      <trkpt lat="42.411700" lon="-7.794647">
        <ele>176.14</ele>
        <time>2013-10-25T00:53:06Z</time>
      </trkpt>
      <trkpt lat="42.411938" lon="-7.794492">
        <ele>178.93</ele>
        <time>2013-10-25T00:53:26Z</time>
      </trkpt>
      <trkpt lat="42.411991" lon="-7.794422">
        <ele>180.43</ele>
        <time>2013-10-25T00:53:46Z</time>
      </trkpt>
      <trkpt lat="42.412039" lon="-7.794358">
        <ele>181.84</ele>
        <time>2013-10-25T00:54:06Z</time>
      </trkpt>
      <trkpt lat="42.412020" lon="-7.794317">
        <ele>182.80</ele>
        <time>2013-10-25T00:54:26Z</time>
      </trkpt>
      <trkpt lat="42.411682" lon="-7.794305">
        <ele>185.22</ele>
        <time>2013-10-25T00:54:46Z</time>
      </trkpt>
      <trkpt lat="42.411370" lon="-7.794059">
        <ele>185.71</ele>
        <time>2013-10-25T00:55:06Z</time>
      </trkpt>
      <trkpt lat="42.411352" lon="-7.793673">
        <ele>184.77</ele>
        <time>2013-10-25T00:55:26Z</time>
      </trkpt>
      <trkpt lat="42.411359" lon="-7.793371">
        <ele>182.40</ele>
        <time>2013-10-25T00:55:46Z</time>
      </trkpt>
      <trkpt lat="42.411288" lon="-7.793130">
        <ele>182.37</ele>
        <time>2013-10-25T00:56:06Z</time>
      </trkpt>
      <trkpt lat="42.411198" lon="-7.792947">
        <ele>182.90</ele>
        <time>2013-10-25T00:56:26Z</time>
      </trkpt>
      <trkpt lat="42.411159" lon="-7.792843">
        <ele>182.82</ele>
        <time>2013-10-25T00:56:46Z</time>
      </trkpt>
      <trkpt lat="42.411143" lon="-7.792851">
        <ele>183.88</ele>
        <time>2013-10-25T00:57:06Z</time>
      </trkpt>
      <trkpt lat="42.411137" lon="-7.792849">
        <ele>183.87</ele>
        <time>2013-10-25T00:57:26Z</time>
      </trkpt>
      <trkpt lat="42.411126" lon="-7.792832">
        <ele>183.81</ele>
        <time>2013-10-25T00:57:46Z</time>
      </trkpt>
      <trkpt lat="42.411121" lon="-7.792827">
        <ele>183.85</ele>
        <time>2013-10-25T00:58:06Z</time>
      </trkpt>
      <trkpt lat="42.411122" lon="-7.792806">
        <ele>183.81</ele>
        <time>2013-10-25T00:58:26Z</time>
      </trkpt>
      <trkpt lat="42.411124" lon="-7.792717">
        <ele>184.21</ele>
        <time>2013-10-25T00:58:46Z</time>
      </trkpt>
      <trkpt lat="42.411038" lon="-7.792252">
        <ele>185.80</ele>
        <time>2013-10-25T00:59:06Z</time>
      </trkpt>
      <trkpt lat="42.411033" lon="-7.792197">
        <ele>185.72</ele>
        <time>2013-10-25T00:59:26Z</time>
      </trkpt>
      <trkpt lat="42.410930" lon="-7.791800">
        <ele>185.23</ele>
        <time>2013-10-25T00:59:46Z</time>
      </trkpt>
      <trkpt lat="42.410920" lon="-7.791402">
        <ele>182.35</ele>
        <time>2013-10-25T01:00:06Z</time>
      </trkpt>
      <trkpt lat="42.411043" lon="-7.791000">
        <ele>182.37</ele>
        <time>2013-10-25T01:00:26Z</time>
      </trkpt>
      <trkpt lat="42.411092" lon="-7.790575">
        <ele>179.99</ele>
        <time>2013-10-25T01:00:46Z</time>
      </trkpt>
      <trkpt lat="42.411078" lon="-7.790365">
        <ele>178.97</ele>
        <time>2013-10-25T01:01:06Z</time>
      </trkpt>
      <trkpt lat="42.411212" lon="-7.789971">
        <ele>176.53</ele>
        <time>2013-10-25T01:01:26Z</time>
      </trkpt>
      <trkpt lat="42.411312" lon="-7.789617">
        <ele>173.70</ele>
        <time>2013-10-25T01:01:46Z</time>
      </trkpt>
      <trkpt lat="42.411527" lon="-7.789175">
        <ele>169.82</ele>
        <time>2013-10-25T01:02:06Z</time>
      </trkpt>
      <trkpt lat="42.411656" lon="-7.788975">
        <ele>166.51</ele>
        <time>2013-10-25T01:02:26Z</time>
      </trkpt>
      <trkpt lat="42.411720" lon="-7.788501">
        <ele>163.14</ele>
        <time>2013-10-25T01:02:46Z</time>
      </trkpt>
      <trkpt lat="42.411587" lon="-7.788145">
        <ele>165.07</ele>
        <time>2013-10-25T01:03:06Z</time>
      </trkpt>
      <trkpt lat="42.411555" lon="-7.787769">
        <ele>168.98</ele>
        <time>2013-10-25T01:03:26Z</time>
      </trkpt>
      <trkpt lat="42.411521" lon="-7.787488">
        <ele>171.76</ele>
        <time>2013-10-25T01:03:46Z</time>
      </trkpt>
      <trkpt lat="42.411428" lon="-7.787016">
        <ele>174.69</ele>
        <time>2013-10-25T01:04:06Z</time>
      </trkpt>
      <trkpt lat="42.411722" lon="-7.786696">
        <ele>170.36</ele>
        <time>2013-10-25T01:04:26Z</time>
      </trkpt>
      <trkpt lat="42.411906" lon="-7.786416">
        <ele>165.59</ele>
        <time>2013-10-25T01:04:46Z</time>
      </trkpt>
      <trkpt lat="42.411972" lon="-7.786321">
        <ele>165.10</ele>
        <time>2013-10-25T01:05:06Z</time>
      </trkpt>
      <trkpt lat="42.412117" lon="-7.786159">
        <ele>163.61</ele>
        <time>2013-10-25T01:05:26Z</time>
      </trkpt>
      <trkpt lat="42.412282" lon="-7.786055">
        <ele>163.63</ele>
        <time>2013-10-25T01:05:46Z</time>
      </trkpt>
      <trkpt lat="42.412665" lon="-7.785759">
        <ele>161.61</ele>
        <time>2013-10-25T01:06:06Z</time>
      </trkpt>
      <trkpt lat="42.412741" lon="-7.785711">
        <ele>161.65</ele>
        <time>2013-10-25T01:06:26Z</time>
      </trkpt>
      <trkpt lat="42.413100" lon="-7.785370">
        <ele>163.69</ele>
        <time>2013-10-25T01:06:46Z</time>
      </trkpt>
      <trkpt lat="42.413278" lon="-7.785322">
        <ele>162.64</ele>
        <time>2013-10-25T01:07:06Z</time>
      </trkpt>
      <trkpt lat="42.413626" lon="-7.784966">
        <ele>161.22</ele>
        <time>2013-10-25T01:07:26Z</time>
      </trkpt>
      <trkpt lat="42.413740" lon="-7.784966">
        <ele>161.23</ele>
        <time>2013-10-25T01:07:46Z</time>
      </trkpt>
      <trkpt lat="42.414077" lon="-7.784750">
        <ele>162.13</ele>
        <time>2013-10-25T01:08:06Z</time>
      </trkpt>
      <trkpt lat="42.414177" lon="-7.784352">
        <ele>164.57</ele>
        <time>2013-10-25T01:08:26Z</time>
      </trkpt>
      <trkpt lat="42.414413" lon="-7.784057">
        <ele>168.44</ele>
        <time>2013-10-25T01:08:46Z</time>
      </trkpt>
      <trkpt lat="42.414622" lon="-7.783862">
        <ele>171.32</ele>
        <time>2013-10-25T01:09:06Z</time>
      </trkpt>
      <trkpt lat="42.414969" lon="-7.783802">
        <ele>173.71</ele>
        <time>2013-10-25T01:09:26Z</time>
      </trkpt>
      <trkpt lat="42.415234" lon="-7.783939">
        <ele>175.61</ele>
        <time>2013-10-25T01:09:46Z</time>
      </trkpt>
      <trkpt lat="42.415454" lon="-7.783897">
        <ele>175.66</ele>
        <time>2013-10-25T01:10:06Z</time>
      </trkpt>
      <trkpt lat="42.415771" lon="-7.783484">
        <ele>172.30</ele>
        <time>2013-10-25T01:10:26Z</time>
      </trkpt>
      <trkpt lat="42.416260" lon="-7.782615">
        <ele>170.84</ele>
        <time>2013-10-25T01:10:46Z</time>
      </trkpt>
      <trkpt lat="42.416418" lon="-7.782348">
        <ele>173.77</ele>
        <time>2013-10-25T01:11:06Z</time>
      </trkpt>
      <trkpt lat="42.416480" lon="-7.782248">
        <ele>174.62</ele>
        <time>2013-10-25T01:11:26Z</time>
      </trkpt>
      <trkpt lat="42.416760" lon="-7.782254">
        <ele>174.13</ele>
        <time>2013-10-25T01:11:46Z</time>
      </trkpt>
      <trkpt lat="42.416796" lon="-7.782321">
        <ele>173.75</ele>
        <time>2013-10-25T01:12:06Z</time>
      </trkpt>
      <trkpt lat="42.416983" lon="-7.782659">
        <ele>173.72</ele>
        <time>2013-10-25T01:12:26Z</time>
      </trkpt>
      <trkpt lat="42.417437" lon="-7.782920">
        <ele>174.66</ele>
        <time>2013-10-25T01:12:46Z</time>
      </trkpt>
      <trkpt lat="42.417738" lon="-7.783065">
        <ele>177.51</ele>
        <time>2013-10-25T01:13:06Z</time>
      </trkpt>
      <trkpt lat="42.418145" lon="-7.782993">
        <ele>180.41</ele>
        <time>2013-10-25T01:13:26Z</time>
      </trkpt>
      <trkpt lat="42.418311" lon="-7.783010">
        <ele>181.49</ele>
        <time>2013-10-25T01:13:46Z</time>
      </trkpt>
      <trkpt lat="42.418678" lon="-7.783170">
        <ele>184.22</ele>
        <time>2013-10-25T01:14:06Z</time>
      </trkpt>
      <trkpt lat="42.418807" lon="-7.783133">
        <ele>185.27</ele>
        <time>2013-10-25T01:14:26Z</time>
      </trkpt>
      <trkpt lat="42.419494" lon="-7.783090">
        <ele>187.62</ele>
        <time>2013-10-25T01:14:46Z</time>
      </trkpt>
      <trkpt lat="42.419629" lon="-7.783101">
        <ele>188.66</ele>
        <time>2013-10-25T01:15:06Z</time>
      </trkpt>
      <trkpt lat="42.419885" lon="-7.783205">
        <ele>191.08</ele>
        <time>2013-10-25T01:15:26Z</time>
      </trkpt>
      <trkpt lat="42.420097" lon="-7.783550">
        <ele>195.35</ele>
        <time>2013-10-25T01:15:46Z</time>
      </trkpt>
      <trkpt lat="42.420181" lon="-7.783756">
        <ele>193.43</ele>
        <time>2013-10-25T01:16:06Z</time>
      </trkpt>
      <trkpt lat="42.420348" lon="-7.783878">
        <ele>189.56</ele>
        <time>2013-10-25T01:16:26Z</time>
      </trkpt>
      <trkpt lat="42.420473" lon="-7.783620">
        <ele>187.61</ele>
        <time>2013-10-25T01:16:46Z</time>
      </trkpt>
      <trkpt lat="42.420439" lon="-7.783495">
        <ele>188.11</ele>
        <time>2013-10-25T01:17:06Z</time>
      </trkpt>
      <trkpt lat="42.420201" lon="-7.782559">
        <ele>190.52</ele>
        <time>2013-10-25T01:17:26Z</time>
      </trkpt>
      <trkpt lat="42.420074" lon="-7.782156">
        <ele>189.07</ele>
        <time>2013-10-25T01:17:46Z</time>
      </trkpt>
      <trkpt lat="42.419922" lon="-7.781989">
        <ele>188.69</ele>
        <time>2013-10-25T01:18:06Z</time>
      </trkpt>
      <trkpt lat="42.419707" lon="-7.781896">
        <ele>191.47</ele>
        <time>2013-10-25T01:18:26Z</time>
      </trkpt>
      <trkpt lat="42.419617" lon="-7.781788">
        <ele>190.51</ele>
        <time>2013-10-25T01:18:46Z</time>
      </trkpt>
      <trkpt lat="42.419435" lon="-7.781650">
        <ele>187.14</ele>
        <time>2013-10-25T01:19:06Z</time>
      </trkpt>
      <trkpt lat="42.419302" lon="-7.781607">
        <ele>184.26</ele>
        <time>2013-10-25T01:19:26Z</time>
      </trkpt>
      <trkpt lat="42.419185" lon="-7.781552">
        <ele>182.89</ele>
        <time>2013-10-25T01:19:46Z</time>
      </trkpt>
      <trkpt lat="42.418967" lon="-7.781451">
        <ele>180.48</ele>
        <time>2013-10-25T01:20:06Z</time>
      </trkpt>
      <trkpt lat="42.418887" lon="-7.781383">
        <ele>178.92</ele>
        <time>2013-10-25T01:20:26Z</time>
      </trkpt>
      <trkpt lat="42.418695" lon="-7.781149">
        <ele>179.91</ele>
        <time>2013-10-25T01:20:46Z</time>
      </trkpt>
      <trkpt lat="42.418561" lon="-7.780899">
        <ele>180.48</ele>
        <time>2013-10-25T01:21:06Z</time>
      </trkpt>
      <trkpt lat="42.418498" lon="-7.780566">
        <ele>177.02</ele>
        <time>2013-10-25T01:21:26Z</time>
      </trkpt>
      <trkpt lat="42.418493" lon="-7.780506">
        <ele>176.56</ele>
        <time>2013-10-25T01:21:46Z</time>
      </trkpt>
      <trkpt lat="42.418512" lon="-7.780259">
        <ele>175.69</ele>
        <time>2013-10-25T01:22:06Z</time>
      </trkpt>
      <trkpt lat="42.418552" lon="-7.779935">
        <ele>173.72</ele>
        <time>2013-10-25T01:22:26Z</time>
      </trkpt>
      <trkpt lat="42.418712" lon="-7.779514">
        <ele>172.72</ele>
        <time>2013-10-25T01:22:46Z</time>
      </trkpt>
      <trkpt lat="42.418779" lon="-7.779276">
        <ele>171.32</ele>
        <time>2013-10-25T01:23:06Z</time>
      </trkpt>
      <trkpt lat="42.418797" lon="-7.779189">
        <ele>170.87</ele>
        <time>2013-10-25T01:23:26Z</time>
      </trkpt>
      <trkpt lat="42.418914" lon="-7.778763">
        <ele>167.44</ele>
        <time>2013-10-25T01:23:46Z</time>
      </trkpt>
      <trkpt lat="42.418937" lon="-7.778683">
        <ele>166.51</ele>
        <time>2013-10-25T01:24:06Z</time>
      </trkpt>
      <trkpt lat="42.419113" lon="-7.778444">
        <ele>164.01</ele>
        <time>2013-10-25T01:24:26Z</time>
      </trkpt>
      <trkpt lat="42.419170" lon="-7.778406">
        <ele>164.02</ele>
        <time>2013-10-25T01:24:46Z</time>
      </trkpt>
      <trkpt lat="42.419370" lon="-7.778286">
        <ele>164.04</ele>
        <time>2013-10-25T01:25:06Z</time>
      </trkpt>
      <trkpt lat="42.419600" lon="-7.777944">
        <ele>161.70</ele>
        <time>2013-10-25T01:25:26Z</time>
      </trkpt>
      <trkpt lat="42.419760" lon="-7.777787">
        <ele>160.25</ele>
        <time>2013-10-25T01:25:46Z</time>
      </trkpt>
      <trkpt lat="42.419888" lon="-7.777712">
        <ele>159.22</ele>
        <time>2013-10-25T01:26:06Z</time>
      </trkpt>
      <trkpt lat="42.420258" lon="-7.777710">
        <ele>155.98</ele>
        <time>2013-10-25T01:26:26Z</time>
      </trkpt>
      <trkpt lat="42.420307" lon="-7.777712">
        <ele>155.96</ele>
        <time>2013-10-25T01:26:46Z</time>
      </trkpt>
      <trkpt lat="42.420320" lon="-7.777442">
        <ele>156.44</ele>
        <time>2013-10-25T01:27:06Z</time>
      </trkpt>
      <trkpt lat="42.420352" lon="-7.776599">
        <ele>155.46</ele>
        <time>2013-10-25T01:27:26Z</time>
      </trkpt>
      <trkpt lat="42.420329" lon="-7.776351">
        <ele>155.91</ele>
        <time>2013-10-25T01:27:46Z</time>
      </trkpt>
      <trkpt lat="42.420554" lon="-7.775956">
        <ele>155.91</ele>
        <time>2013-10-25T01:28:06Z</time>
      </trkpt>
      <trkpt lat="42.420592" lon="-7.775929">
        <ele>156.47</ele>
        <time>2013-10-25T01:28:26Z</time>
      </trkpt>
      <trkpt lat="42.420742" lon="-7.775769">
        <ele>154.10</ele>
        <time>2013-10-25T01:28:46Z</time>
      </trkpt>
      <trkpt lat="42.420735" lon="-7.775567">
        <ele>153.04</ele>
        <time>2013-10-25T01:29:06Z</time>
      </trkpt>
      <trkpt lat="42.420713" lon="-7.775584">
        <ele>153.04</ele>
        <time>2013-10-25T01:29:26Z</time>
      </trkpt>
      <trkpt lat="42.420643" lon="-7.775344">
        <ele>149.66</ele>
        <time>2013-10-25T01:29:46Z</time>
      </trkpt>
      <trkpt lat="42.420595" lon="-7.775095">
        <ele>147.74</ele>
        <time>2013-10-25T01:30:06Z</time>
      </trkpt>
      <trkpt lat="42.420591" lon="-7.774964">
        <ele>145.87</ele>
        <time>2013-10-25T01:30:26Z</time>
      </trkpt>
      <trkpt lat="42.420596" lon="-7.774823">
        <ele>144.87</ele>
        <time>2013-10-25T01:30:46Z</time>
      </trkpt>
      <trkpt lat="42.420614" lon="-7.774526">
        <ele>141.04</ele>
        <time>2013-10-25T01:31:06Z</time>
      </trkpt>
      <trkpt lat="42.420599" lon="-7.774317">
        <ele>137.63</ele>
        <time>2013-10-25T01:31:26Z</time>
      </trkpt>
      <trkpt lat="42.420517" lon="-7.774073">
        <ele>131.81</ele>
        <time>2013-10-25T01:31:46Z</time>
      </trkpt>
      <trkpt lat="42.420462" lon="-7.773943">
        <ele>129.09</ele>
        <time>2013-10-25T01:32:06Z</time>
      </trkpt>
      <trkpt lat="42.420468" lon="-7.773798">
        <ele>127.09</ele>
        <time>2013-10-25T01:32:26Z</time>
      </trkpt>
      <trkpt lat="42.420518" lon="-7.773734">
        <ele>124.69</ele>
        <time>2013-10-25T01:32:46Z</time>
      </trkpt>
      <trkpt lat="42.420520" lon="-7.773723">
        <ele>124.64</ele>
        <time>2013-10-25T01:33:06Z</time>
      </trkpt>
      <trkpt lat="42.420512" lon="-7.773670">
        <ele>123.78</ele>
        <time>2013-10-25T01:33:26Z</time>
      </trkpt>
      <trkpt lat="42.420451" lon="-7.773628">
        <ele>122.28</ele>
        <time>2013-10-25T01:33:46Z</time>
      </trkpt>
      <trkpt lat="42.420304" lon="-7.773545">
        <ele>119.34</ele>
        <time>2013-10-25T01:34:06Z</time>
      </trkpt>
      <trkpt lat="42.420106" lon="-7.773456">
        <ele>116.58</ele>
        <time>2013-10-25T01:34:26Z</time>
      </trkpt>
      <trkpt lat="42.420100" lon="-7.773455">
        <ele>116.54</ele>
        <time>2013-10-25T01:34:46Z</time>
      </trkpt>
      <trkpt lat="42.420060" lon="-7.773544">
        <ele>116.52</ele>
        <time>2013-10-25T01:35:06Z</time>
      </trkpt>
      <trkpt lat="42.420048" lon="-7.773581">
        <ele>116.51</ele>
        <time>2013-10-25T01:35:26Z</time>
      </trkpt>
      <trkpt lat="42.420010" lon="-7.773621">
        <ele>116.91</ele>
        <time>2013-10-25T01:35:46Z</time>
      </trkpt>
      <trkpt lat="42.420001" lon="-7.773634">
        <ele>116.06</ele>
        <time>2013-10-25T01:36:06Z</time>
      </trkpt>
      <trkpt lat="42.419948" lon="-7.773575">
        <ele>116.07</ele>
        <time>2013-10-25T01:36:26Z</time>
      </trkpt>
      <trkpt lat="42.419974" lon="-7.773641">
        <ele>116.59</ele>
        <time>2013-10-25T01:36:46Z</time>
      </trkpt>
      <trkpt lat="42.419996" lon="-7.773655">
        <ele>116.60</ele>
        <time>2013-10-25T01:37:06Z</time>
      </trkpt>
      <trkpt lat="42.420015" lon="-7.773621">
        <ele>116.96</ele>
        <time>2013-10-25T01:37:26Z</time>
      </trkpt>
      <trkpt lat="42.420015" lon="-7.773650">
        <ele>116.94</ele>
        <time>2013-10-25T01:37:46Z</time>
      </trkpt>
      <trkpt lat="42.420014" lon="-7.773635">
        <ele>116.95</ele>
        <time>2013-10-25T01:38:06Z</time>
      </trkpt>
      <trkpt lat="42.419996" lon="-7.773632">
        <ele>116.93</ele>
        <time>2013-10-25T01:38:26Z</time>
      </trkpt>
      <trkpt lat="42.420007" lon="-7.773631">
        <ele>116.92</ele>
        <time>2013-10-25T01:38:46Z</time>
      </trkpt>
      <trkpt lat="42.419998" lon="-7.773598">
        <ele>116.91</ele>
        <time>2013-10-25T01:39:06Z</time>
      </trkpt>
      <trkpt lat="42.419974" lon="-7.773613">
        <ele>116.97</ele>
        <time>2013-10-25T01:39:26Z</time>
      </trkpt>
      <trkpt lat="42.419973" lon="-7.773619">
        <ele>116.98</ele>
        <time>2013-10-25T01:39:46Z</time>
      </trkpt>
      <trkpt lat="42.419993" lon="-7.773619">
        <ele>116.99</ele>
        <time>2013-10-25T01:40:06Z</time>
      </trkpt>
      <trkpt lat="42.420011" lon="-7.773647">
        <ele>116.99</ele>
        <time>2013-10-25T01:40:26Z</time>
      </trkpt>
      <trkpt lat="42.420027" lon="-7.773672">
        <ele>116.95</ele>
        <time>2013-10-25T01:40:46Z</time>
      </trkpt>
      <trkpt lat="42.419999" lon="-7.773614">
        <ele>116.98</ele>
        <time>2013-10-25T01:41:06Z</time>
      </trkpt>
      <trkpt lat="42.420004" lon="-7.773612">
        <ele>116.94</ele>
        <time>2013-10-25T01:41:26Z</time>
      </trkpt>
      <trkpt lat="42.420006" lon="-7.773625">
        <ele>116.97</ele>
        <time>2013-10-25T01:41:46Z</time>
      </trkpt>
      <trkpt lat="42.420115" lon="-7.773330">
        <ele>116.93</ele>
        <time>2013-10-25T01:42:06Z</time>
      </trkpt>
      <trkpt lat="42.420216" lon="-7.773155">
        <ele>119.32</ele>
        <time>2013-10-25T01:42:26Z</time>
      </trkpt>
      <trkpt lat="42.420335" lon="-7.772688">
        <ele>118.91</ele>
        <time>2013-10-25T01:42:46Z</time>
      </trkpt>
      <trkpt lat="42.420359" lon="-7.772531">
        <ele>118.47</ele>
        <time>2013-10-25T01:43:06Z</time>
      </trkpt>
      <trkpt lat="42.420448" lon="-7.772070">
        <ele>118.98</ele>
        <time>2013-10-25T01:43:26Z</time>
      </trkpt>
      <trkpt lat="42.420479" lon="-7.772013">
        <ele>120.33</ele>
        <time>2013-10-25T01:43:46Z</time>
      </trkpt>
      <trkpt lat="42.420497" lon="-7.771792">
        <ele>120.34</ele>
        <time>2013-10-25T01:44:06Z</time>
      </trkpt>
      <trkpt lat="42.420538" lon="-7.771461">
        <ele>119.87</ele>
        <time>2013-10-25T01:44:26Z</time>
      </trkpt>
      <trkpt lat="42.420673" lon="-7.770884">
        <ele>119.84</ele>
        <time>2013-10-25T01:44:46Z</time>
      </trkpt>
      <trkpt lat="42.420816" lon="-7.770369">
        <ele>118.45</ele>
        <time>2013-10-25T01:45:06Z</time>
      </trkpt>
      <trkpt lat="42.420841" lon="-7.770316">
        <ele>118.92</ele>
        <time>2013-10-25T01:45:26Z</time>
      </trkpt>
      <trkpt lat="42.420886" lon="-7.770133">
        <ele>118.96</ele>
        <time>2013-10-25T01:45:46Z</time>
      </trkpt>
      <trkpt lat="42.420980" lon="-7.769744">
        <ele>119.31</ele>
        <time>2013-10-25T01:46:06Z</time>
      </trkpt>
      <trkpt lat="42.421014" lon="-7.769400">
        <ele>119.31</ele>
        <time>2013-10-25T01:46:26Z</time>
      </trkpt>
      <trkpt lat="42.421170" lon="-7.769087">
        <ele>119.36</ele>
        <time>2013-10-25T01:46:46Z</time>
      </trkpt>
      <trkpt lat="42.421345" lon="-7.768760">
        <ele>118.47</ele>
        <time>2013-10-25T01:47:06Z</time>
      </trkpt>
      <trkpt lat="42.421474" lon="-7.768662">
        <ele>120.84</ele>
        <time>2013-10-25T01:47:26Z</time>
      </trkpt>
      <trkpt lat="42.421586" lon="-7.768538">
        <ele>120.38</ele>
        <time>2013-10-25T01:47:46Z</time>
      </trkpt>
      <trkpt lat="42.421748" lon="-7.768430">
        <ele>118.94</ele>
        <time>2013-10-25T01:48:06Z</time>
      </trkpt>
      <trkpt lat="42.421795" lon="-7.768408">
        <ele>119.37</ele>
        <time>2013-10-25T01:48:26Z</time>
      </trkpt>
      <trkpt lat="42.421870" lon="-7.768355">
        <ele>119.32</ele>
        <time>2013-10-25T01:48:46Z</time>
      </trkpt>
      <trkpt lat="42.422093" lon="-7.768215">
        <ele>119.33</ele>
        <time>2013-10-25T01:49:06Z</time>
      </trkpt>
      <trkpt lat="42.422275" lon="-7.768123">
        <ele>117.99</ele>
        <time>2013-10-25T01:49:26Z</time>
      </trkpt>
      <trkpt lat="42.422561" lon="-7.767911">
        <ele>116.91</ele>
        <time>2013-10-25T01:49:46Z</time>
      </trkpt>
      <trkpt lat="42.422596" lon="-7.767883">
        <ele>116.91</ele>
        <time>2013-10-25T01:50:06Z</time>
      </trkpt>
      <trkpt lat="42.422999" lon="-7.767570">
        <ele>117.49</ele>
        <time>2013-10-25T01:50:26Z</time>
      </trkpt>
      <trkpt lat="42.423264" lon="-7.767232">
        <ele>117.49</ele>
        <time>2013-10-25T01:50:46Z</time>
      </trkpt>
      <trkpt lat="42.423388" lon="-7.767103">
        <ele>117.98</ele>
        <time>2013-10-25T01:51:06Z</time>
      </trkpt>
      <trkpt lat="42.423829" lon="-7.766825">
        <ele>119.39</ele>
        <time>2013-10-25T01:51:26Z</time>
      </trkpt>
      <trkpt lat="42.424183" lon="-7.766528">
        <ele>117.43</ele>
        <time>2013-10-25T01:51:46Z</time>
      </trkpt>
      <trkpt lat="42.424634" lon="-7.766198">
        <ele>116.96</ele>
        <time>2013-10-25T01:52:06Z</time>
      </trkpt>
      <trkpt lat="42.424823" lon="-7.765981">
        <ele>116.60</ele>
        <time>2013-10-25T01:52:26Z</time>
      </trkpt>
      <trkpt lat="42.425213" lon="-7.765480">
        <ele>117.47</ele>
        <time>2013-10-25T01:52:46Z</time>
      </trkpt>
      <trkpt lat="42.425313" lon="-7.765339">
        <ele>116.99</ele>
        <time>2013-10-25T01:53:06Z</time>
      </trkpt>
      <trkpt lat="42.425559" lon="-7.764878">
        <ele>120.31</ele>
        <time>2013-10-25T01:53:26Z</time>
      </trkpt>
      <trkpt lat="42.425779" lon="-7.764641">
        <ele>121.31</ele>
        <time>2013-10-25T01:53:46Z</time>
      </trkpt>
      <trkpt lat="42.426032" lon="-7.764322">
        <ele>124.25</ele>
        <time>2013-10-25T01:54:06Z</time>
      </trkpt>
      <trkpt lat="42.426328" lon="-7.763921">
        <ele>124.68</ele>
        <time>2013-10-25T01:54:26Z</time>
      </trkpt>
      <trkpt lat="42.426459" lon="-7.763760">
        <ele>123.27</ele>
        <time>2013-10-25T01:54:46Z</time>
      </trkpt>
      <trkpt lat="42.426547" lon="-7.763717">
        <ele>123.29</ele>
        <time>2013-10-25T01:55:06Z</time>
      </trkpt>
      <trkpt lat="42.426850" lon="-7.763466">
        <ele>120.31</ele>
        <time>2013-10-25T01:55:26Z</time>
      </trkpt>
      <trkpt lat="42.427022" lon="-7.763306">
        <ele>119.85</ele>
        <time>2013-10-25T01:55:46Z</time>
      </trkpt>
      <trkpt lat="42.427189" lon="-7.763167">
        <ele>119.34</ele>
        <time>2013-10-25T01:56:06Z</time>
      </trkpt>
      <trkpt lat="42.427290" lon="-7.763052">
        <ele>119.81</ele>
        <time>2013-10-25T01:56:26Z</time>
      </trkpt>
      <trkpt lat="42.427532" lon="-7.762729">
        <ele>120.34</ele>
        <time>2013-10-25T01:56:46Z</time>
      </trkpt>
      <trkpt lat="42.427618" lon="-7.762700">
        <ele>120.31</ele>
        <time>2013-10-25T01:57:06Z</time>
      </trkpt>
      <trkpt lat="42.427628" lon="-7.762695">
        <ele>120.31</ele>
        <time>2013-10-25T01:57:26Z</time>
      </trkpt>
      <trkpt lat="42.427696" lon="-7.762567">
        <ele>119.85</ele>
        <time>2013-10-25T01:57:46Z</time>
      </trkpt>
      <trkpt lat="42.427751" lon="-7.762415">
        <ele>118.96</ele>
        <time>2013-10-25T01:58:06Z</time>
      </trkpt>
      <trkpt lat="42.428004" lon="-7.761947">
        <ele>118.93</ele>
        <time>2013-10-25T01:58:26Z</time>
      </trkpt>
      <trkpt lat="42.428441" lon="-7.761148">
        <ele>117.43</ele>
        <time>2013-10-25T01:58:46Z</time>
      </trkpt>
      <trkpt lat="42.428565" lon="-7.760978">
        <ele>117.98</ele>
        <time>2013-10-25T01:59:06Z</time>
      </trkpt>
      <trkpt lat="42.428922" lon="-7.760258">
        <ele>118.43</ele>
        <time>2013-10-25T01:59:26Z</time>
      </trkpt>
      <trkpt lat="42.429047" lon="-7.759930">
        <ele>118.46</ele>
        <time>2013-10-25T01:59:46Z</time>
      </trkpt>
      <trkpt lat="42.429150" lon="-7.759749">
        <ele>117.44</ele>
        <time>2013-10-25T02:00:06Z</time>
      </trkpt>
      <trkpt lat="42.429202" lon="-7.759613">
        <ele>117.40</ele>
        <time>2013-10-25T02:00:26Z</time>
      </trkpt>
      <trkpt lat="42.429350" lon="-7.759362">
        <ele>117.42</ele>
        <time>2013-10-25T02:00:46Z</time>
      </trkpt>
      <trkpt lat="42.429628" lon="-7.758621">
        <ele>116.91</ele>
        <time>2013-10-25T02:01:06Z</time>
      </trkpt>
      <trkpt lat="42.429653" lon="-7.758550">
        <ele>116.95</ele>
        <time>2013-10-25T02:01:26Z</time>
      </trkpt>
      <trkpt lat="42.429958" lon="-7.757832">
        <ele>116.05</ele>
        <time>2013-10-25T02:01:46Z</time>
      </trkpt>
      <trkpt lat="42.430331" lon="-7.757020">
        <ele>119.32</ele>
        <time>2013-10-25T02:02:06Z</time>
      </trkpt>
      <trkpt lat="42.430367" lon="-7.756931">
        <ele>120.33</ele>
        <time>2013-10-25T02:02:26Z</time>
      </trkpt>
      <trkpt lat="42.430438" lon="-7.756734">
        <ele>121.71</ele>
        <time>2013-10-25T02:02:46Z</time>
      </trkpt>
      <trkpt lat="42.430533" lon="-7.756531">
        <ele>122.73</ele>
        <time>2013-10-25T02:03:06Z</time>
      </trkpt>
      <trkpt lat="42.430713" lon="-7.756110">
        <ele>120.32</ele>
        <time>2013-10-25T02:03:26Z</time>
      </trkpt>
      <trkpt lat="42.430988" lon="-7.755843">
        <ele>118.43</ele>
        <time>2013-10-25T02:03:46Z</time>
      </trkpt>
      <trkpt lat="42.431243" lon="-7.755547">
        <ele>117.49</ele>
        <time>2013-10-25T02:04:06Z</time>
      </trkpt>
      <trkpt lat="42.431628" lon="-7.755287">
        <ele>118.42</ele>
        <time>2013-10-25T02:04:26Z</time>
      </trkpt>
      <trkpt lat="42.431744" lon="-7.755196">
        <ele>120.31</ele>
        <time>2013-10-25T02:04:46Z</time>
      </trkpt>
      <trkpt lat="42.432010" lon="-7.754976">
        <ele>121.77</ele>
        <time>2013-10-25T02:05:06Z</time>
      </trkpt>
      <trkpt lat="42.432222" lon="-7.754779">
        <ele>122.74</ele>
        <time>2013-10-25T02:05:26Z</time>
      </trkpt>
      <trkpt lat="42.432911" lon="-7.754095">
        <ele>120.83</ele>
        <time>2013-10-25T02:05:46Z</time>
      </trkpt>
      <trkpt lat="42.433364" lon="-7.753642">
        <ele>119.37</ele>
        <time>2013-10-25T02:06:06Z</time>
      </trkpt>
      <trkpt lat="42.433803" lon="-7.753275">
        <ele>122.75</ele>
        <time>2013-10-25T02:06:26Z</time>
      </trkpt>
      <trkpt lat="42.434370" lon="-7.752836">
        <ele>120.88</ele>
        <time>2013-10-25T02:06:46Z</time>
      </trkpt>
      <trkpt lat="42.434427" lon="-7.752801">
        <ele>120.90</ele>
        <time>2013-10-25T02:07:06Z</time>
      </trkpt>
      <trkpt lat="42.434680" lon="-7.752758">
        <ele>119.34</ele>
        <time>2013-10-25T02:07:26Z</time>
      </trkpt>
      <trkpt lat="42.435096" lon="-7.752613">
        <ele>117.48</ele>
        <time>2013-10-25T02:07:46Z</time>
      </trkpt>
      <trkpt lat="42.435893" lon="-7.752232">
        <ele>119.81</ele>
        <time>2013-10-25T02:08:06Z</time>
      </trkpt>
      <trkpt lat="42.436080" lon="-7.752120">
        <ele>120.31</ele>
        <time>2013-10-25T02:08:26Z</time>
      </trkpt>
      <trkpt lat="42.436272" lon="-7.751967">
        <ele>120.83</ele>
        <time>2013-10-25T02:08:46Z</time>
      </trkpt>
      <trkpt lat="42.436464" lon="-7.751800">
        <ele>120.82</ele>
        <time>2013-10-25T02:09:06Z</time>
      </trkpt>
      <trkpt lat="42.436676" lon="-7.751667">
        <ele>120.35</ele>
        <time>2013-10-25T02:09:26Z</time>
      </trkpt>
      <trkpt lat="42.436881" lon="-7.751505">
        <ele>119.83</ele>
        <time>2013-10-25T02:09:46Z</time>
      </trkpt>
      <trkpt lat="42.437216" lon="-7.751326">
        <ele>118.97</ele>
        <time>2013-10-25T02:10:06Z</time>
      </trkpt>
      <trkpt lat="42.437676" lon="-7.751133">
        <ele>119.34</ele>
        <time>2013-10-25T02:10:26Z</time>
      </trkpt>
      <trkpt lat="42.438227" lon="-7.750646">
        <ele>118.94</ele>
        <time>2013-10-25T02:10:46Z</time>
      </trkpt>
      <trkpt lat="42.438891" lon="-7.750020">
        <ele>119.32</ele>
        <time>2013-10-25T02:11:06Z</time>
      </trkpt>
      <trkpt lat="42.439036" lon="-7.749913">
        <ele>119.86</ele>
        <time>2013-10-25T02:11:26Z</time>
      </trkpt>
      <trkpt lat="42.439782" lon="-7.749199">
        <ele>117.91</ele>
        <time>2013-10-25T02:11:46Z</time>
      </trkpt>
      <trkpt lat="42.440478" lon="-7.748537">
        <ele>118.91</ele>
        <time>2013-10-25T02:12:06Z</time>
      </trkpt>
      <trkpt lat="42.441207" lon="-7.747820">
        <ele>119.83</ele>
        <time>2013-10-25T02:12:26Z</time>
      </trkpt>
      <trkpt lat="42.441721" lon="-7.747239">
        <ele>118.95</ele>
        <time>2013-10-25T02:12:46Z</time>
      </trkpt>
      <trkpt lat="42.442299" lon="-7.746539">
        <ele>119.88</ele>
        <time>2013-10-25T02:13:06Z</time>
      </trkpt>
      <trkpt lat="42.442337" lon="-7.746486">
        <ele>120.36</ele>
        <time>2013-10-25T02:13:26Z</time>
      </trkpt>
      <trkpt lat="42.442452" lon="-7.746273">
        <ele>122.77</ele>
        <time>2013-10-25T02:13:46Z</time>
      </trkpt>
      <trkpt lat="42.442565" lon="-7.746043">
        <ele>123.25</ele>
        <time>2013-10-25T02:14:06Z</time>
      </trkpt>
      <trkpt lat="42.442713" lon="-7.745811">
        <ele>123.22</ele>
        <time>2013-10-25T02:14:26Z</time>
      </trkpt>
      <trkpt lat="42.442817" lon="-7.745656">
        <ele>122.79</ele>
        <time>2013-10-25T02:14:46Z</time>
      </trkpt>
      <trkpt lat="42.442949" lon="-7.745361">
        <ele>120.36</ele>
        <time>2013-10-25T02:15:06Z</time>
      </trkpt>
      <trkpt lat="42.443128" lon="-7.744838">
        <ele>117.92</ele>
        <time>2013-10-25T02:15:26Z</time>
      </trkpt>
      <trkpt lat="42.443342" lon="-7.744414">
        <ele>120.31</ele>
        <time>2013-10-25T02:15:46Z</time>
      </trkpt>
      <trkpt lat="42.443558" lon="-7.743961">
        <ele>123.22</ele>
        <time>2013-10-25T02:16:06Z</time>
      </trkpt>
      <trkpt lat="42.443617" lon="-7.743820">
        <ele>123.71</ele>
        <time>2013-10-25T02:16:26Z</time>
      </trkpt>
      <trkpt lat="42.443727" lon="-7.743599">
        <ele>123.24</ele>
        <time>2013-10-25T02:16:46Z</time>
      </trkpt>
      <trkpt lat="42.443798" lon="-7.743414">
        <ele>122.76</ele>
        <time>2013-10-25T02:17:06Z</time>
      </trkpt>
      <trkpt lat="42.443996" lon="-7.742964">
        <ele>123.77</ele>
        <time>2013-10-25T02:17:26Z</time>
      </trkpt>
      <trkpt lat="42.444066" lon="-7.742857">
        <ele>123.79</ele>
        <time>2013-10-25T02:17:46Z</time>
      </trkpt>
      <trkpt lat="42.444242" lon="-7.742616">
        <ele>124.64</ele>
        <time>2013-10-25T02:18:06Z</time>
      </trkpt>
      <trkpt lat="42.444428" lon="-7.742459">
        <ele>123.74</ele>
        <time>2013-10-25T02:18:26Z</time>
      </trkpt>
      <trkpt lat="42.444693" lon="-7.742198">
        <ele>121.37</ele>
        <time>2013-10-25T02:18:46Z</time>
      </trkpt>
      <trkpt lat="42.445070" lon="-7.741744">
        <ele>120.82</ele>
        <time>2013-10-25T02:19:06Z</time>
      </trkpt>
      <trkpt lat="42.445554" lon="-7.741258">
        <ele>122.21</ele>
        <time>2013-10-25T02:19:26Z</time>
      </trkpt>
      <trkpt lat="42.446160" lon="-7.740584">
        <ele>122.22</ele>
        <time>2013-10-25T02:19:46Z</time>
      </trkpt>
      <trkpt lat="42.446309" lon="-7.740387">
        <ele>120.84</ele>
        <time>2013-10-25T02:20:06Z</time>
      </trkpt>
      <trkpt lat="42.446471" lon="-7.740198">
        <ele>119.36</ele>
        <time>2013-10-25T02:20:26Z</time>
      </trkpt>
      <trkpt lat="42.446658" lon="-7.739965">
        <ele>119.33</ele>
        <time>2013-10-25T02:20:46Z</time>
      </trkpt>
      <trkpt lat="42.447130" lon="-7.739310">
        <ele>121.32</ele>
        <time>2013-10-25T02:21:06Z</time>
      </trkpt>
      <trkpt lat="42.447350" lon="-7.738974">
        <ele>119.83</ele>
        <time>2013-10-25T02:21:26Z</time>
      </trkpt>
      <trkpt lat="42.447536" lon="-7.738735">
        <ele>120.35</ele>
        <time>2013-10-25T02:21:46Z</time>
      </trkpt>
      <trkpt lat="42.447616" lon="-7.738620">
        <ele>120.85</ele>
        <time>2013-10-25T02:22:06Z</time>
      </trkpt>
      <trkpt lat="42.447874" lon="-7.738090">
        <ele>120.36</ele>
        <time>2013-10-25T02:22:26Z</time>
      </trkpt>
      <trkpt lat="42.447949" lon="-7.737970">
        <ele>120.32</ele>
        <time>2013-10-25T02:22:46Z</time>
      </trkpt>
      <trkpt lat="42.448081" lon="-7.737791">
        <ele>120.81</ele>
        <time>2013-10-25T02:23:06Z</time>
      </trkpt>
      <trkpt lat="42.448320" lon="-7.737492">
        <ele>119.38</ele>
        <time>2013-10-25T02:23:26Z</time>
      </trkpt>
      <trkpt lat="42.448950" lon="-7.736973">
        <ele>120.34</ele>
        <time>2013-10-25T02:23:46Z</time>
      </trkpt>
      <trkpt lat="42.449814" lon="-7.736220">
        <ele>118.45</ele>
        <time>2013-10-25T02:24:06Z</time>
      </trkpt>
      <trkpt lat="42.450474" lon="-7.735595">
        <ele>117.43</ele>
        <time>2013-10-25T02:24:26Z</time>
      </trkpt>
      <trkpt lat="42.450635" lon="-7.735439">
        <ele>116.93</ele>
        <time>2013-10-25T02:24:46Z</time>
      </trkpt>
      <trkpt lat="42.450703" lon="-7.735387">
        <ele>117.49</ele>
        <time>2013-10-25T02:25:06Z</time>
      </trkpt>
      <trkpt lat="42.450715" lon="-7.735361">
        <ele>117.43</ele>
        <time>2013-10-25T02:25:26Z</time>
      </trkpt>
      <trkpt lat="42.450900" lon="-7.735197">
        <ele>117.50</ele>
        <time>2013-10-25T02:25:46Z</time>
      </trkpt>
      <trkpt lat="42.450954" lon="-7.734985">
        <ele>117.42</ele>
        <time>2013-10-25T02:26:06Z</time>
      </trkpt>
      <trkpt lat="42.451332" lon="-7.734641">
        <ele>116.93</ele>
        <time>2013-10-25T02:26:26Z</time>
      </trkpt>
      <trkpt lat="42.451756" lon="-7.734381">
        <ele>117.41</ele>
        <time>2013-10-25T02:26:46Z</time>
      </trkpt>
      <trkpt lat="42.452130" lon="-7.734141">
        <ele>117.93</ele>
        <time>2013-10-25T02:27:06Z</time>
      </trkpt>
      <trkpt lat="42.452394" lon="-7.733866">
        <ele>116.95</ele>
        <time>2013-10-25T02:27:26Z</time>
      </trkpt>
      <trkpt lat="42.452467" lon="-7.733802">
        <ele>117.43</ele>
        <time>2013-10-25T02:27:46Z</time>
      </trkpt>
      <trkpt lat="42.452471" lon="-7.733817">
        <ele>117.49</ele>
        <time>2013-10-25T02:28:06Z</time>
      </trkpt>
      <trkpt lat="42.452478" lon="-7.733806">
        <ele>117.99</ele>
        <time>2013-10-25T02:28:26Z</time>
      </trkpt>
      <trkpt lat="42.452746" lon="-7.733413">
        <ele>116.94</ele>
        <time>2013-10-25T02:28:46Z</time>
      </trkpt>
      <trkpt lat="42.452879" lon="-7.733237">
        <ele>116.94</ele>
        <time>2013-10-25T02:29:06Z</time>
      </trkpt>
      <trkpt lat="42.452987" lon="-7.733124">
        <ele>117.42</ele>
        <time>2013-10-25T02:29:26Z</time>
      </trkpt>
      <trkpt lat="42.453115" lon="-7.732958">
        <ele>117.47</ele>
        <time>2013-10-25T02:29:46Z</time>
      </trkpt>
      <trkpt lat="42.453332" lon="-7.732714">
        <ele>117.91</ele>
        <time>2013-10-25T02:30:06Z</time>
      </trkpt>
      <trkpt lat="42.453832" lon="-7.731973">
        <ele>117.41</ele>
        <time>2013-10-25T02:30:26Z</time>
      </trkpt>
      <trkpt lat="42.454032" lon="-7.731618">
        <ele>117.93</ele>
        <time>2013-10-25T02:30:46Z</time>
      </trkpt>
      <trkpt lat="42.454032" lon="-7.731620">
        <ele>118.47</ele>
        <time>2013-10-25T02:31:06Z</time>
      </trkpt>
      <trkpt lat="42.454172" lon="-7.731599">
        <ele>118.48</ele>
        <time>2013-10-25T02:31:26Z</time>
      </trkpt>
      <trkpt lat="42.454516" lon="-7.731640">
        <ele>119.00</ele>
        <time>2013-10-25T02:31:46Z</time>
      </trkpt>
      <trkpt lat="42.454706" lon="-7.731720">
        <ele>124.26</ele>
        <time>2013-10-25T02:32:06Z</time>
      </trkpt>
      <trkpt lat="42.454983" lon="-7.731955">
        <ele>126.17</ele>
        <time>2013-10-25T02:32:26Z</time>
      </trkpt>
      <trkpt lat="42.454946" lon="-7.731998">
        <ele>120.80</ele>
        <time>2013-10-25T02:32:46Z</time>
      </trkpt>
      <trkpt lat="42.454924" lon="-7.732009">
        <ele>121.86</ele>
        <time>2013-10-25T02:33:06Z</time>
      </trkpt>
      <trkpt lat="42.454901" lon="-7.732020">
        <ele>122.97</ele>
        <time>2013-10-25T02:33:26Z</time>
      </trkpt>
      <trkpt lat="42.454879" lon="-7.732031">
        <ele>124.11</ele>
        <time>2013-10-25T02:33:46Z</time>
      </trkpt>
      <trkpt lat="42.454861" lon="-7.732047">
        <ele>125.41</ele>
        <time>2013-10-25T02:34:06Z</time>
      </trkpt>
      <trkpt lat="42.454839" lon="-7.732058">
        <ele>126.74</ele>
        <time>2013-10-25T02:34:26Z</time>
      </trkpt>
      <trkpt lat="42.454821" lon="-7.732075">
        <ele>127.97</ele>
        <time>2013-10-25T02:34:46Z</time>
      </trkpt>
      <trkpt lat="42.454803" lon="-7.732092">
        <ele>129.19</ele>
        <time>2013-10-25T02:35:06Z</time>
      </trkpt>
      <trkpt lat="42.454785" lon="-7.732108">
        <ele>130.04</ele>
        <time>2013-10-25T02:35:26Z</time>
      </trkpt>
      <trkpt lat="42.454803" lon="-7.732125">
        <ele>130.33</ele>
        <time>2013-10-25T02:35:46Z</time>
      </trkpt>
      <trkpt lat="42.454821" lon="-7.732141">
        <ele>130.43</ele>
        <time>2013-10-25T02:36:06Z</time>
      </trkpt>
      <trkpt lat="42.454834" lon="-7.732164">
        <ele>130.64</ele>
        <time>2013-10-25T02:36:26Z</time>
      </trkpt>
      <trkpt lat="42.454839" lon="-7.732164">
        <ele>130.42</ele>
        <time>2013-10-25T02:36:46Z</time>
      </trkpt>
      <trkpt lat="42.454973" lon="-7.732479">
        <ele>132.68</ele>
        <time>2013-10-25T02:37:06Z</time>
      </trkpt>
      <trkpt lat="42.455018" lon="-7.732789">
        <ele>132.51</ele>
        <time>2013-10-25T02:37:26Z</time>
      </trkpt>
      <trkpt lat="42.454839" lon="-7.733143">
        <ele>135.41</ele>
        <time>2013-10-25T02:37:46Z</time>
      </trkpt>
      <trkpt lat="42.454807" lon="-7.733342">
        <ele>135.07</ele>
        <time>2013-10-25T02:38:06Z</time>
      </trkpt>
      <trkpt lat="42.454798" lon="-7.733613">
        <ele>135.08</ele>
        <time>2013-10-25T02:38:26Z</time>
      </trkpt>
      <trkpt lat="42.454915" lon="-7.734299">
        <ele>132.48</ele>
        <time>2013-10-25T02:38:46Z</time>
      </trkpt>
      <trkpt lat="42.454944" lon="-7.734703">
        <ele>131.15</ele>
        <time>2013-10-25T02:39:04.64Z</time>
      </trkpt>
    </trkseg>
  </trk>
</gpx>
